<?xml version="1.0" encoding="UTF-8" standalone="no" ?>
<gpx xmlns="http://www.topografix.com/GPX/1/1" xmlns:xsi="http://www.w3.org/2001/XMLSchema-instance" xsi:schemaLocation="http://www.topografix.com/GPX/1/1 http://www.topografix.com/GPX/1/1/gpx.xsd" version="1.1" creator="VisuGPX - https://www.visugpx.com">
  <metadata>
    <name>Vol paramoteur Longages St Elix Le Chateau</name>
    <desc><![CDATA[Vol paramoteur Longages St Elix Le Chateau]]></desc>
  </metadata>
  <trk>
    <name><![CDATA[11112602]]></name>
    <trkseg>
      <trkpt lat="43.35505" lon="1.22176">
        <ele>0.313</ele>
        <time>2011-11-26T15:45:52Z</time>
      </trkpt>
      <trkpt lat="43.35491" lon="1.22215">
        <ele>0.399</ele>
        <time>2011-11-26T15:45:55Z</time>
      </trkpt>
      <trkpt lat="43.35485" lon="1.22229">
        <ele>0.94</ele>
        <time>2011-11-26T15:45:56Z</time>
      </trkpt>
      <trkpt lat="43.35479" lon="1.22242">
        <ele>1.932</ele>
        <time>2011-11-26T15:45:57Z</time>
      </trkpt>
      <trkpt lat="43.35471" lon="1.22255">
        <ele>3.27</ele>
        <time>2011-11-26T15:45:58Z</time>
      </trkpt>
      <trkpt lat="43.35464" lon="1.22268">
        <ele>5.308</ele>
        <time>2011-11-26T15:45:59Z</time>
      </trkpt>
      <trkpt lat="43.35458" lon="1.22281">
        <ele>7.217</ele>
        <time>2011-11-26T15:46:00Z</time>
      </trkpt>
      <trkpt lat="43.35451" lon="1.22294">
        <ele>8.229</ele>
        <time>2011-11-26T15:46:01Z</time>
      </trkpt>
      <trkpt lat="43.35443" lon="1.22309">
        <ele>9.89</ele>
        <time>2011-11-26T15:46:02Z</time>
      </trkpt>
      <trkpt lat="43.35435" lon="1.22323">
        <ele>11.896</ele>
        <time>2011-11-26T15:46:03Z</time>
      </trkpt>
      <trkpt lat="43.35426" lon="1.22337">
        <ele>14.105</ele>
        <time>2011-11-26T15:46:04Z</time>
      </trkpt>
      <trkpt lat="43.35417" lon="1.22349">
        <ele>16.722</ele>
        <time>2011-11-26T15:46:05Z</time>
      </trkpt>
      <trkpt lat="43.3541" lon="1.22362">
        <ele>19.709</ele>
        <time>2011-11-26T15:46:06Z</time>
      </trkpt>
      <trkpt lat="43.35404" lon="1.22375">
        <ele>22.589</ele>
        <time>2011-11-26T15:46:07Z</time>
      </trkpt>
      <trkpt lat="43.35392" lon="1.22401">
        <ele>25.14</ele>
        <time>2011-11-26T15:46:09Z</time>
      </trkpt>
      <trkpt lat="43.35385" lon="1.22412">
        <ele>27.293</ele>
        <time>2011-11-26T15:46:10Z</time>
      </trkpt>
      <trkpt lat="43.35376" lon="1.22422">
        <ele>30.443</ele>
        <time>2011-11-26T15:46:11Z</time>
      </trkpt>
      <trkpt lat="43.35367" lon="1.22431">
        <ele>33.146</ele>
        <time>2011-11-26T15:46:12Z</time>
      </trkpt>
      <trkpt lat="43.35357" lon="1.22439">
        <ele>35.169</ele>
        <time>2011-11-26T15:46:13Z</time>
      </trkpt>
      <trkpt lat="43.35348" lon="1.22448">
        <ele>37.702</ele>
        <time>2011-11-26T15:46:14Z</time>
      </trkpt>
      <trkpt lat="43.35338" lon="1.22457">
        <ele>39.58</ele>
        <time>2011-11-26T15:46:15Z</time>
      </trkpt>
      <trkpt lat="43.35329" lon="1.22466">
        <ele>41.838</ele>
        <time>2011-11-26T15:46:16Z</time>
      </trkpt>
      <trkpt lat="43.35319" lon="1.22475">
        <ele>43.753</ele>
        <time>2011-11-26T15:46:17Z</time>
      </trkpt>
      <trkpt lat="43.3531" lon="1.22485">
        <ele>45.546</ele>
        <time>2011-11-26T15:46:18Z</time>
      </trkpt>
      <trkpt lat="43.35302" lon="1.22494">
        <ele>46.736</ele>
        <time>2011-11-26T15:46:19Z</time>
      </trkpt>
      <trkpt lat="43.35294" lon="1.22504">
        <ele>47.467</ele>
        <time>2011-11-26T15:46:20Z</time>
      </trkpt>
      <trkpt lat="43.35286" lon="1.22514">
        <ele>47.894</ele>
        <time>2011-11-26T15:46:21Z</time>
      </trkpt>
      <trkpt lat="43.35279" lon="1.22524">
        <ele>48.249</ele>
        <time>2011-11-26T15:46:22Z</time>
      </trkpt>
      <trkpt lat="43.35271" lon="1.22534">
        <ele>48.781</ele>
        <time>2011-11-26T15:46:23Z</time>
      </trkpt>
      <trkpt lat="43.35254" lon="1.22552">
        <ele>49.777</ele>
        <time>2011-11-26T15:46:25Z</time>
      </trkpt>
      <trkpt lat="43.35246" lon="1.2256">
        <ele>50.78</ele>
        <time>2011-11-26T15:46:26Z</time>
      </trkpt>
      <trkpt lat="43.35236" lon="1.22567">
        <ele>51.565</ele>
        <time>2011-11-26T15:46:27Z</time>
      </trkpt>
      <trkpt lat="43.35226" lon="1.22574">
        <ele>52.223</ele>
        <time>2011-11-26T15:46:28Z</time>
      </trkpt>
      <trkpt lat="43.35216" lon="1.22579">
        <ele>52.991</ele>
        <time>2011-11-26T15:46:29Z</time>
      </trkpt>
      <trkpt lat="43.35206" lon="1.22583">
        <ele>53.722</ele>
        <time>2011-11-26T15:46:30Z</time>
      </trkpt>
      <trkpt lat="43.35196" lon="1.22587">
        <ele>54.788</ele>
        <time>2011-11-26T15:46:31Z</time>
      </trkpt>
      <trkpt lat="43.35186" lon="1.22591">
        <ele>55.913</ele>
        <time>2011-11-26T15:46:32Z</time>
      </trkpt>
      <trkpt lat="43.35175" lon="1.22595">
        <ele>56.427</ele>
        <time>2011-11-26T15:46:33Z</time>
      </trkpt>
      <trkpt lat="43.35164" lon="1.22597">
        <ele>56.841</ele>
        <time>2011-11-26T15:46:34Z</time>
      </trkpt>
      <trkpt lat="43.35153" lon="1.22599">
        <ele>57.464</ele>
        <time>2011-11-26T15:46:35Z</time>
      </trkpt>
      <trkpt lat="43.35141" lon="1.226">
        <ele>58.206</ele>
        <time>2011-11-26T15:46:36Z</time>
      </trkpt>
      <trkpt lat="43.3513" lon="1.22599">
        <ele>59.257</ele>
        <time>2011-11-26T15:46:37Z</time>
      </trkpt>
      <trkpt lat="43.3512" lon="1.22597">
        <ele>61.382</ele>
        <time>2011-11-26T15:46:38Z</time>
      </trkpt>
      <trkpt lat="43.351" lon="1.2259">
        <ele>63.169</ele>
        <time>2011-11-26T15:46:40Z</time>
      </trkpt>
      <trkpt lat="43.3509" lon="1.22586">
        <ele>64.722</ele>
        <time>2011-11-26T15:46:41Z</time>
      </trkpt>
      <trkpt lat="43.3509" lon="1.22586">
        <ele>65.861</ele>
        <time>2011-11-26T15:46:41Z</time>
      </trkpt>
      <trkpt lat="43.35069" lon="1.22576">
        <ele>66.724</ele>
        <time>2011-11-26T15:46:43Z</time>
      </trkpt>
      <trkpt lat="43.35059" lon="1.22572">
        <ele>67.84</ele>
        <time>2011-11-26T15:46:44Z</time>
      </trkpt>
      <trkpt lat="43.35049" lon="1.22569">
        <ele>68.876</ele>
        <time>2011-11-26T15:46:45Z</time>
      </trkpt>
      <trkpt lat="43.3504" lon="1.22565">
        <ele>68.287</ele>
        <time>2011-11-26T15:46:46Z</time>
      </trkpt>
      <trkpt lat="43.3503" lon="1.22561">
        <ele>65.944</ele>
        <time>2011-11-26T15:46:47Z</time>
      </trkpt>
      <trkpt lat="43.35021" lon="1.22554">
        <ele>62.19</ele>
        <time>2011-11-26T15:46:48Z</time>
      </trkpt>
      <trkpt lat="43.3501" lon="1.22545">
        <ele>58.338</ele>
        <time>2011-11-26T15:46:49Z</time>
      </trkpt>
      <trkpt lat="43.34999" lon="1.22536">
        <ele>55.714</ele>
        <time>2011-11-26T15:46:50Z</time>
      </trkpt>
      <trkpt lat="43.34988" lon="1.22528">
        <ele>54.38</ele>
        <time>2011-11-26T15:46:51Z</time>
      </trkpt>
      <trkpt lat="43.34977" lon="1.22521">
        <ele>54.492</ele>
        <time>2011-11-26T15:46:52Z</time>
      </trkpt>
      <trkpt lat="43.34977" lon="1.22521">
        <ele>54.991</ele>
        <time>2011-11-26T15:46:52Z</time>
      </trkpt>
      <trkpt lat="43.34958" lon="1.2251">
        <ele>55.087</ele>
        <time>2011-11-26T15:46:54Z</time>
      </trkpt>
      <trkpt lat="43.34941" lon="1.22498">
        <ele>54.073</ele>
        <time>2011-11-26T15:46:56Z</time>
      </trkpt>
      <trkpt lat="43.34941" lon="1.22498">
        <ele>51.91</ele>
        <time>2011-11-26T15:46:56Z</time>
      </trkpt>
      <trkpt lat="43.34921" lon="1.22486">
        <ele>48.894</ele>
        <time>2011-11-26T15:46:58Z</time>
      </trkpt>
      <trkpt lat="43.3491" lon="1.22482">
        <ele>46.677</ele>
        <time>2011-11-26T15:46:59Z</time>
      </trkpt>
      <trkpt lat="43.34898" lon="1.22478">
        <ele>44.618</ele>
        <time>2011-11-26T15:47:00Z</time>
      </trkpt>
      <trkpt lat="43.34887" lon="1.22473">
        <ele>43.138</ele>
        <time>2011-11-26T15:47:01Z</time>
      </trkpt>
      <trkpt lat="43.34876" lon="1.22468">
        <ele>42.583</ele>
        <time>2011-11-26T15:47:02Z</time>
      </trkpt>
      <trkpt lat="43.34866" lon="1.22462">
        <ele>41.882</ele>
        <time>2011-11-26T15:47:03Z</time>
      </trkpt>
      <trkpt lat="43.34856" lon="1.22456">
        <ele>41.544</ele>
        <time>2011-11-26T15:47:04Z</time>
      </trkpt>
      <trkpt lat="43.34846" lon="1.2245">
        <ele>41.542</ele>
        <time>2011-11-26T15:47:05Z</time>
      </trkpt>
      <trkpt lat="43.34835" lon="1.22445">
        <ele>41.983</ele>
        <time>2011-11-26T15:47:06Z</time>
      </trkpt>
      <trkpt lat="43.34825" lon="1.22441">
        <ele>43.119</ele>
        <time>2011-11-26T15:47:07Z</time>
      </trkpt>
      <trkpt lat="43.34815" lon="1.22438">
        <ele>44.28</ele>
        <time>2011-11-26T15:47:08Z</time>
      </trkpt>
      <trkpt lat="43.34804" lon="1.22436">
        <ele>45.115</ele>
        <time>2011-11-26T15:47:09Z</time>
      </trkpt>
      <trkpt lat="43.34794" lon="1.22433">
        <ele>45.525</ele>
        <time>2011-11-26T15:47:10Z</time>
      </trkpt>
      <trkpt lat="43.34784" lon="1.22429">
        <ele>45.594</ele>
        <time>2011-11-26T15:47:11Z</time>
      </trkpt>
      <trkpt lat="43.34774" lon="1.22422">
        <ele>45.739</ele>
        <time>2011-11-26T15:47:12Z</time>
      </trkpt>
      <trkpt lat="43.34755" lon="1.22401">
        <ele>46.364</ele>
        <time>2011-11-26T15:47:14Z</time>
      </trkpt>
      <trkpt lat="43.34748" lon="1.2239">
        <ele>47.485</ele>
        <time>2011-11-26T15:47:15Z</time>
      </trkpt>
      <trkpt lat="43.3474" lon="1.22379">
        <ele>49.317</ele>
        <time>2011-11-26T15:47:16Z</time>
      </trkpt>
      <trkpt lat="43.34733" lon="1.22367">
        <ele>50.812</ele>
        <time>2011-11-26T15:47:17Z</time>
      </trkpt>
      <trkpt lat="43.34726" lon="1.22355">
        <ele>51.946</ele>
        <time>2011-11-26T15:47:18Z</time>
      </trkpt>
      <trkpt lat="43.34722" lon="1.22341">
        <ele>52.897</ele>
        <time>2011-11-26T15:47:19Z</time>
      </trkpt>
      <trkpt lat="43.34717" lon="1.22327">
        <ele>53.677</ele>
        <time>2011-11-26T15:47:20Z</time>
      </trkpt>
      <trkpt lat="43.34714" lon="1.22313">
        <ele>54.106</ele>
        <time>2011-11-26T15:47:21Z</time>
      </trkpt>
      <trkpt lat="43.34711" lon="1.22298">
        <ele>54.485</ele>
        <time>2011-11-26T15:47:22Z</time>
      </trkpt>
      <trkpt lat="43.34707" lon="1.22283">
        <ele>55.125</ele>
        <time>2011-11-26T15:47:23Z</time>
      </trkpt>
      <trkpt lat="43.34704" lon="1.22268">
        <ele>55.607</ele>
        <time>2011-11-26T15:47:24Z</time>
      </trkpt>
      <trkpt lat="43.34702" lon="1.22253">
        <ele>56.613</ele>
        <time>2011-11-26T15:47:25Z</time>
      </trkpt>
      <trkpt lat="43.347" lon="1.22237">
        <ele>57.881</ele>
        <time>2011-11-26T15:47:26Z</time>
      </trkpt>
      <trkpt lat="43.347" lon="1.22237">
        <ele>58.92</ele>
        <time>2011-11-26T15:47:26Z</time>
      </trkpt>
      <trkpt lat="43.34693" lon="1.22193">
        <ele>60.782</ele>
        <time>2011-11-26T15:47:29Z</time>
      </trkpt>
      <trkpt lat="43.34681" lon="1.22133">
        <ele>67.665</ele>
        <time>2011-11-26T15:47:33Z</time>
      </trkpt>
      <trkpt lat="43.3468" lon="1.22117">
        <ele>69.144</ele>
        <time>2011-11-26T15:47:34Z</time>
      </trkpt>
      <trkpt lat="43.34677" lon="1.22101">
        <ele>70.587</ele>
        <time>2011-11-26T15:47:35Z</time>
      </trkpt>
      <trkpt lat="43.34675" lon="1.22086">
        <ele>71.737</ele>
        <time>2011-11-26T15:47:36Z</time>
      </trkpt>
      <trkpt lat="43.34672" lon="1.2207">
        <ele>72.88</ele>
        <time>2011-11-26T15:47:37Z</time>
      </trkpt>
      <trkpt lat="43.3467" lon="1.22055">
        <ele>73.996</ele>
        <time>2011-11-26T15:47:38Z</time>
      </trkpt>
      <trkpt lat="43.34668" lon="1.22039">
        <ele>74.93</ele>
        <time>2011-11-26T15:47:39Z</time>
      </trkpt>
      <trkpt lat="43.34667" lon="1.22024">
        <ele>75.738</ele>
        <time>2011-11-26T15:47:40Z</time>
      </trkpt>
      <trkpt lat="43.34665" lon="1.22009">
        <ele>76.847</ele>
        <time>2011-11-26T15:47:41Z</time>
      </trkpt>
      <trkpt lat="43.34662" lon="1.21994">
        <ele>77.535</ele>
        <time>2011-11-26T15:47:42Z</time>
      </trkpt>
      <trkpt lat="43.3466" lon="1.2198">
        <ele>77.847</ele>
        <time>2011-11-26T15:47:43Z</time>
      </trkpt>
      <trkpt lat="43.34658" lon="1.21966">
        <ele>77.411</ele>
        <time>2011-11-26T15:47:44Z</time>
      </trkpt>
      <trkpt lat="43.34656" lon="1.21951">
        <ele>76.638</ele>
        <time>2011-11-26T15:47:45Z</time>
      </trkpt>
      <trkpt lat="43.34654" lon="1.21935">
        <ele>75.97</ele>
        <time>2011-11-26T15:47:46Z</time>
      </trkpt>
      <trkpt lat="43.34652" lon="1.21919">
        <ele>75.61</ele>
        <time>2011-11-26T15:47:47Z</time>
      </trkpt>
      <trkpt lat="43.34652" lon="1.21889">
        <ele>75.677</ele>
        <time>2011-11-26T15:47:49Z</time>
      </trkpt>
      <trkpt lat="43.34656" lon="1.21876">
        <ele>75.79</ele>
        <time>2011-11-26T15:47:50Z</time>
      </trkpt>
      <trkpt lat="43.34662" lon="1.21864">
        <ele>75.688</ele>
        <time>2011-11-26T15:47:51Z</time>
      </trkpt>
      <trkpt lat="43.3467" lon="1.21853">
        <ele>75.39</ele>
        <time>2011-11-26T15:47:52Z</time>
      </trkpt>
      <trkpt lat="43.34678" lon="1.21844">
        <ele>75.354</ele>
        <time>2011-11-26T15:47:53Z</time>
      </trkpt>
      <trkpt lat="43.34686" lon="1.21837">
        <ele>75.381</ele>
        <time>2011-11-26T15:47:54Z</time>
      </trkpt>
      <trkpt lat="43.34696" lon="1.21833">
        <ele>75.151</ele>
        <time>2011-11-26T15:47:55Z</time>
      </trkpt>
      <trkpt lat="43.34705" lon="1.21831">
        <ele>74.101</ele>
        <time>2011-11-26T15:47:56Z</time>
      </trkpt>
      <trkpt lat="43.34716" lon="1.2183">
        <ele>72.695</ele>
        <time>2011-11-26T15:47:57Z</time>
      </trkpt>
      <trkpt lat="43.34726" lon="1.21827">
        <ele>70.88</ele>
        <time>2011-11-26T15:47:58Z</time>
      </trkpt>
      <trkpt lat="43.34726" lon="1.21827">
        <ele>69.929</ele>
        <time>2011-11-26T15:47:58Z</time>
      </trkpt>
      <trkpt lat="43.34746" lon="1.21817">
        <ele>69.087</ele>
        <time>2011-11-26T15:48:00Z</time>
      </trkpt>
      <trkpt lat="43.34756" lon="1.2181">
        <ele>68.618</ele>
        <time>2011-11-26T15:48:01Z</time>
      </trkpt>
      <trkpt lat="43.34766" lon="1.21805">
        <ele>68.383</ele>
        <time>2011-11-26T15:48:02Z</time>
      </trkpt>
      <trkpt lat="43.34785" lon="1.21794">
        <ele>67.833</ele>
        <time>2011-11-26T15:48:04Z</time>
      </trkpt>
      <trkpt lat="43.34795" lon="1.21787">
        <ele>67.098</ele>
        <time>2011-11-26T15:48:05Z</time>
      </trkpt>
      <trkpt lat="43.34804" lon="1.21779">
        <ele>66.594</ele>
        <time>2011-11-26T15:48:06Z</time>
      </trkpt>
      <trkpt lat="43.34814" lon="1.2177">
        <ele>66.934</ele>
        <time>2011-11-26T15:48:07Z</time>
      </trkpt>
      <trkpt lat="43.34823" lon="1.21761">
        <ele>67.834</ele>
        <time>2011-11-26T15:48:08Z</time>
      </trkpt>
      <trkpt lat="43.34833" lon="1.21753">
        <ele>69.32</ele>
        <time>2011-11-26T15:48:09Z</time>
      </trkpt>
      <trkpt lat="43.34843" lon="1.21746">
        <ele>71.336</ele>
        <time>2011-11-26T15:48:10Z</time>
      </trkpt>
      <trkpt lat="43.34853" lon="1.2174">
        <ele>73.026</ele>
        <time>2011-11-26T15:48:11Z</time>
      </trkpt>
      <trkpt lat="43.34863" lon="1.21732">
        <ele>74.117</ele>
        <time>2011-11-26T15:48:12Z</time>
      </trkpt>
      <trkpt lat="43.34873" lon="1.21724">
        <ele>74.931</ele>
        <time>2011-11-26T15:48:13Z</time>
      </trkpt>
      <trkpt lat="43.34882" lon="1.21715">
        <ele>75.628</ele>
        <time>2011-11-26T15:48:14Z</time>
      </trkpt>
      <trkpt lat="43.34891" lon="1.21706">
        <ele>76.33</ele>
        <time>2011-11-26T15:48:15Z</time>
      </trkpt>
      <trkpt lat="43.349" lon="1.21697">
        <ele>76.476</ele>
        <time>2011-11-26T15:48:16Z</time>
      </trkpt>
      <trkpt lat="43.3491" lon="1.21689">
        <ele>76.264</ele>
        <time>2011-11-26T15:48:17Z</time>
      </trkpt>
      <trkpt lat="43.3493" lon="1.21673">
        <ele>75.928</ele>
        <time>2011-11-26T15:48:19Z</time>
      </trkpt>
      <trkpt lat="43.3494" lon="1.21666">
        <ele>76.153</ele>
        <time>2011-11-26T15:48:20Z</time>
      </trkpt>
      <trkpt lat="43.3495" lon="1.21658">
        <ele>77.112</ele>
        <time>2011-11-26T15:48:21Z</time>
      </trkpt>
      <trkpt lat="43.34959" lon="1.21651">
        <ele>78.03</ele>
        <time>2011-11-26T15:48:22Z</time>
      </trkpt>
      <trkpt lat="43.34969" lon="1.21645">
        <ele>78.804</ele>
        <time>2011-11-26T15:48:23Z</time>
      </trkpt>
      <trkpt lat="43.34978" lon="1.21638">
        <ele>78.946</ele>
        <time>2011-11-26T15:48:24Z</time>
      </trkpt>
      <trkpt lat="43.34988" lon="1.2163">
        <ele>78.401</ele>
        <time>2011-11-26T15:48:25Z</time>
      </trkpt>
      <trkpt lat="43.34998" lon="1.21621">
        <ele>77.822</ele>
        <time>2011-11-26T15:48:26Z</time>
      </trkpt>
      <trkpt lat="43.35007" lon="1.21613">
        <ele>77.542</ele>
        <time>2011-11-26T15:48:27Z</time>
      </trkpt>
      <trkpt lat="43.35017" lon="1.21605">
        <ele>77.37</ele>
        <time>2011-11-26T15:48:28Z</time>
      </trkpt>
      <trkpt lat="43.35027" lon="1.216">
        <ele>77.542</ele>
        <time>2011-11-26T15:48:29Z</time>
      </trkpt>
      <trkpt lat="43.35036" lon="1.21598">
        <ele>77.673</ele>
        <time>2011-11-26T15:48:30Z</time>
      </trkpt>
      <trkpt lat="43.35045" lon="1.216">
        <ele>77.12</ele>
        <time>2011-11-26T15:48:31Z</time>
      </trkpt>
      <trkpt lat="43.35054" lon="1.21605">
        <ele>75.919</ele>
        <time>2011-11-26T15:48:32Z</time>
      </trkpt>
      <trkpt lat="43.35061" lon="1.21613">
        <ele>73.729</ele>
        <time>2011-11-26T15:48:33Z</time>
      </trkpt>
      <trkpt lat="43.35068" lon="1.21624">
        <ele>71.679</ele>
        <time>2011-11-26T15:48:34Z</time>
      </trkpt>
      <trkpt lat="43.35074" lon="1.21637">
        <ele>69.956</ele>
        <time>2011-11-26T15:48:35Z</time>
      </trkpt>
      <trkpt lat="43.35077" lon="1.21652">
        <ele>68.631</ele>
        <time>2011-11-26T15:48:36Z</time>
      </trkpt>
      <trkpt lat="43.35081" lon="1.21684">
        <ele>68.233</ele>
        <time>2011-11-26T15:48:38Z</time>
      </trkpt>
      <trkpt lat="43.35082" lon="1.21699">
        <ele>68.565</ele>
        <time>2011-11-26T15:48:39Z</time>
      </trkpt>
      <trkpt lat="43.35083" lon="1.21714">
        <ele>69.293</ele>
        <time>2011-11-26T15:48:40Z</time>
      </trkpt>
      <trkpt lat="43.35083" lon="1.21728">
        <ele>69.767</ele>
        <time>2011-11-26T15:48:41Z</time>
      </trkpt>
      <trkpt lat="43.35083" lon="1.21742">
        <ele>69.312</ele>
        <time>2011-11-26T15:48:42Z</time>
      </trkpt>
      <trkpt lat="43.35081" lon="1.21757">
        <ele>68.238</ele>
        <time>2011-11-26T15:48:43Z</time>
      </trkpt>
      <trkpt lat="43.3508" lon="1.21772">
        <ele>66.651</ele>
        <time>2011-11-26T15:48:44Z</time>
      </trkpt>
      <trkpt lat="43.35079" lon="1.21787">
        <ele>65.408</ele>
        <time>2011-11-26T15:48:45Z</time>
      </trkpt>
      <trkpt lat="43.35078" lon="1.21802">
        <ele>64.443</ele>
        <time>2011-11-26T15:48:46Z</time>
      </trkpt>
      <trkpt lat="43.35078" lon="1.21816">
        <ele>63.498</ele>
        <time>2011-11-26T15:48:47Z</time>
      </trkpt>
      <trkpt lat="43.35078" lon="1.2183">
        <ele>62.457</ele>
        <time>2011-11-26T15:48:48Z</time>
      </trkpt>
      <trkpt lat="43.35077" lon="1.21845">
        <ele>61.394</ele>
        <time>2011-11-26T15:48:49Z</time>
      </trkpt>
      <trkpt lat="43.35076" lon="1.21859">
        <ele>59.851</ele>
        <time>2011-11-26T15:48:50Z</time>
      </trkpt>
      <trkpt lat="43.35075" lon="1.21874">
        <ele>58.153</ele>
        <time>2011-11-26T15:48:51Z</time>
      </trkpt>
      <trkpt lat="43.35074" lon="1.21904">
        <ele>56.7</ele>
        <time>2011-11-26T15:48:53Z</time>
      </trkpt>
      <trkpt lat="43.35072" lon="1.21919">
        <ele>55.373</ele>
        <time>2011-11-26T15:48:54Z</time>
      </trkpt>
      <trkpt lat="43.3507" lon="1.21934">
        <ele>53.637</ele>
        <time>2011-11-26T15:48:55Z</time>
      </trkpt>
      <trkpt lat="43.35068" lon="1.21949">
        <ele>52.829</ele>
        <time>2011-11-26T15:48:56Z</time>
      </trkpt>
      <trkpt lat="43.35065" lon="1.21964">
        <ele>51.895</ele>
        <time>2011-11-26T15:48:57Z</time>
      </trkpt>
      <trkpt lat="43.35063" lon="1.21978">
        <ele>51.342</ele>
        <time>2011-11-26T15:48:58Z</time>
      </trkpt>
      <trkpt lat="43.3506" lon="1.21992">
        <ele>50.718</ele>
        <time>2011-11-26T15:48:59Z</time>
      </trkpt>
      <trkpt lat="43.35057" lon="1.22006">
        <ele>49.715</ele>
        <time>2011-11-26T15:49:00Z</time>
      </trkpt>
      <trkpt lat="43.35053" lon="1.2202">
        <ele>48.921</ele>
        <time>2011-11-26T15:49:01Z</time>
      </trkpt>
      <trkpt lat="43.35049" lon="1.22035">
        <ele>48.354</ele>
        <time>2011-11-26T15:49:02Z</time>
      </trkpt>
      <trkpt lat="43.35046" lon="1.2205">
        <ele>48.517</ele>
        <time>2011-11-26T15:49:03Z</time>
      </trkpt>
      <trkpt lat="43.35043" lon="1.22065">
        <ele>49.067</ele>
        <time>2011-11-26T15:49:04Z</time>
      </trkpt>
      <trkpt lat="43.3504" lon="1.22079">
        <ele>49.692</ele>
        <time>2011-11-26T15:49:05Z</time>
      </trkpt>
      <trkpt lat="43.35037" lon="1.22093">
        <ele>50.158</ele>
        <time>2011-11-26T15:49:06Z</time>
      </trkpt>
      <trkpt lat="43.35033" lon="1.22107">
        <ele>50.141</ele>
        <time>2011-11-26T15:49:07Z</time>
      </trkpt>
      <trkpt lat="43.35027" lon="1.22138">
        <ele>49.886</ele>
        <time>2011-11-26T15:49:09Z</time>
      </trkpt>
      <trkpt lat="43.35025" lon="1.22153">
        <ele>49.58</ele>
        <time>2011-11-26T15:49:10Z</time>
      </trkpt>
      <trkpt lat="43.35022" lon="1.22169">
        <ele>49.649</ele>
        <time>2011-11-26T15:49:11Z</time>
      </trkpt>
      <trkpt lat="43.35019" lon="1.22185">
        <ele>50.107</ele>
        <time>2011-11-26T15:49:12Z</time>
      </trkpt>
      <trkpt lat="43.35016" lon="1.22201">
        <ele>50.538</ele>
        <time>2011-11-26T15:49:13Z</time>
      </trkpt>
      <trkpt lat="43.35014" lon="1.22216">
        <ele>51.145</ele>
        <time>2011-11-26T15:49:14Z</time>
      </trkpt>
      <trkpt lat="43.35011" lon="1.22231">
        <ele>51.754</ele>
        <time>2011-11-26T15:49:15Z</time>
      </trkpt>
      <trkpt lat="43.35009" lon="1.22244">
        <ele>52.682</ele>
        <time>2011-11-26T15:49:16Z</time>
      </trkpt>
      <trkpt lat="43.35005" lon="1.22259">
        <ele>53.371</ele>
        <time>2011-11-26T15:49:17Z</time>
      </trkpt>
      <trkpt lat="43.35001" lon="1.22273">
        <ele>53.991</ele>
        <time>2011-11-26T15:49:18Z</time>
      </trkpt>
      <trkpt lat="43.34997" lon="1.22288">
        <ele>54.658</ele>
        <time>2011-11-26T15:49:19Z</time>
      </trkpt>
      <trkpt lat="43.34994" lon="1.22302">
        <ele>55.46</ele>
        <time>2011-11-26T15:49:20Z</time>
      </trkpt>
      <trkpt lat="43.3499" lon="1.22317">
        <ele>56.312</ele>
        <time>2011-11-26T15:49:21Z</time>
      </trkpt>
      <trkpt lat="43.34985" lon="1.22331">
        <ele>56.797</ele>
        <time>2011-11-26T15:49:22Z</time>
      </trkpt>
      <trkpt lat="43.3498" lon="1.22345">
        <ele>57.085</ele>
        <time>2011-11-26T15:49:23Z</time>
      </trkpt>
      <trkpt lat="43.34974" lon="1.22359">
        <ele>57.139</ele>
        <time>2011-11-26T15:49:24Z</time>
      </trkpt>
      <trkpt lat="43.34969" lon="1.22374">
        <ele>57.18</ele>
        <time>2011-11-26T15:49:25Z</time>
      </trkpt>
      <trkpt lat="43.34963" lon="1.22389">
        <ele>57.38</ele>
        <time>2011-11-26T15:49:26Z</time>
      </trkpt>
      <trkpt lat="43.34954" lon="1.22417">
        <ele>57.715</ele>
        <time>2011-11-26T15:49:28Z</time>
      </trkpt>
      <trkpt lat="43.34948" lon="1.2243">
        <ele>58.139</ele>
        <time>2011-11-26T15:49:29Z</time>
      </trkpt>
      <trkpt lat="43.34943" lon="1.22444">
        <ele>58.521</ele>
        <time>2011-11-26T15:49:30Z</time>
      </trkpt>
      <trkpt lat="43.34939" lon="1.22458">
        <ele>59.144</ele>
        <time>2011-11-26T15:49:31Z</time>
      </trkpt>
      <trkpt lat="43.34938" lon="1.22472">
        <ele>59.37</ele>
        <time>2011-11-26T15:49:32Z</time>
      </trkpt>
      <trkpt lat="43.34941" lon="1.22487">
        <ele>59.475</ele>
        <time>2011-11-26T15:49:33Z</time>
      </trkpt>
      <trkpt lat="43.34946" lon="1.225">
        <ele>59.853</ele>
        <time>2011-11-26T15:49:34Z</time>
      </trkpt>
      <trkpt lat="43.34954" lon="1.22511">
        <ele>59.988</ele>
        <time>2011-11-26T15:49:35Z</time>
      </trkpt>
      <trkpt lat="43.34964" lon="1.22519">
        <ele>60.364</ele>
        <time>2011-11-26T15:49:36Z</time>
      </trkpt>
      <trkpt lat="43.34974" lon="1.22525">
        <ele>60.922</ele>
        <time>2011-11-26T15:49:37Z</time>
      </trkpt>
      <trkpt lat="43.34985" lon="1.22529">
        <ele>61.552</ele>
        <time>2011-11-26T15:49:38Z</time>
      </trkpt>
      <trkpt lat="43.34996" lon="1.22533">
        <ele>62.354</ele>
        <time>2011-11-26T15:49:39Z</time>
      </trkpt>
      <trkpt lat="43.35007" lon="1.22537">
        <ele>62.86</ele>
        <time>2011-11-26T15:49:40Z</time>
      </trkpt>
      <trkpt lat="43.35018" lon="1.22539">
        <ele>63.039</ele>
        <time>2011-11-26T15:49:41Z</time>
      </trkpt>
      <trkpt lat="43.3504" lon="1.22538">
        <ele>62.887</ele>
        <time>2011-11-26T15:49:43Z</time>
      </trkpt>
      <trkpt lat="43.35051" lon="1.22534">
        <ele>62.5</ele>
        <time>2011-11-26T15:49:44Z</time>
      </trkpt>
      <trkpt lat="43.35061" lon="1.2253">
        <ele>62.501</ele>
        <time>2011-11-26T15:49:45Z</time>
      </trkpt>
      <trkpt lat="43.35072" lon="1.22526">
        <ele>62.735</ele>
        <time>2011-11-26T15:49:46Z</time>
      </trkpt>
      <trkpt lat="43.35082" lon="1.22521">
        <ele>63.075</ele>
        <time>2011-11-26T15:49:47Z</time>
      </trkpt>
      <trkpt lat="43.35092" lon="1.22514">
        <ele>63.358</ele>
        <time>2011-11-26T15:49:48Z</time>
      </trkpt>
      <trkpt lat="43.35102" lon="1.22507">
        <ele>63.641</ele>
        <time>2011-11-26T15:49:49Z</time>
      </trkpt>
      <trkpt lat="43.35112" lon="1.22498">
        <ele>64.36</ele>
        <time>2011-11-26T15:49:50Z</time>
      </trkpt>
      <trkpt lat="43.35121" lon="1.2249">
        <ele>65.293</ele>
        <time>2011-11-26T15:49:51Z</time>
      </trkpt>
      <trkpt lat="43.3513" lon="1.22483">
        <ele>66.437</ele>
        <time>2011-11-26T15:49:52Z</time>
      </trkpt>
      <trkpt lat="43.3513" lon="1.22483">
        <ele>66.904</ele>
        <time>2011-11-26T15:49:52Z</time>
      </trkpt>
      <trkpt lat="43.35149" lon="1.22468">
        <ele>66.667</ele>
        <time>2011-11-26T15:49:54Z</time>
      </trkpt>
      <trkpt lat="43.35158" lon="1.2246">
        <ele>65.668</ele>
        <time>2011-11-26T15:49:55Z</time>
      </trkpt>
      <trkpt lat="43.35167" lon="1.2245">
        <ele>65.001</ele>
        <time>2011-11-26T15:49:56Z</time>
      </trkpt>
      <trkpt lat="43.35176" lon="1.2244">
        <ele>65.313</ele>
        <time>2011-11-26T15:49:57Z</time>
      </trkpt>
      <trkpt lat="43.3519" lon="1.2242">
        <ele>66.227</ele>
        <time>2011-11-26T15:49:59Z</time>
      </trkpt>
      <trkpt lat="43.35196" lon="1.22408">
        <ele>67.022</ele>
        <time>2011-11-26T15:50:00Z</time>
      </trkpt>
      <trkpt lat="43.352" lon="1.22395">
        <ele>67.384</ele>
        <time>2011-11-26T15:50:01Z</time>
      </trkpt>
      <trkpt lat="43.35204" lon="1.2238">
        <ele>67.346</ele>
        <time>2011-11-26T15:50:02Z</time>
      </trkpt>
      <trkpt lat="43.35207" lon="1.22366">
        <ele>67.307</ele>
        <time>2011-11-26T15:50:03Z</time>
      </trkpt>
      <trkpt lat="43.3521" lon="1.22351">
        <ele>67.224</ele>
        <time>2011-11-26T15:50:04Z</time>
      </trkpt>
      <trkpt lat="43.35212" lon="1.22336">
        <ele>66.953</ele>
        <time>2011-11-26T15:50:05Z</time>
      </trkpt>
      <trkpt lat="43.35212" lon="1.2232">
        <ele>66.942</ele>
        <time>2011-11-26T15:50:06Z</time>
      </trkpt>
      <trkpt lat="43.35211" lon="1.22304">
        <ele>66.845</ele>
        <time>2011-11-26T15:50:07Z</time>
      </trkpt>
      <trkpt lat="43.35209" lon="1.22289">
        <ele>67.392</ele>
        <time>2011-11-26T15:50:08Z</time>
      </trkpt>
      <trkpt lat="43.35208" lon="1.22273">
        <ele>68.736</ele>
        <time>2011-11-26T15:50:09Z</time>
      </trkpt>
      <trkpt lat="43.35207" lon="1.22258">
        <ele>69.583</ele>
        <time>2011-11-26T15:50:10Z</time>
      </trkpt>
      <trkpt lat="43.35205" lon="1.22244">
        <ele>70.269</ele>
        <time>2011-11-26T15:50:11Z</time>
      </trkpt>
      <trkpt lat="43.35201" lon="1.22215">
        <ele>70.361</ele>
        <time>2011-11-26T15:50:13Z</time>
      </trkpt>
      <trkpt lat="43.352" lon="1.22199">
        <ele>70.113</ele>
        <time>2011-11-26T15:50:14Z</time>
      </trkpt>
      <trkpt lat="43.35199" lon="1.22184">
        <ele>69.734</ele>
        <time>2011-11-26T15:50:15Z</time>
      </trkpt>
      <trkpt lat="43.35198" lon="1.22168">
        <ele>69.53</ele>
        <time>2011-11-26T15:50:16Z</time>
      </trkpt>
      <trkpt lat="43.35199" lon="1.22153">
        <ele>69.752</ele>
        <time>2011-11-26T15:50:17Z</time>
      </trkpt>
      <trkpt lat="43.35198" lon="1.22138">
        <ele>70.277</ele>
        <time>2011-11-26T15:50:18Z</time>
      </trkpt>
      <trkpt lat="43.35198" lon="1.22123">
        <ele>70.757</ele>
        <time>2011-11-26T15:50:19Z</time>
      </trkpt>
      <trkpt lat="43.35197" lon="1.22108">
        <ele>71.472</ele>
        <time>2011-11-26T15:50:20Z</time>
      </trkpt>
      <trkpt lat="43.35196" lon="1.22093">
        <ele>71.852</ele>
        <time>2011-11-26T15:50:21Z</time>
      </trkpt>
      <trkpt lat="43.35197" lon="1.22078">
        <ele>71.877</ele>
        <time>2011-11-26T15:50:22Z</time>
      </trkpt>
      <trkpt lat="43.35198" lon="1.22062">
        <ele>71.966</ele>
        <time>2011-11-26T15:50:23Z</time>
      </trkpt>
      <trkpt lat="43.352" lon="1.22047">
        <ele>72.382</ele>
        <time>2011-11-26T15:50:24Z</time>
      </trkpt>
      <trkpt lat="43.35203" lon="1.22031">
        <ele>73.071</ele>
        <time>2011-11-26T15:50:25Z</time>
      </trkpt>
      <trkpt lat="43.35207" lon="1.22017">
        <ele>74.045</ele>
        <time>2011-11-26T15:50:26Z</time>
      </trkpt>
      <trkpt lat="43.35217" lon="1.21991">
        <ele>75.195</ele>
        <time>2011-11-26T15:50:28Z</time>
      </trkpt>
      <trkpt lat="43.35225" lon="1.21981">
        <ele>75.88</ele>
        <time>2011-11-26T15:50:29Z</time>
      </trkpt>
      <trkpt lat="43.35233" lon="1.21971">
        <ele>76.401</ele>
        <time>2011-11-26T15:50:30Z</time>
      </trkpt>
      <trkpt lat="43.35242" lon="1.21965">
        <ele>76.91</ele>
        <time>2011-11-26T15:50:31Z</time>
      </trkpt>
      <trkpt lat="43.35253" lon="1.21961">
        <ele>77.339</ele>
        <time>2011-11-26T15:50:32Z</time>
      </trkpt>
      <trkpt lat="43.35263" lon="1.21961">
        <ele>77.781</ele>
        <time>2011-11-26T15:50:33Z</time>
      </trkpt>
      <trkpt lat="43.35274" lon="1.21965">
        <ele>78.347</ele>
        <time>2011-11-26T15:50:34Z</time>
      </trkpt>
      <trkpt lat="43.35283" lon="1.21971">
        <ele>79.102</ele>
        <time>2011-11-26T15:50:35Z</time>
      </trkpt>
      <trkpt lat="43.35291" lon="1.21979">
        <ele>80.135</ele>
        <time>2011-11-26T15:50:36Z</time>
      </trkpt>
      <trkpt lat="43.35298" lon="1.21988">
        <ele>80.78</ele>
        <time>2011-11-26T15:50:37Z</time>
      </trkpt>
      <trkpt lat="43.35303" lon="1.22">
        <ele>81.054</ele>
        <time>2011-11-26T15:50:38Z</time>
      </trkpt>
      <trkpt lat="43.35308" lon="1.22013">
        <ele>81.326</ele>
        <time>2011-11-26T15:50:39Z</time>
      </trkpt>
      <trkpt lat="43.35311" lon="1.22027">
        <ele>81.688</ele>
        <time>2011-11-26T15:50:40Z</time>
      </trkpt>
      <trkpt lat="43.35313" lon="1.2204">
        <ele>82.285</ele>
        <time>2011-11-26T15:50:41Z</time>
      </trkpt>
      <trkpt lat="43.35314" lon="1.22054">
        <ele>82.434</ele>
        <time>2011-11-26T15:50:42Z</time>
      </trkpt>
      <trkpt lat="43.35316" lon="1.22084">
        <ele>81.897</ele>
        <time>2011-11-26T15:50:44Z</time>
      </trkpt>
      <trkpt lat="43.35316" lon="1.221">
        <ele>81.048</ele>
        <time>2011-11-26T15:50:45Z</time>
      </trkpt>
      <trkpt lat="43.35315" lon="1.22116">
        <ele>80.742</ele>
        <time>2011-11-26T15:50:46Z</time>
      </trkpt>
      <trkpt lat="43.35313" lon="1.22132">
        <ele>81.132</ele>
        <time>2011-11-26T15:50:47Z</time>
      </trkpt>
      <trkpt lat="43.35311" lon="1.22146">
        <ele>81.821</ele>
        <time>2011-11-26T15:50:48Z</time>
      </trkpt>
      <trkpt lat="43.35309" lon="1.2216">
        <ele>82.094</ele>
        <time>2011-11-26T15:50:49Z</time>
      </trkpt>
      <trkpt lat="43.35307" lon="1.22173">
        <ele>81.371</ele>
        <time>2011-11-26T15:50:50Z</time>
      </trkpt>
      <trkpt lat="43.35305" lon="1.22188">
        <ele>80.16</ele>
        <time>2011-11-26T15:50:51Z</time>
      </trkpt>
      <trkpt lat="43.35302" lon="1.22203">
        <ele>78.165</ele>
        <time>2011-11-26T15:50:52Z</time>
      </trkpt>
      <trkpt lat="43.35298" lon="1.22219">
        <ele>75.551</ele>
        <time>2011-11-26T15:50:53Z</time>
      </trkpt>
      <trkpt lat="43.35294" lon="1.22234">
        <ele>74.474</ele>
        <time>2011-11-26T15:50:54Z</time>
      </trkpt>
      <trkpt lat="43.3529" lon="1.22249">
        <ele>74.162</ele>
        <time>2011-11-26T15:50:55Z</time>
      </trkpt>
      <trkpt lat="43.35286" lon="1.22264">
        <ele>74.456</ele>
        <time>2011-11-26T15:50:56Z</time>
      </trkpt>
      <trkpt lat="43.35282" lon="1.22278">
        <ele>75.033</ele>
        <time>2011-11-26T15:50:57Z</time>
      </trkpt>
      <trkpt lat="43.35278" lon="1.22292">
        <ele>75.183</ele>
        <time>2011-11-26T15:50:58Z</time>
      </trkpt>
      <trkpt lat="43.3527" lon="1.22322">
        <ele>75.048</ele>
        <time>2011-11-26T15:51:00Z</time>
      </trkpt>
      <trkpt lat="43.35266" lon="1.22338">
        <ele>74.969</ele>
        <time>2011-11-26T15:51:01Z</time>
      </trkpt>
      <trkpt lat="43.35266" lon="1.22338">
        <ele>75.499</ele>
        <time>2011-11-26T15:51:01Z</time>
      </trkpt>
      <trkpt lat="43.35259" lon="1.22367">
        <ele>76.366</ele>
        <time>2011-11-26T15:51:03Z</time>
      </trkpt>
      <trkpt lat="43.35256" lon="1.2238">
        <ele>77.062</ele>
        <time>2011-11-26T15:51:04Z</time>
      </trkpt>
      <trkpt lat="43.35253" lon="1.22394">
        <ele>77.198</ele>
        <time>2011-11-26T15:51:05Z</time>
      </trkpt>
      <trkpt lat="43.35249" lon="1.22407">
        <ele>76.537</ele>
        <time>2011-11-26T15:51:06Z</time>
      </trkpt>
      <trkpt lat="43.35245" lon="1.22422">
        <ele>75.824</ele>
        <time>2011-11-26T15:51:07Z</time>
      </trkpt>
      <trkpt lat="43.3524" lon="1.22436">
        <ele>75.868</ele>
        <time>2011-11-26T15:51:08Z</time>
      </trkpt>
      <trkpt lat="43.35234" lon="1.22449">
        <ele>77.051</ele>
        <time>2011-11-26T15:51:09Z</time>
      </trkpt>
      <trkpt lat="43.35227" lon="1.22461">
        <ele>78.758</ele>
        <time>2011-11-26T15:51:10Z</time>
      </trkpt>
      <trkpt lat="43.35221" lon="1.22471">
        <ele>80.05</ele>
        <time>2011-11-26T15:51:11Z</time>
      </trkpt>
      <trkpt lat="43.35213" lon="1.22481">
        <ele>80.452</ele>
        <time>2011-11-26T15:51:12Z</time>
      </trkpt>
      <trkpt lat="43.35206" lon="1.22491">
        <ele>80.356</ele>
        <time>2011-11-26T15:51:13Z</time>
      </trkpt>
      <trkpt lat="43.35188" lon="1.22513">
        <ele>80.175</ele>
        <time>2011-11-26T15:51:15Z</time>
      </trkpt>
      <trkpt lat="43.35179" lon="1.22524">
        <ele>80.298</ele>
        <time>2011-11-26T15:51:16Z</time>
      </trkpt>
      <trkpt lat="43.35171" lon="1.22534">
        <ele>81.266</ele>
        <time>2011-11-26T15:51:17Z</time>
      </trkpt>
      <trkpt lat="43.35163" lon="1.22544">
        <ele>82.185</ele>
        <time>2011-11-26T15:51:18Z</time>
      </trkpt>
      <trkpt lat="43.35156" lon="1.22554">
        <ele>83.047</ele>
        <time>2011-11-26T15:51:19Z</time>
      </trkpt>
      <trkpt lat="43.35148" lon="1.22564">
        <ele>83.274</ele>
        <time>2011-11-26T15:51:20Z</time>
      </trkpt>
      <trkpt lat="43.35139" lon="1.22574">
        <ele>83.057</ele>
        <time>2011-11-26T15:51:21Z</time>
      </trkpt>
      <trkpt lat="43.35131" lon="1.22584">
        <ele>82.154</ele>
        <time>2011-11-26T15:51:22Z</time>
      </trkpt>
      <trkpt lat="43.35121" lon="1.22594">
        <ele>81.108</ele>
        <time>2011-11-26T15:51:23Z</time>
      </trkpt>
      <trkpt lat="43.35112" lon="1.22603">
        <ele>79.835</ele>
        <time>2011-11-26T15:51:24Z</time>
      </trkpt>
      <trkpt lat="43.35102" lon="1.22612">
        <ele>77.931</ele>
        <time>2011-11-26T15:51:25Z</time>
      </trkpt>
      <trkpt lat="43.35091" lon="1.22619">
        <ele>75.892</ele>
        <time>2011-11-26T15:51:26Z</time>
      </trkpt>
      <trkpt lat="43.35025" lon="1.22649">
        <ele>73.277</ele>
        <time>2011-11-26T15:51:32Z</time>
      </trkpt>
      <trkpt lat="43.35013" lon="1.22645">
        <ele>74.515</ele>
        <time>2011-11-26T15:51:33Z</time>
      </trkpt>
      <trkpt lat="43.35002" lon="1.22636">
        <ele>76.054</ele>
        <time>2011-11-26T15:51:34Z</time>
      </trkpt>
      <trkpt lat="43.34991" lon="1.2263">
        <ele>77.482</ele>
        <time>2011-11-26T15:51:35Z</time>
      </trkpt>
      <trkpt lat="43.34982" lon="1.22621">
        <ele>78.482</ele>
        <time>2011-11-26T15:51:36Z</time>
      </trkpt>
      <trkpt lat="43.34973" lon="1.22613">
        <ele>78.987</ele>
        <time>2011-11-26T15:51:37Z</time>
      </trkpt>
      <trkpt lat="43.34966" lon="1.22605">
        <ele>78.881</ele>
        <time>2011-11-26T15:51:38Z</time>
      </trkpt>
      <trkpt lat="43.34958" lon="1.22595">
        <ele>78.144</ele>
        <time>2011-11-26T15:51:39Z</time>
      </trkpt>
      <trkpt lat="43.34951" lon="1.22584">
        <ele>76.843</ele>
        <time>2011-11-26T15:51:40Z</time>
      </trkpt>
      <trkpt lat="43.34945" lon="1.2257">
        <ele>75.733</ele>
        <time>2011-11-26T15:51:41Z</time>
      </trkpt>
      <trkpt lat="43.34941" lon="1.22554">
        <ele>75.237</ele>
        <time>2011-11-26T15:51:42Z</time>
      </trkpt>
      <trkpt lat="43.34937" lon="1.22523">
        <ele>75.665</ele>
        <time>2011-11-26T15:51:44Z</time>
      </trkpt>
      <trkpt lat="43.34938" lon="1.22509">
        <ele>76.535</ele>
        <time>2011-11-26T15:51:45Z</time>
      </trkpt>
      <trkpt lat="43.3494" lon="1.22496">
        <ele>77.453</ele>
        <time>2011-11-26T15:51:46Z</time>
      </trkpt>
      <trkpt lat="43.34945" lon="1.22484">
        <ele>78.039</ele>
        <time>2011-11-26T15:51:47Z</time>
      </trkpt>
      <trkpt lat="43.34951" lon="1.22472">
        <ele>77.612</ele>
        <time>2011-11-26T15:51:48Z</time>
      </trkpt>
      <trkpt lat="43.34959" lon="1.2246">
        <ele>76.349</ele>
        <time>2011-11-26T15:51:49Z</time>
      </trkpt>
      <trkpt lat="43.34967" lon="1.22449">
        <ele>74.638</ele>
        <time>2011-11-26T15:51:50Z</time>
      </trkpt>
      <trkpt lat="43.34976" lon="1.22438">
        <ele>72.98</ele>
        <time>2011-11-26T15:51:51Z</time>
      </trkpt>
      <trkpt lat="43.34986" lon="1.22426">
        <ele>72.211</ele>
        <time>2011-11-26T15:51:52Z</time>
      </trkpt>
      <trkpt lat="43.34986" lon="1.22426">
        <ele>72.233</ele>
        <time>2011-11-26T15:51:52Z</time>
      </trkpt>
      <trkpt lat="43.35002" lon="1.22403">
        <ele>72.923</ele>
        <time>2011-11-26T15:51:54Z</time>
      </trkpt>
      <trkpt lat="43.3501" lon="1.22393">
        <ele>73.33</ele>
        <time>2011-11-26T15:51:55Z</time>
      </trkpt>
      <trkpt lat="43.35017" lon="1.22381">
        <ele>72.903</ele>
        <time>2011-11-26T15:51:56Z</time>
      </trkpt>
      <trkpt lat="43.35024" lon="1.22369">
        <ele>71.872</ele>
        <time>2011-11-26T15:51:57Z</time>
      </trkpt>
      <trkpt lat="43.35032" lon="1.22356">
        <ele>70.838</ele>
        <time>2011-11-26T15:51:58Z</time>
      </trkpt>
      <trkpt lat="43.35048" lon="1.22331">
        <ele>70.365</ele>
        <time>2011-11-26T15:52:00Z</time>
      </trkpt>
      <trkpt lat="43.35056" lon="1.22319">
        <ele>70.565</ele>
        <time>2011-11-26T15:52:01Z</time>
      </trkpt>
      <trkpt lat="43.35064" lon="1.22307">
        <ele>71.407</ele>
        <time>2011-11-26T15:52:02Z</time>
      </trkpt>
      <trkpt lat="43.35071" lon="1.22295">
        <ele>72.586</ele>
        <time>2011-11-26T15:52:03Z</time>
      </trkpt>
      <trkpt lat="43.35079" lon="1.22284">
        <ele>73.721</ele>
        <time>2011-11-26T15:52:04Z</time>
      </trkpt>
      <trkpt lat="43.35086" lon="1.22272">
        <ele>74.54</ele>
        <time>2011-11-26T15:52:05Z</time>
      </trkpt>
      <trkpt lat="43.35093" lon="1.2226">
        <ele>75.048</ele>
        <time>2011-11-26T15:52:06Z</time>
      </trkpt>
      <trkpt lat="43.351" lon="1.22247">
        <ele>75.075</ele>
        <time>2011-11-26T15:52:07Z</time>
      </trkpt>
      <trkpt lat="43.35106" lon="1.22232">
        <ele>74.869</ele>
        <time>2011-11-26T15:52:08Z</time>
      </trkpt>
      <trkpt lat="43.35112" lon="1.22217">
        <ele>75.163</ele>
        <time>2011-11-26T15:52:09Z</time>
      </trkpt>
      <trkpt lat="43.35117" lon="1.22201">
        <ele>76.41</ele>
        <time>2011-11-26T15:52:10Z</time>
      </trkpt>
      <trkpt lat="43.35121" lon="1.22186">
        <ele>78.015</ele>
        <time>2011-11-26T15:52:11Z</time>
      </trkpt>
      <trkpt lat="43.35124" lon="1.22172">
        <ele>80.091</ele>
        <time>2011-11-26T15:52:12Z</time>
      </trkpt>
      <trkpt lat="43.35126" lon="1.22144">
        <ele>81.883</ele>
        <time>2011-11-26T15:52:14Z</time>
      </trkpt>
      <trkpt lat="43.35124" lon="1.22129">
        <ele>82.794</ele>
        <time>2011-11-26T15:52:15Z</time>
      </trkpt>
      <trkpt lat="43.35122" lon="1.22114">
        <ele>82.92</ele>
        <time>2011-11-26T15:52:16Z</time>
      </trkpt>
      <trkpt lat="43.35122" lon="1.22114">
        <ele>83.182</ele>
        <time>2011-11-26T15:52:16Z</time>
      </trkpt>
      <trkpt lat="43.35119" lon="1.22081">
        <ele>83.699</ele>
        <time>2011-11-26T15:52:18Z</time>
      </trkpt>
      <trkpt lat="43.35118" lon="1.22065">
        <ele>84.526</ele>
        <time>2011-11-26T15:52:19Z</time>
      </trkpt>
      <trkpt lat="43.35116" lon="1.22049">
        <ele>85.682</ele>
        <time>2011-11-26T15:52:20Z</time>
      </trkpt>
      <trkpt lat="43.35113" lon="1.22033">
        <ele>86.69</ele>
        <time>2011-11-26T15:52:21Z</time>
      </trkpt>
      <trkpt lat="43.3511" lon="1.22017">
        <ele>87.158</ele>
        <time>2011-11-26T15:52:22Z</time>
      </trkpt>
      <trkpt lat="43.35107" lon="1.22002">
        <ele>87.869</ele>
        <time>2011-11-26T15:52:23Z</time>
      </trkpt>
      <trkpt lat="43.35105" lon="1.21986">
        <ele>88.4</ele>
        <time>2011-11-26T15:52:24Z</time>
      </trkpt>
      <trkpt lat="43.35103" lon="1.21971">
        <ele>88.329</ele>
        <time>2011-11-26T15:52:25Z</time>
      </trkpt>
      <trkpt lat="43.35101" lon="1.21956">
        <ele>87.548</ele>
        <time>2011-11-26T15:52:26Z</time>
      </trkpt>
      <trkpt lat="43.35099" lon="1.21941">
        <ele>85.844</ele>
        <time>2011-11-26T15:52:27Z</time>
      </trkpt>
      <trkpt lat="43.35096" lon="1.21925">
        <ele>84.371</ele>
        <time>2011-11-26T15:52:28Z</time>
      </trkpt>
      <trkpt lat="43.35088" lon="1.21891">
        <ele>82.981</ele>
        <time>2011-11-26T15:52:30Z</time>
      </trkpt>
      <trkpt lat="43.35084" lon="1.21874">
        <ele>82.421</ele>
        <time>2011-11-26T15:52:31Z</time>
      </trkpt>
      <trkpt lat="43.35084" lon="1.21874">
        <ele>82.165</ele>
        <time>2011-11-26T15:52:31Z</time>
      </trkpt>
      <trkpt lat="43.35077" lon="1.21844">
        <ele>82.52</ele>
        <time>2011-11-26T15:52:33Z</time>
      </trkpt>
      <trkpt lat="43.35073" lon="1.21831">
        <ele>82.467</ele>
        <time>2011-11-26T15:52:34Z</time>
      </trkpt>
      <trkpt lat="43.3507" lon="1.21818">
        <ele>81.848</ele>
        <time>2011-11-26T15:52:35Z</time>
      </trkpt>
      <trkpt lat="43.35066" lon="1.21804">
        <ele>80.6</ele>
        <time>2011-11-26T15:52:36Z</time>
      </trkpt>
      <trkpt lat="43.35063" lon="1.21789">
        <ele>79.552</ele>
        <time>2011-11-26T15:52:37Z</time>
      </trkpt>
      <trkpt lat="43.35059" lon="1.21775">
        <ele>79.207</ele>
        <time>2011-11-26T15:52:38Z</time>
      </trkpt>
      <trkpt lat="43.35055" lon="1.21761">
        <ele>79.307</ele>
        <time>2011-11-26T15:52:39Z</time>
      </trkpt>
      <trkpt lat="43.35048" lon="1.21751">
        <ele>79.158</ele>
        <time>2011-11-26T15:52:40Z</time>
      </trkpt>
      <trkpt lat="43.35039" lon="1.21743">
        <ele>78.424</ele>
        <time>2011-11-26T15:52:41Z</time>
      </trkpt>
      <trkpt lat="43.35028" lon="1.21739">
        <ele>77.755</ele>
        <time>2011-11-26T15:52:42Z</time>
      </trkpt>
      <trkpt lat="43.35018" lon="1.21739">
        <ele>77.482</ele>
        <time>2011-11-26T15:52:43Z</time>
      </trkpt>
      <trkpt lat="43.34998" lon="1.21746">
        <ele>77.525</ele>
        <time>2011-11-26T15:52:45Z</time>
      </trkpt>
      <trkpt lat="43.34989" lon="1.21754">
        <ele>77.482</ele>
        <time>2011-11-26T15:52:46Z</time>
      </trkpt>
      <trkpt lat="43.34989" lon="1.21754">
        <ele>77.226</ele>
        <time>2011-11-26T15:52:46Z</time>
      </trkpt>
      <trkpt lat="43.34981" lon="1.21783">
        <ele>76.832</ele>
        <time>2011-11-26T15:52:48Z</time>
      </trkpt>
      <trkpt lat="43.34978" lon="1.21797">
        <ele>76.369</ele>
        <time>2011-11-26T15:52:49Z</time>
      </trkpt>
      <trkpt lat="43.34977" lon="1.21813">
        <ele>75.774</ele>
        <time>2011-11-26T15:52:50Z</time>
      </trkpt>
      <trkpt lat="43.34976" lon="1.21829">
        <ele>75.281</ele>
        <time>2011-11-26T15:52:51Z</time>
      </trkpt>
      <trkpt lat="43.34974" lon="1.21845">
        <ele>75.13</ele>
        <time>2011-11-26T15:52:52Z</time>
      </trkpt>
      <trkpt lat="43.34972" lon="1.21861">
        <ele>75.314</ele>
        <time>2011-11-26T15:52:53Z</time>
      </trkpt>
      <trkpt lat="43.3497" lon="1.21876">
        <ele>75.39</ele>
        <time>2011-11-26T15:52:54Z</time>
      </trkpt>
      <trkpt lat="43.34968" lon="1.21891">
        <ele>74.979</ele>
        <time>2011-11-26T15:52:55Z</time>
      </trkpt>
      <trkpt lat="43.34968" lon="1.21906">
        <ele>74.096</ele>
        <time>2011-11-26T15:52:56Z</time>
      </trkpt>
      <trkpt lat="43.34967" lon="1.21921">
        <ele>73.022</ele>
        <time>2011-11-26T15:52:57Z</time>
      </trkpt>
      <trkpt lat="43.34967" lon="1.21937">
        <ele>71.959</ele>
        <time>2011-11-26T15:52:58Z</time>
      </trkpt>
      <trkpt lat="43.34965" lon="1.21952">
        <ele>70.414</ele>
        <time>2011-11-26T15:52:59Z</time>
      </trkpt>
      <trkpt lat="43.34964" lon="1.21968">
        <ele>69.386</ele>
        <time>2011-11-26T15:53:00Z</time>
      </trkpt>
      <trkpt lat="43.34963" lon="1.21983">
        <ele>68.099</ele>
        <time>2011-11-26T15:53:01Z</time>
      </trkpt>
      <trkpt lat="43.34963" lon="1.22014">
        <ele>66.912</ele>
        <time>2011-11-26T15:53:03Z</time>
      </trkpt>
      <trkpt lat="43.34963" lon="1.2203">
        <ele>65.39</ele>
        <time>2011-11-26T15:53:04Z</time>
      </trkpt>
      <trkpt lat="43.34962" lon="1.22046">
        <ele>63.444</ele>
        <time>2011-11-26T15:53:05Z</time>
      </trkpt>
      <trkpt lat="43.34961" lon="1.22062">
        <ele>62.023</ele>
        <time>2011-11-26T15:53:06Z</time>
      </trkpt>
      <trkpt lat="43.34961" lon="1.22078">
        <ele>60.881</ele>
        <time>2011-11-26T15:53:07Z</time>
      </trkpt>
      <trkpt lat="43.3496" lon="1.22094">
        <ele>59.802</ele>
        <time>2011-11-26T15:53:08Z</time>
      </trkpt>
      <trkpt lat="43.3496" lon="1.22109">
        <ele>58.903</ele>
        <time>2011-11-26T15:53:09Z</time>
      </trkpt>
      <trkpt lat="43.34959" lon="1.22125">
        <ele>56.854</ele>
        <time>2011-11-26T15:53:10Z</time>
      </trkpt>
      <trkpt lat="43.34957" lon="1.22141">
        <ele>54.935</ele>
        <time>2011-11-26T15:53:11Z</time>
      </trkpt>
      <trkpt lat="43.34957" lon="1.22158">
        <ele>53.909</ele>
        <time>2011-11-26T15:53:12Z</time>
      </trkpt>
      <trkpt lat="43.34956" lon="1.22175">
        <ele>53.438</ele>
        <time>2011-11-26T15:53:13Z</time>
      </trkpt>
      <trkpt lat="43.34956" lon="1.22192">
        <ele>53.492</ele>
        <time>2011-11-26T15:53:14Z</time>
      </trkpt>
      <trkpt lat="43.34956" lon="1.22208">
        <ele>54.102</ele>
        <time>2011-11-26T15:53:15Z</time>
      </trkpt>
      <trkpt lat="43.34955" lon="1.22225">
        <ele>55.38</ele>
        <time>2011-11-26T15:53:16Z</time>
      </trkpt>
      <trkpt lat="43.34955" lon="1.22256">
        <ele>56.575</ele>
        <time>2011-11-26T15:53:18Z</time>
      </trkpt>
      <trkpt lat="43.34954" lon="1.2227">
        <ele>57.309</ele>
        <time>2011-11-26T15:53:19Z</time>
      </trkpt>
      <trkpt lat="43.34955" lon="1.22285">
        <ele>57.39</ele>
        <time>2011-11-26T15:53:20Z</time>
      </trkpt>
      <trkpt lat="43.34956" lon="1.22301">
        <ele>57.607</ele>
        <time>2011-11-26T15:53:21Z</time>
      </trkpt>
      <trkpt lat="43.34958" lon="1.22316">
        <ele>57.875</ele>
        <time>2011-11-26T15:53:22Z</time>
      </trkpt>
      <trkpt lat="43.34962" lon="1.2233">
        <ele>58.741</ele>
        <time>2011-11-26T15:53:23Z</time>
      </trkpt>
      <trkpt lat="43.3497" lon="1.22341">
        <ele>58.585</ele>
        <time>2011-11-26T15:53:24Z</time>
      </trkpt>
      <trkpt lat="43.34981" lon="1.22349">
        <ele>57.578</ele>
        <time>2011-11-26T15:53:25Z</time>
      </trkpt>
      <trkpt lat="43.34993" lon="1.22355">
        <ele>56.61</ele>
        <time>2011-11-26T15:53:26Z</time>
      </trkpt>
      <trkpt lat="43.35005" lon="1.22361">
        <ele>56.51</ele>
        <time>2011-11-26T15:53:27Z</time>
      </trkpt>
      <trkpt lat="43.35016" lon="1.22369">
        <ele>56.422</ele>
        <time>2011-11-26T15:53:28Z</time>
      </trkpt>
      <trkpt lat="43.35025" lon="1.22377">
        <ele>56.082</ele>
        <time>2011-11-26T15:53:29Z</time>
      </trkpt>
      <trkpt lat="43.35035" lon="1.22386">
        <ele>55.517</ele>
        <time>2011-11-26T15:53:30Z</time>
      </trkpt>
      <trkpt lat="43.35046" lon="1.22393">
        <ele>54.453</ele>
        <time>2011-11-26T15:53:31Z</time>
      </trkpt>
      <trkpt lat="43.35057" lon="1.22397">
        <ele>53.646</ele>
        <time>2011-11-26T15:53:32Z</time>
      </trkpt>
      <trkpt lat="43.3508" lon="1.22402">
        <ele>53.314</ele>
        <time>2011-11-26T15:53:34Z</time>
      </trkpt>
      <trkpt lat="43.35091" lon="1.22407">
        <ele>53.727</ele>
        <time>2011-11-26T15:53:35Z</time>
      </trkpt>
      <trkpt lat="43.35101" lon="1.22412">
        <ele>54.319</ele>
        <time>2011-11-26T15:53:36Z</time>
      </trkpt>
      <trkpt lat="43.35111" lon="1.22416">
        <ele>54.653</ele>
        <time>2011-11-26T15:53:37Z</time>
      </trkpt>
      <trkpt lat="43.35122" lon="1.22416">
        <ele>54.339</ele>
        <time>2011-11-26T15:53:38Z</time>
      </trkpt>
      <trkpt lat="43.35133" lon="1.22416">
        <ele>53.539</ele>
        <time>2011-11-26T15:53:39Z</time>
      </trkpt>
      <trkpt lat="43.35144" lon="1.22415">
        <ele>52.821</ele>
        <time>2011-11-26T15:53:40Z</time>
      </trkpt>
      <trkpt lat="43.35154" lon="1.22412">
        <ele>52.157</ele>
        <time>2011-11-26T15:53:41Z</time>
      </trkpt>
      <trkpt lat="43.35164" lon="1.22407">
        <ele>51.494</ele>
        <time>2011-11-26T15:53:42Z</time>
      </trkpt>
      <trkpt lat="43.35174" lon="1.22399">
        <ele>51.017</ele>
        <time>2011-11-26T15:53:43Z</time>
      </trkpt>
      <trkpt lat="43.35182" lon="1.2239">
        <ele>50.898</ele>
        <time>2011-11-26T15:53:44Z</time>
      </trkpt>
      <trkpt lat="43.3519" lon="1.22379">
        <ele>51.644</ele>
        <time>2011-11-26T15:53:45Z</time>
      </trkpt>
      <trkpt lat="43.35197" lon="1.2237">
        <ele>52.372</ele>
        <time>2011-11-26T15:53:46Z</time>
      </trkpt>
      <trkpt lat="43.35211" lon="1.2235">
        <ele>53.02</ele>
        <time>2011-11-26T15:53:48Z</time>
      </trkpt>
      <trkpt lat="43.35217" lon="1.22339">
        <ele>53.18</ele>
        <time>2011-11-26T15:53:49Z</time>
      </trkpt>
      <trkpt lat="43.35222" lon="1.22327">
        <ele>52.914</ele>
        <time>2011-11-26T15:53:50Z</time>
      </trkpt>
      <trkpt lat="43.35227" lon="1.22315">
        <ele>51.895</ele>
        <time>2011-11-26T15:53:51Z</time>
      </trkpt>
      <trkpt lat="43.35232" lon="1.22302">
        <ele>50.867</ele>
        <time>2011-11-26T15:53:52Z</time>
      </trkpt>
      <trkpt lat="43.35238" lon="1.22289">
        <ele>49.69</ele>
        <time>2011-11-26T15:53:53Z</time>
      </trkpt>
      <trkpt lat="43.35243" lon="1.22276">
        <ele>48.777</ele>
        <time>2011-11-26T15:53:54Z</time>
      </trkpt>
      <trkpt lat="43.35247" lon="1.22263">
        <ele>48.093</ele>
        <time>2011-11-26T15:53:55Z</time>
      </trkpt>
      <trkpt lat="43.35251" lon="1.2225">
        <ele>47.563</ele>
        <time>2011-11-26T15:53:56Z</time>
      </trkpt>
      <trkpt lat="43.35255" lon="1.22237">
        <ele>46.82</ele>
        <time>2011-11-26T15:53:57Z</time>
      </trkpt>
      <trkpt lat="43.35259" lon="1.22224">
        <ele>45.847</ele>
        <time>2011-11-26T15:53:58Z</time>
      </trkpt>
      <trkpt lat="43.35262" lon="1.22211">
        <ele>44.383</ele>
        <time>2011-11-26T15:53:59Z</time>
      </trkpt>
      <trkpt lat="43.35265" lon="1.22196">
        <ele>42.941</ele>
        <time>2011-11-26T15:54:00Z</time>
      </trkpt>
      <trkpt lat="43.35268" lon="1.22182">
        <ele>41.718</ele>
        <time>2011-11-26T15:54:01Z</time>
      </trkpt>
      <trkpt lat="43.35275" lon="1.22154">
        <ele>40.699</ele>
        <time>2011-11-26T15:54:03Z</time>
      </trkpt>
      <trkpt lat="43.35278" lon="1.22139">
        <ele>39.691</ele>
        <time>2011-11-26T15:54:04Z</time>
      </trkpt>
      <trkpt lat="43.35281" lon="1.22125">
        <ele>39.097</ele>
        <time>2011-11-26T15:54:05Z</time>
      </trkpt>
      <trkpt lat="43.35284" lon="1.2211">
        <ele>38.617</ele>
        <time>2011-11-26T15:54:06Z</time>
      </trkpt>
      <trkpt lat="43.35286" lon="1.22095">
        <ele>38.054</ele>
        <time>2011-11-26T15:54:07Z</time>
      </trkpt>
      <trkpt lat="43.35288" lon="1.22079">
        <ele>37.342</ele>
        <time>2011-11-26T15:54:08Z</time>
      </trkpt>
      <trkpt lat="43.35291" lon="1.22065">
        <ele>36.718</ele>
        <time>2011-11-26T15:54:09Z</time>
      </trkpt>
      <trkpt lat="43.35294" lon="1.2205">
        <ele>36.104</ele>
        <time>2011-11-26T15:54:10Z</time>
      </trkpt>
      <trkpt lat="43.35298" lon="1.22036">
        <ele>35.485</ele>
        <time>2011-11-26T15:54:11Z</time>
      </trkpt>
      <trkpt lat="43.35302" lon="1.22022">
        <ele>34.67</ele>
        <time>2011-11-26T15:54:12Z</time>
      </trkpt>
      <trkpt lat="43.35305" lon="1.22008">
        <ele>33.93</ele>
        <time>2011-11-26T15:54:13Z</time>
      </trkpt>
      <trkpt lat="43.35309" lon="1.21994">
        <ele>32.915</ele>
        <time>2011-11-26T15:54:14Z</time>
      </trkpt>
      <trkpt lat="43.35317" lon="1.21966">
        <ele>32.183</ele>
        <time>2011-11-26T15:54:16Z</time>
      </trkpt>
      <trkpt lat="43.35317" lon="1.21966">
        <ele>31.444</ele>
        <time>2011-11-26T15:54:16Z</time>
      </trkpt>
      <trkpt lat="43.35325" lon="1.21937">
        <ele>30.636</ele>
        <time>2011-11-26T15:54:18Z</time>
      </trkpt>
      <trkpt lat="43.35328" lon="1.21921">
        <ele>29.816</ele>
        <time>2011-11-26T15:54:19Z</time>
      </trkpt>
      <trkpt lat="43.35331" lon="1.21906">
        <ele>28.852</ele>
        <time>2011-11-26T15:54:20Z</time>
      </trkpt>
      <trkpt lat="43.35334" lon="1.21891">
        <ele>28.663</ele>
        <time>2011-11-26T15:54:21Z</time>
      </trkpt>
      <trkpt lat="43.35338" lon="1.21876">
        <ele>28.869</ele>
        <time>2011-11-26T15:54:22Z</time>
      </trkpt>
      <trkpt lat="43.3534" lon="1.21862">
        <ele>29.542</ele>
        <time>2011-11-26T15:54:23Z</time>
      </trkpt>
      <trkpt lat="43.35341" lon="1.21847">
        <ele>30.233</ele>
        <time>2011-11-26T15:54:24Z</time>
      </trkpt>
      <trkpt lat="43.35342" lon="1.21832">
        <ele>30.56</ele>
        <time>2011-11-26T15:54:25Z</time>
      </trkpt>
      <trkpt lat="43.35343" lon="1.21817">
        <ele>30.543</ele>
        <time>2011-11-26T15:54:26Z</time>
      </trkpt>
      <trkpt lat="43.35345" lon="1.21802">
        <ele>30.828</ele>
        <time>2011-11-26T15:54:27Z</time>
      </trkpt>
      <trkpt lat="43.35347" lon="1.21786">
        <ele>31.459</ele>
        <time>2011-11-26T15:54:28Z</time>
      </trkpt>
      <trkpt lat="43.35349" lon="1.21771">
        <ele>32.323</ele>
        <time>2011-11-26T15:54:29Z</time>
      </trkpt>
      <trkpt lat="43.35351" lon="1.21757">
        <ele>32.954</ele>
        <time>2011-11-26T15:54:30Z</time>
      </trkpt>
      <trkpt lat="43.35352" lon="1.21744">
        <ele>33.055</ele>
        <time>2011-11-26T15:54:31Z</time>
      </trkpt>
      <trkpt lat="43.35363" lon="1.21723">
        <ele>32.403</ele>
        <time>2011-11-26T15:54:33Z</time>
      </trkpt>
      <trkpt lat="43.35373" lon="1.21716">
        <ele>31.799</ele>
        <time>2011-11-26T15:54:34Z</time>
      </trkpt>
      <trkpt lat="43.35383" lon="1.21712">
        <ele>31.708</ele>
        <time>2011-11-26T15:54:35Z</time>
      </trkpt>
      <trkpt lat="43.35393" lon="1.2171">
        <ele>32.291</ele>
        <time>2011-11-26T15:54:36Z</time>
      </trkpt>
      <trkpt lat="43.35402" lon="1.21711">
        <ele>33.703</ele>
        <time>2011-11-26T15:54:37Z</time>
      </trkpt>
      <trkpt lat="43.3541" lon="1.21715">
        <ele>35.032</ele>
        <time>2011-11-26T15:54:38Z</time>
      </trkpt>
      <trkpt lat="43.35418" lon="1.21722">
        <ele>36.609</ele>
        <time>2011-11-26T15:54:39Z</time>
      </trkpt>
      <trkpt lat="43.35424" lon="1.21731">
        <ele>37.585</ele>
        <time>2011-11-26T15:54:40Z</time>
      </trkpt>
      <trkpt lat="43.35429" lon="1.21742">
        <ele>38.869</ele>
        <time>2011-11-26T15:54:41Z</time>
      </trkpt>
      <trkpt lat="43.35434" lon="1.21753">
        <ele>39.964</ele>
        <time>2011-11-26T15:54:42Z</time>
      </trkpt>
      <trkpt lat="43.35437" lon="1.21765">
        <ele>41.034</ele>
        <time>2011-11-26T15:54:43Z</time>
      </trkpt>
      <trkpt lat="43.35438" lon="1.21778">
        <ele>41.824</ele>
        <time>2011-11-26T15:54:44Z</time>
      </trkpt>
      <trkpt lat="43.35437" lon="1.21791">
        <ele>42.365</ele>
        <time>2011-11-26T15:54:45Z</time>
      </trkpt>
      <trkpt lat="43.35434" lon="1.21804">
        <ele>42.667</ele>
        <time>2011-11-26T15:54:46Z</time>
      </trkpt>
      <trkpt lat="43.35428" lon="1.2183">
        <ele>43.248</ele>
        <time>2011-11-26T15:54:48Z</time>
      </trkpt>
      <trkpt lat="43.35425" lon="1.21843">
        <ele>43.673</ele>
        <time>2011-11-26T15:54:49Z</time>
      </trkpt>
      <trkpt lat="43.35422" lon="1.21856">
        <ele>44.341</ele>
        <time>2011-11-26T15:54:50Z</time>
      </trkpt>
      <trkpt lat="43.35418" lon="1.21869">
        <ele>45.07</ele>
        <time>2011-11-26T15:54:51Z</time>
      </trkpt>
      <trkpt lat="43.35414" lon="1.21881">
        <ele>45.372</ele>
        <time>2011-11-26T15:54:52Z</time>
      </trkpt>
      <trkpt lat="43.35408" lon="1.21892">
        <ele>45.122</ele>
        <time>2011-11-26T15:54:53Z</time>
      </trkpt>
      <trkpt lat="43.35402" lon="1.21903">
        <ele>44.277</ele>
        <time>2011-11-26T15:54:54Z</time>
      </trkpt>
      <trkpt lat="43.35394" lon="1.21914">
        <ele>42.835</ele>
        <time>2011-11-26T15:54:55Z</time>
      </trkpt>
      <trkpt lat="43.35387" lon="1.21925">
        <ele>41.388</ele>
        <time>2011-11-26T15:54:56Z</time>
      </trkpt>
      <trkpt lat="43.3538" lon="1.21938">
        <ele>40.303</ele>
        <time>2011-11-26T15:54:57Z</time>
      </trkpt>
      <trkpt lat="43.35373" lon="1.21951">
        <ele>39.435</ele>
        <time>2011-11-26T15:54:58Z</time>
      </trkpt>
      <trkpt lat="43.35366" lon="1.21963">
        <ele>38.575</ele>
        <time>2011-11-26T15:54:59Z</time>
      </trkpt>
      <trkpt lat="43.35358" lon="1.21975">
        <ele>37.764</ele>
        <time>2011-11-26T15:55:00Z</time>
      </trkpt>
      <trkpt lat="43.3535" lon="1.21987">
        <ele>36.186</ele>
        <time>2011-11-26T15:55:01Z</time>
      </trkpt>
      <trkpt lat="43.35336" lon="1.22012">
        <ele>35.012</ele>
        <time>2011-11-26T15:55:03Z</time>
      </trkpt>
      <trkpt lat="43.35329" lon="1.22025">
        <ele>34.259</ele>
        <time>2011-11-26T15:55:04Z</time>
      </trkpt>
      <trkpt lat="43.35323" lon="1.22037">
        <ele>33.947</ele>
        <time>2011-11-26T15:55:05Z</time>
      </trkpt>
      <trkpt lat="43.35317" lon="1.2205">
        <ele>33.909</ele>
        <time>2011-11-26T15:55:06Z</time>
      </trkpt>
      <trkpt lat="43.35311" lon="1.22062">
        <ele>34.008</ele>
        <time>2011-11-26T15:55:07Z</time>
      </trkpt>
      <trkpt lat="43.35306" lon="1.22076">
        <ele>33.946</ele>
        <time>2011-11-26T15:55:08Z</time>
      </trkpt>
      <trkpt lat="43.353" lon="1.22089">
        <ele>33.727</ele>
        <time>2011-11-26T15:55:09Z</time>
      </trkpt>
      <trkpt lat="43.35295" lon="1.22103">
        <ele>33.334</ele>
        <time>2011-11-26T15:55:10Z</time>
      </trkpt>
      <trkpt lat="43.3529" lon="1.22116">
        <ele>33.03</ele>
        <time>2011-11-26T15:55:11Z</time>
      </trkpt>
      <trkpt lat="43.35284" lon="1.2213">
        <ele>32.547</ele>
        <time>2011-11-26T15:55:12Z</time>
      </trkpt>
      <trkpt lat="43.3528" lon="1.22144">
        <ele>31.923</ele>
        <time>2011-11-26T15:55:13Z</time>
      </trkpt>
      <trkpt lat="43.35276" lon="1.22158">
        <ele>30.904</ele>
        <time>2011-11-26T15:55:14Z</time>
      </trkpt>
      <trkpt lat="43.35276" lon="1.22158">
        <ele>30.454</ele>
        <time>2011-11-26T15:55:14Z</time>
      </trkpt>
      <trkpt lat="43.35267" lon="1.22187">
        <ele>30.062</ele>
        <time>2011-11-26T15:55:16Z</time>
      </trkpt>
      <trkpt lat="43.35263" lon="1.22201">
        <ele>30.027</ele>
        <time>2011-11-26T15:55:17Z</time>
      </trkpt>
      <trkpt lat="43.35256" lon="1.22231">
        <ele>30.46</ele>
        <time>2011-11-26T15:55:19Z</time>
      </trkpt>
      <trkpt lat="43.35253" lon="1.22245">
        <ele>30.949</ele>
        <time>2011-11-26T15:55:20Z</time>
      </trkpt>
      <trkpt lat="43.35248" lon="1.22259">
        <ele>31.32</ele>
        <time>2011-11-26T15:55:21Z</time>
      </trkpt>
      <trkpt lat="43.35243" lon="1.22273">
        <ele>31.129</ele>
        <time>2011-11-26T15:55:22Z</time>
      </trkpt>
      <trkpt lat="43.35237" lon="1.22287">
        <ele>30.823</ele>
        <time>2011-11-26T15:55:23Z</time>
      </trkpt>
      <trkpt lat="43.35233" lon="1.22301">
        <ele>30.608</ele>
        <time>2011-11-26T15:55:24Z</time>
      </trkpt>
      <trkpt lat="43.35228" lon="1.22315">
        <ele>30.346</ele>
        <time>2011-11-26T15:55:25Z</time>
      </trkpt>
      <trkpt lat="43.35224" lon="1.22329">
        <ele>29.877</ele>
        <time>2011-11-26T15:55:26Z</time>
      </trkpt>
      <trkpt lat="43.3522" lon="1.22344">
        <ele>28.982</ele>
        <time>2011-11-26T15:55:27Z</time>
      </trkpt>
      <trkpt lat="43.35216" lon="1.22358">
        <ele>27.979</ele>
        <time>2011-11-26T15:55:28Z</time>
      </trkpt>
      <trkpt lat="43.35212" lon="1.22373">
        <ele>27.189</ele>
        <time>2011-11-26T15:55:29Z</time>
      </trkpt>
      <trkpt lat="43.35207" lon="1.22388">
        <ele>27.047</ele>
        <time>2011-11-26T15:55:30Z</time>
      </trkpt>
      <trkpt lat="43.35202" lon="1.22402">
        <ele>27.486</ele>
        <time>2011-11-26T15:55:31Z</time>
      </trkpt>
      <trkpt lat="43.35197" lon="1.22417">
        <ele>27.976</ele>
        <time>2011-11-26T15:55:32Z</time>
      </trkpt>
      <trkpt lat="43.35187" lon="1.22444">
        <ele>28.274</ele>
        <time>2011-11-26T15:55:34Z</time>
      </trkpt>
      <trkpt lat="43.35181" lon="1.22458">
        <ele>28.287</ele>
        <time>2011-11-26T15:55:35Z</time>
      </trkpt>
      <trkpt lat="43.35175" lon="1.22471">
        <ele>28.324</ele>
        <time>2011-11-26T15:55:36Z</time>
      </trkpt>
      <trkpt lat="43.35168" lon="1.22485">
        <ele>28.604</ele>
        <time>2011-11-26T15:55:37Z</time>
      </trkpt>
      <trkpt lat="43.35162" lon="1.22498">
        <ele>29.384</ele>
        <time>2011-11-26T15:55:38Z</time>
      </trkpt>
      <trkpt lat="43.35156" lon="1.2251">
        <ele>30.256</ele>
        <time>2011-11-26T15:55:39Z</time>
      </trkpt>
      <trkpt lat="43.3515" lon="1.22521">
        <ele>30.694</ele>
        <time>2011-11-26T15:55:40Z</time>
      </trkpt>
      <trkpt lat="43.35142" lon="1.2253">
        <ele>30.539</ele>
        <time>2011-11-26T15:55:41Z</time>
      </trkpt>
      <trkpt lat="43.35134" lon="1.22539">
        <ele>29.881</ele>
        <time>2011-11-26T15:55:42Z</time>
      </trkpt>
      <trkpt lat="43.35125" lon="1.22549">
        <ele>29.201</ele>
        <time>2011-11-26T15:55:43Z</time>
      </trkpt>
      <trkpt lat="43.35125" lon="1.22549">
        <ele>28.693</ele>
        <time>2011-11-26T15:55:43Z</time>
      </trkpt>
      <trkpt lat="43.35109" lon="1.22569">
        <ele>28.631</ele>
        <time>2011-11-26T15:55:45Z</time>
      </trkpt>
      <trkpt lat="43.35099" lon="1.22577">
        <ele>29.251</ele>
        <time>2011-11-26T15:55:46Z</time>
      </trkpt>
      <trkpt lat="43.3509" lon="1.22584">
        <ele>30.127</ele>
        <time>2011-11-26T15:55:47Z</time>
      </trkpt>
      <trkpt lat="43.35081" lon="1.2259">
        <ele>31.167</ele>
        <time>2011-11-26T15:55:48Z</time>
      </trkpt>
      <trkpt lat="43.35072" lon="1.22597">
        <ele>31.658</ele>
        <time>2011-11-26T15:55:49Z</time>
      </trkpt>
      <trkpt lat="43.35052" lon="1.22607">
        <ele>32.098</ele>
        <time>2011-11-26T15:55:51Z</time>
      </trkpt>
      <trkpt lat="43.35052" lon="1.22607">
        <ele>32.575</ele>
        <time>2011-11-26T15:55:51Z</time>
      </trkpt>
      <trkpt lat="43.35031" lon="1.22609">
        <ele>33.42</ele>
        <time>2011-11-26T15:55:53Z</time>
      </trkpt>
      <trkpt lat="43.35021" lon="1.22608">
        <ele>34.417</ele>
        <time>2011-11-26T15:55:54Z</time>
      </trkpt>
      <trkpt lat="43.35011" lon="1.22605">
        <ele>36.079</ele>
        <time>2011-11-26T15:55:55Z</time>
      </trkpt>
      <trkpt lat="43.35001" lon="1.22601">
        <ele>37.334</ele>
        <time>2011-11-26T15:55:56Z</time>
      </trkpt>
      <trkpt lat="43.34991" lon="1.22596">
        <ele>38.215</ele>
        <time>2011-11-26T15:55:57Z</time>
      </trkpt>
      <trkpt lat="43.34981" lon="1.2259">
        <ele>38.601</ele>
        <time>2011-11-26T15:55:58Z</time>
      </trkpt>
      <trkpt lat="43.34971" lon="1.22584">
        <ele>38.713</ele>
        <time>2011-11-26T15:55:59Z</time>
      </trkpt>
      <trkpt lat="43.34961" lon="1.22578">
        <ele>38.741</ele>
        <time>2011-11-26T15:56:00Z</time>
      </trkpt>
      <trkpt lat="43.3495" lon="1.22572">
        <ele>39.099</ele>
        <time>2011-11-26T15:56:01Z</time>
      </trkpt>
      <trkpt lat="43.3494" lon="1.22565">
        <ele>39.622</ele>
        <time>2011-11-26T15:56:02Z</time>
      </trkpt>
      <trkpt lat="43.3493" lon="1.22557">
        <ele>40.411</ele>
        <time>2011-11-26T15:56:03Z</time>
      </trkpt>
      <trkpt lat="43.34911" lon="1.22542">
        <ele>41.016</ele>
        <time>2011-11-26T15:56:05Z</time>
      </trkpt>
      <trkpt lat="43.34901" lon="1.22534">
        <ele>41.209</ele>
        <time>2011-11-26T15:56:06Z</time>
      </trkpt>
      <trkpt lat="43.34901" lon="1.22534">
        <ele>41.2</ele>
        <time>2011-11-26T15:56:06Z</time>
      </trkpt>
      <trkpt lat="43.34881" lon="1.22517">
        <ele>41.191</ele>
        <time>2011-11-26T15:56:08Z</time>
      </trkpt>
      <trkpt lat="43.34872" lon="1.22508">
        <ele>41.156</ele>
        <time>2011-11-26T15:56:09Z</time>
      </trkpt>
      <trkpt lat="43.34863" lon="1.22498">
        <ele>40.6</ele>
        <time>2011-11-26T15:56:10Z</time>
      </trkpt>
      <trkpt lat="43.34854" lon="1.22488">
        <ele>39.446</ele>
        <time>2011-11-26T15:56:11Z</time>
      </trkpt>
      <trkpt lat="43.34845" lon="1.22478">
        <ele>39.2</ele>
        <time>2011-11-26T15:56:12Z</time>
      </trkpt>
      <trkpt lat="43.34836" lon="1.22467">
        <ele>39.555</ele>
        <time>2011-11-26T15:56:13Z</time>
      </trkpt>
      <trkpt lat="43.34827" lon="1.22456">
        <ele>40.581</ele>
        <time>2011-11-26T15:56:14Z</time>
      </trkpt>
      <trkpt lat="43.34819" lon="1.22446">
        <ele>42.083</ele>
        <time>2011-11-26T15:56:15Z</time>
      </trkpt>
      <trkpt lat="43.34811" lon="1.22436">
        <ele>42.865</ele>
        <time>2011-11-26T15:56:16Z</time>
      </trkpt>
      <trkpt lat="43.34803" lon="1.22426">
        <ele>43.13</ele>
        <time>2011-11-26T15:56:17Z</time>
      </trkpt>
      <trkpt lat="43.34795" lon="1.22415">
        <ele>43.344</ele>
        <time>2011-11-26T15:56:18Z</time>
      </trkpt>
      <trkpt lat="43.34788" lon="1.22403">
        <ele>43.456</ele>
        <time>2011-11-26T15:56:19Z</time>
      </trkpt>
      <trkpt lat="43.34775" lon="1.22377">
        <ele>43.893</ele>
        <time>2011-11-26T15:56:21Z</time>
      </trkpt>
      <trkpt lat="43.34775" lon="1.22377">
        <ele>44.784</ele>
        <time>2011-11-26T15:56:21Z</time>
      </trkpt>
      <trkpt lat="43.34765" lon="1.22349">
        <ele>46.176</ele>
        <time>2011-11-26T15:56:23Z</time>
      </trkpt>
      <trkpt lat="43.34762" lon="1.22335">
        <ele>46.892</ele>
        <time>2011-11-26T15:56:24Z</time>
      </trkpt>
      <trkpt lat="43.3476" lon="1.2232">
        <ele>47.487</ele>
        <time>2011-11-26T15:56:25Z</time>
      </trkpt>
      <trkpt lat="43.34759" lon="1.22304">
        <ele>47.908</ele>
        <time>2011-11-26T15:56:26Z</time>
      </trkpt>
      <trkpt lat="43.3476" lon="1.22289">
        <ele>48.534</ele>
        <time>2011-11-26T15:56:27Z</time>
      </trkpt>
      <trkpt lat="43.34761" lon="1.22273">
        <ele>49.488</ele>
        <time>2011-11-26T15:56:28Z</time>
      </trkpt>
      <trkpt lat="43.34763" lon="1.22259">
        <ele>50.283</ele>
        <time>2011-11-26T15:56:29Z</time>
      </trkpt>
      <trkpt lat="43.34764" lon="1.22244">
        <ele>51.039</ele>
        <time>2011-11-26T15:56:30Z</time>
      </trkpt>
      <trkpt lat="43.34767" lon="1.22229">
        <ele>52.018</ele>
        <time>2011-11-26T15:56:31Z</time>
      </trkpt>
      <trkpt lat="43.34769" lon="1.22213">
        <ele>53.861</ele>
        <time>2011-11-26T15:56:32Z</time>
      </trkpt>
      <trkpt lat="43.34773" lon="1.22198">
        <ele>55.838</ele>
        <time>2011-11-26T15:56:33Z</time>
      </trkpt>
      <trkpt lat="43.34777" lon="1.22184">
        <ele>57.8</ele>
        <time>2011-11-26T15:56:34Z</time>
      </trkpt>
      <trkpt lat="43.34781" lon="1.2217">
        <ele>60.11</ele>
        <time>2011-11-26T15:56:35Z</time>
      </trkpt>
      <trkpt lat="43.34783" lon="1.22156">
        <ele>61.888</ele>
        <time>2011-11-26T15:56:36Z</time>
      </trkpt>
      <trkpt lat="43.34786" lon="1.22128">
        <ele>63.744</ele>
        <time>2011-11-26T15:56:38Z</time>
      </trkpt>
      <trkpt lat="43.34788" lon="1.22115">
        <ele>65.024</ele>
        <time>2011-11-26T15:56:39Z</time>
      </trkpt>
      <trkpt lat="43.34791" lon="1.22101">
        <ele>65.696</ele>
        <time>2011-11-26T15:56:40Z</time>
      </trkpt>
      <trkpt lat="43.34795" lon="1.22087">
        <ele>65.781</ele>
        <time>2011-11-26T15:56:41Z</time>
      </trkpt>
      <trkpt lat="43.34798" lon="1.22073">
        <ele>65.551</ele>
        <time>2011-11-26T15:56:42Z</time>
      </trkpt>
      <trkpt lat="43.34801" lon="1.22058">
        <ele>65.253</ele>
        <time>2011-11-26T15:56:43Z</time>
      </trkpt>
      <trkpt lat="43.34804" lon="1.22042">
        <ele>65.172</ele>
        <time>2011-11-26T15:56:44Z</time>
      </trkpt>
      <trkpt lat="43.34807" lon="1.22027">
        <ele>65.563</ele>
        <time>2011-11-26T15:56:45Z</time>
      </trkpt>
      <trkpt lat="43.34812" lon="1.22013">
        <ele>66.429</ele>
        <time>2011-11-26T15:56:46Z</time>
      </trkpt>
      <trkpt lat="43.34817" lon="1.22">
        <ele>67.391</ele>
        <time>2011-11-26T15:56:47Z</time>
      </trkpt>
      <trkpt lat="43.34822" lon="1.21987">
        <ele>68.108</ele>
        <time>2011-11-26T15:56:48Z</time>
      </trkpt>
      <trkpt lat="43.34825" lon="1.21974">
        <ele>68.372</ele>
        <time>2011-11-26T15:56:49Z</time>
      </trkpt>
      <trkpt lat="43.34829" lon="1.2196">
        <ele>68.282</ele>
        <time>2011-11-26T15:56:50Z</time>
      </trkpt>
      <trkpt lat="43.34834" lon="1.21947">
        <ele>67.985</ele>
        <time>2011-11-26T15:56:51Z</time>
      </trkpt>
      <trkpt lat="43.34839" lon="1.21933">
        <ele>67.627</ele>
        <time>2011-11-26T15:56:52Z</time>
      </trkpt>
      <trkpt lat="43.34845" lon="1.2192">
        <ele>67.649</ele>
        <time>2011-11-26T15:56:53Z</time>
      </trkpt>
      <trkpt lat="43.34853" lon="1.21891">
        <ele>68.486</ele>
        <time>2011-11-26T15:56:55Z</time>
      </trkpt>
      <trkpt lat="43.34853" lon="1.21877">
        <ele>69.855</ele>
        <time>2011-11-26T15:56:56Z</time>
      </trkpt>
      <trkpt lat="43.34851" lon="1.21864">
        <ele>70.909</ele>
        <time>2011-11-26T15:56:57Z</time>
      </trkpt>
      <trkpt lat="43.34846" lon="1.21852">
        <ele>71.339</ele>
        <time>2011-11-26T15:56:58Z</time>
      </trkpt>
      <trkpt lat="43.34838" lon="1.21841">
        <ele>70.762</ele>
        <time>2011-11-26T15:56:59Z</time>
      </trkpt>
      <trkpt lat="43.34827" lon="1.21834">
        <ele>69.551</ele>
        <time>2011-11-26T15:57:00Z</time>
      </trkpt>
      <trkpt lat="43.34815" lon="1.21832">
        <ele>68.996</ele>
        <time>2011-11-26T15:57:01Z</time>
      </trkpt>
      <trkpt lat="43.34804" lon="1.21833">
        <ele>69.665</ele>
        <time>2011-11-26T15:57:02Z</time>
      </trkpt>
      <trkpt lat="43.34795" lon="1.21838">
        <ele>70.842</ele>
        <time>2011-11-26T15:57:03Z</time>
      </trkpt>
      <trkpt lat="43.34785" lon="1.21844">
        <ele>72.352</ele>
        <time>2011-11-26T15:57:04Z</time>
      </trkpt>
      <trkpt lat="43.34778" lon="1.21851">
        <ele>72.873</ele>
        <time>2011-11-26T15:57:05Z</time>
      </trkpt>
      <trkpt lat="43.34771" lon="1.21858">
        <ele>72.347</ele>
        <time>2011-11-26T15:57:06Z</time>
      </trkpt>
      <trkpt lat="43.34763" lon="1.21867">
        <ele>70.971</ele>
        <time>2011-11-26T15:57:07Z</time>
      </trkpt>
      <trkpt lat="43.34748" lon="1.21889">
        <ele>69.42</ele>
        <time>2011-11-26T15:57:09Z</time>
      </trkpt>
      <trkpt lat="43.3474" lon="1.21901">
        <ele>68.691</ele>
        <time>2011-11-26T15:57:10Z</time>
      </trkpt>
      <trkpt lat="43.34732" lon="1.21913">
        <ele>69.008</ele>
        <time>2011-11-26T15:57:11Z</time>
      </trkpt>
      <trkpt lat="43.34732" lon="1.21913">
        <ele>70.688</ele>
        <time>2011-11-26T15:57:11Z</time>
      </trkpt>
      <trkpt lat="43.3472" lon="1.21936">
        <ele>73.296</ele>
        <time>2011-11-26T15:57:13Z</time>
      </trkpt>
      <trkpt lat="43.34715" lon="1.21947">
        <ele>74.867</ele>
        <time>2011-11-26T15:57:14Z</time>
      </trkpt>
      <trkpt lat="43.3471" lon="1.21959">
        <ele>75.743</ele>
        <time>2011-11-26T15:57:15Z</time>
      </trkpt>
      <trkpt lat="43.34706" lon="1.21972">
        <ele>76.32</ele>
        <time>2011-11-26T15:57:16Z</time>
      </trkpt>
      <trkpt lat="43.34705" lon="1.21987">
        <ele>76.214</ele>
        <time>2011-11-26T15:57:17Z</time>
      </trkpt>
      <trkpt lat="43.34706" lon="1.22002">
        <ele>76.222</ele>
        <time>2011-11-26T15:57:18Z</time>
      </trkpt>
      <trkpt lat="43.34709" lon="1.22016">
        <ele>76.608</ele>
        <time>2011-11-26T15:57:19Z</time>
      </trkpt>
      <trkpt lat="43.34713" lon="1.22029">
        <ele>77.367</ele>
        <time>2011-11-26T15:57:20Z</time>
      </trkpt>
      <trkpt lat="43.34718" lon="1.22042">
        <ele>77.882</ele>
        <time>2011-11-26T15:57:21Z</time>
      </trkpt>
      <trkpt lat="43.34722" lon="1.22055">
        <ele>77.919</ele>
        <time>2011-11-26T15:57:22Z</time>
      </trkpt>
      <trkpt lat="43.34726" lon="1.22069">
        <ele>77.824</ele>
        <time>2011-11-26T15:57:23Z</time>
      </trkpt>
      <trkpt lat="43.3473" lon="1.22083">
        <ele>78.054</ele>
        <time>2011-11-26T15:57:24Z</time>
      </trkpt>
      <trkpt lat="43.34739" lon="1.2211">
        <ele>78.684</ele>
        <time>2011-11-26T15:57:26Z</time>
      </trkpt>
      <trkpt lat="43.34739" lon="1.2211">
        <ele>79.474</ele>
        <time>2011-11-26T15:57:26Z</time>
      </trkpt>
      <trkpt lat="43.34749" lon="1.22135">
        <ele>80.106</ele>
        <time>2011-11-26T15:57:28Z</time>
      </trkpt>
      <trkpt lat="43.34753" lon="1.22147">
        <ele>80.234</ele>
        <time>2011-11-26T15:57:29Z</time>
      </trkpt>
      <trkpt lat="43.34757" lon="1.22161">
        <ele>80.287</ele>
        <time>2011-11-26T15:57:30Z</time>
      </trkpt>
      <trkpt lat="43.3476" lon="1.22176">
        <ele>80.453</ele>
        <time>2011-11-26T15:57:31Z</time>
      </trkpt>
      <trkpt lat="43.34764" lon="1.2219">
        <ele>81.04</ele>
        <time>2011-11-26T15:57:32Z</time>
      </trkpt>
      <trkpt lat="43.34769" lon="1.22203">
        <ele>82.542</ele>
        <time>2011-11-26T15:57:33Z</time>
      </trkpt>
      <trkpt lat="43.34774" lon="1.22217">
        <ele>84.697</ele>
        <time>2011-11-26T15:57:34Z</time>
      </trkpt>
      <trkpt lat="43.34778" lon="1.2223">
        <ele>86.599</ele>
        <time>2011-11-26T15:57:35Z</time>
      </trkpt>
      <trkpt lat="43.34782" lon="1.22244">
        <ele>88.943</ele>
        <time>2011-11-26T15:57:36Z</time>
      </trkpt>
      <trkpt lat="43.34786" lon="1.22257">
        <ele>90.484</ele>
        <time>2011-11-26T15:57:37Z</time>
      </trkpt>
      <trkpt lat="43.34786" lon="1.22257">
        <ele>91.365</ele>
        <time>2011-11-26T15:57:37Z</time>
      </trkpt>
      <trkpt lat="43.34799" lon="1.22278">
        <ele>91.965</ele>
        <time>2011-11-26T15:57:39Z</time>
      </trkpt>
      <trkpt lat="43.34818" lon="1.22292">
        <ele>92.278</ele>
        <time>2011-11-26T15:57:41Z</time>
      </trkpt>
      <trkpt lat="43.34818" lon="1.22292">
        <ele>92.375</ele>
        <time>2011-11-26T15:57:41Z</time>
      </trkpt>
      <trkpt lat="43.34838" lon="1.223">
        <ele>92.341</ele>
        <time>2011-11-26T15:57:43Z</time>
      </trkpt>
      <trkpt lat="43.34848" lon="1.22303">
        <ele>92.367</ele>
        <time>2011-11-26T15:57:44Z</time>
      </trkpt>
      <trkpt lat="43.34859" lon="1.22304">
        <ele>93.126</ele>
        <time>2011-11-26T15:57:45Z</time>
      </trkpt>
      <trkpt lat="43.34869" lon="1.22302">
        <ele>94.429</ele>
        <time>2011-11-26T15:57:46Z</time>
      </trkpt>
      <trkpt lat="43.34879" lon="1.22298">
        <ele>95.533</ele>
        <time>2011-11-26T15:57:47Z</time>
      </trkpt>
      <trkpt lat="43.34888" lon="1.22292">
        <ele>96.457</ele>
        <time>2011-11-26T15:57:48Z</time>
      </trkpt>
      <trkpt lat="43.34897" lon="1.22284">
        <ele>97.211</ele>
        <time>2011-11-26T15:57:49Z</time>
      </trkpt>
      <trkpt lat="43.34905" lon="1.22275">
        <ele>98.342</ele>
        <time>2011-11-26T15:57:50Z</time>
      </trkpt>
      <trkpt lat="43.34914" lon="1.22267">
        <ele>100.617</ele>
        <time>2011-11-26T15:57:51Z</time>
      </trkpt>
      <trkpt lat="43.34922" lon="1.22259">
        <ele>103.928</ele>
        <time>2011-11-26T15:57:52Z</time>
      </trkpt>
      <trkpt lat="43.3493" lon="1.22253">
        <ele>106.652</ele>
        <time>2011-11-26T15:57:53Z</time>
      </trkpt>
      <trkpt lat="43.34938" lon="1.22246">
        <ele>108.418</ele>
        <time>2011-11-26T15:57:54Z</time>
      </trkpt>
      <trkpt lat="43.34946" lon="1.22238">
        <ele>109.21</ele>
        <time>2011-11-26T15:57:55Z</time>
      </trkpt>
      <trkpt lat="43.34954" lon="1.22229">
        <ele>109.478</ele>
        <time>2011-11-26T15:57:56Z</time>
      </trkpt>
      <trkpt lat="43.34971" lon="1.22211">
        <ele>109.738</ele>
        <time>2011-11-26T15:57:58Z</time>
      </trkpt>
      <trkpt lat="43.34979" lon="1.22202">
        <ele>110.309</ele>
        <time>2011-11-26T15:57:59Z</time>
      </trkpt>
      <trkpt lat="43.34987" lon="1.22193">
        <ele>111.425</ele>
        <time>2011-11-26T15:58:00Z</time>
      </trkpt>
      <trkpt lat="43.34995" lon="1.22184">
        <ele>112.509</ele>
        <time>2011-11-26T15:58:01Z</time>
      </trkpt>
      <trkpt lat="43.35003" lon="1.22173">
        <ele>113.435</ele>
        <time>2011-11-26T15:58:02Z</time>
      </trkpt>
      <trkpt lat="43.35011" lon="1.22162">
        <ele>114.338</ele>
        <time>2011-11-26T15:58:03Z</time>
      </trkpt>
      <trkpt lat="43.35019" lon="1.22151">
        <ele>115.671</ele>
        <time>2011-11-26T15:58:04Z</time>
      </trkpt>
      <trkpt lat="43.35026" lon="1.22141">
        <ele>117.258</ele>
        <time>2011-11-26T15:58:05Z</time>
      </trkpt>
      <trkpt lat="43.35034" lon="1.22131">
        <ele>118.89</ele>
        <time>2011-11-26T15:58:06Z</time>
      </trkpt>
      <trkpt lat="43.35041" lon="1.2212">
        <ele>120.021</ele>
        <time>2011-11-26T15:58:07Z</time>
      </trkpt>
      <trkpt lat="43.35047" lon="1.22109">
        <ele>121.847</ele>
        <time>2011-11-26T15:58:08Z</time>
      </trkpt>
      <trkpt lat="43.35053" lon="1.22097">
        <ele>123.318</ele>
        <time>2011-11-26T15:58:09Z</time>
      </trkpt>
      <trkpt lat="43.3506" lon="1.22086">
        <ele>124.311</ele>
        <time>2011-11-26T15:58:10Z</time>
      </trkpt>
      <trkpt lat="43.35067" lon="1.22075">
        <ele>125.346</ele>
        <time>2011-11-26T15:58:11Z</time>
      </trkpt>
      <trkpt lat="43.35075" lon="1.22064">
        <ele>126.643</ele>
        <time>2011-11-26T15:58:12Z</time>
      </trkpt>
      <trkpt lat="43.35082" lon="1.22053">
        <ele>128.195</ele>
        <time>2011-11-26T15:58:13Z</time>
      </trkpt>
      <trkpt lat="43.35094" lon="1.2203">
        <ele>130.327</ele>
        <time>2011-11-26T15:58:15Z</time>
      </trkpt>
      <trkpt lat="43.351" lon="1.22019">
        <ele>131.891</ele>
        <time>2011-11-26T15:58:16Z</time>
      </trkpt>
      <trkpt lat="43.351" lon="1.22019">
        <ele>133.191</ele>
        <time>2011-11-26T15:58:16Z</time>
      </trkpt>
      <trkpt lat="43.35114" lon="1.21997">
        <ele>134.84</ele>
        <time>2011-11-26T15:58:18Z</time>
      </trkpt>
      <trkpt lat="43.3512" lon="1.21985">
        <ele>136.598</ele>
        <time>2011-11-26T15:58:19Z</time>
      </trkpt>
      <trkpt lat="43.35126" lon="1.21973">
        <ele>138.308</ele>
        <time>2011-11-26T15:58:20Z</time>
      </trkpt>
      <trkpt lat="43.35133" lon="1.21961">
        <ele>140.182</ele>
        <time>2011-11-26T15:58:21Z</time>
      </trkpt>
      <trkpt lat="43.3514" lon="1.2195">
        <ele>141.481</ele>
        <time>2011-11-26T15:58:22Z</time>
      </trkpt>
      <trkpt lat="43.35147" lon="1.21939">
        <ele>142.317</ele>
        <time>2011-11-26T15:58:23Z</time>
      </trkpt>
      <trkpt lat="43.35154" lon="1.21928">
        <ele>142.859</ele>
        <time>2011-11-26T15:58:24Z</time>
      </trkpt>
      <trkpt lat="43.35167" lon="1.21903">
        <ele>143.69</ele>
        <time>2011-11-26T15:58:26Z</time>
      </trkpt>
      <trkpt lat="43.35167" lon="1.21903">
        <ele>144.552</ele>
        <time>2011-11-26T15:58:26Z</time>
      </trkpt>
      <trkpt lat="43.3518" lon="1.21878">
        <ele>145.745</ele>
        <time>2011-11-26T15:58:28Z</time>
      </trkpt>
      <trkpt lat="43.35186" lon="1.21865">
        <ele>146.874</ele>
        <time>2011-11-26T15:58:29Z</time>
      </trkpt>
      <trkpt lat="43.35192" lon="1.21854">
        <ele>147.59</ele>
        <time>2011-11-26T15:58:30Z</time>
      </trkpt>
      <trkpt lat="43.35199" lon="1.21842">
        <ele>147.685</ele>
        <time>2011-11-26T15:58:31Z</time>
      </trkpt>
      <trkpt lat="43.35207" lon="1.21831">
        <ele>147.312</ele>
        <time>2011-11-26T15:58:32Z</time>
      </trkpt>
      <trkpt lat="43.35214" lon="1.21819">
        <ele>146.59</ele>
        <time>2011-11-26T15:58:33Z</time>
      </trkpt>
      <trkpt lat="43.35221" lon="1.21806">
        <ele>146.128</ele>
        <time>2011-11-26T15:58:34Z</time>
      </trkpt>
      <trkpt lat="43.35228" lon="1.21793">
        <ele>146.355</ele>
        <time>2011-11-26T15:58:35Z</time>
      </trkpt>
      <trkpt lat="43.35234" lon="1.2178">
        <ele>146.958</ele>
        <time>2011-11-26T15:58:36Z</time>
      </trkpt>
      <trkpt lat="43.35239" lon="1.21767">
        <ele>148.313</ele>
        <time>2011-11-26T15:58:37Z</time>
      </trkpt>
      <trkpt lat="43.35244" lon="1.21754">
        <ele>149.317</ele>
        <time>2011-11-26T15:58:38Z</time>
      </trkpt>
      <trkpt lat="43.35249" lon="1.21742">
        <ele>149.542</ele>
        <time>2011-11-26T15:58:39Z</time>
      </trkpt>
      <trkpt lat="43.35254" lon="1.21731">
        <ele>148.892</ele>
        <time>2011-11-26T15:58:40Z</time>
      </trkpt>
      <trkpt lat="43.3526" lon="1.21718">
        <ele>147.788</ele>
        <time>2011-11-26T15:58:41Z</time>
      </trkpt>
      <trkpt lat="43.35271" lon="1.21691">
        <ele>146.458</ele>
        <time>2011-11-26T15:58:43Z</time>
      </trkpt>
      <trkpt lat="43.35276" lon="1.21677">
        <ele>145.433</ele>
        <time>2011-11-26T15:58:44Z</time>
      </trkpt>
      <trkpt lat="43.35281" lon="1.21663">
        <ele>144.52</ele>
        <time>2011-11-26T15:58:45Z</time>
      </trkpt>
      <trkpt lat="43.35286" lon="1.2165">
        <ele>143.841</ele>
        <time>2011-11-26T15:58:46Z</time>
      </trkpt>
      <trkpt lat="43.3529" lon="1.21637">
        <ele>142.874</ele>
        <time>2011-11-26T15:58:47Z</time>
      </trkpt>
      <trkpt lat="43.35294" lon="1.21623">
        <ele>141.716</ele>
        <time>2011-11-26T15:58:48Z</time>
      </trkpt>
      <trkpt lat="43.35299" lon="1.21609">
        <ele>140.117</ele>
        <time>2011-11-26T15:58:49Z</time>
      </trkpt>
      <trkpt lat="43.35303" lon="1.21595">
        <ele>139.106</ele>
        <time>2011-11-26T15:58:50Z</time>
      </trkpt>
      <trkpt lat="43.35307" lon="1.21582">
        <ele>138.783</ele>
        <time>2011-11-26T15:58:51Z</time>
      </trkpt>
      <trkpt lat="43.35311" lon="1.21568">
        <ele>138.76</ele>
        <time>2011-11-26T15:58:52Z</time>
      </trkpt>
      <trkpt lat="43.35314" lon="1.21554">
        <ele>138.509</ele>
        <time>2011-11-26T15:58:53Z</time>
      </trkpt>
      <trkpt lat="43.35317" lon="1.2154">
        <ele>138.067</ele>
        <time>2011-11-26T15:58:54Z</time>
      </trkpt>
      <trkpt lat="43.35322" lon="1.21526">
        <ele>137.391</ele>
        <time>2011-11-26T15:58:55Z</time>
      </trkpt>
      <trkpt lat="43.35326" lon="1.21512">
        <ele>136.933</ele>
        <time>2011-11-26T15:58:56Z</time>
      </trkpt>
      <trkpt lat="43.35337" lon="1.21485">
        <ele>136.596</ele>
        <time>2011-11-26T15:58:58Z</time>
      </trkpt>
      <trkpt lat="43.35343" lon="1.21473">
        <ele>135.974</ele>
        <time>2011-11-26T15:58:59Z</time>
      </trkpt>
      <trkpt lat="43.35351" lon="1.21463">
        <ele>135.189</ele>
        <time>2011-11-26T15:59:00Z</time>
      </trkpt>
      <trkpt lat="43.35361" lon="1.21455">
        <ele>134.007</ele>
        <time>2011-11-26T15:59:01Z</time>
      </trkpt>
      <trkpt lat="43.35371" lon="1.21452">
        <ele>133.24</ele>
        <time>2011-11-26T15:59:02Z</time>
      </trkpt>
      <trkpt lat="43.35382" lon="1.21452">
        <ele>133.175</ele>
        <time>2011-11-26T15:59:03Z</time>
      </trkpt>
      <trkpt lat="43.35392" lon="1.21456">
        <ele>133.77</ele>
        <time>2011-11-26T15:59:04Z</time>
      </trkpt>
      <trkpt lat="43.35401" lon="1.21462">
        <ele>134.43</ele>
        <time>2011-11-26T15:59:05Z</time>
      </trkpt>
      <trkpt lat="43.35407" lon="1.21471">
        <ele>135.21</ele>
        <time>2011-11-26T15:59:06Z</time>
      </trkpt>
      <trkpt lat="43.35412" lon="1.21481">
        <ele>135.434</ele>
        <time>2011-11-26T15:59:07Z</time>
      </trkpt>
      <trkpt lat="43.35415" lon="1.21493">
        <ele>134.804</ele>
        <time>2011-11-26T15:59:08Z</time>
      </trkpt>
      <trkpt lat="43.35416" lon="1.21506">
        <ele>133.206</ele>
        <time>2011-11-26T15:59:09Z</time>
      </trkpt>
      <trkpt lat="43.35415" lon="1.21521">
        <ele>131.541</ele>
        <time>2011-11-26T15:59:10Z</time>
      </trkpt>
      <trkpt lat="43.35412" lon="1.21535">
        <ele>130.086</ele>
        <time>2011-11-26T15:59:11Z</time>
      </trkpt>
      <trkpt lat="43.35403" lon="1.21564">
        <ele>129.017</ele>
        <time>2011-11-26T15:59:13Z</time>
      </trkpt>
      <trkpt lat="43.35399" lon="1.21579">
        <ele>128.393</ele>
        <time>2011-11-26T15:59:14Z</time>
      </trkpt>
      <trkpt lat="43.35395" lon="1.21593">
        <ele>127.791</ele>
        <time>2011-11-26T15:59:15Z</time>
      </trkpt>
      <trkpt lat="43.35391" lon="1.21608">
        <ele>127.605</ele>
        <time>2011-11-26T15:59:16Z</time>
      </trkpt>
      <trkpt lat="43.35386" lon="1.21622">
        <ele>127.439</ele>
        <time>2011-11-26T15:59:17Z</time>
      </trkpt>
      <trkpt lat="43.35381" lon="1.21636">
        <ele>127.345</ele>
        <time>2011-11-26T15:59:18Z</time>
      </trkpt>
      <trkpt lat="43.35376" lon="1.2165">
        <ele>127.397</ele>
        <time>2011-11-26T15:59:19Z</time>
      </trkpt>
      <trkpt lat="43.35371" lon="1.21663">
        <ele>127.372</ele>
        <time>2011-11-26T15:59:20Z</time>
      </trkpt>
      <trkpt lat="43.35364" lon="1.21676">
        <ele>127.235</ele>
        <time>2011-11-26T15:59:21Z</time>
      </trkpt>
      <trkpt lat="43.35355" lon="1.21686">
        <ele>127.176</ele>
        <time>2011-11-26T15:59:22Z</time>
      </trkpt>
      <trkpt lat="43.35344" lon="1.21694">
        <ele>127.453</ele>
        <time>2011-11-26T15:59:23Z</time>
      </trkpt>
      <trkpt lat="43.35334" lon="1.217">
        <ele>128.01</ele>
        <time>2011-11-26T15:59:24Z</time>
      </trkpt>
      <trkpt lat="43.35334" lon="1.217">
        <ele>127.979</ele>
        <time>2011-11-26T15:59:24Z</time>
      </trkpt>
      <trkpt lat="43.35315" lon="1.21711">
        <ele>126.826</ele>
        <time>2011-11-26T15:59:26Z</time>
      </trkpt>
      <trkpt lat="43.35294" lon="1.21724">
        <ele>124.856</ele>
        <time>2011-11-26T15:59:28Z</time>
      </trkpt>
      <trkpt lat="43.35282" lon="1.21729">
        <ele>123.146</ele>
        <time>2011-11-26T15:59:29Z</time>
      </trkpt>
      <trkpt lat="43.35271" lon="1.21733">
        <ele>122.283</ele>
        <time>2011-11-26T15:59:30Z</time>
      </trkpt>
      <trkpt lat="43.3526" lon="1.21737">
        <ele>122.286</ele>
        <time>2011-11-26T15:59:31Z</time>
      </trkpt>
      <trkpt lat="43.35249" lon="1.2174">
        <ele>122.695</ele>
        <time>2011-11-26T15:59:32Z</time>
      </trkpt>
      <trkpt lat="43.35239" lon="1.21744">
        <ele>122.717</ele>
        <time>2011-11-26T15:59:33Z</time>
      </trkpt>
      <trkpt lat="43.35229" lon="1.21747">
        <ele>122.046</ele>
        <time>2011-11-26T15:59:34Z</time>
      </trkpt>
      <trkpt lat="43.35217" lon="1.21749">
        <ele>121.127</ele>
        <time>2011-11-26T15:59:35Z</time>
      </trkpt>
      <trkpt lat="43.35206" lon="1.21751">
        <ele>119.956</ele>
        <time>2011-11-26T15:59:36Z</time>
      </trkpt>
      <trkpt lat="43.35194" lon="1.21753">
        <ele>119.411</ele>
        <time>2011-11-26T15:59:37Z</time>
      </trkpt>
      <trkpt lat="43.35182" lon="1.21756">
        <ele>119.235</ele>
        <time>2011-11-26T15:59:38Z</time>
      </trkpt>
      <trkpt lat="43.35172" lon="1.21759">
        <ele>118.937</ele>
        <time>2011-11-26T15:59:39Z</time>
      </trkpt>
      <trkpt lat="43.35161" lon="1.21761">
        <ele>118.29</ele>
        <time>2011-11-26T15:59:40Z</time>
      </trkpt>
      <trkpt lat="43.3515" lon="1.21764">
        <ele>117.507</ele>
        <time>2011-11-26T15:59:41Z</time>
      </trkpt>
      <trkpt lat="43.35138" lon="1.21766">
        <ele>116.593</ele>
        <time>2011-11-26T15:59:42Z</time>
      </trkpt>
      <trkpt lat="43.35114" lon="1.21769">
        <ele>115.252</ele>
        <time>2011-11-26T15:59:44Z</time>
      </trkpt>
      <trkpt lat="43.35101" lon="1.2177">
        <ele>114.188</ele>
        <time>2011-11-26T15:59:45Z</time>
      </trkpt>
      <trkpt lat="43.35088" lon="1.21771">
        <ele>113.885</ele>
        <time>2011-11-26T15:59:46Z</time>
      </trkpt>
      <trkpt lat="43.35076" lon="1.21771">
        <ele>114.309</ele>
        <time>2011-11-26T15:59:47Z</time>
      </trkpt>
      <trkpt lat="43.35064" lon="1.21771">
        <ele>115.148</ele>
        <time>2011-11-26T15:59:48Z</time>
      </trkpt>
      <trkpt lat="43.35053" lon="1.21772">
        <ele>115.011</ele>
        <time>2011-11-26T15:59:49Z</time>
      </trkpt>
      <trkpt lat="43.35042" lon="1.21772">
        <ele>113.918</ele>
        <time>2011-11-26T15:59:50Z</time>
      </trkpt>
      <trkpt lat="43.35031" lon="1.21774">
        <ele>112.71</ele>
        <time>2011-11-26T15:59:51Z</time>
      </trkpt>
      <trkpt lat="43.35019" lon="1.21775">
        <ele>111.397</ele>
        <time>2011-11-26T15:59:52Z</time>
      </trkpt>
      <trkpt lat="43.35007" lon="1.21777">
        <ele>110.945</ele>
        <time>2011-11-26T15:59:53Z</time>
      </trkpt>
      <trkpt lat="43.34996" lon="1.2178">
        <ele>111.158</ele>
        <time>2011-11-26T15:59:54Z</time>
      </trkpt>
      <trkpt lat="43.34986" lon="1.21785">
        <ele>111.355</ele>
        <time>2011-11-26T15:59:55Z</time>
      </trkpt>
      <trkpt lat="43.34978" lon="1.21793">
        <ele>111.444</ele>
        <time>2011-11-26T15:59:56Z</time>
      </trkpt>
      <trkpt lat="43.34963" lon="1.21812">
        <ele>111.336</ele>
        <time>2011-11-26T15:59:58Z</time>
      </trkpt>
      <trkpt lat="43.34957" lon="1.21823">
        <ele>111.071</ele>
        <time>2011-11-26T15:59:59Z</time>
      </trkpt>
      <trkpt lat="43.34951" lon="1.21835">
        <ele>110.377</ele>
        <time>2011-11-26T16:00:00Z</time>
      </trkpt>
      <trkpt lat="43.34946" lon="1.21847">
        <ele>109.488</ele>
        <time>2011-11-26T16:00:01Z</time>
      </trkpt>
      <trkpt lat="43.34943" lon="1.21861">
        <ele>108.493</ele>
        <time>2011-11-26T16:00:02Z</time>
      </trkpt>
      <trkpt lat="43.3494" lon="1.21876">
        <ele>107.274</ele>
        <time>2011-11-26T16:00:03Z</time>
      </trkpt>
      <trkpt lat="43.34939" lon="1.21891">
        <ele>105.917</ele>
        <time>2011-11-26T16:00:04Z</time>
      </trkpt>
      <trkpt lat="43.34939" lon="1.21906">
        <ele>104.655</ele>
        <time>2011-11-26T16:00:05Z</time>
      </trkpt>
      <trkpt lat="43.3494" lon="1.21921">
        <ele>103.049</ele>
        <time>2011-11-26T16:00:06Z</time>
      </trkpt>
      <trkpt lat="43.34941" lon="1.21937">
        <ele>100.896</ele>
        <time>2011-11-26T16:00:07Z</time>
      </trkpt>
      <trkpt lat="43.34942" lon="1.21953">
        <ele>99.018</ele>
        <time>2011-11-26T16:00:08Z</time>
      </trkpt>
      <trkpt lat="43.34942" lon="1.21953">
        <ele>97.527</ele>
        <time>2011-11-26T16:00:08Z</time>
      </trkpt>
      <trkpt lat="43.34944" lon="1.21987">
        <ele>96.307</ele>
        <time>2011-11-26T16:00:10Z</time>
      </trkpt>
      <trkpt lat="43.34946" lon="1.22004">
        <ele>95.29</ele>
        <time>2011-11-26T16:00:11Z</time>
      </trkpt>
      <trkpt lat="43.34948" lon="1.2202">
        <ele>94.534</ele>
        <time>2011-11-26T16:00:12Z</time>
      </trkpt>
      <trkpt lat="43.34951" lon="1.22035">
        <ele>93.941</ele>
        <time>2011-11-26T16:00:13Z</time>
      </trkpt>
      <trkpt lat="43.34955" lon="1.22065">
        <ele>93.201</ele>
        <time>2011-11-26T16:00:15Z</time>
      </trkpt>
      <trkpt lat="43.34958" lon="1.22079">
        <ele>92.395</ele>
        <time>2011-11-26T16:00:16Z</time>
      </trkpt>
      <trkpt lat="43.34961" lon="1.22094">
        <ele>91.46</ele>
        <time>2011-11-26T16:00:17Z</time>
      </trkpt>
      <trkpt lat="43.34965" lon="1.22108">
        <ele>90.258</ele>
        <time>2011-11-26T16:00:18Z</time>
      </trkpt>
      <trkpt lat="43.34969" lon="1.22122">
        <ele>89.232</ele>
        <time>2011-11-26T16:00:19Z</time>
      </trkpt>
      <trkpt lat="43.34973" lon="1.22137">
        <ele>87.759</ele>
        <time>2011-11-26T16:00:20Z</time>
      </trkpt>
      <trkpt lat="43.34977" lon="1.22152">
        <ele>86.442</ele>
        <time>2011-11-26T16:00:21Z</time>
      </trkpt>
      <trkpt lat="43.34982" lon="1.22167">
        <ele>85.202</ele>
        <time>2011-11-26T16:00:22Z</time>
      </trkpt>
      <trkpt lat="43.34987" lon="1.2218">
        <ele>84.285</ele>
        <time>2011-11-26T16:00:23Z</time>
      </trkpt>
      <trkpt lat="43.34993" lon="1.22194">
        <ele>83.514</ele>
        <time>2011-11-26T16:00:24Z</time>
      </trkpt>
      <trkpt lat="43.34999" lon="1.22207">
        <ele>82.734</ele>
        <time>2011-11-26T16:00:25Z</time>
      </trkpt>
      <trkpt lat="43.34999" lon="1.22207">
        <ele>82.227</ele>
        <time>2011-11-26T16:00:25Z</time>
      </trkpt>
      <trkpt lat="43.35013" lon="1.2225">
        <ele>82</ele>
        <time>2011-11-26T16:00:28Z</time>
      </trkpt>
      <trkpt lat="43.35019" lon="1.22263">
        <ele>81.73</ele>
        <time>2011-11-26T16:00:29Z</time>
      </trkpt>
      <trkpt lat="43.35025" lon="1.22276">
        <ele>81.516</ele>
        <time>2011-11-26T16:00:30Z</time>
      </trkpt>
      <trkpt lat="43.35031" lon="1.2229">
        <ele>81.487</ele>
        <time>2011-11-26T16:00:31Z</time>
      </trkpt>
      <trkpt lat="43.35037" lon="1.22303">
        <ele>81.943</ele>
        <time>2011-11-26T16:00:32Z</time>
      </trkpt>
      <trkpt lat="43.35041" lon="1.22317">
        <ele>82.554</ele>
        <time>2011-11-26T16:00:33Z</time>
      </trkpt>
      <trkpt lat="43.35044" lon="1.22331">
        <ele>83.523</ele>
        <time>2011-11-26T16:00:34Z</time>
      </trkpt>
      <trkpt lat="43.35046" lon="1.22345">
        <ele>84.204</ele>
        <time>2011-11-26T16:00:35Z</time>
      </trkpt>
      <trkpt lat="43.35047" lon="1.2236">
        <ele>84.573</ele>
        <time>2011-11-26T16:00:36Z</time>
      </trkpt>
      <trkpt lat="43.35046" lon="1.22376">
        <ele>84.919</ele>
        <time>2011-11-26T16:00:37Z</time>
      </trkpt>
      <trkpt lat="43.35045" lon="1.22393">
        <ele>85.886</ele>
        <time>2011-11-26T16:00:38Z</time>
      </trkpt>
      <trkpt lat="43.35042" lon="1.22409">
        <ele>87.738</ele>
        <time>2011-11-26T16:00:39Z</time>
      </trkpt>
      <trkpt lat="43.35037" lon="1.22423">
        <ele>89.566</ele>
        <time>2011-11-26T16:00:40Z</time>
      </trkpt>
      <trkpt lat="43.35037" lon="1.22423">
        <ele>91.474</ele>
        <time>2011-11-26T16:00:40Z</time>
      </trkpt>
      <trkpt lat="43.35017" lon="1.22458">
        <ele>91.993</ele>
        <time>2011-11-26T16:00:43Z</time>
      </trkpt>
      <trkpt lat="43.35006" lon="1.22465">
        <ele>91.442</ele>
        <time>2011-11-26T16:00:44Z</time>
      </trkpt>
      <trkpt lat="43.34996" lon="1.22473">
        <ele>89.925</ele>
        <time>2011-11-26T16:00:45Z</time>
      </trkpt>
      <trkpt lat="43.34984" lon="1.22481">
        <ele>88.486</ele>
        <time>2011-11-26T16:00:46Z</time>
      </trkpt>
      <trkpt lat="43.34972" lon="1.22491">
        <ele>87.323</ele>
        <time>2011-11-26T16:00:47Z</time>
      </trkpt>
      <trkpt lat="43.34961" lon="1.22501">
        <ele>86.477</ele>
        <time>2011-11-26T16:00:48Z</time>
      </trkpt>
      <trkpt lat="43.34951" lon="1.22513">
        <ele>86.182</ele>
        <time>2011-11-26T16:00:49Z</time>
      </trkpt>
      <trkpt lat="43.34941" lon="1.22524">
        <ele>86.323</ele>
        <time>2011-11-26T16:00:50Z</time>
      </trkpt>
      <trkpt lat="43.34931" lon="1.22534">
        <ele>87.089</ele>
        <time>2011-11-26T16:00:51Z</time>
      </trkpt>
      <trkpt lat="43.34921" lon="1.22542">
        <ele>88.169</ele>
        <time>2011-11-26T16:00:52Z</time>
      </trkpt>
      <trkpt lat="43.34912" lon="1.2255">
        <ele>88.418</ele>
        <time>2011-11-26T16:00:53Z</time>
      </trkpt>
      <trkpt lat="43.34903" lon="1.22559">
        <ele>88.067</ele>
        <time>2011-11-26T16:00:54Z</time>
      </trkpt>
      <trkpt lat="43.34894" lon="1.22568">
        <ele>87.581</ele>
        <time>2011-11-26T16:00:55Z</time>
      </trkpt>
      <trkpt lat="43.34884" lon="1.22577">
        <ele>87.138</ele>
        <time>2011-11-26T16:00:56Z</time>
      </trkpt>
      <trkpt lat="43.34874" lon="1.22582">
        <ele>86.313</ele>
        <time>2011-11-26T16:00:57Z</time>
      </trkpt>
      <trkpt lat="43.34852" lon="1.22576">
        <ele>85.468</ele>
        <time>2011-11-26T16:00:59Z</time>
      </trkpt>
      <trkpt lat="43.34843" lon="1.22567">
        <ele>84.975</ele>
        <time>2011-11-26T16:01:00Z</time>
      </trkpt>
      <trkpt lat="43.34834" lon="1.22557">
        <ele>85.156</ele>
        <time>2011-11-26T16:01:01Z</time>
      </trkpt>
      <trkpt lat="43.34834" lon="1.22557">
        <ele>85.986</ele>
        <time>2011-11-26T16:01:01Z</time>
      </trkpt>
      <trkpt lat="43.34824" lon="1.22534">
        <ele>86.436</ele>
        <time>2011-11-26T16:01:03Z</time>
      </trkpt>
      <trkpt lat="43.34822" lon="1.2252">
        <ele>86.016</ele>
        <time>2011-11-26T16:01:04Z</time>
      </trkpt>
      <trkpt lat="43.34822" lon="1.22505">
        <ele>84.42</ele>
        <time>2011-11-26T16:01:05Z</time>
      </trkpt>
      <trkpt lat="43.34822" lon="1.22489">
        <ele>82.719</ele>
        <time>2011-11-26T16:01:06Z</time>
      </trkpt>
      <trkpt lat="43.34823" lon="1.22473">
        <ele>81.239</ele>
        <time>2011-11-26T16:01:07Z</time>
      </trkpt>
      <trkpt lat="43.34823" lon="1.22456">
        <ele>79.922</ele>
        <time>2011-11-26T16:01:08Z</time>
      </trkpt>
      <trkpt lat="43.34824" lon="1.22441">
        <ele>79.376</ele>
        <time>2011-11-26T16:01:09Z</time>
      </trkpt>
      <trkpt lat="43.34826" lon="1.22426">
        <ele>79.269</ele>
        <time>2011-11-26T16:01:10Z</time>
      </trkpt>
      <trkpt lat="43.3483" lon="1.22412">
        <ele>79.01</ele>
        <time>2011-11-26T16:01:11Z</time>
      </trkpt>
      <trkpt lat="43.34837" lon="1.224">
        <ele>78.158</ele>
        <time>2011-11-26T16:01:12Z</time>
      </trkpt>
      <trkpt lat="43.34837" lon="1.224">
        <ele>77.484</ele>
        <time>2011-11-26T16:01:12Z</time>
      </trkpt>
      <trkpt lat="43.34859" lon="1.22365">
        <ele>77.331</ele>
        <time>2011-11-26T16:01:15Z</time>
      </trkpt>
      <trkpt lat="43.34866" lon="1.22354">
        <ele>77.385</ele>
        <time>2011-11-26T16:01:16Z</time>
      </trkpt>
      <trkpt lat="43.34866" lon="1.22354">
        <ele>77.327</ele>
        <time>2011-11-26T16:01:16Z</time>
      </trkpt>
      <trkpt lat="43.3488" lon="1.22333">
        <ele>76.8</ele>
        <time>2011-11-26T16:01:18Z</time>
      </trkpt>
      <trkpt lat="43.34888" lon="1.22323">
        <ele>75.834</ele>
        <time>2011-11-26T16:01:19Z</time>
      </trkpt>
      <trkpt lat="43.34895" lon="1.22312">
        <ele>74.531</ele>
        <time>2011-11-26T16:01:20Z</time>
      </trkpt>
      <trkpt lat="43.34903" lon="1.22301">
        <ele>73.515</ele>
        <time>2011-11-26T16:01:21Z</time>
      </trkpt>
      <trkpt lat="43.34911" lon="1.2229">
        <ele>72.582</ele>
        <time>2011-11-26T16:01:22Z</time>
      </trkpt>
      <trkpt lat="43.34918" lon="1.22281">
        <ele>71.496</ele>
        <time>2011-11-26T16:01:23Z</time>
      </trkpt>
      <trkpt lat="43.34926" lon="1.22271">
        <ele>70.268</ele>
        <time>2011-11-26T16:01:24Z</time>
      </trkpt>
      <trkpt lat="43.34934" lon="1.22261">
        <ele>68.889</ele>
        <time>2011-11-26T16:01:25Z</time>
      </trkpt>
      <trkpt lat="43.34943" lon="1.2225">
        <ele>67.167</ele>
        <time>2011-11-26T16:01:26Z</time>
      </trkpt>
      <trkpt lat="43.34951" lon="1.22238">
        <ele>66.021</ele>
        <time>2011-11-26T16:01:27Z</time>
      </trkpt>
      <trkpt lat="43.3496" lon="1.22227">
        <ele>65.669</ele>
        <time>2011-11-26T16:01:28Z</time>
      </trkpt>
      <trkpt lat="43.34978" lon="1.22207">
        <ele>65.421</ele>
        <time>2011-11-26T16:01:30Z</time>
      </trkpt>
      <trkpt lat="43.34987" lon="1.22197">
        <ele>65.307</ele>
        <time>2011-11-26T16:01:31Z</time>
      </trkpt>
      <trkpt lat="43.34987" lon="1.22197">
        <ele>64.999</ele>
        <time>2011-11-26T16:01:31Z</time>
      </trkpt>
      <trkpt lat="43.35004" lon="1.22177">
        <ele>64.575</ele>
        <time>2011-11-26T16:01:33Z</time>
      </trkpt>
      <trkpt lat="43.35012" lon="1.22166">
        <ele>64.235</ele>
        <time>2011-11-26T16:01:34Z</time>
      </trkpt>
      <trkpt lat="43.3502" lon="1.22156">
        <ele>64.148</ele>
        <time>2011-11-26T16:01:35Z</time>
      </trkpt>
      <trkpt lat="43.35028" lon="1.22146">
        <ele>64.074</ele>
        <time>2011-11-26T16:01:36Z</time>
      </trkpt>
      <trkpt lat="43.35036" lon="1.22137">
        <ele>63.692</ele>
        <time>2011-11-26T16:01:37Z</time>
      </trkpt>
      <trkpt lat="43.35044" lon="1.22128">
        <ele>62.629</ele>
        <time>2011-11-26T16:01:38Z</time>
      </trkpt>
      <trkpt lat="43.35052" lon="1.22117">
        <ele>60.645</ele>
        <time>2011-11-26T16:01:39Z</time>
      </trkpt>
      <trkpt lat="43.35061" lon="1.22106">
        <ele>59.046</ele>
        <time>2011-11-26T16:01:40Z</time>
      </trkpt>
      <trkpt lat="43.35069" lon="1.22095">
        <ele>58.163</ele>
        <time>2011-11-26T16:01:41Z</time>
      </trkpt>
      <trkpt lat="43.35077" lon="1.22085">
        <ele>57.526</ele>
        <time>2011-11-26T16:01:42Z</time>
      </trkpt>
      <trkpt lat="43.35085" lon="1.22075">
        <ele>57.106</ele>
        <time>2011-11-26T16:01:43Z</time>
      </trkpt>
      <trkpt lat="43.35101" lon="1.22054">
        <ele>56.642</ele>
        <time>2011-11-26T16:01:45Z</time>
      </trkpt>
      <trkpt lat="43.35108" lon="1.22043">
        <ele>55.784</ele>
        <time>2011-11-26T16:01:46Z</time>
      </trkpt>
      <trkpt lat="43.35108" lon="1.22043">
        <ele>54.73</ele>
        <time>2011-11-26T16:01:46Z</time>
      </trkpt>
      <trkpt lat="43.35125" lon="1.22022">
        <ele>54.036</ele>
        <time>2011-11-26T16:01:48Z</time>
      </trkpt>
      <trkpt lat="43.35133" lon="1.22011">
        <ele>54.023</ele>
        <time>2011-11-26T16:01:49Z</time>
      </trkpt>
      <trkpt lat="43.3514" lon="1.21999">
        <ele>54.692</ele>
        <time>2011-11-26T16:01:50Z</time>
      </trkpt>
      <trkpt lat="43.35147" lon="1.21987">
        <ele>55.583</ele>
        <time>2011-11-26T16:01:51Z</time>
      </trkpt>
      <trkpt lat="43.35154" lon="1.21975">
        <ele>56.833</ele>
        <time>2011-11-26T16:01:52Z</time>
      </trkpt>
      <trkpt lat="43.35161" lon="1.21965">
        <ele>57.909</ele>
        <time>2011-11-26T16:01:53Z</time>
      </trkpt>
      <trkpt lat="43.35168" lon="1.21956">
        <ele>57.794</ele>
        <time>2011-11-26T16:01:54Z</time>
      </trkpt>
      <trkpt lat="43.35175" lon="1.21946">
        <ele>56.897</ele>
        <time>2011-11-26T16:01:55Z</time>
      </trkpt>
      <trkpt lat="43.35183" lon="1.21936">
        <ele>55.738</ele>
        <time>2011-11-26T16:01:56Z</time>
      </trkpt>
      <trkpt lat="43.35183" lon="1.21936">
        <ele>55.065</ele>
        <time>2011-11-26T16:01:56Z</time>
      </trkpt>
      <trkpt lat="43.352" lon="1.21913">
        <ele>54.277</ele>
        <time>2011-11-26T16:01:58Z</time>
      </trkpt>
      <trkpt lat="43.35208" lon="1.21902">
        <ele>53.859</ele>
        <time>2011-11-26T16:01:59Z</time>
      </trkpt>
      <trkpt lat="43.35225" lon="1.2188">
        <ele>53.462</ele>
        <time>2011-11-26T16:02:01Z</time>
      </trkpt>
      <trkpt lat="43.35225" lon="1.2188">
        <ele>53.076</ele>
        <time>2011-11-26T16:02:01Z</time>
      </trkpt>
      <trkpt lat="43.35241" lon="1.21856">
        <ele>52.52</ele>
        <time>2011-11-26T16:02:03Z</time>
      </trkpt>
      <trkpt lat="43.35248" lon="1.21845">
        <ele>52.045</ele>
        <time>2011-11-26T16:02:04Z</time>
      </trkpt>
      <trkpt lat="43.35255" lon="1.21832">
        <ele>51.633</ele>
        <time>2011-11-26T16:02:05Z</time>
      </trkpt>
      <trkpt lat="43.35261" lon="1.2182">
        <ele>51.074</ele>
        <time>2011-11-26T16:02:06Z</time>
      </trkpt>
      <trkpt lat="43.35267" lon="1.21807">
        <ele>50.117</ele>
        <time>2011-11-26T16:02:07Z</time>
      </trkpt>
      <trkpt lat="43.35273" lon="1.21794">
        <ele>48.939</ele>
        <time>2011-11-26T16:02:08Z</time>
      </trkpt>
      <trkpt lat="43.35279" lon="1.21781">
        <ele>47.779</ele>
        <time>2011-11-26T16:02:09Z</time>
      </trkpt>
      <trkpt lat="43.35286" lon="1.21768">
        <ele>47.045</ele>
        <time>2011-11-26T16:02:10Z</time>
      </trkpt>
      <trkpt lat="43.35294" lon="1.21758">
        <ele>46.258</ele>
        <time>2011-11-26T16:02:11Z</time>
      </trkpt>
      <trkpt lat="43.35303" lon="1.21752">
        <ele>45.329</ele>
        <time>2011-11-26T16:02:12Z</time>
      </trkpt>
      <trkpt lat="43.35313" lon="1.21749">
        <ele>44.783</ele>
        <time>2011-11-26T16:02:13Z</time>
      </trkpt>
      <trkpt lat="43.35323" lon="1.2175">
        <ele>44.889</ele>
        <time>2011-11-26T16:02:14Z</time>
      </trkpt>
      <trkpt lat="43.35333" lon="1.21754">
        <ele>45.926</ele>
        <time>2011-11-26T16:02:15Z</time>
      </trkpt>
      <trkpt lat="43.35341" lon="1.2176">
        <ele>47.165</ele>
        <time>2011-11-26T16:02:16Z</time>
      </trkpt>
      <trkpt lat="43.35348" lon="1.21767">
        <ele>47.85</ele>
        <time>2011-11-26T16:02:17Z</time>
      </trkpt>
      <trkpt lat="43.35357" lon="1.21789">
        <ele>47.337</ele>
        <time>2011-11-26T16:02:19Z</time>
      </trkpt>
      <trkpt lat="43.35359" lon="1.21803">
        <ele>46.546</ele>
        <time>2011-11-26T16:02:20Z</time>
      </trkpt>
      <trkpt lat="43.3536" lon="1.21817">
        <ele>45.856</ele>
        <time>2011-11-26T16:02:21Z</time>
      </trkpt>
      <trkpt lat="43.3536" lon="1.21817">
        <ele>45.426</ele>
        <time>2011-11-26T16:02:21Z</time>
      </trkpt>
      <trkpt lat="43.35362" lon="1.21845">
        <ele>45.453</ele>
        <time>2011-11-26T16:02:23Z</time>
      </trkpt>
      <trkpt lat="43.35361" lon="1.21859">
        <ele>45.613</ele>
        <time>2011-11-26T16:02:24Z</time>
      </trkpt>
      <trkpt lat="43.3536" lon="1.21873">
        <ele>45.917</ele>
        <time>2011-11-26T16:02:25Z</time>
      </trkpt>
      <trkpt lat="43.35358" lon="1.21887">
        <ele>45.804</ele>
        <time>2011-11-26T16:02:26Z</time>
      </trkpt>
      <trkpt lat="43.35356" lon="1.21901">
        <ele>45.105</ele>
        <time>2011-11-26T16:02:27Z</time>
      </trkpt>
      <trkpt lat="43.35353" lon="1.21916">
        <ele>43.957</ele>
        <time>2011-11-26T16:02:28Z</time>
      </trkpt>
      <trkpt lat="43.3535" lon="1.21931">
        <ele>43.064</ele>
        <time>2011-11-26T16:02:29Z</time>
      </trkpt>
      <trkpt lat="43.35347" lon="1.21945">
        <ele>42.116</ele>
        <time>2011-11-26T16:02:30Z</time>
      </trkpt>
      <trkpt lat="43.35343" lon="1.21959">
        <ele>41.432</ele>
        <time>2011-11-26T16:02:31Z</time>
      </trkpt>
      <trkpt lat="43.3534" lon="1.21974">
        <ele>40.434</ele>
        <time>2011-11-26T16:02:32Z</time>
      </trkpt>
      <trkpt lat="43.35338" lon="1.21988">
        <ele>39.217</ele>
        <time>2011-11-26T16:02:33Z</time>
      </trkpt>
      <trkpt lat="43.35333" lon="1.22018">
        <ele>38.233</ele>
        <time>2011-11-26T16:02:35Z</time>
      </trkpt>
      <trkpt lat="43.3533" lon="1.22032">
        <ele>37.849</ele>
        <time>2011-11-26T16:02:36Z</time>
      </trkpt>
      <trkpt lat="43.3533" lon="1.22032">
        <ele>38.041</ele>
        <time>2011-11-26T16:02:36Z</time>
      </trkpt>
      <trkpt lat="43.35325" lon="1.22059">
        <ele>38.103</ele>
        <time>2011-11-26T16:02:38Z</time>
      </trkpt>
      <trkpt lat="43.35323" lon="1.22073">
        <ele>37.784</ele>
        <time>2011-11-26T16:02:39Z</time>
      </trkpt>
      <trkpt lat="43.3532" lon="1.22086">
        <ele>37.499</ele>
        <time>2011-11-26T16:02:40Z</time>
      </trkpt>
      <trkpt lat="43.35317" lon="1.221">
        <ele>37.036</ele>
        <time>2011-11-26T16:02:41Z</time>
      </trkpt>
      <trkpt lat="43.35313" lon="1.22113">
        <ele>36.744</ele>
        <time>2011-11-26T16:02:42Z</time>
      </trkpt>
      <trkpt lat="43.3531" lon="1.22126">
        <ele>36.236</ele>
        <time>2011-11-26T16:02:43Z</time>
      </trkpt>
      <trkpt lat="43.35306" lon="1.22139">
        <ele>35.415</ele>
        <time>2011-11-26T16:02:44Z</time>
      </trkpt>
      <trkpt lat="43.353" lon="1.22151">
        <ele>33.801</ele>
        <time>2011-11-26T16:02:45Z</time>
      </trkpt>
      <trkpt lat="43.35293" lon="1.22164">
        <ele>32.496</ele>
        <time>2011-11-26T16:02:46Z</time>
      </trkpt>
      <trkpt lat="43.35276" lon="1.22185">
        <ele>32.168</ele>
        <time>2011-11-26T16:02:48Z</time>
      </trkpt>
      <trkpt lat="43.35266" lon="1.22192">
        <ele>32.824</ele>
        <time>2011-11-26T16:02:49Z</time>
      </trkpt>
      <trkpt lat="43.35256" lon="1.22198">
        <ele>33.754</ele>
        <time>2011-11-26T16:02:50Z</time>
      </trkpt>
      <trkpt lat="43.35246" lon="1.22202">
        <ele>34.368</ele>
        <time>2011-11-26T16:02:51Z</time>
      </trkpt>
      <trkpt lat="43.35236" lon="1.22206">
        <ele>34.611</ele>
        <time>2011-11-26T16:02:52Z</time>
      </trkpt>
      <trkpt lat="43.35225" lon="1.2221">
        <ele>34.504</ele>
        <time>2011-11-26T16:02:53Z</time>
      </trkpt>
      <trkpt lat="43.35214" lon="1.22213">
        <ele>34.484</ele>
        <time>2011-11-26T16:02:54Z</time>
      </trkpt>
      <trkpt lat="43.35202" lon="1.22216">
        <ele>34.742</ele>
        <time>2011-11-26T16:02:55Z</time>
      </trkpt>
      <trkpt lat="43.35191" lon="1.22219">
        <ele>35.337</ele>
        <time>2011-11-26T16:02:56Z</time>
      </trkpt>
      <trkpt lat="43.3518" lon="1.22224">
        <ele>35.83</ele>
        <time>2011-11-26T16:02:57Z</time>
      </trkpt>
      <trkpt lat="43.3517" lon="1.22231">
        <ele>35.786</ele>
        <time>2011-11-26T16:02:58Z</time>
      </trkpt>
      <trkpt lat="43.3516" lon="1.22239">
        <ele>35.602</ele>
        <time>2011-11-26T16:02:59Z</time>
      </trkpt>
      <trkpt lat="43.3515" lon="1.22247">
        <ele>35.569</ele>
        <time>2011-11-26T16:03:00Z</time>
      </trkpt>
      <trkpt lat="43.3514" lon="1.22254">
        <ele>35.534</ele>
        <time>2011-11-26T16:03:01Z</time>
      </trkpt>
      <trkpt lat="43.35129" lon="1.22261">
        <ele>35.728</ele>
        <time>2011-11-26T16:03:02Z</time>
      </trkpt>
      <trkpt lat="43.35129" lon="1.22261">
        <ele>36.289</ele>
        <time>2011-11-26T16:03:02Z</time>
      </trkpt>
      <trkpt lat="43.35109" lon="1.22277">
        <ele>37.237</ele>
        <time>2011-11-26T16:03:04Z</time>
      </trkpt>
      <trkpt lat="43.35089" lon="1.22291">
        <ele>39.153</ele>
        <time>2011-11-26T16:03:06Z</time>
      </trkpt>
      <trkpt lat="43.35089" lon="1.22291">
        <ele>41.243</ele>
        <time>2011-11-26T16:03:06Z</time>
      </trkpt>
      <trkpt lat="43.35068" lon="1.22301">
        <ele>42.779</ele>
        <time>2011-11-26T16:03:08Z</time>
      </trkpt>
      <trkpt lat="43.35057" lon="1.22307">
        <ele>43.797</ele>
        <time>2011-11-26T16:03:09Z</time>
      </trkpt>
      <trkpt lat="43.35047" lon="1.22312">
        <ele>44.581</ele>
        <time>2011-11-26T16:03:10Z</time>
      </trkpt>
      <trkpt lat="43.35036" lon="1.22317">
        <ele>45.107</ele>
        <time>2011-11-26T16:03:11Z</time>
      </trkpt>
      <trkpt lat="43.35026" lon="1.22319">
        <ele>44.687</ele>
        <time>2011-11-26T16:03:12Z</time>
      </trkpt>
      <trkpt lat="43.35014" lon="1.22321">
        <ele>44.075</ele>
        <time>2011-11-26T16:03:13Z</time>
      </trkpt>
      <trkpt lat="43.35002" lon="1.22323">
        <ele>44.084</ele>
        <time>2011-11-26T16:03:14Z</time>
      </trkpt>
      <trkpt lat="43.3499" lon="1.22326">
        <ele>44.957</ele>
        <time>2011-11-26T16:03:15Z</time>
      </trkpt>
      <trkpt lat="43.34979" lon="1.22328">
        <ele>46.198</ele>
        <time>2011-11-26T16:03:16Z</time>
      </trkpt>
      <trkpt lat="43.34969" lon="1.22329">
        <ele>47.496</ele>
        <time>2011-11-26T16:03:17Z</time>
      </trkpt>
      <trkpt lat="43.34958" lon="1.22329">
        <ele>48.12</ele>
        <time>2011-11-26T16:03:18Z</time>
      </trkpt>
      <trkpt lat="43.34937" lon="1.22329">
        <ele>47.932</ele>
        <time>2011-11-26T16:03:20Z</time>
      </trkpt>
      <trkpt lat="43.34926" lon="1.2233">
        <ele>47.308</ele>
        <time>2011-11-26T16:03:21Z</time>
      </trkpt>
      <trkpt lat="43.34926" lon="1.2233">
        <ele>46.889</ele>
        <time>2011-11-26T16:03:21Z</time>
      </trkpt>
      <trkpt lat="43.34902" lon="1.22331">
        <ele>47.575</ele>
        <time>2011-11-26T16:03:23Z</time>
      </trkpt>
      <trkpt lat="43.3489" lon="1.22329">
        <ele>48.486</ele>
        <time>2011-11-26T16:03:24Z</time>
      </trkpt>
      <trkpt lat="43.3488" lon="1.22328">
        <ele>50.651</ele>
        <time>2011-11-26T16:03:25Z</time>
      </trkpt>
      <trkpt lat="43.3487" lon="1.22326">
        <ele>53.008</ele>
        <time>2011-11-26T16:03:26Z</time>
      </trkpt>
      <trkpt lat="43.3486" lon="1.22325">
        <ele>54.618</ele>
        <time>2011-11-26T16:03:27Z</time>
      </trkpt>
      <trkpt lat="43.3485" lon="1.22325">
        <ele>55.063</ele>
        <time>2011-11-26T16:03:28Z</time>
      </trkpt>
      <trkpt lat="43.3484" lon="1.22324">
        <ele>54.636</ele>
        <time>2011-11-26T16:03:29Z</time>
      </trkpt>
      <trkpt lat="43.34829" lon="1.22322">
        <ele>53.624</ele>
        <time>2011-11-26T16:03:30Z</time>
      </trkpt>
      <trkpt lat="43.34817" lon="1.2232">
        <ele>53.28</ele>
        <time>2011-11-26T16:03:31Z</time>
      </trkpt>
      <trkpt lat="43.34805" lon="1.22319">
        <ele>53.475</ele>
        <time>2011-11-26T16:03:32Z</time>
      </trkpt>
      <trkpt lat="43.34794" lon="1.22318">
        <ele>54.014</ele>
        <time>2011-11-26T16:03:33Z</time>
      </trkpt>
      <trkpt lat="43.34783" lon="1.22317">
        <ele>55.037</ele>
        <time>2011-11-26T16:03:34Z</time>
      </trkpt>
      <trkpt lat="43.34773" lon="1.22316">
        <ele>56.068</ele>
        <time>2011-11-26T16:03:35Z</time>
      </trkpt>
      <trkpt lat="43.34763" lon="1.22314">
        <ele>56.917</ele>
        <time>2011-11-26T16:03:36Z</time>
      </trkpt>
      <trkpt lat="43.34743" lon="1.2232">
        <ele>57.187</ele>
        <time>2011-11-26T16:03:38Z</time>
      </trkpt>
      <trkpt lat="43.34735" lon="1.22327">
        <ele>56.908</ele>
        <time>2011-11-26T16:03:39Z</time>
      </trkpt>
      <trkpt lat="43.34725" lon="1.22332">
        <ele>56.353</ele>
        <time>2011-11-26T16:03:40Z</time>
      </trkpt>
      <trkpt lat="43.34714" lon="1.22333">
        <ele>56.702</ele>
        <time>2011-11-26T16:03:41Z</time>
      </trkpt>
      <trkpt lat="43.34703" lon="1.2233">
        <ele>57.442</ele>
        <time>2011-11-26T16:03:42Z</time>
      </trkpt>
      <trkpt lat="43.34693" lon="1.22325">
        <ele>58.652</ele>
        <time>2011-11-26T16:03:43Z</time>
      </trkpt>
      <trkpt lat="43.34682" lon="1.22321">
        <ele>60.052</ele>
        <time>2011-11-26T16:03:44Z</time>
      </trkpt>
      <trkpt lat="43.34672" lon="1.22318">
        <ele>61.671</ele>
        <time>2011-11-26T16:03:45Z</time>
      </trkpt>
      <trkpt lat="43.34661" lon="1.22316">
        <ele>63.402</ele>
        <time>2011-11-26T16:03:46Z</time>
      </trkpt>
      <trkpt lat="43.34651" lon="1.22314">
        <ele>64.913</ele>
        <time>2011-11-26T16:03:47Z</time>
      </trkpt>
      <trkpt lat="43.3464" lon="1.2231">
        <ele>65.691</ele>
        <time>2011-11-26T16:03:48Z</time>
      </trkpt>
      <trkpt lat="43.3463" lon="1.22306">
        <ele>66.396</ele>
        <time>2011-11-26T16:03:49Z</time>
      </trkpt>
      <trkpt lat="43.34619" lon="1.22301">
        <ele>66.801</ele>
        <time>2011-11-26T16:03:50Z</time>
      </trkpt>
      <trkpt lat="43.34608" lon="1.22298">
        <ele>66.901</ele>
        <time>2011-11-26T16:03:51Z</time>
      </trkpt>
      <trkpt lat="43.34608" lon="1.22298">
        <ele>67.239</ele>
        <time>2011-11-26T16:03:51Z</time>
      </trkpt>
      <trkpt lat="43.34585" lon="1.22292">
        <ele>68.298</ele>
        <time>2011-11-26T16:03:53Z</time>
      </trkpt>
      <trkpt lat="43.34563" lon="1.22282">
        <ele>69.81</ele>
        <time>2011-11-26T16:03:55Z</time>
      </trkpt>
      <trkpt lat="43.34552" lon="1.22276">
        <ele>71.28</ele>
        <time>2011-11-26T16:03:56Z</time>
      </trkpt>
      <trkpt lat="43.34552" lon="1.22276">
        <ele>72.646</ele>
        <time>2011-11-26T16:03:56Z</time>
      </trkpt>
      <trkpt lat="43.3453" lon="1.22266">
        <ele>74</ele>
        <time>2011-11-26T16:03:58Z</time>
      </trkpt>
      <trkpt lat="43.34519" lon="1.2226">
        <ele>75.385</ele>
        <time>2011-11-26T16:03:59Z</time>
      </trkpt>
      <trkpt lat="43.34509" lon="1.22253">
        <ele>77.638</ele>
        <time>2011-11-26T16:04:00Z</time>
      </trkpt>
      <trkpt lat="43.34499" lon="1.22246">
        <ele>79.413</ele>
        <time>2011-11-26T16:04:01Z</time>
      </trkpt>
      <trkpt lat="43.34489" lon="1.22238">
        <ele>81.474</ele>
        <time>2011-11-26T16:04:02Z</time>
      </trkpt>
      <trkpt lat="43.34479" lon="1.22231">
        <ele>82.957</ele>
        <time>2011-11-26T16:04:03Z</time>
      </trkpt>
      <trkpt lat="43.34468" lon="1.22223">
        <ele>84.304</ele>
        <time>2011-11-26T16:04:04Z</time>
      </trkpt>
      <trkpt lat="43.34459" lon="1.22215">
        <ele>85.798</ele>
        <time>2011-11-26T16:04:05Z</time>
      </trkpt>
      <trkpt lat="43.34449" lon="1.22205">
        <ele>87.748</ele>
        <time>2011-11-26T16:04:06Z</time>
      </trkpt>
      <trkpt lat="43.3444" lon="1.22196">
        <ele>90.078</ele>
        <time>2011-11-26T16:04:07Z</time>
      </trkpt>
      <trkpt lat="43.34422" lon="1.22178">
        <ele>92.832</ele>
        <time>2011-11-26T16:04:09Z</time>
      </trkpt>
      <trkpt lat="43.34412" lon="1.2217">
        <ele>95.484</ele>
        <time>2011-11-26T16:04:10Z</time>
      </trkpt>
      <trkpt lat="43.34403" lon="1.22161">
        <ele>98.351</ele>
        <time>2011-11-26T16:04:11Z</time>
      </trkpt>
      <trkpt lat="43.34403" lon="1.22161">
        <ele>100.77</ele>
        <time>2011-11-26T16:04:11Z</time>
      </trkpt>
      <trkpt lat="43.34386" lon="1.22139">
        <ele>103.476</ele>
        <time>2011-11-26T16:04:13Z</time>
      </trkpt>
      <trkpt lat="43.34376" lon="1.2213">
        <ele>105.348</ele>
        <time>2011-11-26T16:04:14Z</time>
      </trkpt>
      <trkpt lat="43.34366" lon="1.22122">
        <ele>108.094</ele>
        <time>2011-11-26T16:04:15Z</time>
      </trkpt>
      <trkpt lat="43.34357" lon="1.22115">
        <ele>111.189</ele>
        <time>2011-11-26T16:04:16Z</time>
      </trkpt>
      <trkpt lat="43.34347" lon="1.22107">
        <ele>114.158</ele>
        <time>2011-11-26T16:04:17Z</time>
      </trkpt>
      <trkpt lat="43.34339" lon="1.22099">
        <ele>116.858</ele>
        <time>2011-11-26T16:04:18Z</time>
      </trkpt>
      <trkpt lat="43.34331" lon="1.22091">
        <ele>118.05</ele>
        <time>2011-11-26T16:04:19Z</time>
      </trkpt>
      <trkpt lat="43.34322" lon="1.22083">
        <ele>118.624</ele>
        <time>2011-11-26T16:04:20Z</time>
      </trkpt>
      <trkpt lat="43.34322" lon="1.22083">
        <ele>118.77</ele>
        <time>2011-11-26T16:04:20Z</time>
      </trkpt>
      <trkpt lat="43.34301" lon="1.22071">
        <ele>119.223</ele>
        <time>2011-11-26T16:04:22Z</time>
      </trkpt>
      <trkpt lat="43.3429" lon="1.22065">
        <ele>119.911</ele>
        <time>2011-11-26T16:04:23Z</time>
      </trkpt>
      <trkpt lat="43.3428" lon="1.2206">
        <ele>121.444</ele>
        <time>2011-11-26T16:04:24Z</time>
      </trkpt>
      <trkpt lat="43.34258" lon="1.2205">
        <ele>123.084</ele>
        <time>2011-11-26T16:04:26Z</time>
      </trkpt>
      <trkpt lat="43.34258" lon="1.2205">
        <ele>124.347</ele>
        <time>2011-11-26T16:04:26Z</time>
      </trkpt>
      <trkpt lat="43.34235" lon="1.22043">
        <ele>125.328</ele>
        <time>2011-11-26T16:04:28Z</time>
      </trkpt>
      <trkpt lat="43.34224" lon="1.22039">
        <ele>126.376</ele>
        <time>2011-11-26T16:04:29Z</time>
      </trkpt>
      <trkpt lat="43.34213" lon="1.22033">
        <ele>128.259</ele>
        <time>2011-11-26T16:04:30Z</time>
      </trkpt>
      <trkpt lat="43.34202" lon="1.22028">
        <ele>130.229</ele>
        <time>2011-11-26T16:04:31Z</time>
      </trkpt>
      <trkpt lat="43.34192" lon="1.22023">
        <ele>131.999</ele>
        <time>2011-11-26T16:04:32Z</time>
      </trkpt>
      <trkpt lat="43.34181" lon="1.22018">
        <ele>133.916</ele>
        <time>2011-11-26T16:04:33Z</time>
      </trkpt>
      <trkpt lat="43.3417" lon="1.22013">
        <ele>135.592</ele>
        <time>2011-11-26T16:04:34Z</time>
      </trkpt>
      <trkpt lat="43.34159" lon="1.22008">
        <ele>137.149</ele>
        <time>2011-11-26T16:04:35Z</time>
      </trkpt>
      <trkpt lat="43.34148" lon="1.22003">
        <ele>139.052</ele>
        <time>2011-11-26T16:04:36Z</time>
      </trkpt>
      <trkpt lat="43.34137" lon="1.21999">
        <ele>140.863</ele>
        <time>2011-11-26T16:04:37Z</time>
      </trkpt>
      <trkpt lat="43.34127" lon="1.21995">
        <ele>142.651</ele>
        <time>2011-11-26T16:04:38Z</time>
      </trkpt>
      <trkpt lat="43.34127" lon="1.21995">
        <ele>144.978</ele>
        <time>2011-11-26T16:04:38Z</time>
      </trkpt>
      <trkpt lat="43.34096" lon="1.21987">
        <ele>147.122</ele>
        <time>2011-11-26T16:04:41Z</time>
      </trkpt>
      <trkpt lat="43.34096" lon="1.21987">
        <ele>149.325</ele>
        <time>2011-11-26T16:04:41Z</time>
      </trkpt>
      <trkpt lat="43.34077" lon="1.21978">
        <ele>151.3</ele>
        <time>2011-11-26T16:04:43Z</time>
      </trkpt>
      <trkpt lat="43.34068" lon="1.21976">
        <ele>152.676</ele>
        <time>2011-11-26T16:04:44Z</time>
      </trkpt>
      <trkpt lat="43.34057" lon="1.21977">
        <ele>153.415</ele>
        <time>2011-11-26T16:04:45Z</time>
      </trkpt>
      <trkpt lat="43.34046" lon="1.21981">
        <ele>154.18</ele>
        <time>2011-11-26T16:04:46Z</time>
      </trkpt>
      <trkpt lat="43.34036" lon="1.21986">
        <ele>155.896</ele>
        <time>2011-11-26T16:04:47Z</time>
      </trkpt>
      <trkpt lat="43.34027" lon="1.21993">
        <ele>157.727</ele>
        <time>2011-11-26T16:04:48Z</time>
      </trkpt>
      <trkpt lat="43.34021" lon="1.22004">
        <ele>159.001</ele>
        <time>2011-11-26T16:04:49Z</time>
      </trkpt>
      <trkpt lat="43.34013" lon="1.22015">
        <ele>160.687</ele>
        <time>2011-11-26T16:04:50Z</time>
      </trkpt>
      <trkpt lat="43.34006" lon="1.22027">
        <ele>162.009</ele>
        <time>2011-11-26T16:04:51Z</time>
      </trkpt>
      <trkpt lat="43.33998" lon="1.22037">
        <ele>162.877</ele>
        <time>2011-11-26T16:04:52Z</time>
      </trkpt>
      <trkpt lat="43.33989" lon="1.22045">
        <ele>163.822</ele>
        <time>2011-11-26T16:04:53Z</time>
      </trkpt>
      <trkpt lat="43.3398" lon="1.22051">
        <ele>165.227</ele>
        <time>2011-11-26T16:04:54Z</time>
      </trkpt>
      <trkpt lat="43.3396" lon="1.2206">
        <ele>166.553</ele>
        <time>2011-11-26T16:04:56Z</time>
      </trkpt>
      <trkpt lat="43.3396" lon="1.2206">
        <ele>167.678</ele>
        <time>2011-11-26T16:04:56Z</time>
      </trkpt>
      <trkpt lat="43.33939" lon="1.22062">
        <ele>168.903</ele>
        <time>2011-11-26T16:04:58Z</time>
      </trkpt>
      <trkpt lat="43.33929" lon="1.22058">
        <ele>169.669</ele>
        <time>2011-11-26T16:04:59Z</time>
      </trkpt>
      <trkpt lat="43.33919" lon="1.22051">
        <ele>170.744</ele>
        <time>2011-11-26T16:05:00Z</time>
      </trkpt>
      <trkpt lat="43.3391" lon="1.22043">
        <ele>172.113</ele>
        <time>2011-11-26T16:05:01Z</time>
      </trkpt>
      <trkpt lat="43.33901" lon="1.22035">
        <ele>173.785</ele>
        <time>2011-11-26T16:05:02Z</time>
      </trkpt>
      <trkpt lat="43.33893" lon="1.22027">
        <ele>175.416</ele>
        <time>2011-11-26T16:05:03Z</time>
      </trkpt>
      <trkpt lat="43.33884" lon="1.22019">
        <ele>176.356</ele>
        <time>2011-11-26T16:05:04Z</time>
      </trkpt>
      <trkpt lat="43.33876" lon="1.22011">
        <ele>177.148</ele>
        <time>2011-11-26T16:05:05Z</time>
      </trkpt>
      <trkpt lat="43.33867" lon="1.22002">
        <ele>177.668</ele>
        <time>2011-11-26T16:05:06Z</time>
      </trkpt>
      <trkpt lat="43.33858" lon="1.21992">
        <ele>178.313</ele>
        <time>2011-11-26T16:05:07Z</time>
      </trkpt>
      <trkpt lat="43.33849" lon="1.21982">
        <ele>179.143</ele>
        <time>2011-11-26T16:05:08Z</time>
      </trkpt>
      <trkpt lat="43.33839" lon="1.21973">
        <ele>180.303</ele>
        <time>2011-11-26T16:05:09Z</time>
      </trkpt>
      <trkpt lat="43.3383" lon="1.21963">
        <ele>181.981</ele>
        <time>2011-11-26T16:05:10Z</time>
      </trkpt>
      <trkpt lat="43.33821" lon="1.21954">
        <ele>183.784</ele>
        <time>2011-11-26T16:05:11Z</time>
      </trkpt>
      <trkpt lat="43.33803" lon="1.21936">
        <ele>186.712</ele>
        <time>2011-11-26T16:05:13Z</time>
      </trkpt>
      <trkpt lat="43.33795" lon="1.21929">
        <ele>189.517</ele>
        <time>2011-11-26T16:05:14Z</time>
      </trkpt>
      <trkpt lat="43.33785" lon="1.21925">
        <ele>191.694</ele>
        <time>2011-11-26T16:05:15Z</time>
      </trkpt>
      <trkpt lat="43.33775" lon="1.21924">
        <ele>193.689</ele>
        <time>2011-11-26T16:05:16Z</time>
      </trkpt>
      <trkpt lat="43.33765" lon="1.21926">
        <ele>195.389</ele>
        <time>2011-11-26T16:05:17Z</time>
      </trkpt>
      <trkpt lat="43.33754" lon="1.21931">
        <ele>196.541</ele>
        <time>2011-11-26T16:05:18Z</time>
      </trkpt>
      <trkpt lat="43.33745" lon="1.21937">
        <ele>198.746</ele>
        <time>2011-11-26T16:05:19Z</time>
      </trkpt>
      <trkpt lat="43.33736" lon="1.21944">
        <ele>200.69</ele>
        <time>2011-11-26T16:05:20Z</time>
      </trkpt>
      <trkpt lat="43.33729" lon="1.21954">
        <ele>202.893</ele>
        <time>2011-11-26T16:05:21Z</time>
      </trkpt>
      <trkpt lat="43.33723" lon="1.21966">
        <ele>204.622</ele>
        <time>2011-11-26T16:05:22Z</time>
      </trkpt>
      <trkpt lat="43.33718" lon="1.21979">
        <ele>206.184</ele>
        <time>2011-11-26T16:05:23Z</time>
      </trkpt>
      <trkpt lat="43.33715" lon="1.21993">
        <ele>207.708</ele>
        <time>2011-11-26T16:05:24Z</time>
      </trkpt>
      <trkpt lat="43.33712" lon="1.22007">
        <ele>209.918</ele>
        <time>2011-11-26T16:05:25Z</time>
      </trkpt>
      <trkpt lat="43.3371" lon="1.2202">
        <ele>211.501</ele>
        <time>2011-11-26T16:05:26Z</time>
      </trkpt>
      <trkpt lat="43.33708" lon="1.22034">
        <ele>212.408</ele>
        <time>2011-11-26T16:05:27Z</time>
      </trkpt>
      <trkpt lat="43.33701" lon="1.22063">
        <ele>212.632</ele>
        <time>2011-11-26T16:05:29Z</time>
      </trkpt>
      <trkpt lat="43.33696" lon="1.22078">
        <ele>212.662</ele>
        <time>2011-11-26T16:05:30Z</time>
      </trkpt>
      <trkpt lat="43.3369" lon="1.22094">
        <ele>212.828</ele>
        <time>2011-11-26T16:05:31Z</time>
      </trkpt>
      <trkpt lat="43.33684" lon="1.22109">
        <ele>213.261</ele>
        <time>2011-11-26T16:05:32Z</time>
      </trkpt>
      <trkpt lat="43.33678" lon="1.22125">
        <ele>214.508</ele>
        <time>2011-11-26T16:05:33Z</time>
      </trkpt>
      <trkpt lat="43.33667" lon="1.22155">
        <ele>217.86</ele>
        <time>2011-11-26T16:05:35Z</time>
      </trkpt>
      <trkpt lat="43.33662" lon="1.22171">
        <ele>219.827</ele>
        <time>2011-11-26T16:05:36Z</time>
      </trkpt>
      <trkpt lat="43.33662" lon="1.22171">
        <ele>221.768</ele>
        <time>2011-11-26T16:05:36Z</time>
      </trkpt>
      <trkpt lat="43.33649" lon="1.222">
        <ele>223.408</ele>
        <time>2011-11-26T16:05:38Z</time>
      </trkpt>
      <trkpt lat="43.33642" lon="1.22214">
        <ele>224.81</ele>
        <time>2011-11-26T16:05:39Z</time>
      </trkpt>
      <trkpt lat="43.33636" lon="1.22228">
        <ele>227.78</ele>
        <time>2011-11-26T16:05:40Z</time>
      </trkpt>
      <trkpt lat="43.33636" lon="1.22228">
        <ele>230.413</ele>
        <time>2011-11-26T16:05:40Z</time>
      </trkpt>
      <trkpt lat="43.33619" lon="1.22271">
        <ele>232.489</ele>
        <time>2011-11-26T16:05:43Z</time>
      </trkpt>
      <trkpt lat="43.33613" lon="1.22284">
        <ele>234.771</ele>
        <time>2011-11-26T16:05:44Z</time>
      </trkpt>
      <trkpt lat="43.33607" lon="1.22298">
        <ele>235.99</ele>
        <time>2011-11-26T16:05:45Z</time>
      </trkpt>
      <trkpt lat="43.33601" lon="1.22313">
        <ele>236.935</ele>
        <time>2011-11-26T16:05:46Z</time>
      </trkpt>
      <trkpt lat="43.33596" lon="1.22328">
        <ele>237.925</ele>
        <time>2011-11-26T16:05:47Z</time>
      </trkpt>
      <trkpt lat="43.33591" lon="1.22342">
        <ele>238.824</ele>
        <time>2011-11-26T16:05:48Z</time>
      </trkpt>
      <trkpt lat="43.33586" lon="1.22356">
        <ele>240.183</ele>
        <time>2011-11-26T16:05:49Z</time>
      </trkpt>
      <trkpt lat="43.33576" lon="1.22384">
        <ele>241.53</ele>
        <time>2011-11-26T16:05:51Z</time>
      </trkpt>
      <trkpt lat="43.33576" lon="1.22384">
        <ele>240.924</ele>
        <time>2011-11-26T16:05:51Z</time>
      </trkpt>
      <trkpt lat="43.33576" lon="1.22411">
        <ele>239.398</ele>
        <time>2011-11-26T16:05:53Z</time>
      </trkpt>
      <trkpt lat="43.33573" lon="1.22426">
        <ele>237.799</ele>
        <time>2011-11-26T16:05:54Z</time>
      </trkpt>
      <trkpt lat="43.33569" lon="1.22441">
        <ele>236.028</ele>
        <time>2011-11-26T16:05:55Z</time>
      </trkpt>
      <trkpt lat="43.33554" lon="1.225">
        <ele>235.634</ele>
        <time>2011-11-26T16:05:59Z</time>
      </trkpt>
      <trkpt lat="43.3355" lon="1.22516">
        <ele>235.465</ele>
        <time>2011-11-26T16:06:00Z</time>
      </trkpt>
      <trkpt lat="43.33548" lon="1.22531">
        <ele>235.306</ele>
        <time>2011-11-26T16:06:01Z</time>
      </trkpt>
      <trkpt lat="43.33545" lon="1.22557">
        <ele>235.466</ele>
        <time>2011-11-26T16:06:03Z</time>
      </trkpt>
      <trkpt lat="43.3354" lon="1.22571">
        <ele>235.962</ele>
        <time>2011-11-26T16:06:04Z</time>
      </trkpt>
      <trkpt lat="43.33534" lon="1.22583">
        <ele>236.525</ele>
        <time>2011-11-26T16:06:05Z</time>
      </trkpt>
      <trkpt lat="43.33526" lon="1.22591">
        <ele>237.092</ele>
        <time>2011-11-26T16:06:06Z</time>
      </trkpt>
      <trkpt lat="43.33516" lon="1.22596">
        <ele>237.703</ele>
        <time>2011-11-26T16:06:07Z</time>
      </trkpt>
      <trkpt lat="43.33505" lon="1.22598">
        <ele>238</ele>
        <time>2011-11-26T16:06:08Z</time>
      </trkpt>
      <trkpt lat="43.33493" lon="1.22598">
        <ele>238.246</ele>
        <time>2011-11-26T16:06:09Z</time>
      </trkpt>
      <trkpt lat="43.33482" lon="1.226">
        <ele>238.043</ele>
        <time>2011-11-26T16:06:10Z</time>
      </trkpt>
      <trkpt lat="43.3347" lon="1.22601">
        <ele>237.954</ele>
        <time>2011-11-26T16:06:11Z</time>
      </trkpt>
      <trkpt lat="43.33458" lon="1.226">
        <ele>238.641</ele>
        <time>2011-11-26T16:06:12Z</time>
      </trkpt>
      <trkpt lat="43.33446" lon="1.22596">
        <ele>239.261</ele>
        <time>2011-11-26T16:06:13Z</time>
      </trkpt>
      <trkpt lat="43.33434" lon="1.22591">
        <ele>240.193</ele>
        <time>2011-11-26T16:06:14Z</time>
      </trkpt>
      <trkpt lat="43.33411" lon="1.22586">
        <ele>240.716</ele>
        <time>2011-11-26T16:06:16Z</time>
      </trkpt>
      <trkpt lat="43.33411" lon="1.22586">
        <ele>241.79</ele>
        <time>2011-11-26T16:06:16Z</time>
      </trkpt>
      <trkpt lat="43.33387" lon="1.22586">
        <ele>242.987</ele>
        <time>2011-11-26T16:06:18Z</time>
      </trkpt>
      <trkpt lat="43.33375" lon="1.22581">
        <ele>244.312</ele>
        <time>2011-11-26T16:06:19Z</time>
      </trkpt>
      <trkpt lat="43.33364" lon="1.22576">
        <ele>245.003</ele>
        <time>2011-11-26T16:06:20Z</time>
      </trkpt>
      <trkpt lat="43.33353" lon="1.2257">
        <ele>245.781</ele>
        <time>2011-11-26T16:06:21Z</time>
      </trkpt>
      <trkpt lat="43.33342" lon="1.22566">
        <ele>246.885</ele>
        <time>2011-11-26T16:06:22Z</time>
      </trkpt>
      <trkpt lat="43.33331" lon="1.22561">
        <ele>247.813</ele>
        <time>2011-11-26T16:06:23Z</time>
      </trkpt>
      <trkpt lat="43.3332" lon="1.22556">
        <ele>249.057</ele>
        <time>2011-11-26T16:06:24Z</time>
      </trkpt>
      <trkpt lat="43.3331" lon="1.22548">
        <ele>250.219</ele>
        <time>2011-11-26T16:06:25Z</time>
      </trkpt>
      <trkpt lat="43.33302" lon="1.22537">
        <ele>251.317</ele>
        <time>2011-11-26T16:06:26Z</time>
      </trkpt>
      <trkpt lat="43.33294" lon="1.22526">
        <ele>252.222</ele>
        <time>2011-11-26T16:06:27Z</time>
      </trkpt>
      <trkpt lat="43.33286" lon="1.22515">
        <ele>252.841</ele>
        <time>2011-11-26T16:06:28Z</time>
      </trkpt>
      <trkpt lat="43.33277" lon="1.22505">
        <ele>253.468</ele>
        <time>2011-11-26T16:06:29Z</time>
      </trkpt>
      <trkpt lat="43.33261" lon="1.22484">
        <ele>254.184</ele>
        <time>2011-11-26T16:06:31Z</time>
      </trkpt>
      <trkpt lat="43.33261" lon="1.22484">
        <ele>255.318</ele>
        <time>2011-11-26T16:06:31Z</time>
      </trkpt>
      <trkpt lat="43.33249" lon="1.2246">
        <ele>256.494</ele>
        <time>2011-11-26T16:06:33Z</time>
      </trkpt>
      <trkpt lat="43.33243" lon="1.22448">
        <ele>257.397</ele>
        <time>2011-11-26T16:06:34Z</time>
      </trkpt>
      <trkpt lat="43.33236" lon="1.22437">
        <ele>258.446</ele>
        <time>2011-11-26T16:06:35Z</time>
      </trkpt>
      <trkpt lat="43.33229" lon="1.22426">
        <ele>259.814</ele>
        <time>2011-11-26T16:06:36Z</time>
      </trkpt>
      <trkpt lat="43.33223" lon="1.22414">
        <ele>261.139</ele>
        <time>2011-11-26T16:06:37Z</time>
      </trkpt>
      <trkpt lat="43.33217" lon="1.22402">
        <ele>262.649</ele>
        <time>2011-11-26T16:06:38Z</time>
      </trkpt>
      <trkpt lat="43.33205" lon="1.22377">
        <ele>264.626</ele>
        <time>2011-11-26T16:06:40Z</time>
      </trkpt>
      <trkpt lat="43.33198" lon="1.22365">
        <ele>265.994</ele>
        <time>2011-11-26T16:06:41Z</time>
      </trkpt>
      <trkpt lat="43.33198" lon="1.22365">
        <ele>267.345</ele>
        <time>2011-11-26T16:06:41Z</time>
      </trkpt>
      <trkpt lat="43.33187" lon="1.22338">
        <ele>268.585</ele>
        <time>2011-11-26T16:06:43Z</time>
      </trkpt>
      <trkpt lat="43.33183" lon="1.22325">
        <ele>270.178</ele>
        <time>2011-11-26T16:06:44Z</time>
      </trkpt>
      <trkpt lat="43.33179" lon="1.22311">
        <ele>272.046</ele>
        <time>2011-11-26T16:06:45Z</time>
      </trkpt>
      <trkpt lat="43.33174" lon="1.22298">
        <ele>273.508</ele>
        <time>2011-11-26T16:06:46Z</time>
      </trkpt>
      <trkpt lat="43.3314" lon="1.22221">
        <ele>279.111</ele>
        <time>2011-11-26T16:06:52Z</time>
      </trkpt>
      <trkpt lat="43.33122" lon="1.22216">
        <ele>280.164</ele>
        <time>2011-11-26T16:06:53Z</time>
      </trkpt>
      <trkpt lat="43.33114" lon="1.22206">
        <ele>280.971</ele>
        <time>2011-11-26T16:06:54Z</time>
      </trkpt>
      <trkpt lat="43.33106" lon="1.22195">
        <ele>282.325</ele>
        <time>2011-11-26T16:06:55Z</time>
      </trkpt>
      <trkpt lat="43.33098" lon="1.22182">
        <ele>284.032</ele>
        <time>2011-11-26T16:06:56Z</time>
      </trkpt>
      <trkpt lat="43.33093" lon="1.2217">
        <ele>285.31</ele>
        <time>2011-11-26T16:06:57Z</time>
      </trkpt>
      <trkpt lat="43.33082" lon="1.22147">
        <ele>287.087</ele>
        <time>2011-11-26T16:06:59Z</time>
      </trkpt>
      <trkpt lat="43.33071" lon="1.22139">
        <ele>287.719</ele>
        <time>2011-11-26T16:07:00Z</time>
      </trkpt>
      <trkpt lat="43.33062" lon="1.2213">
        <ele>288.019</ele>
        <time>2011-11-26T16:07:01Z</time>
      </trkpt>
      <trkpt lat="43.33062" lon="1.2213">
        <ele>288.31</ele>
        <time>2011-11-26T16:07:01Z</time>
      </trkpt>
      <trkpt lat="43.33046" lon="1.22106">
        <ele>288.951</ele>
        <time>2011-11-26T16:07:03Z</time>
      </trkpt>
      <trkpt lat="43.33038" lon="1.22095">
        <ele>290.323</ele>
        <time>2011-11-26T16:07:04Z</time>
      </trkpt>
      <trkpt lat="43.33031" lon="1.22084">
        <ele>292.126</ele>
        <time>2011-11-26T16:07:05Z</time>
      </trkpt>
      <trkpt lat="43.33024" lon="1.22075">
        <ele>294.004</ele>
        <time>2011-11-26T16:07:06Z</time>
      </trkpt>
      <trkpt lat="43.33016" lon="1.22066">
        <ele>295.625</ele>
        <time>2011-11-26T16:07:07Z</time>
      </trkpt>
      <trkpt lat="43.33009" lon="1.22056">
        <ele>296.847</ele>
        <time>2011-11-26T16:07:08Z</time>
      </trkpt>
      <trkpt lat="43.33002" lon="1.22046">
        <ele>297.502</ele>
        <time>2011-11-26T16:07:09Z</time>
      </trkpt>
      <trkpt lat="43.32994" lon="1.22035">
        <ele>297.837</ele>
        <time>2011-11-26T16:07:10Z</time>
      </trkpt>
      <trkpt lat="43.32987" lon="1.22023">
        <ele>298.407</ele>
        <time>2011-11-26T16:07:11Z</time>
      </trkpt>
      <trkpt lat="43.32978" lon="1.22012">
        <ele>299.332</ele>
        <time>2011-11-26T16:07:12Z</time>
      </trkpt>
      <trkpt lat="43.32961" lon="1.21992">
        <ele>300.453</ele>
        <time>2011-11-26T16:07:14Z</time>
      </trkpt>
      <trkpt lat="43.32952" lon="1.21983">
        <ele>301.222</ele>
        <time>2011-11-26T16:07:15Z</time>
      </trkpt>
      <trkpt lat="43.32944" lon="1.21974">
        <ele>302.269</ele>
        <time>2011-11-26T16:07:16Z</time>
      </trkpt>
      <trkpt lat="43.32935" lon="1.21964">
        <ele>302.955</ele>
        <time>2011-11-26T16:07:17Z</time>
      </trkpt>
      <trkpt lat="43.32927" lon="1.21954">
        <ele>303.327</ele>
        <time>2011-11-26T16:07:18Z</time>
      </trkpt>
      <trkpt lat="43.32918" lon="1.21943">
        <ele>303.664</ele>
        <time>2011-11-26T16:07:19Z</time>
      </trkpt>
      <trkpt lat="43.32909" lon="1.21934">
        <ele>303.93</ele>
        <time>2011-11-26T16:07:20Z</time>
      </trkpt>
      <trkpt lat="43.329" lon="1.21925">
        <ele>304.367</ele>
        <time>2011-11-26T16:07:21Z</time>
      </trkpt>
      <trkpt lat="43.32891" lon="1.21915">
        <ele>305.019</ele>
        <time>2011-11-26T16:07:22Z</time>
      </trkpt>
      <trkpt lat="43.32883" lon="1.21906">
        <ele>305.415</ele>
        <time>2011-11-26T16:07:23Z</time>
      </trkpt>
      <trkpt lat="43.32874" lon="1.21896">
        <ele>305.432</ele>
        <time>2011-11-26T16:07:24Z</time>
      </trkpt>
      <trkpt lat="43.32866" lon="1.21886">
        <ele>305.051</ele>
        <time>2011-11-26T16:07:25Z</time>
      </trkpt>
      <trkpt lat="43.32857" lon="1.21875">
        <ele>304.12</ele>
        <time>2011-11-26T16:07:26Z</time>
      </trkpt>
      <trkpt lat="43.32848" lon="1.21865">
        <ele>303.571</ele>
        <time>2011-11-26T16:07:27Z</time>
      </trkpt>
      <trkpt lat="43.32839" lon="1.21855">
        <ele>303.071</ele>
        <time>2011-11-26T16:07:28Z</time>
      </trkpt>
      <trkpt lat="43.32821" lon="1.21835">
        <ele>302.607</ele>
        <time>2011-11-26T16:07:30Z</time>
      </trkpt>
      <trkpt lat="43.32812" lon="1.21826">
        <ele>302.916</ele>
        <time>2011-11-26T16:07:31Z</time>
      </trkpt>
      <trkpt lat="43.32812" lon="1.21826">
        <ele>303.193</ele>
        <time>2011-11-26T16:07:31Z</time>
      </trkpt>
      <trkpt lat="43.32794" lon="1.21807">
        <ele>303.215</ele>
        <time>2011-11-26T16:07:33Z</time>
      </trkpt>
      <trkpt lat="43.32785" lon="1.21797">
        <ele>303.138</ele>
        <time>2011-11-26T16:07:34Z</time>
      </trkpt>
      <trkpt lat="43.32776" lon="1.21787">
        <ele>303.206</ele>
        <time>2011-11-26T16:07:35Z</time>
      </trkpt>
      <trkpt lat="43.32767" lon="1.21777">
        <ele>303.198</ele>
        <time>2011-11-26T16:07:36Z</time>
      </trkpt>
      <trkpt lat="43.32758" lon="1.21767">
        <ele>303.22</ele>
        <time>2011-11-26T16:07:37Z</time>
      </trkpt>
      <trkpt lat="43.32749" lon="1.21756">
        <ele>303.426</ele>
        <time>2011-11-26T16:07:38Z</time>
      </trkpt>
      <trkpt lat="43.3274" lon="1.21745">
        <ele>303.837</ele>
        <time>2011-11-26T16:07:39Z</time>
      </trkpt>
      <trkpt lat="43.32732" lon="1.21734">
        <ele>304.101</ele>
        <time>2011-11-26T16:07:40Z</time>
      </trkpt>
      <trkpt lat="43.32724" lon="1.21722">
        <ele>304.063</ele>
        <time>2011-11-26T16:07:41Z</time>
      </trkpt>
      <trkpt lat="43.32715" lon="1.21711">
        <ele>303.735</ele>
        <time>2011-11-26T16:07:42Z</time>
      </trkpt>
      <trkpt lat="43.32707" lon="1.21699">
        <ele>303.322</ele>
        <time>2011-11-26T16:07:43Z</time>
      </trkpt>
      <trkpt lat="43.32691" lon="1.21674">
        <ele>303.574</ele>
        <time>2011-11-26T16:07:45Z</time>
      </trkpt>
      <trkpt lat="43.32684" lon="1.21661">
        <ele>304.035</ele>
        <time>2011-11-26T16:07:46Z</time>
      </trkpt>
      <trkpt lat="43.32678" lon="1.21648">
        <ele>304.938</ele>
        <time>2011-11-26T16:07:47Z</time>
      </trkpt>
      <trkpt lat="43.32671" lon="1.21635">
        <ele>306.224</ele>
        <time>2011-11-26T16:07:48Z</time>
      </trkpt>
      <trkpt lat="43.32664" lon="1.21624">
        <ele>307.012</ele>
        <time>2011-11-26T16:07:49Z</time>
      </trkpt>
      <trkpt lat="43.32656" lon="1.21613">
        <ele>306.773</ele>
        <time>2011-11-26T16:07:50Z</time>
      </trkpt>
      <trkpt lat="43.32648" lon="1.21601">
        <ele>305.675</ele>
        <time>2011-11-26T16:07:51Z</time>
      </trkpt>
      <trkpt lat="43.3264" lon="1.21588">
        <ele>305.036</ele>
        <time>2011-11-26T16:07:52Z</time>
      </trkpt>
      <trkpt lat="43.32631" lon="1.21575">
        <ele>304.854</ele>
        <time>2011-11-26T16:07:53Z</time>
      </trkpt>
      <trkpt lat="43.32622" lon="1.21562">
        <ele>305.33</ele>
        <time>2011-11-26T16:07:54Z</time>
      </trkpt>
      <trkpt lat="43.32614" lon="1.2155">
        <ele>306.11</ele>
        <time>2011-11-26T16:07:55Z</time>
      </trkpt>
      <trkpt lat="43.32606" lon="1.21538">
        <ele>307.175</ele>
        <time>2011-11-26T16:07:56Z</time>
      </trkpt>
      <trkpt lat="43.32598" lon="1.21526">
        <ele>307.621</ele>
        <time>2011-11-26T16:07:57Z</time>
      </trkpt>
      <trkpt lat="43.32591" lon="1.21513">
        <ele>307.921</ele>
        <time>2011-11-26T16:07:58Z</time>
      </trkpt>
      <trkpt lat="43.32584" lon="1.215">
        <ele>307.849</ele>
        <time>2011-11-26T16:07:59Z</time>
      </trkpt>
      <trkpt lat="43.3257" lon="1.21473">
        <ele>307.487</ele>
        <time>2011-11-26T16:08:01Z</time>
      </trkpt>
      <trkpt lat="43.3257" lon="1.21473">
        <ele>307.538</ele>
        <time>2011-11-26T16:08:01Z</time>
      </trkpt>
      <trkpt lat="43.32555" lon="1.21446">
        <ele>308.176</ele>
        <time>2011-11-26T16:08:03Z</time>
      </trkpt>
      <trkpt lat="43.32548" lon="1.21433">
        <ele>309.23</ele>
        <time>2011-11-26T16:08:04Z</time>
      </trkpt>
      <trkpt lat="43.32542" lon="1.2142">
        <ele>310.135</ele>
        <time>2011-11-26T16:08:05Z</time>
      </trkpt>
      <trkpt lat="43.32535" lon="1.21407">
        <ele>310.514</ele>
        <time>2011-11-26T16:08:06Z</time>
      </trkpt>
      <trkpt lat="43.32528" lon="1.21395">
        <ele>310.637</ele>
        <time>2011-11-26T16:08:07Z</time>
      </trkpt>
      <trkpt lat="43.32513" lon="1.2137">
        <ele>311.181</ele>
        <time>2011-11-26T16:08:09Z</time>
      </trkpt>
      <trkpt lat="43.32506" lon="1.21356">
        <ele>311.686</ele>
        <time>2011-11-26T16:08:10Z</time>
      </trkpt>
      <trkpt lat="43.32499" lon="1.21343">
        <ele>312.301</ele>
        <time>2011-11-26T16:08:11Z</time>
      </trkpt>
      <trkpt lat="43.32499" lon="1.21343">
        <ele>312.728</ele>
        <time>2011-11-26T16:08:11Z</time>
      </trkpt>
      <trkpt lat="43.32483" lon="1.2132">
        <ele>312.889</ele>
        <time>2011-11-26T16:08:13Z</time>
      </trkpt>
      <trkpt lat="43.32473" lon="1.2131">
        <ele>312.878</ele>
        <time>2011-11-26T16:08:14Z</time>
      </trkpt>
      <trkpt lat="43.32463" lon="1.213">
        <ele>313.072</ele>
        <time>2011-11-26T16:08:15Z</time>
      </trkpt>
      <trkpt lat="43.32454" lon="1.21289">
        <ele>313.308</ele>
        <time>2011-11-26T16:08:16Z</time>
      </trkpt>
      <trkpt lat="43.32445" lon="1.21277">
        <ele>314.005</ele>
        <time>2011-11-26T16:08:17Z</time>
      </trkpt>
      <trkpt lat="43.32436" lon="1.21265">
        <ele>315.352</ele>
        <time>2011-11-26T16:08:18Z</time>
      </trkpt>
      <trkpt lat="43.32427" lon="1.21254">
        <ele>316.185</ele>
        <time>2011-11-26T16:08:19Z</time>
      </trkpt>
      <trkpt lat="43.32427" lon="1.21254">
        <ele>316.472</ele>
        <time>2011-11-26T16:08:19Z</time>
      </trkpt>
      <trkpt lat="43.3236" lon="1.21189">
        <ele>316.101</ele>
        <time>2011-11-26T16:08:26Z</time>
      </trkpt>
      <trkpt lat="43.32333" lon="1.21176">
        <ele>315.635</ele>
        <time>2011-11-26T16:08:28Z</time>
      </trkpt>
      <trkpt lat="43.3232" lon="1.21167">
        <ele>315.349</ele>
        <time>2011-11-26T16:08:29Z</time>
      </trkpt>
      <trkpt lat="43.32309" lon="1.2116">
        <ele>315.437</ele>
        <time>2011-11-26T16:08:30Z</time>
      </trkpt>
      <trkpt lat="43.32299" lon="1.21152">
        <ele>315.98</ele>
        <time>2011-11-26T16:08:31Z</time>
      </trkpt>
      <trkpt lat="43.32289" lon="1.21143">
        <ele>316.659</ele>
        <time>2011-11-26T16:08:32Z</time>
      </trkpt>
      <trkpt lat="43.3228" lon="1.21132">
        <ele>317.667</ele>
        <time>2011-11-26T16:08:33Z</time>
      </trkpt>
      <trkpt lat="43.32274" lon="1.2112">
        <ele>319.069</ele>
        <time>2011-11-26T16:08:34Z</time>
      </trkpt>
      <trkpt lat="43.32268" lon="1.21107">
        <ele>320.175</ele>
        <time>2011-11-26T16:08:35Z</time>
      </trkpt>
      <trkpt lat="43.3225" lon="1.21069">
        <ele>322.692</ele>
        <time>2011-11-26T16:08:38Z</time>
      </trkpt>
      <trkpt lat="43.32246" lon="1.21055">
        <ele>323.417</ele>
        <time>2011-11-26T16:08:39Z</time>
      </trkpt>
      <trkpt lat="43.32242" lon="1.21041">
        <ele>324.139</ele>
        <time>2011-11-26T16:08:40Z</time>
      </trkpt>
      <trkpt lat="43.32238" lon="1.21027">
        <ele>324.87</ele>
        <time>2011-11-26T16:08:41Z</time>
      </trkpt>
      <trkpt lat="43.32235" lon="1.21012">
        <ele>325.611</ele>
        <time>2011-11-26T16:08:42Z</time>
      </trkpt>
      <trkpt lat="43.32232" lon="1.20997">
        <ele>326.281</ele>
        <time>2011-11-26T16:08:43Z</time>
      </trkpt>
      <trkpt lat="43.32229" lon="1.20982">
        <ele>327.162</ele>
        <time>2011-11-26T16:08:44Z</time>
      </trkpt>
      <trkpt lat="43.32226" lon="1.20968">
        <ele>327.796</ele>
        <time>2011-11-26T16:08:45Z</time>
      </trkpt>
      <trkpt lat="43.32223" lon="1.20953">
        <ele>328.74</ele>
        <time>2011-11-26T16:08:46Z</time>
      </trkpt>
      <trkpt lat="43.3222" lon="1.20939">
        <ele>329.674</ele>
        <time>2011-11-26T16:08:47Z</time>
      </trkpt>
      <trkpt lat="43.32216" lon="1.20924">
        <ele>330.723</ele>
        <time>2011-11-26T16:08:48Z</time>
      </trkpt>
      <trkpt lat="43.3221" lon="1.20911">
        <ele>331.817</ele>
        <time>2011-11-26T16:08:49Z</time>
      </trkpt>
      <trkpt lat="43.32196" lon="1.20886">
        <ele>332.986</ele>
        <time>2011-11-26T16:08:51Z</time>
      </trkpt>
      <trkpt lat="43.32196" lon="1.20886">
        <ele>334.179</ele>
        <time>2011-11-26T16:08:51Z</time>
      </trkpt>
      <trkpt lat="43.32182" lon="1.20863">
        <ele>335.42</ele>
        <time>2011-11-26T16:08:53Z</time>
      </trkpt>
      <trkpt lat="43.32175" lon="1.20851">
        <ele>336.041</ele>
        <time>2011-11-26T16:08:54Z</time>
      </trkpt>
      <trkpt lat="43.32167" lon="1.20841">
        <ele>336.622</ele>
        <time>2011-11-26T16:08:55Z</time>
      </trkpt>
      <trkpt lat="43.32159" lon="1.2083">
        <ele>336.883</ele>
        <time>2011-11-26T16:08:56Z</time>
      </trkpt>
      <trkpt lat="43.32151" lon="1.20819">
        <ele>337.652</ele>
        <time>2011-11-26T16:08:57Z</time>
      </trkpt>
      <trkpt lat="43.32144" lon="1.20807">
        <ele>338.472</ele>
        <time>2011-11-26T16:08:58Z</time>
      </trkpt>
      <trkpt lat="43.32136" lon="1.20795">
        <ele>339.054</ele>
        <time>2011-11-26T16:08:59Z</time>
      </trkpt>
      <trkpt lat="43.32129" lon="1.20784">
        <ele>339.774</ele>
        <time>2011-11-26T16:09:00Z</time>
      </trkpt>
      <trkpt lat="43.32085" lon="1.20741">
        <ele>343.767</ele>
        <time>2011-11-26T16:09:05Z</time>
      </trkpt>
      <trkpt lat="43.32073" lon="1.20738">
        <ele>344.321</ele>
        <time>2011-11-26T16:09:06Z</time>
      </trkpt>
      <trkpt lat="43.32073" lon="1.20738">
        <ele>344.403</ele>
        <time>2011-11-26T16:09:06Z</time>
      </trkpt>
      <trkpt lat="43.3205" lon="1.20727">
        <ele>344.6</ele>
        <time>2011-11-26T16:09:08Z</time>
      </trkpt>
      <trkpt lat="43.32005" lon="1.20709">
        <ele>347.647</ele>
        <time>2011-11-26T16:09:12Z</time>
      </trkpt>
      <trkpt lat="43.31993" lon="1.20708">
        <ele>348.53</ele>
        <time>2011-11-26T16:09:13Z</time>
      </trkpt>
      <trkpt lat="43.31981" lon="1.20707">
        <ele>349.136</ele>
        <time>2011-11-26T16:09:14Z</time>
      </trkpt>
      <trkpt lat="43.31969" lon="1.20705">
        <ele>349.651</ele>
        <time>2011-11-26T16:09:15Z</time>
      </trkpt>
      <trkpt lat="43.31958" lon="1.20702">
        <ele>349.979</ele>
        <time>2011-11-26T16:09:16Z</time>
      </trkpt>
      <trkpt lat="43.31946" lon="1.20696">
        <ele>350.284</ele>
        <time>2011-11-26T16:09:17Z</time>
      </trkpt>
      <trkpt lat="43.31936" lon="1.2069">
        <ele>351.128</ele>
        <time>2011-11-26T16:09:18Z</time>
      </trkpt>
      <trkpt lat="43.31905" lon="1.20672">
        <ele>353.929</ele>
        <time>2011-11-26T16:09:21Z</time>
      </trkpt>
      <trkpt lat="43.31905" lon="1.20672">
        <ele>354.92</ele>
        <time>2011-11-26T16:09:21Z</time>
      </trkpt>
      <trkpt lat="43.31884" lon="1.20662">
        <ele>355.32</ele>
        <time>2011-11-26T16:09:23Z</time>
      </trkpt>
      <trkpt lat="43.31874" lon="1.20656">
        <ele>355.797</ele>
        <time>2011-11-26T16:09:24Z</time>
      </trkpt>
      <trkpt lat="43.31864" lon="1.2065">
        <ele>356.61</ele>
        <time>2011-11-26T16:09:25Z</time>
      </trkpt>
      <trkpt lat="43.31853" lon="1.20644">
        <ele>357.413</ele>
        <time>2011-11-26T16:09:26Z</time>
      </trkpt>
      <trkpt lat="43.31843" lon="1.20637">
        <ele>358.262</ele>
        <time>2011-11-26T16:09:27Z</time>
      </trkpt>
      <trkpt lat="43.31834" lon="1.20627">
        <ele>358.923</ele>
        <time>2011-11-26T16:09:28Z</time>
      </trkpt>
      <trkpt lat="43.31825" lon="1.20616">
        <ele>359.658</ele>
        <time>2011-11-26T16:09:29Z</time>
      </trkpt>
      <trkpt lat="43.31818" lon="1.20604">
        <ele>360.478</ele>
        <time>2011-11-26T16:09:30Z</time>
      </trkpt>
      <trkpt lat="43.3181" lon="1.20592">
        <ele>361.268</ele>
        <time>2011-11-26T16:09:31Z</time>
      </trkpt>
      <trkpt lat="43.31802" lon="1.2058">
        <ele>361.507</ele>
        <time>2011-11-26T16:09:32Z</time>
      </trkpt>
      <trkpt lat="43.31794" lon="1.20568">
        <ele>361.894</ele>
        <time>2011-11-26T16:09:33Z</time>
      </trkpt>
      <trkpt lat="43.31786" lon="1.20556">
        <ele>362.604</ele>
        <time>2011-11-26T16:09:34Z</time>
      </trkpt>
      <trkpt lat="43.31774" lon="1.20528">
        <ele>363.575</ele>
        <time>2011-11-26T16:09:36Z</time>
      </trkpt>
      <trkpt lat="43.31774" lon="1.20528">
        <ele>364.551</ele>
        <time>2011-11-26T16:09:36Z</time>
      </trkpt>
      <trkpt lat="43.31763" lon="1.20501">
        <ele>365.569</ele>
        <time>2011-11-26T16:09:38Z</time>
      </trkpt>
      <trkpt lat="43.31751" lon="1.20475">
        <ele>367.181</ele>
        <time>2011-11-26T16:09:40Z</time>
      </trkpt>
      <trkpt lat="43.31744" lon="1.20462">
        <ele>367.857</ele>
        <time>2011-11-26T16:09:41Z</time>
      </trkpt>
      <trkpt lat="43.31744" lon="1.20462">
        <ele>368.438</ele>
        <time>2011-11-26T16:09:41Z</time>
      </trkpt>
      <trkpt lat="43.31731" lon="1.20434">
        <ele>369.07</ele>
        <time>2011-11-26T16:09:43Z</time>
      </trkpt>
      <trkpt lat="43.31726" lon="1.2042">
        <ele>370.285</ele>
        <time>2011-11-26T16:09:44Z</time>
      </trkpt>
      <trkpt lat="43.3172" lon="1.20406">
        <ele>371.455</ele>
        <time>2011-11-26T16:09:45Z</time>
      </trkpt>
      <trkpt lat="43.31714" lon="1.20391">
        <ele>372.478</ele>
        <time>2011-11-26T16:09:46Z</time>
      </trkpt>
      <trkpt lat="43.31709" lon="1.20377">
        <ele>373.213</ele>
        <time>2011-11-26T16:09:47Z</time>
      </trkpt>
      <trkpt lat="43.31703" lon="1.20362">
        <ele>374.213</ele>
        <time>2011-11-26T16:09:48Z</time>
      </trkpt>
      <trkpt lat="43.31698" lon="1.20347">
        <ele>375.133</ele>
        <time>2011-11-26T16:09:49Z</time>
      </trkpt>
      <trkpt lat="43.3169" lon="1.20334">
        <ele>376.544</ele>
        <time>2011-11-26T16:09:50Z</time>
      </trkpt>
      <trkpt lat="43.31641" lon="1.20265">
        <ele>370.939</ele>
        <time>2011-11-26T16:09:56Z</time>
      </trkpt>
      <trkpt lat="43.31641" lon="1.20265">
        <ele>369.041</ele>
        <time>2011-11-26T16:09:56Z</time>
      </trkpt>
      <trkpt lat="43.31614" lon="1.20255">
        <ele>367.659</ele>
        <time>2011-11-26T16:09:58Z</time>
      </trkpt>
      <trkpt lat="43.316" lon="1.20251">
        <ele>366.765</ele>
        <time>2011-11-26T16:09:59Z</time>
      </trkpt>
      <trkpt lat="43.31589" lon="1.20246">
        <ele>365.835</ele>
        <time>2011-11-26T16:10:00Z</time>
      </trkpt>
      <trkpt lat="43.31578" lon="1.20239">
        <ele>365.246</ele>
        <time>2011-11-26T16:10:01Z</time>
      </trkpt>
      <trkpt lat="43.31567" lon="1.20232">
        <ele>364.661</ele>
        <time>2011-11-26T16:10:02Z</time>
      </trkpt>
      <trkpt lat="43.31557" lon="1.20224">
        <ele>364.278</ele>
        <time>2011-11-26T16:10:03Z</time>
      </trkpt>
      <trkpt lat="43.31547" lon="1.20213">
        <ele>363.929</ele>
        <time>2011-11-26T16:10:04Z</time>
      </trkpt>
      <trkpt lat="43.3154" lon="1.202">
        <ele>363.723</ele>
        <time>2011-11-26T16:10:05Z</time>
      </trkpt>
      <trkpt lat="43.31536" lon="1.20185">
        <ele>363.61</ele>
        <time>2011-11-26T16:10:06Z</time>
      </trkpt>
      <trkpt lat="43.31534" lon="1.20168">
        <ele>364.185</ele>
        <time>2011-11-26T16:10:07Z</time>
      </trkpt>
      <trkpt lat="43.31532" lon="1.20152">
        <ele>364.926</ele>
        <time>2011-11-26T16:10:08Z</time>
      </trkpt>
      <trkpt lat="43.31532" lon="1.20152">
        <ele>365.959</ele>
        <time>2011-11-26T16:10:08Z</time>
      </trkpt>
      <trkpt lat="43.31527" lon="1.20122">
        <ele>366.919</ele>
        <time>2011-11-26T16:10:10Z</time>
      </trkpt>
      <trkpt lat="43.31527" lon="1.20122">
        <ele>368.12</ele>
        <time>2011-11-26T16:10:10Z</time>
      </trkpt>
      <trkpt lat="43.31519" lon="1.20062">
        <ele>370.362</ele>
        <time>2011-11-26T16:10:14Z</time>
      </trkpt>
      <trkpt lat="43.31516" lon="1.20045">
        <ele>370.902</ele>
        <time>2011-11-26T16:10:15Z</time>
      </trkpt>
      <trkpt lat="43.31513" lon="1.20029">
        <ele>371.054</ele>
        <time>2011-11-26T16:10:16Z</time>
      </trkpt>
      <trkpt lat="43.3151" lon="1.20012">
        <ele>370.909</ele>
        <time>2011-11-26T16:10:17Z</time>
      </trkpt>
      <trkpt lat="43.31509" lon="1.19996">
        <ele>371.231</ele>
        <time>2011-11-26T16:10:18Z</time>
      </trkpt>
      <trkpt lat="43.31508" lon="1.19979">
        <ele>371.769</ele>
        <time>2011-11-26T16:10:19Z</time>
      </trkpt>
      <trkpt lat="43.31506" lon="1.19963">
        <ele>372.669</ele>
        <time>2011-11-26T16:10:20Z</time>
      </trkpt>
      <trkpt lat="43.31504" lon="1.19947">
        <ele>373.743</ele>
        <time>2011-11-26T16:10:21Z</time>
      </trkpt>
      <trkpt lat="43.31501" lon="1.19931">
        <ele>374.586</ele>
        <time>2011-11-26T16:10:22Z</time>
      </trkpt>
      <trkpt lat="43.31498" lon="1.19916">
        <ele>375.355</ele>
        <time>2011-11-26T16:10:23Z</time>
      </trkpt>
      <trkpt lat="43.31496" lon="1.199">
        <ele>375.97</ele>
        <time>2011-11-26T16:10:24Z</time>
      </trkpt>
      <trkpt lat="43.31495" lon="1.19885">
        <ele>376.64</ele>
        <time>2011-11-26T16:10:25Z</time>
      </trkpt>
      <trkpt lat="43.31494" lon="1.19869">
        <ele>377.403</ele>
        <time>2011-11-26T16:10:26Z</time>
      </trkpt>
      <trkpt lat="43.31489" lon="1.19837">
        <ele>378.598</ele>
        <time>2011-11-26T16:10:28Z</time>
      </trkpt>
      <trkpt lat="43.31486" lon="1.19822">
        <ele>379.834</ele>
        <time>2011-11-26T16:10:29Z</time>
      </trkpt>
      <trkpt lat="43.31484" lon="1.19807">
        <ele>380.52</ele>
        <time>2011-11-26T16:10:30Z</time>
      </trkpt>
      <trkpt lat="43.31481" lon="1.19792">
        <ele>380.991</ele>
        <time>2011-11-26T16:10:31Z</time>
      </trkpt>
      <trkpt lat="43.31478" lon="1.19777">
        <ele>381.228</ele>
        <time>2011-11-26T16:10:32Z</time>
      </trkpt>
      <trkpt lat="43.31473" lon="1.19761">
        <ele>381.816</ele>
        <time>2011-11-26T16:10:33Z</time>
      </trkpt>
      <trkpt lat="43.31469" lon="1.19746">
        <ele>382.449</ele>
        <time>2011-11-26T16:10:34Z</time>
      </trkpt>
      <trkpt lat="43.31464" lon="1.19731">
        <ele>382.691</ele>
        <time>2011-11-26T16:10:35Z</time>
      </trkpt>
      <trkpt lat="43.31458" lon="1.19715">
        <ele>382.752</ele>
        <time>2011-11-26T16:10:36Z</time>
      </trkpt>
      <trkpt lat="43.31452" lon="1.197">
        <ele>382.481</ele>
        <time>2011-11-26T16:10:37Z</time>
      </trkpt>
      <trkpt lat="43.31446" lon="1.19684">
        <ele>382.715</ele>
        <time>2011-11-26T16:10:38Z</time>
      </trkpt>
      <trkpt lat="43.3144" lon="1.19668">
        <ele>383.702</ele>
        <time>2011-11-26T16:10:39Z</time>
      </trkpt>
      <trkpt lat="43.31435" lon="1.19652">
        <ele>385.131</ele>
        <time>2011-11-26T16:10:40Z</time>
      </trkpt>
      <trkpt lat="43.31429" lon="1.19637">
        <ele>385.994</ele>
        <time>2011-11-26T16:10:41Z</time>
      </trkpt>
      <trkpt lat="43.31422" lon="1.19622">
        <ele>386.355</ele>
        <time>2011-11-26T16:10:42Z</time>
      </trkpt>
      <trkpt lat="43.31407" lon="1.19591">
        <ele>386.232</ele>
        <time>2011-11-26T16:10:44Z</time>
      </trkpt>
      <trkpt lat="43.314" lon="1.19575">
        <ele>386.309</ele>
        <time>2011-11-26T16:10:45Z</time>
      </trkpt>
      <trkpt lat="43.31394" lon="1.19558">
        <ele>386.667</ele>
        <time>2011-11-26T16:10:46Z</time>
      </trkpt>
      <trkpt lat="43.31387" lon="1.19542">
        <ele>387.228</ele>
        <time>2011-11-26T16:10:47Z</time>
      </trkpt>
      <trkpt lat="43.3138" lon="1.19527">
        <ele>388.025</ele>
        <time>2011-11-26T16:10:48Z</time>
      </trkpt>
      <trkpt lat="43.31373" lon="1.19512">
        <ele>389.06</ele>
        <time>2011-11-26T16:10:49Z</time>
      </trkpt>
      <trkpt lat="43.31366" lon="1.19497">
        <ele>390.323</ele>
        <time>2011-11-26T16:10:50Z</time>
      </trkpt>
      <trkpt lat="43.31359" lon="1.19483">
        <ele>391.681</ele>
        <time>2011-11-26T16:10:51Z</time>
      </trkpt>
      <trkpt lat="43.31353" lon="1.19468">
        <ele>392.549</ele>
        <time>2011-11-26T16:10:52Z</time>
      </trkpt>
      <trkpt lat="43.31345" lon="1.19453">
        <ele>392.955</ele>
        <time>2011-11-26T16:10:53Z</time>
      </trkpt>
      <trkpt lat="43.31345" lon="1.19453">
        <ele>393.165</ele>
        <time>2011-11-26T16:10:53Z</time>
      </trkpt>
      <trkpt lat="43.31329" lon="1.19424">
        <ele>393.377</ele>
        <time>2011-11-26T16:10:55Z</time>
      </trkpt>
      <trkpt lat="43.3132" lon="1.19409">
        <ele>393.586</ele>
        <time>2011-11-26T16:10:56Z</time>
      </trkpt>
      <trkpt lat="43.31304" lon="1.19379">
        <ele>393.945</ele>
        <time>2011-11-26T16:10:58Z</time>
      </trkpt>
      <trkpt lat="43.31296" lon="1.19364">
        <ele>394.865</ele>
        <time>2011-11-26T16:10:59Z</time>
      </trkpt>
      <trkpt lat="43.31288" lon="1.19349">
        <ele>396.132</ele>
        <time>2011-11-26T16:11:00Z</time>
      </trkpt>
      <trkpt lat="43.31279" lon="1.19336">
        <ele>397.336</ele>
        <time>2011-11-26T16:11:01Z</time>
      </trkpt>
      <trkpt lat="43.31269" lon="1.19322">
        <ele>398.334</ele>
        <time>2011-11-26T16:11:02Z</time>
      </trkpt>
      <trkpt lat="43.31259" lon="1.19308">
        <ele>398.767</ele>
        <time>2011-11-26T16:11:03Z</time>
      </trkpt>
      <trkpt lat="43.3125" lon="1.19293">
        <ele>399.03</ele>
        <time>2011-11-26T16:11:04Z</time>
      </trkpt>
      <trkpt lat="43.3124" lon="1.19278">
        <ele>400.001</ele>
        <time>2011-11-26T16:11:05Z</time>
      </trkpt>
      <trkpt lat="43.31231" lon="1.19264">
        <ele>401.752</ele>
        <time>2011-11-26T16:11:06Z</time>
      </trkpt>
      <trkpt lat="43.31223" lon="1.1925">
        <ele>404.05</ele>
        <time>2011-11-26T16:11:07Z</time>
      </trkpt>
      <trkpt lat="43.31214" lon="1.19236">
        <ele>405.811</ele>
        <time>2011-11-26T16:11:08Z</time>
      </trkpt>
      <trkpt lat="43.31205" lon="1.19223">
        <ele>407.603</ele>
        <time>2011-11-26T16:11:09Z</time>
      </trkpt>
      <trkpt lat="43.31196" lon="1.19209">
        <ele>408.596</ele>
        <time>2011-11-26T16:11:10Z</time>
      </trkpt>
      <trkpt lat="43.31188" lon="1.19196">
        <ele>409.076</ele>
        <time>2011-11-26T16:11:11Z</time>
      </trkpt>
      <trkpt lat="43.31173" lon="1.19165">
        <ele>410.162</ele>
        <time>2011-11-26T16:11:13Z</time>
      </trkpt>
      <trkpt lat="43.31165" lon="1.1915">
        <ele>411.549</ele>
        <time>2011-11-26T16:11:14Z</time>
      </trkpt>
      <trkpt lat="43.31158" lon="1.19136">
        <ele>412.973</ele>
        <time>2011-11-26T16:11:15Z</time>
      </trkpt>
      <trkpt lat="43.3115" lon="1.19122">
        <ele>414.106</ele>
        <time>2011-11-26T16:11:16Z</time>
      </trkpt>
      <trkpt lat="43.31142" lon="1.19108">
        <ele>415.149</ele>
        <time>2011-11-26T16:11:17Z</time>
      </trkpt>
      <trkpt lat="43.31135" lon="1.19094">
        <ele>415.931</ele>
        <time>2011-11-26T16:11:18Z</time>
      </trkpt>
      <trkpt lat="43.31127" lon="1.19079">
        <ele>416.488</ele>
        <time>2011-11-26T16:11:19Z</time>
      </trkpt>
      <trkpt lat="43.3112" lon="1.19064">
        <ele>416.986</ele>
        <time>2011-11-26T16:11:20Z</time>
      </trkpt>
      <trkpt lat="43.31112" lon="1.19049">
        <ele>417.466</ele>
        <time>2011-11-26T16:11:21Z</time>
      </trkpt>
      <trkpt lat="43.31104" lon="1.19035">
        <ele>417.72</ele>
        <time>2011-11-26T16:11:22Z</time>
      </trkpt>
      <trkpt lat="43.31097" lon="1.1902">
        <ele>417.87</ele>
        <time>2011-11-26T16:11:23Z</time>
      </trkpt>
      <trkpt lat="43.31082" lon="1.1899">
        <ele>418.135</ele>
        <time>2011-11-26T16:11:25Z</time>
      </trkpt>
      <trkpt lat="43.31075" lon="1.18974">
        <ele>419.18</ele>
        <time>2011-11-26T16:11:26Z</time>
      </trkpt>
      <trkpt lat="43.31045" lon="1.18913">
        <ele>420.549</ele>
        <time>2011-11-26T16:11:30Z</time>
      </trkpt>
      <trkpt lat="43.31037" lon="1.18899">
        <ele>419.269</ele>
        <time>2011-11-26T16:11:31Z</time>
      </trkpt>
      <trkpt lat="43.31021" lon="1.18867">
        <ele>418.675</ele>
        <time>2011-11-26T16:11:33Z</time>
      </trkpt>
      <trkpt lat="43.31013" lon="1.18851">
        <ele>418.682</ele>
        <time>2011-11-26T16:11:34Z</time>
      </trkpt>
      <trkpt lat="43.31006" lon="1.18835">
        <ele>419.098</ele>
        <time>2011-11-26T16:11:35Z</time>
      </trkpt>
      <trkpt lat="43.30998" lon="1.1882">
        <ele>419.403</ele>
        <time>2011-11-26T16:11:36Z</time>
      </trkpt>
      <trkpt lat="43.3099" lon="1.18804">
        <ele>419.318</ele>
        <time>2011-11-26T16:11:37Z</time>
      </trkpt>
      <trkpt lat="43.30983" lon="1.18789">
        <ele>418.82</ele>
        <time>2011-11-26T16:11:38Z</time>
      </trkpt>
      <trkpt lat="43.30976" lon="1.18773">
        <ele>419.03</ele>
        <time>2011-11-26T16:11:39Z</time>
      </trkpt>
      <trkpt lat="43.30969" lon="1.18757">
        <ele>420.028</ele>
        <time>2011-11-26T16:11:40Z</time>
      </trkpt>
      <trkpt lat="43.30961" lon="1.1874">
        <ele>421.579</ele>
        <time>2011-11-26T16:11:41Z</time>
      </trkpt>
      <trkpt lat="43.309" lon="1.18625">
        <ele>424.006</ele>
        <time>2011-11-26T16:11:49Z</time>
      </trkpt>
      <trkpt lat="43.30892" lon="1.18611">
        <ele>424.578</ele>
        <time>2011-11-26T16:11:50Z</time>
      </trkpt>
      <trkpt lat="43.30883" lon="1.18596">
        <ele>425.012</ele>
        <time>2011-11-26T16:11:51Z</time>
      </trkpt>
      <trkpt lat="43.30875" lon="1.18581">
        <ele>425.269</ele>
        <time>2011-11-26T16:11:52Z</time>
      </trkpt>
      <trkpt lat="43.30867" lon="1.18567">
        <ele>425.4</ele>
        <time>2011-11-26T16:11:53Z</time>
      </trkpt>
      <trkpt lat="43.30859" lon="1.18552">
        <ele>425.585</ele>
        <time>2011-11-26T16:11:54Z</time>
      </trkpt>
      <trkpt lat="43.30851" lon="1.18537">
        <ele>425.768</ele>
        <time>2011-11-26T16:11:55Z</time>
      </trkpt>
      <trkpt lat="43.30844" lon="1.18521">
        <ele>425.769</ele>
        <time>2011-11-26T16:11:56Z</time>
      </trkpt>
      <trkpt lat="43.30838" lon="1.18505">
        <ele>425.509</ele>
        <time>2011-11-26T16:11:57Z</time>
      </trkpt>
      <trkpt lat="43.30831" lon="1.1849">
        <ele>425.273</ele>
        <time>2011-11-26T16:11:58Z</time>
      </trkpt>
      <trkpt lat="43.30823" lon="1.18474">
        <ele>424.912</ele>
        <time>2011-11-26T16:11:59Z</time>
      </trkpt>
      <trkpt lat="43.30815" lon="1.18459">
        <ele>424.78</ele>
        <time>2011-11-26T16:12:00Z</time>
      </trkpt>
      <trkpt lat="43.30805" lon="1.18444">
        <ele>424.906</ele>
        <time>2011-11-26T16:12:01Z</time>
      </trkpt>
      <trkpt lat="43.30776" lon="1.18404">
        <ele>425.94</ele>
        <time>2011-11-26T16:12:04Z</time>
      </trkpt>
      <trkpt lat="43.30766" lon="1.1839">
        <ele>426.354</ele>
        <time>2011-11-26T16:12:05Z</time>
      </trkpt>
      <trkpt lat="43.30757" lon="1.18377">
        <ele>426.62</ele>
        <time>2011-11-26T16:12:06Z</time>
      </trkpt>
      <trkpt lat="43.30748" lon="1.18363">
        <ele>426.896</ele>
        <time>2011-11-26T16:12:07Z</time>
      </trkpt>
      <trkpt lat="43.30739" lon="1.18349">
        <ele>427.174</ele>
        <time>2011-11-26T16:12:08Z</time>
      </trkpt>
      <trkpt lat="43.3073" lon="1.18335">
        <ele>427.64</ele>
        <time>2011-11-26T16:12:09Z</time>
      </trkpt>
      <trkpt lat="43.3072" lon="1.18321">
        <ele>428.128</ele>
        <time>2011-11-26T16:12:10Z</time>
      </trkpt>
      <trkpt lat="43.3071" lon="1.18308">
        <ele>428.868</ele>
        <time>2011-11-26T16:12:11Z</time>
      </trkpt>
      <trkpt lat="43.30701" lon="1.18295">
        <ele>429.447</ele>
        <time>2011-11-26T16:12:12Z</time>
      </trkpt>
      <trkpt lat="43.3069" lon="1.18282">
        <ele>430.392</ele>
        <time>2011-11-26T16:12:13Z</time>
      </trkpt>
      <trkpt lat="43.30681" lon="1.18273">
        <ele>431.34</ele>
        <time>2011-11-26T16:12:14Z</time>
      </trkpt>
      <trkpt lat="43.3067" lon="1.18261">
        <ele>432.093</ele>
        <time>2011-11-26T16:12:15Z</time>
      </trkpt>
      <trkpt lat="43.3066" lon="1.18249">
        <ele>432.81</ele>
        <time>2011-11-26T16:12:16Z</time>
      </trkpt>
      <trkpt lat="43.30649" lon="1.18237">
        <ele>433.309</ele>
        <time>2011-11-26T16:12:17Z</time>
      </trkpt>
      <trkpt lat="43.30637" lon="1.18224">
        <ele>433.741</ele>
        <time>2011-11-26T16:12:18Z</time>
      </trkpt>
      <trkpt lat="43.30625" lon="1.18212">
        <ele>434.516</ele>
        <time>2011-11-26T16:12:19Z</time>
      </trkpt>
      <trkpt lat="43.30601" lon="1.18188">
        <ele>435.488</ele>
        <time>2011-11-26T16:12:21Z</time>
      </trkpt>
      <trkpt lat="43.30601" lon="1.18188">
        <ele>436.35</ele>
        <time>2011-11-26T16:12:21Z</time>
      </trkpt>
      <trkpt lat="43.30578" lon="1.18164">
        <ele>437.328</ele>
        <time>2011-11-26T16:12:23Z</time>
      </trkpt>
      <trkpt lat="43.30568" lon="1.18152">
        <ele>438.074</ele>
        <time>2011-11-26T16:12:24Z</time>
      </trkpt>
      <trkpt lat="43.30557" lon="1.1814">
        <ele>439.024</ele>
        <time>2011-11-26T16:12:25Z</time>
      </trkpt>
      <trkpt lat="43.30546" lon="1.18127">
        <ele>440.043</ele>
        <time>2011-11-26T16:12:26Z</time>
      </trkpt>
      <trkpt lat="43.30535" lon="1.18115">
        <ele>441.153</ele>
        <time>2011-11-26T16:12:27Z</time>
      </trkpt>
      <trkpt lat="43.30524" lon="1.18102">
        <ele>441.967</ele>
        <time>2011-11-26T16:12:28Z</time>
      </trkpt>
      <trkpt lat="43.30513" lon="1.18089">
        <ele>442.445</ele>
        <time>2011-11-26T16:12:29Z</time>
      </trkpt>
      <trkpt lat="43.30501" lon="1.18076">
        <ele>442.709</ele>
        <time>2011-11-26T16:12:30Z</time>
      </trkpt>
      <trkpt lat="43.3049" lon="1.18063">
        <ele>443.13</ele>
        <time>2011-11-26T16:12:31Z</time>
      </trkpt>
      <trkpt lat="43.30478" lon="1.1805">
        <ele>444.305</ele>
        <time>2011-11-26T16:12:32Z</time>
      </trkpt>
      <trkpt lat="43.30478" lon="1.1805">
        <ele>445.263</ele>
        <time>2011-11-26T16:12:32Z</time>
      </trkpt>
      <trkpt lat="43.30447" lon="1.18007">
        <ele>446.398</ele>
        <time>2011-11-26T16:12:35Z</time>
      </trkpt>
      <trkpt lat="43.30436" lon="1.17993">
        <ele>447.057</ele>
        <time>2011-11-26T16:12:36Z</time>
      </trkpt>
      <trkpt lat="43.30436" lon="1.17993">
        <ele>447.479</ele>
        <time>2011-11-26T16:12:36Z</time>
      </trkpt>
      <trkpt lat="43.30413" lon="1.17968">
        <ele>447.862</ele>
        <time>2011-11-26T16:12:38Z</time>
      </trkpt>
      <trkpt lat="43.30403" lon="1.17954">
        <ele>448.417</ele>
        <time>2011-11-26T16:12:39Z</time>
      </trkpt>
      <trkpt lat="43.30393" lon="1.1794">
        <ele>449.207</ele>
        <time>2011-11-26T16:12:40Z</time>
      </trkpt>
      <trkpt lat="43.30384" lon="1.17925">
        <ele>449.746</ele>
        <time>2011-11-26T16:12:41Z</time>
      </trkpt>
      <trkpt lat="43.30375" lon="1.17911">
        <ele>450.82</ele>
        <time>2011-11-26T16:12:42Z</time>
      </trkpt>
      <trkpt lat="43.30365" lon="1.17897">
        <ele>451.427</ele>
        <time>2011-11-26T16:12:43Z</time>
      </trkpt>
      <trkpt lat="43.30354" lon="1.17883">
        <ele>451.783</ele>
        <time>2011-11-26T16:12:44Z</time>
      </trkpt>
      <trkpt lat="43.30344" lon="1.17869">
        <ele>451.968</ele>
        <time>2011-11-26T16:12:45Z</time>
      </trkpt>
      <trkpt lat="43.30334" lon="1.17853">
        <ele>452.121</ele>
        <time>2011-11-26T16:12:46Z</time>
      </trkpt>
      <trkpt lat="43.30324" lon="1.17838">
        <ele>452.392</ele>
        <time>2011-11-26T16:12:47Z</time>
      </trkpt>
      <trkpt lat="43.30314" lon="1.17822">
        <ele>452.791</ele>
        <time>2011-11-26T16:12:48Z</time>
      </trkpt>
      <trkpt lat="43.30303" lon="1.17807">
        <ele>453.16</ele>
        <time>2011-11-26T16:12:49Z</time>
      </trkpt>
      <trkpt lat="43.30282" lon="1.17776">
        <ele>453.97</ele>
        <time>2011-11-26T16:12:51Z</time>
      </trkpt>
      <trkpt lat="43.30282" lon="1.17776">
        <ele>454.581</ele>
        <time>2011-11-26T16:12:51Z</time>
      </trkpt>
      <trkpt lat="43.30263" lon="1.17743">
        <ele>454.957</ele>
        <time>2011-11-26T16:12:53Z</time>
      </trkpt>
      <trkpt lat="43.30254" lon="1.17727">
        <ele>455.373</ele>
        <time>2011-11-26T16:12:54Z</time>
      </trkpt>
      <trkpt lat="43.30244" lon="1.1771">
        <ele>455.864</ele>
        <time>2011-11-26T16:12:55Z</time>
      </trkpt>
      <trkpt lat="43.30234" lon="1.17694">
        <ele>456.781</ele>
        <time>2011-11-26T16:12:56Z</time>
      </trkpt>
      <trkpt lat="43.30224" lon="1.17677">
        <ele>457.558</ele>
        <time>2011-11-26T16:12:57Z</time>
      </trkpt>
      <trkpt lat="43.30215" lon="1.1766">
        <ele>458.535</ele>
        <time>2011-11-26T16:12:58Z</time>
      </trkpt>
      <trkpt lat="43.30206" lon="1.17643">
        <ele>459.551</ele>
        <time>2011-11-26T16:12:59Z</time>
      </trkpt>
      <trkpt lat="43.30197" lon="1.17626">
        <ele>460.319</ele>
        <time>2011-11-26T16:13:00Z</time>
      </trkpt>
      <trkpt lat="43.30187" lon="1.17609">
        <ele>460.994</ele>
        <time>2011-11-26T16:13:01Z</time>
      </trkpt>
      <trkpt lat="43.30178" lon="1.17592">
        <ele>461.676</ele>
        <time>2011-11-26T16:13:02Z</time>
      </trkpt>
      <trkpt lat="43.30169" lon="1.17574">
        <ele>462.475</ele>
        <time>2011-11-26T16:13:03Z</time>
      </trkpt>
      <trkpt lat="43.30151" lon="1.1754">
        <ele>463.451</ele>
        <time>2011-11-26T16:13:05Z</time>
      </trkpt>
      <trkpt lat="43.30123" lon="1.17491">
        <ele>466.522</ele>
        <time>2011-11-26T16:13:08Z</time>
      </trkpt>
      <trkpt lat="43.30113" lon="1.17475">
        <ele>466.978</ele>
        <time>2011-11-26T16:13:09Z</time>
      </trkpt>
      <trkpt lat="43.30103" lon="1.17459">
        <ele>467.239</ele>
        <time>2011-11-26T16:13:10Z</time>
      </trkpt>
      <trkpt lat="43.30092" lon="1.17442">
        <ele>467.795</ele>
        <time>2011-11-26T16:13:11Z</time>
      </trkpt>
      <trkpt lat="43.30082" lon="1.17425">
        <ele>468.366</ele>
        <time>2011-11-26T16:13:12Z</time>
      </trkpt>
      <trkpt lat="43.30071" lon="1.17409">
        <ele>469.691</ele>
        <time>2011-11-26T16:13:13Z</time>
      </trkpt>
      <trkpt lat="43.30061" lon="1.17393">
        <ele>471.248</ele>
        <time>2011-11-26T16:13:14Z</time>
      </trkpt>
      <trkpt lat="43.30051" lon="1.17377">
        <ele>472.405</ele>
        <time>2011-11-26T16:13:15Z</time>
      </trkpt>
      <trkpt lat="43.3004" lon="1.17361">
        <ele>473.501</ele>
        <time>2011-11-26T16:13:16Z</time>
      </trkpt>
      <trkpt lat="43.30029" lon="1.17346">
        <ele>474.63</ele>
        <time>2011-11-26T16:13:17Z</time>
      </trkpt>
      <trkpt lat="43.30019" lon="1.1733">
        <ele>475.391</ele>
        <time>2011-11-26T16:13:18Z</time>
      </trkpt>
      <trkpt lat="43.30008" lon="1.17315">
        <ele>476.109</ele>
        <time>2011-11-26T16:13:19Z</time>
      </trkpt>
      <trkpt lat="43.29997" lon="1.17299">
        <ele>476.974</ele>
        <time>2011-11-26T16:13:20Z</time>
      </trkpt>
      <trkpt lat="43.29986" lon="1.17283">
        <ele>478.049</ele>
        <time>2011-11-26T16:13:21Z</time>
      </trkpt>
      <trkpt lat="43.29975" lon="1.17268">
        <ele>479.408</ele>
        <time>2011-11-26T16:13:22Z</time>
      </trkpt>
      <trkpt lat="43.29931" lon="1.17208">
        <ele>484.709</ele>
        <time>2011-11-26T16:13:26Z</time>
      </trkpt>
      <trkpt lat="43.29931" lon="1.17208">
        <ele>485.873</ele>
        <time>2011-11-26T16:13:26Z</time>
      </trkpt>
      <trkpt lat="43.29906" lon="1.17183">
        <ele>486.494</ele>
        <time>2011-11-26T16:13:28Z</time>
      </trkpt>
      <trkpt lat="43.29894" lon="1.17169">
        <ele>487.275</ele>
        <time>2011-11-26T16:13:29Z</time>
      </trkpt>
      <trkpt lat="43.29882" lon="1.17155">
        <ele>488.271</ele>
        <time>2011-11-26T16:13:30Z</time>
      </trkpt>
      <trkpt lat="43.2987" lon="1.17141">
        <ele>489.552</ele>
        <time>2011-11-26T16:13:31Z</time>
      </trkpt>
      <trkpt lat="43.29859" lon="1.17127">
        <ele>491.028</ele>
        <time>2011-11-26T16:13:32Z</time>
      </trkpt>
      <trkpt lat="43.29847" lon="1.17114">
        <ele>492.345</ele>
        <time>2011-11-26T16:13:33Z</time>
      </trkpt>
      <trkpt lat="43.29847" lon="1.17114">
        <ele>493.982</ele>
        <time>2011-11-26T16:13:33Z</time>
      </trkpt>
      <trkpt lat="43.29812" lon="1.17075">
        <ele>495.117</ele>
        <time>2011-11-26T16:13:36Z</time>
      </trkpt>
      <trkpt lat="43.29812" lon="1.17075">
        <ele>495.704</ele>
        <time>2011-11-26T16:13:36Z</time>
      </trkpt>
      <trkpt lat="43.29789" lon="1.1705">
        <ele>496.162</ele>
        <time>2011-11-26T16:13:38Z</time>
      </trkpt>
      <trkpt lat="43.29777" lon="1.17037">
        <ele>496.941</ele>
        <time>2011-11-26T16:13:39Z</time>
      </trkpt>
      <trkpt lat="43.29765" lon="1.17024">
        <ele>498.262</ele>
        <time>2011-11-26T16:13:40Z</time>
      </trkpt>
      <trkpt lat="43.29753" lon="1.1701">
        <ele>499.574</ele>
        <time>2011-11-26T16:13:41Z</time>
      </trkpt>
      <trkpt lat="43.29742" lon="1.16996">
        <ele>500.533</ele>
        <time>2011-11-26T16:13:42Z</time>
      </trkpt>
      <trkpt lat="43.29731" lon="1.16982">
        <ele>501.743</ele>
        <time>2011-11-26T16:13:43Z</time>
      </trkpt>
      <trkpt lat="43.2972" lon="1.16967">
        <ele>502.596</ele>
        <time>2011-11-26T16:13:44Z</time>
      </trkpt>
      <trkpt lat="43.29709" lon="1.16953">
        <ele>503.425</ele>
        <time>2011-11-26T16:13:45Z</time>
      </trkpt>
      <trkpt lat="43.29698" lon="1.16938">
        <ele>504.156</ele>
        <time>2011-11-26T16:13:46Z</time>
      </trkpt>
      <trkpt lat="43.29688" lon="1.16923">
        <ele>504.729</ele>
        <time>2011-11-26T16:13:47Z</time>
      </trkpt>
      <trkpt lat="43.29677" lon="1.16909">
        <ele>505.192</ele>
        <time>2011-11-26T16:13:48Z</time>
      </trkpt>
      <trkpt lat="43.29667" lon="1.16894">
        <ele>505.731</ele>
        <time>2011-11-26T16:13:49Z</time>
      </trkpt>
      <trkpt lat="43.29646" lon="1.16865">
        <ele>506.156</ele>
        <time>2011-11-26T16:13:51Z</time>
      </trkpt>
      <trkpt lat="43.29646" lon="1.16865">
        <ele>506.449</ele>
        <time>2011-11-26T16:13:51Z</time>
      </trkpt>
      <trkpt lat="43.29625" lon="1.16835">
        <ele>506.892</ele>
        <time>2011-11-26T16:13:53Z</time>
      </trkpt>
      <trkpt lat="43.29614" lon="1.1682">
        <ele>507.418</ele>
        <time>2011-11-26T16:13:54Z</time>
      </trkpt>
      <trkpt lat="43.29604" lon="1.16805">
        <ele>508.129</ele>
        <time>2011-11-26T16:13:55Z</time>
      </trkpt>
      <trkpt lat="43.29593" lon="1.1679">
        <ele>508.851</ele>
        <time>2011-11-26T16:13:56Z</time>
      </trkpt>
      <trkpt lat="43.29583" lon="1.16775">
        <ele>509.568</ele>
        <time>2011-11-26T16:13:57Z</time>
      </trkpt>
      <trkpt lat="43.29573" lon="1.1676">
        <ele>510.087</ele>
        <time>2011-11-26T16:13:58Z</time>
      </trkpt>
      <trkpt lat="43.29563" lon="1.16745">
        <ele>510.623</ele>
        <time>2011-11-26T16:13:59Z</time>
      </trkpt>
      <trkpt lat="43.29553" lon="1.1673">
        <ele>511.056</ele>
        <time>2011-11-26T16:14:00Z</time>
      </trkpt>
      <trkpt lat="43.29542" lon="1.16714">
        <ele>511.218</ele>
        <time>2011-11-26T16:14:01Z</time>
      </trkpt>
      <trkpt lat="43.29532" lon="1.16698">
        <ele>511.476</ele>
        <time>2011-11-26T16:14:02Z</time>
      </trkpt>
      <trkpt lat="43.29511" lon="1.16666">
        <ele>511.805</ele>
        <time>2011-11-26T16:14:04Z</time>
      </trkpt>
      <trkpt lat="43.29501" lon="1.1665">
        <ele>511.968</ele>
        <time>2011-11-26T16:14:05Z</time>
      </trkpt>
      <trkpt lat="43.2949" lon="1.16634">
        <ele>512.017</ele>
        <time>2011-11-26T16:14:06Z</time>
      </trkpt>
      <trkpt lat="43.2948" lon="1.16618">
        <ele>512.118</ele>
        <time>2011-11-26T16:14:07Z</time>
      </trkpt>
      <trkpt lat="43.29469" lon="1.16602">
        <ele>512.265</ele>
        <time>2011-11-26T16:14:08Z</time>
      </trkpt>
      <trkpt lat="43.29458" lon="1.16586">
        <ele>512.387</ele>
        <time>2011-11-26T16:14:09Z</time>
      </trkpt>
      <trkpt lat="43.29448" lon="1.1657">
        <ele>512.438</ele>
        <time>2011-11-26T16:14:10Z</time>
      </trkpt>
      <trkpt lat="43.29437" lon="1.16554">
        <ele>512.625</ele>
        <time>2011-11-26T16:14:11Z</time>
      </trkpt>
      <trkpt lat="43.29426" lon="1.16539">
        <ele>513.234</ele>
        <time>2011-11-26T16:14:12Z</time>
      </trkpt>
      <trkpt lat="43.29414" lon="1.16523">
        <ele>513.851</ele>
        <time>2011-11-26T16:14:13Z</time>
      </trkpt>
      <trkpt lat="43.29403" lon="1.16509">
        <ele>514.122</ele>
        <time>2011-11-26T16:14:14Z</time>
      </trkpt>
      <trkpt lat="43.29391" lon="1.16494">
        <ele>514.24</ele>
        <time>2011-11-26T16:14:15Z</time>
      </trkpt>
      <trkpt lat="43.29379" lon="1.16479">
        <ele>514.283</ele>
        <time>2011-11-26T16:14:16Z</time>
      </trkpt>
      <trkpt lat="43.29356" lon="1.16449">
        <ele>514.25</ele>
        <time>2011-11-26T16:14:18Z</time>
      </trkpt>
      <trkpt lat="43.29345" lon="1.16435">
        <ele>514.214</ele>
        <time>2011-11-26T16:14:19Z</time>
      </trkpt>
      <trkpt lat="43.29334" lon="1.1642">
        <ele>514.392</ele>
        <time>2011-11-26T16:14:20Z</time>
      </trkpt>
      <trkpt lat="43.29324" lon="1.16406">
        <ele>514.714</ele>
        <time>2011-11-26T16:14:21Z</time>
      </trkpt>
      <trkpt lat="43.29313" lon="1.16391">
        <ele>514.914</ele>
        <time>2011-11-26T16:14:22Z</time>
      </trkpt>
      <trkpt lat="43.29303" lon="1.16376">
        <ele>514.929</ele>
        <time>2011-11-26T16:14:23Z</time>
      </trkpt>
      <trkpt lat="43.29293" lon="1.1636">
        <ele>514.914</ele>
        <time>2011-11-26T16:14:24Z</time>
      </trkpt>
      <trkpt lat="43.29283" lon="1.16344">
        <ele>514.657</ele>
        <time>2011-11-26T16:14:25Z</time>
      </trkpt>
      <trkpt lat="43.29272" lon="1.16328">
        <ele>514.76</ele>
        <time>2011-11-26T16:14:26Z</time>
      </trkpt>
      <trkpt lat="43.29231" lon="1.16266">
        <ele>517.552</ele>
        <time>2011-11-26T16:14:30Z</time>
      </trkpt>
      <trkpt lat="43.29221" lon="1.16252">
        <ele>518.137</ele>
        <time>2011-11-26T16:14:31Z</time>
      </trkpt>
      <trkpt lat="43.2921" lon="1.16237">
        <ele>518.419</ele>
        <time>2011-11-26T16:14:32Z</time>
      </trkpt>
      <trkpt lat="43.292" lon="1.16222">
        <ele>518.612</ele>
        <time>2011-11-26T16:14:33Z</time>
      </trkpt>
      <trkpt lat="43.29189" lon="1.16207">
        <ele>518.859</ele>
        <time>2011-11-26T16:14:34Z</time>
      </trkpt>
      <trkpt lat="43.29179" lon="1.16191">
        <ele>519.28</ele>
        <time>2011-11-26T16:14:35Z</time>
      </trkpt>
      <trkpt lat="43.29169" lon="1.16175">
        <ele>519.861</ele>
        <time>2011-11-26T16:14:36Z</time>
      </trkpt>
      <trkpt lat="43.29159" lon="1.1616">
        <ele>520.589</ele>
        <time>2011-11-26T16:14:37Z</time>
      </trkpt>
      <trkpt lat="43.29149" lon="1.16145">
        <ele>521.053</ele>
        <time>2011-11-26T16:14:38Z</time>
      </trkpt>
      <trkpt lat="43.29139" lon="1.16129">
        <ele>521.388</ele>
        <time>2011-11-26T16:14:39Z</time>
      </trkpt>
      <trkpt lat="43.29129" lon="1.16113">
        <ele>521.587</ele>
        <time>2011-11-26T16:14:40Z</time>
      </trkpt>
      <trkpt lat="43.29119" lon="1.16097">
        <ele>521.787</ele>
        <time>2011-11-26T16:14:41Z</time>
      </trkpt>
      <trkpt lat="43.29119" lon="1.16097">
        <ele>521.931</ele>
        <time>2011-11-26T16:14:41Z</time>
      </trkpt>
      <trkpt lat="43.29088" lon="1.1605">
        <ele>522.168</ele>
        <time>2011-11-26T16:14:44Z</time>
      </trkpt>
      <trkpt lat="43.29078" lon="1.16034">
        <ele>522.611</ele>
        <time>2011-11-26T16:14:45Z</time>
      </trkpt>
      <trkpt lat="43.29068" lon="1.16018">
        <ele>522.239</ele>
        <time>2011-11-26T16:14:46Z</time>
      </trkpt>
      <trkpt lat="43.29058" lon="1.16003">
        <ele>522.225</ele>
        <time>2011-11-26T16:14:47Z</time>
      </trkpt>
      <trkpt lat="43.29048" lon="1.15987">
        <ele>522.076</ele>
        <time>2011-11-26T16:14:48Z</time>
      </trkpt>
      <trkpt lat="43.29038" lon="1.1597">
        <ele>522.121</ele>
        <time>2011-11-26T16:14:49Z</time>
      </trkpt>
      <trkpt lat="43.29029" lon="1.15955">
        <ele>522.452</ele>
        <time>2011-11-26T16:14:50Z</time>
      </trkpt>
      <trkpt lat="43.29019" lon="1.15939">
        <ele>523.278</ele>
        <time>2011-11-26T16:14:51Z</time>
      </trkpt>
      <trkpt lat="43.2901" lon="1.15923">
        <ele>524.107</ele>
        <time>2011-11-26T16:14:52Z</time>
      </trkpt>
      <trkpt lat="43.29" lon="1.15907">
        <ele>524.751</ele>
        <time>2011-11-26T16:14:53Z</time>
      </trkpt>
      <trkpt lat="43.28981" lon="1.15878">
        <ele>525.196</ele>
        <time>2011-11-26T16:14:55Z</time>
      </trkpt>
      <trkpt lat="43.28969" lon="1.15865">
        <ele>525.324</ele>
        <time>2011-11-26T16:14:56Z</time>
      </trkpt>
      <trkpt lat="43.28958" lon="1.15851">
        <ele>525.394</ele>
        <time>2011-11-26T16:14:57Z</time>
      </trkpt>
      <trkpt lat="43.28947" lon="1.15837">
        <ele>525.31</ele>
        <time>2011-11-26T16:14:58Z</time>
      </trkpt>
      <trkpt lat="43.28935" lon="1.15823">
        <ele>525.372</ele>
        <time>2011-11-26T16:14:59Z</time>
      </trkpt>
      <trkpt lat="43.28924" lon="1.15809">
        <ele>525.829</ele>
        <time>2011-11-26T16:15:00Z</time>
      </trkpt>
      <trkpt lat="43.28912" lon="1.15795">
        <ele>526.513</ele>
        <time>2011-11-26T16:15:01Z</time>
      </trkpt>
      <trkpt lat="43.28901" lon="1.15781">
        <ele>527.353</ele>
        <time>2011-11-26T16:15:02Z</time>
      </trkpt>
      <trkpt lat="43.2889" lon="1.15767">
        <ele>528.103</ele>
        <time>2011-11-26T16:15:03Z</time>
      </trkpt>
      <trkpt lat="43.2888" lon="1.15752">
        <ele>529.01</ele>
        <time>2011-11-26T16:15:04Z</time>
      </trkpt>
      <trkpt lat="43.28869" lon="1.15738">
        <ele>529.646</ele>
        <time>2011-11-26T16:15:05Z</time>
      </trkpt>
      <trkpt lat="43.28859" lon="1.15724">
        <ele>530.139</ele>
        <time>2011-11-26T16:15:06Z</time>
      </trkpt>
      <trkpt lat="43.28839" lon="1.15696">
        <ele>530.598</ele>
        <time>2011-11-26T16:15:08Z</time>
      </trkpt>
      <trkpt lat="43.28829" lon="1.15682">
        <ele>530.902</ele>
        <time>2011-11-26T16:15:09Z</time>
      </trkpt>
      <trkpt lat="43.28819" lon="1.1567">
        <ele>530.76</ele>
        <time>2011-11-26T16:15:10Z</time>
      </trkpt>
      <trkpt lat="43.28809" lon="1.15659">
        <ele>529.921</ele>
        <time>2011-11-26T16:15:11Z</time>
      </trkpt>
      <trkpt lat="43.28797" lon="1.15647">
        <ele>528.913</ele>
        <time>2011-11-26T16:15:12Z</time>
      </trkpt>
      <trkpt lat="43.28786" lon="1.15636">
        <ele>527.164</ele>
        <time>2011-11-26T16:15:13Z</time>
      </trkpt>
      <trkpt lat="43.28773" lon="1.15623">
        <ele>525.703</ele>
        <time>2011-11-26T16:15:14Z</time>
      </trkpt>
      <trkpt lat="43.28761" lon="1.15611">
        <ele>524.202</ele>
        <time>2011-11-26T16:15:15Z</time>
      </trkpt>
      <trkpt lat="43.28749" lon="1.15598">
        <ele>522.905</ele>
        <time>2011-11-26T16:15:16Z</time>
      </trkpt>
      <trkpt lat="43.28736" lon="1.15586">
        <ele>521.62</ele>
        <time>2011-11-26T16:15:17Z</time>
      </trkpt>
      <trkpt lat="43.28724" lon="1.15574">
        <ele>520.721</ele>
        <time>2011-11-26T16:15:18Z</time>
      </trkpt>
      <trkpt lat="43.28712" lon="1.15562">
        <ele>519.987</ele>
        <time>2011-11-26T16:15:19Z</time>
      </trkpt>
      <trkpt lat="43.287" lon="1.1555">
        <ele>518.984</ele>
        <time>2011-11-26T16:15:20Z</time>
      </trkpt>
      <trkpt lat="43.28688" lon="1.15537">
        <ele>517.86</ele>
        <time>2011-11-26T16:15:21Z</time>
      </trkpt>
      <trkpt lat="43.28676" lon="1.15525">
        <ele>516.663</ele>
        <time>2011-11-26T16:15:22Z</time>
      </trkpt>
      <trkpt lat="43.28652" lon="1.15501">
        <ele>515.406</ele>
        <time>2011-11-26T16:15:24Z</time>
      </trkpt>
      <trkpt lat="43.28639" lon="1.15488">
        <ele>514.188</ele>
        <time>2011-11-26T16:15:25Z</time>
      </trkpt>
      <trkpt lat="43.28628" lon="1.15476">
        <ele>513.223</ele>
        <time>2011-11-26T16:15:26Z</time>
      </trkpt>
      <trkpt lat="43.28617" lon="1.15463">
        <ele>512.34</ele>
        <time>2011-11-26T16:15:27Z</time>
      </trkpt>
      <trkpt lat="43.28606" lon="1.1545">
        <ele>511.574</ele>
        <time>2011-11-26T16:15:28Z</time>
      </trkpt>
      <trkpt lat="43.28595" lon="1.15435">
        <ele>510.766</ele>
        <time>2011-11-26T16:15:29Z</time>
      </trkpt>
      <trkpt lat="43.28584" lon="1.1542">
        <ele>509.498</ele>
        <time>2011-11-26T16:15:30Z</time>
      </trkpt>
      <trkpt lat="43.28573" lon="1.15405">
        <ele>508.343</ele>
        <time>2011-11-26T16:15:31Z</time>
      </trkpt>
      <trkpt lat="43.28562" lon="1.1539">
        <ele>507.317</ele>
        <time>2011-11-26T16:15:32Z</time>
      </trkpt>
      <trkpt lat="43.28551" lon="1.15374">
        <ele>505.822</ele>
        <time>2011-11-26T16:15:33Z</time>
      </trkpt>
      <trkpt lat="43.28541" lon="1.15359">
        <ele>504.429</ele>
        <time>2011-11-26T16:15:34Z</time>
      </trkpt>
      <trkpt lat="43.2853" lon="1.15343">
        <ele>503.394</ele>
        <time>2011-11-26T16:15:35Z</time>
      </trkpt>
      <trkpt lat="43.2853" lon="1.15343">
        <ele>502.58</ele>
        <time>2011-11-26T16:15:35Z</time>
      </trkpt>
      <trkpt lat="43.28509" lon="1.15312">
        <ele>501.565</ele>
        <time>2011-11-26T16:15:37Z</time>
      </trkpt>
      <trkpt lat="43.28498" lon="1.15297">
        <ele>499.954</ele>
        <time>2011-11-26T16:15:38Z</time>
      </trkpt>
      <trkpt lat="43.28487" lon="1.15282">
        <ele>499.211</ele>
        <time>2011-11-26T16:15:39Z</time>
      </trkpt>
      <trkpt lat="43.28466" lon="1.15252">
        <ele>498.366</ele>
        <time>2011-11-26T16:15:41Z</time>
      </trkpt>
      <trkpt lat="43.28466" lon="1.15252">
        <ele>497.685</ele>
        <time>2011-11-26T16:15:41Z</time>
      </trkpt>
      <trkpt lat="43.28443" lon="1.15222">
        <ele>496.611</ele>
        <time>2011-11-26T16:15:43Z</time>
      </trkpt>
      <trkpt lat="43.28432" lon="1.15208">
        <ele>495.417</ele>
        <time>2011-11-26T16:15:44Z</time>
      </trkpt>
      <trkpt lat="43.28421" lon="1.15193">
        <ele>494.265</ele>
        <time>2011-11-26T16:15:45Z</time>
      </trkpt>
      <trkpt lat="43.2841" lon="1.15178">
        <ele>493.744</ele>
        <time>2011-11-26T16:15:46Z</time>
      </trkpt>
      <trkpt lat="43.28399" lon="1.15164">
        <ele>493.172</ele>
        <time>2011-11-26T16:15:47Z</time>
      </trkpt>
      <trkpt lat="43.28388" lon="1.1515">
        <ele>492.26</ele>
        <time>2011-11-26T16:15:48Z</time>
      </trkpt>
      <trkpt lat="43.28377" lon="1.15135">
        <ele>491.061</ele>
        <time>2011-11-26T16:15:49Z</time>
      </trkpt>
      <trkpt lat="43.28366" lon="1.15121">
        <ele>489.723</ele>
        <time>2011-11-26T16:15:50Z</time>
      </trkpt>
      <trkpt lat="43.28355" lon="1.15107">
        <ele>488.917</ele>
        <time>2011-11-26T16:15:51Z</time>
      </trkpt>
      <trkpt lat="43.28344" lon="1.15093">
        <ele>488.046</ele>
        <time>2011-11-26T16:15:52Z</time>
      </trkpt>
      <trkpt lat="43.28334" lon="1.15078">
        <ele>487.217</ele>
        <time>2011-11-26T16:15:53Z</time>
      </trkpt>
      <trkpt lat="43.28312" lon="1.15051">
        <ele>486.123</ele>
        <time>2011-11-26T16:15:55Z</time>
      </trkpt>
      <trkpt lat="43.28278" lon="1.15017">
        <ele>483.925</ele>
        <time>2011-11-26T16:15:58Z</time>
      </trkpt>
      <trkpt lat="43.28266" lon="1.1501">
        <ele>482.724</ele>
        <time>2011-11-26T16:15:59Z</time>
      </trkpt>
      <trkpt lat="43.28254" lon="1.15001">
        <ele>481.232</ele>
        <time>2011-11-26T16:16:00Z</time>
      </trkpt>
      <trkpt lat="43.28241" lon="1.14993">
        <ele>479.921</ele>
        <time>2011-11-26T16:16:01Z</time>
      </trkpt>
      <trkpt lat="43.28229" lon="1.14986">
        <ele>478.781</ele>
        <time>2011-11-26T16:16:02Z</time>
      </trkpt>
      <trkpt lat="43.28216" lon="1.1498">
        <ele>477.661</ele>
        <time>2011-11-26T16:16:03Z</time>
      </trkpt>
      <trkpt lat="43.28203" lon="1.14973">
        <ele>476.509</ele>
        <time>2011-11-26T16:16:04Z</time>
      </trkpt>
      <trkpt lat="43.28191" lon="1.14965">
        <ele>475.045</ele>
        <time>2011-11-26T16:16:05Z</time>
      </trkpt>
      <trkpt lat="43.28179" lon="1.14955">
        <ele>473.574</ele>
        <time>2011-11-26T16:16:06Z</time>
      </trkpt>
      <trkpt lat="43.28168" lon="1.14945">
        <ele>472.216</ele>
        <time>2011-11-26T16:16:07Z</time>
      </trkpt>
      <trkpt lat="43.28156" lon="1.14935">
        <ele>470.922</ele>
        <time>2011-11-26T16:16:08Z</time>
      </trkpt>
      <trkpt lat="43.2812" lon="1.14909">
        <ele>468.297</ele>
        <time>2011-11-26T16:16:11Z</time>
      </trkpt>
      <trkpt lat="43.2812" lon="1.14909">
        <ele>467.569</ele>
        <time>2011-11-26T16:16:11Z</time>
      </trkpt>
      <trkpt lat="43.28096" lon="1.14895">
        <ele>466.149</ele>
        <time>2011-11-26T16:16:13Z</time>
      </trkpt>
      <trkpt lat="43.28084" lon="1.14888">
        <ele>464.681</ele>
        <time>2011-11-26T16:16:14Z</time>
      </trkpt>
      <trkpt lat="43.28071" lon="1.14882">
        <ele>462.61</ele>
        <time>2011-11-26T16:16:15Z</time>
      </trkpt>
      <trkpt lat="43.28059" lon="1.14875">
        <ele>460.936</ele>
        <time>2011-11-26T16:16:16Z</time>
      </trkpt>
      <trkpt lat="43.28046" lon="1.14869">
        <ele>459.751</ele>
        <time>2011-11-26T16:16:17Z</time>
      </trkpt>
      <trkpt lat="43.28034" lon="1.14863">
        <ele>458.219</ele>
        <time>2011-11-26T16:16:18Z</time>
      </trkpt>
      <trkpt lat="43.28022" lon="1.14858">
        <ele>456.461</ele>
        <time>2011-11-26T16:16:19Z</time>
      </trkpt>
      <trkpt lat="43.2801" lon="1.14852">
        <ele>454.592</ele>
        <time>2011-11-26T16:16:20Z</time>
      </trkpt>
      <trkpt lat="43.27998" lon="1.14846">
        <ele>452.47</ele>
        <time>2011-11-26T16:16:21Z</time>
      </trkpt>
      <trkpt lat="43.2796" lon="1.14832">
        <ele>448.824</ele>
        <time>2011-11-26T16:16:24Z</time>
      </trkpt>
      <trkpt lat="43.27949" lon="1.14832">
        <ele>447.645</ele>
        <time>2011-11-26T16:16:25Z</time>
      </trkpt>
      <trkpt lat="43.27937" lon="1.14831">
        <ele>446.225</ele>
        <time>2011-11-26T16:16:26Z</time>
      </trkpt>
      <trkpt lat="43.27925" lon="1.14829">
        <ele>444.931</ele>
        <time>2011-11-26T16:16:27Z</time>
      </trkpt>
      <trkpt lat="43.279" lon="1.14823">
        <ele>442.103</ele>
        <time>2011-11-26T16:16:29Z</time>
      </trkpt>
      <trkpt lat="43.27887" lon="1.1482">
        <ele>440.547</ele>
        <time>2011-11-26T16:16:30Z</time>
      </trkpt>
      <trkpt lat="43.27875" lon="1.14818">
        <ele>438.231</ele>
        <time>2011-11-26T16:16:31Z</time>
      </trkpt>
      <trkpt lat="43.27875" lon="1.14818">
        <ele>436.278</ele>
        <time>2011-11-26T16:16:31Z</time>
      </trkpt>
      <trkpt lat="43.2785" lon="1.1481">
        <ele>434.172</ele>
        <time>2011-11-26T16:16:33Z</time>
      </trkpt>
      <trkpt lat="43.27838" lon="1.14804">
        <ele>431.44</ele>
        <time>2011-11-26T16:16:34Z</time>
      </trkpt>
      <trkpt lat="43.27825" lon="1.14798">
        <ele>429.326</ele>
        <time>2011-11-26T16:16:35Z</time>
      </trkpt>
      <trkpt lat="43.27813" lon="1.14792">
        <ele>427.658</ele>
        <time>2011-11-26T16:16:36Z</time>
      </trkpt>
      <trkpt lat="43.27801" lon="1.14786">
        <ele>426.495</ele>
        <time>2011-11-26T16:16:37Z</time>
      </trkpt>
      <trkpt lat="43.27788" lon="1.14781">
        <ele>424.988</ele>
        <time>2011-11-26T16:16:38Z</time>
      </trkpt>
      <trkpt lat="43.27776" lon="1.14775">
        <ele>423.568</ele>
        <time>2011-11-26T16:16:39Z</time>
      </trkpt>
      <trkpt lat="43.27753" lon="1.14769">
        <ele>421.863</ele>
        <time>2011-11-26T16:16:41Z</time>
      </trkpt>
      <trkpt lat="43.27753" lon="1.14769">
        <ele>420.275</ele>
        <time>2011-11-26T16:16:41Z</time>
      </trkpt>
      <trkpt lat="43.27729" lon="1.14762">
        <ele>418.678</ele>
        <time>2011-11-26T16:16:43Z</time>
      </trkpt>
      <trkpt lat="43.27717" lon="1.14756">
        <ele>416.714</ele>
        <time>2011-11-26T16:16:44Z</time>
      </trkpt>
      <trkpt lat="43.27706" lon="1.14749">
        <ele>415.1</ele>
        <time>2011-11-26T16:16:45Z</time>
      </trkpt>
      <trkpt lat="43.27694" lon="1.14742">
        <ele>413.103</ele>
        <time>2011-11-26T16:16:46Z</time>
      </trkpt>
      <trkpt lat="43.27683" lon="1.14735">
        <ele>411.448</ele>
        <time>2011-11-26T16:16:47Z</time>
      </trkpt>
      <trkpt lat="43.27671" lon="1.14728">
        <ele>409.686</ele>
        <time>2011-11-26T16:16:48Z</time>
      </trkpt>
      <trkpt lat="43.27661" lon="1.1472">
        <ele>407.679</ele>
        <time>2011-11-26T16:16:49Z</time>
      </trkpt>
      <trkpt lat="43.27651" lon="1.14709">
        <ele>406.195</ele>
        <time>2011-11-26T16:16:50Z</time>
      </trkpt>
      <trkpt lat="43.27643" lon="1.14697">
        <ele>404.692</ele>
        <time>2011-11-26T16:16:51Z</time>
      </trkpt>
      <trkpt lat="43.27623" lon="1.14675">
        <ele>402.984</ele>
        <time>2011-11-26T16:16:53Z</time>
      </trkpt>
      <trkpt lat="43.27614" lon="1.14666">
        <ele>401.383</ele>
        <time>2011-11-26T16:16:54Z</time>
      </trkpt>
      <trkpt lat="43.27605" lon="1.14655">
        <ele>399.633</ele>
        <time>2011-11-26T16:16:55Z</time>
      </trkpt>
      <trkpt lat="43.27596" lon="1.14643">
        <ele>397.999</ele>
        <time>2011-11-26T16:16:56Z</time>
      </trkpt>
      <trkpt lat="43.27596" lon="1.14643">
        <ele>396.024</ele>
        <time>2011-11-26T16:16:56Z</time>
      </trkpt>
      <trkpt lat="43.27579" lon="1.14616">
        <ele>393.988</ele>
        <time>2011-11-26T16:16:58Z</time>
      </trkpt>
      <trkpt lat="43.27571" lon="1.14602">
        <ele>392.283</ele>
        <time>2011-11-26T16:16:59Z</time>
      </trkpt>
      <trkpt lat="43.27547" lon="1.14562">
        <ele>388.353</ele>
        <time>2011-11-26T16:17:02Z</time>
      </trkpt>
      <trkpt lat="43.27539" lon="1.14549">
        <ele>386.414</ele>
        <time>2011-11-26T16:17:03Z</time>
      </trkpt>
      <trkpt lat="43.27531" lon="1.14535">
        <ele>384.432</ele>
        <time>2011-11-26T16:17:04Z</time>
      </trkpt>
      <trkpt lat="43.27523" lon="1.14522">
        <ele>382.329</ele>
        <time>2011-11-26T16:17:05Z</time>
      </trkpt>
      <trkpt lat="43.27515" lon="1.14508">
        <ele>380.149</ele>
        <time>2011-11-26T16:17:06Z</time>
      </trkpt>
      <trkpt lat="43.27507" lon="1.14495">
        <ele>378.226</ele>
        <time>2011-11-26T16:17:07Z</time>
      </trkpt>
      <trkpt lat="43.27499" lon="1.14482">
        <ele>376.63</ele>
        <time>2011-11-26T16:17:08Z</time>
      </trkpt>
      <trkpt lat="43.27491" lon="1.14469">
        <ele>374.487</ele>
        <time>2011-11-26T16:17:09Z</time>
      </trkpt>
      <trkpt lat="43.27483" lon="1.14457">
        <ele>372.579</ele>
        <time>2011-11-26T16:17:10Z</time>
      </trkpt>
      <trkpt lat="43.27483" lon="1.14457">
        <ele>370.898</ele>
        <time>2011-11-26T16:17:10Z</time>
      </trkpt>
      <trkpt lat="43.27451" lon="1.14407">
        <ele>366.527</ele>
        <time>2011-11-26T16:17:14Z</time>
      </trkpt>
      <trkpt lat="43.27442" lon="1.14396">
        <ele>363.799</ele>
        <time>2011-11-26T16:17:15Z</time>
      </trkpt>
      <trkpt lat="43.27433" lon="1.14385">
        <ele>361.445</ele>
        <time>2011-11-26T16:17:16Z</time>
      </trkpt>
      <trkpt lat="43.27433" lon="1.14385">
        <ele>359.291</ele>
        <time>2011-11-26T16:17:16Z</time>
      </trkpt>
      <trkpt lat="43.27414" lon="1.14363">
        <ele>357.089</ele>
        <time>2011-11-26T16:17:18Z</time>
      </trkpt>
      <trkpt lat="43.27406" lon="1.14351">
        <ele>355.221</ele>
        <time>2011-11-26T16:17:19Z</time>
      </trkpt>
      <trkpt lat="43.27398" lon="1.14338">
        <ele>353.707</ele>
        <time>2011-11-26T16:17:20Z</time>
      </trkpt>
      <trkpt lat="43.2739" lon="1.14326">
        <ele>351.855</ele>
        <time>2011-11-26T16:17:21Z</time>
      </trkpt>
      <trkpt lat="43.27382" lon="1.14314">
        <ele>349.81</ele>
        <time>2011-11-26T16:17:22Z</time>
      </trkpt>
      <trkpt lat="43.27374" lon="1.14302">
        <ele>347.73</ele>
        <time>2011-11-26T16:17:23Z</time>
      </trkpt>
      <trkpt lat="43.27366" lon="1.14289">
        <ele>345.777</ele>
        <time>2011-11-26T16:17:24Z</time>
      </trkpt>
      <trkpt lat="43.27358" lon="1.14277">
        <ele>343.667</ele>
        <time>2011-11-26T16:17:25Z</time>
      </trkpt>
      <trkpt lat="43.2735" lon="1.14264">
        <ele>341.917</ele>
        <time>2011-11-26T16:17:26Z</time>
      </trkpt>
      <trkpt lat="43.27342" lon="1.14252">
        <ele>340.046</ele>
        <time>2011-11-26T16:17:27Z</time>
      </trkpt>
      <trkpt lat="43.27333" lon="1.14241">
        <ele>338.492</ele>
        <time>2011-11-26T16:17:28Z</time>
      </trkpt>
      <trkpt lat="43.27316" lon="1.14218">
        <ele>336.208</ele>
        <time>2011-11-26T16:17:30Z</time>
      </trkpt>
      <trkpt lat="43.27316" lon="1.14218">
        <ele>334.14</ele>
        <time>2011-11-26T16:17:30Z</time>
      </trkpt>
      <trkpt lat="43.27301" lon="1.14194">
        <ele>332.029</ele>
        <time>2011-11-26T16:17:32Z</time>
      </trkpt>
      <trkpt lat="43.27293" lon="1.14181">
        <ele>330.157</ele>
        <time>2011-11-26T16:17:33Z</time>
      </trkpt>
      <trkpt lat="43.27287" lon="1.14168">
        <ele>328.023</ele>
        <time>2011-11-26T16:17:34Z</time>
      </trkpt>
      <trkpt lat="43.2728" lon="1.14155">
        <ele>326.129</ele>
        <time>2011-11-26T16:17:35Z</time>
      </trkpt>
      <trkpt lat="43.27274" lon="1.14142">
        <ele>324.44</ele>
        <time>2011-11-26T16:17:36Z</time>
      </trkpt>
      <trkpt lat="43.27267" lon="1.14129">
        <ele>322.367</ele>
        <time>2011-11-26T16:17:37Z</time>
      </trkpt>
      <trkpt lat="43.2726" lon="1.14116">
        <ele>320.602</ele>
        <time>2011-11-26T16:17:38Z</time>
      </trkpt>
      <trkpt lat="43.27253" lon="1.14103">
        <ele>318.784</ele>
        <time>2011-11-26T16:17:39Z</time>
      </trkpt>
      <trkpt lat="43.27247" lon="1.1409">
        <ele>316.938</ele>
        <time>2011-11-26T16:17:40Z</time>
      </trkpt>
      <trkpt lat="43.27228" lon="1.14051">
        <ele>313.121</ele>
        <time>2011-11-26T16:17:43Z</time>
      </trkpt>
      <trkpt lat="43.27222" lon="1.14039">
        <ele>312.244</ele>
        <time>2011-11-26T16:17:44Z</time>
      </trkpt>
      <trkpt lat="43.27216" lon="1.14027">
        <ele>310.523</ele>
        <time>2011-11-26T16:17:45Z</time>
      </trkpt>
      <trkpt lat="43.2721" lon="1.14015">
        <ele>309.029</ele>
        <time>2011-11-26T16:17:46Z</time>
      </trkpt>
      <trkpt lat="43.27204" lon="1.14">
        <ele>306.807</ele>
        <time>2011-11-26T16:17:47Z</time>
      </trkpt>
      <trkpt lat="43.27199" lon="1.13986">
        <ele>304.993</ele>
        <time>2011-11-26T16:17:48Z</time>
      </trkpt>
      <trkpt lat="43.27193" lon="1.13972">
        <ele>303.536</ele>
        <time>2011-11-26T16:17:49Z</time>
      </trkpt>
      <trkpt lat="43.27189" lon="1.13957">
        <ele>302.168</ele>
        <time>2011-11-26T16:17:50Z</time>
      </trkpt>
      <trkpt lat="43.27184" lon="1.13942">
        <ele>300.544</ele>
        <time>2011-11-26T16:17:51Z</time>
      </trkpt>
      <trkpt lat="43.2718" lon="1.13927">
        <ele>298.739</ele>
        <time>2011-11-26T16:17:52Z</time>
      </trkpt>
      <trkpt lat="43.27179" lon="1.13912">
        <ele>296.822</ele>
        <time>2011-11-26T16:17:53Z</time>
      </trkpt>
      <trkpt lat="43.27179" lon="1.13897">
        <ele>294.877</ele>
        <time>2011-11-26T16:17:54Z</time>
      </trkpt>
      <trkpt lat="43.27181" lon="1.13881">
        <ele>293.209</ele>
        <time>2011-11-26T16:17:55Z</time>
      </trkpt>
      <trkpt lat="43.27182" lon="1.13866">
        <ele>291.363</ele>
        <time>2011-11-26T16:17:56Z</time>
      </trkpt>
      <trkpt lat="43.27183" lon="1.1385">
        <ele>289.489</ele>
        <time>2011-11-26T16:17:57Z</time>
      </trkpt>
      <trkpt lat="43.27183" lon="1.13834">
        <ele>287.851</ele>
        <time>2011-11-26T16:17:58Z</time>
      </trkpt>
      <trkpt lat="43.27185" lon="1.13802">
        <ele>285.991</ele>
        <time>2011-11-26T16:18:00Z</time>
      </trkpt>
      <trkpt lat="43.27186" lon="1.13786">
        <ele>284.594</ele>
        <time>2011-11-26T16:18:01Z</time>
      </trkpt>
      <trkpt lat="43.27186" lon="1.13786">
        <ele>282.819</ele>
        <time>2011-11-26T16:18:01Z</time>
      </trkpt>
      <trkpt lat="43.27186" lon="1.1377">
        <ele>280.775</ele>
        <time>2011-11-26T16:18:02Z</time>
      </trkpt>
      <trkpt lat="43.27185" lon="1.13738">
        <ele>279.08</ele>
        <time>2011-11-26T16:18:04Z</time>
      </trkpt>
      <trkpt lat="43.27185" lon="1.13723">
        <ele>277.516</ele>
        <time>2011-11-26T16:18:05Z</time>
      </trkpt>
      <trkpt lat="43.27185" lon="1.13708">
        <ele>276.188</ele>
        <time>2011-11-26T16:18:06Z</time>
      </trkpt>
      <trkpt lat="43.27183" lon="1.13693">
        <ele>274.405</ele>
        <time>2011-11-26T16:18:07Z</time>
      </trkpt>
      <trkpt lat="43.27182" lon="1.13678">
        <ele>272.232</ele>
        <time>2011-11-26T16:18:08Z</time>
      </trkpt>
      <trkpt lat="43.2718" lon="1.13662">
        <ele>269.622</ele>
        <time>2011-11-26T16:18:09Z</time>
      </trkpt>
      <trkpt lat="43.27179" lon="1.13646">
        <ele>266.945</ele>
        <time>2011-11-26T16:18:10Z</time>
      </trkpt>
      <trkpt lat="43.27178" lon="1.1363">
        <ele>264.752</ele>
        <time>2011-11-26T16:18:11Z</time>
      </trkpt>
      <trkpt lat="43.27178" lon="1.1363">
        <ele>263.23</ele>
        <time>2011-11-26T16:18:11Z</time>
      </trkpt>
      <trkpt lat="43.27177" lon="1.13598">
        <ele>261.173</ele>
        <time>2011-11-26T16:18:13Z</time>
      </trkpt>
      <trkpt lat="43.27177" lon="1.13566">
        <ele>259.311</ele>
        <time>2011-11-26T16:18:15Z</time>
      </trkpt>
      <trkpt lat="43.27178" lon="1.1355">
        <ele>257.448</ele>
        <time>2011-11-26T16:18:16Z</time>
      </trkpt>
      <trkpt lat="43.27178" lon="1.1355">
        <ele>256.227</ele>
        <time>2011-11-26T16:18:16Z</time>
      </trkpt>
      <trkpt lat="43.27181" lon="1.13521">
        <ele>254.431</ele>
        <time>2011-11-26T16:18:18Z</time>
      </trkpt>
      <trkpt lat="43.27183" lon="1.13506">
        <ele>252.386</ele>
        <time>2011-11-26T16:18:19Z</time>
      </trkpt>
      <trkpt lat="43.27184" lon="1.13491">
        <ele>250.291</ele>
        <time>2011-11-26T16:18:20Z</time>
      </trkpt>
      <trkpt lat="43.27186" lon="1.13476">
        <ele>247.028</ele>
        <time>2011-11-26T16:18:21Z</time>
      </trkpt>
      <trkpt lat="43.27187" lon="1.1346">
        <ele>244.284</ele>
        <time>2011-11-26T16:18:22Z</time>
      </trkpt>
      <trkpt lat="43.27188" lon="1.13445">
        <ele>241.944</ele>
        <time>2011-11-26T16:18:23Z</time>
      </trkpt>
      <trkpt lat="43.27189" lon="1.13429">
        <ele>239.833</ele>
        <time>2011-11-26T16:18:24Z</time>
      </trkpt>
      <trkpt lat="43.27189" lon="1.13413">
        <ele>237.749</ele>
        <time>2011-11-26T16:18:25Z</time>
      </trkpt>
      <trkpt lat="43.2719" lon="1.13397">
        <ele>235.724</ele>
        <time>2011-11-26T16:18:26Z</time>
      </trkpt>
      <trkpt lat="43.27191" lon="1.13381">
        <ele>233.639</ele>
        <time>2011-11-26T16:18:27Z</time>
      </trkpt>
      <trkpt lat="43.27192" lon="1.13365">
        <ele>231.768</ele>
        <time>2011-11-26T16:18:28Z</time>
      </trkpt>
      <trkpt lat="43.27193" lon="1.13333">
        <ele>230.202</ele>
        <time>2011-11-26T16:18:30Z</time>
      </trkpt>
      <trkpt lat="43.27193" lon="1.13317">
        <ele>228.863</ele>
        <time>2011-11-26T16:18:31Z</time>
      </trkpt>
      <trkpt lat="43.27193" lon="1.13301">
        <ele>227.504</ele>
        <time>2011-11-26T16:18:32Z</time>
      </trkpt>
      <trkpt lat="43.27193" lon="1.13285">
        <ele>226.177</ele>
        <time>2011-11-26T16:18:33Z</time>
      </trkpt>
      <trkpt lat="43.27193" lon="1.1327">
        <ele>225.018</ele>
        <time>2011-11-26T16:18:34Z</time>
      </trkpt>
      <trkpt lat="43.27193" lon="1.13254">
        <ele>223.864</ele>
        <time>2011-11-26T16:18:35Z</time>
      </trkpt>
      <trkpt lat="43.27194" lon="1.13239">
        <ele>222.301</ele>
        <time>2011-11-26T16:18:36Z</time>
      </trkpt>
      <trkpt lat="43.27193" lon="1.13224">
        <ele>220.753</ele>
        <time>2011-11-26T16:18:37Z</time>
      </trkpt>
      <trkpt lat="43.27192" lon="1.13208">
        <ele>218.413</ele>
        <time>2011-11-26T16:18:38Z</time>
      </trkpt>
      <trkpt lat="43.27192" lon="1.13192">
        <ele>216.448</ele>
        <time>2011-11-26T16:18:39Z</time>
      </trkpt>
      <trkpt lat="43.27191" lon="1.13177">
        <ele>214.193</ele>
        <time>2011-11-26T16:18:40Z</time>
      </trkpt>
      <trkpt lat="43.27191" lon="1.13177">
        <ele>212.811</ele>
        <time>2011-11-26T16:18:40Z</time>
      </trkpt>
      <trkpt lat="43.2719" lon="1.13145">
        <ele>211.089</ele>
        <time>2011-11-26T16:18:42Z</time>
      </trkpt>
      <trkpt lat="43.2719" lon="1.13129">
        <ele>209.203</ele>
        <time>2011-11-26T16:18:43Z</time>
      </trkpt>
      <trkpt lat="43.27194" lon="1.13099">
        <ele>206.599</ele>
        <time>2011-11-26T16:18:45Z</time>
      </trkpt>
      <trkpt lat="43.27198" lon="1.13085">
        <ele>204.422</ele>
        <time>2011-11-26T16:18:46Z</time>
      </trkpt>
      <trkpt lat="43.27198" lon="1.13085">
        <ele>201.274</ele>
        <time>2011-11-26T16:18:46Z</time>
      </trkpt>
      <trkpt lat="43.27208" lon="1.13057">
        <ele>198.385</ele>
        <time>2011-11-26T16:18:48Z</time>
      </trkpt>
      <trkpt lat="43.27213" lon="1.13044">
        <ele>195.791</ele>
        <time>2011-11-26T16:18:49Z</time>
      </trkpt>
      <trkpt lat="43.2722" lon="1.13032">
        <ele>193.567</ele>
        <time>2011-11-26T16:18:50Z</time>
      </trkpt>
      <trkpt lat="43.27228" lon="1.13022">
        <ele>191.504</ele>
        <time>2011-11-26T16:18:51Z</time>
      </trkpt>
      <trkpt lat="43.27236" lon="1.13014">
        <ele>189.523</ele>
        <time>2011-11-26T16:18:52Z</time>
      </trkpt>
      <trkpt lat="43.27244" lon="1.13005">
        <ele>187.457</ele>
        <time>2011-11-26T16:18:53Z</time>
      </trkpt>
      <trkpt lat="43.27252" lon="1.12995">
        <ele>185.102</ele>
        <time>2011-11-26T16:18:54Z</time>
      </trkpt>
      <trkpt lat="43.2726" lon="1.12985">
        <ele>182.38</ele>
        <time>2011-11-26T16:18:55Z</time>
      </trkpt>
      <trkpt lat="43.27268" lon="1.12976">
        <ele>179.441</ele>
        <time>2011-11-26T16:18:56Z</time>
      </trkpt>
      <trkpt lat="43.27287" lon="1.12959">
        <ele>177.044</ele>
        <time>2011-11-26T16:18:58Z</time>
      </trkpt>
      <trkpt lat="43.27296" lon="1.12952">
        <ele>174.828</ele>
        <time>2011-11-26T16:18:59Z</time>
      </trkpt>
      <trkpt lat="43.27305" lon="1.12944">
        <ele>172.895</ele>
        <time>2011-11-26T16:19:00Z</time>
      </trkpt>
      <trkpt lat="43.27315" lon="1.12937">
        <ele>170.727</ele>
        <time>2011-11-26T16:19:01Z</time>
      </trkpt>
      <trkpt lat="43.27324" lon="1.1293">
        <ele>168.011</ele>
        <time>2011-11-26T16:19:02Z</time>
      </trkpt>
      <trkpt lat="43.27333" lon="1.12923">
        <ele>166.04</ele>
        <time>2011-11-26T16:19:03Z</time>
      </trkpt>
      <trkpt lat="43.27343" lon="1.12918">
        <ele>163.776</ele>
        <time>2011-11-26T16:19:04Z</time>
      </trkpt>
      <trkpt lat="43.27353" lon="1.12913">
        <ele>161.893</ele>
        <time>2011-11-26T16:19:05Z</time>
      </trkpt>
      <trkpt lat="43.27362" lon="1.12909">
        <ele>160.054</ele>
        <time>2011-11-26T16:19:06Z</time>
      </trkpt>
      <trkpt lat="43.27372" lon="1.12907">
        <ele>158.501</ele>
        <time>2011-11-26T16:19:07Z</time>
      </trkpt>
      <trkpt lat="43.27381" lon="1.12906">
        <ele>156.273</ele>
        <time>2011-11-26T16:19:08Z</time>
      </trkpt>
      <trkpt lat="43.27381" lon="1.12906">
        <ele>154.821</ele>
        <time>2011-11-26T16:19:08Z</time>
      </trkpt>
      <trkpt lat="43.27409" lon="1.12915">
        <ele>152.449</ele>
        <time>2011-11-26T16:19:11Z</time>
      </trkpt>
      <trkpt lat="43.27409" lon="1.12915">
        <ele>150.191</ele>
        <time>2011-11-26T16:19:11Z</time>
      </trkpt>
      <trkpt lat="43.27427" lon="1.12926">
        <ele>148.183</ele>
        <time>2011-11-26T16:19:13Z</time>
      </trkpt>
      <trkpt lat="43.27436" lon="1.12932">
        <ele>146.744</ele>
        <time>2011-11-26T16:19:14Z</time>
      </trkpt>
      <trkpt lat="43.27444" lon="1.12938">
        <ele>145.835</ele>
        <time>2011-11-26T16:19:15Z</time>
      </trkpt>
      <trkpt lat="43.27452" lon="1.12944">
        <ele>145.384</ele>
        <time>2011-11-26T16:19:16Z</time>
      </trkpt>
      <trkpt lat="43.27461" lon="1.1295">
        <ele>145.209</ele>
        <time>2011-11-26T16:19:17Z</time>
      </trkpt>
      <trkpt lat="43.27469" lon="1.12955">
        <ele>144.525</ele>
        <time>2011-11-26T16:19:18Z</time>
      </trkpt>
      <trkpt lat="43.27477" lon="1.1296">
        <ele>143.368</ele>
        <time>2011-11-26T16:19:19Z</time>
      </trkpt>
      <trkpt lat="43.27485" lon="1.12966">
        <ele>141.959</ele>
        <time>2011-11-26T16:19:20Z</time>
      </trkpt>
      <trkpt lat="43.27493" lon="1.12972">
        <ele>139.701</ele>
        <time>2011-11-26T16:19:21Z</time>
      </trkpt>
      <trkpt lat="43.27501" lon="1.12978">
        <ele>137.708</ele>
        <time>2011-11-26T16:19:22Z</time>
      </trkpt>
      <trkpt lat="43.2751" lon="1.12984">
        <ele>135.685</ele>
        <time>2011-11-26T16:19:23Z</time>
      </trkpt>
      <trkpt lat="43.27526" lon="1.12996">
        <ele>133.257</ele>
        <time>2011-11-26T16:19:25Z</time>
      </trkpt>
      <trkpt lat="43.27534" lon="1.13003">
        <ele>131.245</ele>
        <time>2011-11-26T16:19:26Z</time>
      </trkpt>
      <trkpt lat="43.27534" lon="1.13003">
        <ele>129.126</ele>
        <time>2011-11-26T16:19:26Z</time>
      </trkpt>
      <trkpt lat="43.2755" lon="1.13016">
        <ele>126.547</ele>
        <time>2011-11-26T16:19:28Z</time>
      </trkpt>
      <trkpt lat="43.27558" lon="1.13022">
        <ele>124.669</ele>
        <time>2011-11-26T16:19:29Z</time>
      </trkpt>
      <trkpt lat="43.27567" lon="1.13029">
        <ele>123.284</ele>
        <time>2011-11-26T16:19:30Z</time>
      </trkpt>
      <trkpt lat="43.27575" lon="1.13035">
        <ele>122.789</ele>
        <time>2011-11-26T16:19:31Z</time>
      </trkpt>
      <trkpt lat="43.27583" lon="1.13042">
        <ele>122.819</ele>
        <time>2011-11-26T16:19:32Z</time>
      </trkpt>
      <trkpt lat="43.2759" lon="1.13048">
        <ele>123.301</ele>
        <time>2011-11-26T16:19:33Z</time>
      </trkpt>
      <trkpt lat="43.27598" lon="1.13054">
        <ele>123.512</ele>
        <time>2011-11-26T16:19:34Z</time>
      </trkpt>
      <trkpt lat="43.27605" lon="1.13059">
        <ele>122.896</ele>
        <time>2011-11-26T16:19:35Z</time>
      </trkpt>
      <trkpt lat="43.27614" lon="1.13064">
        <ele>122.283</ele>
        <time>2011-11-26T16:19:36Z</time>
      </trkpt>
      <trkpt lat="43.27622" lon="1.13069">
        <ele>121.884</ele>
        <time>2011-11-26T16:19:37Z</time>
      </trkpt>
      <trkpt lat="43.27636" lon="1.13082">
        <ele>121.698</ele>
        <time>2011-11-26T16:19:39Z</time>
      </trkpt>
      <trkpt lat="43.27643" lon="1.1309">
        <ele>121.213</ele>
        <time>2011-11-26T16:19:40Z</time>
      </trkpt>
      <trkpt lat="43.27649" lon="1.13097">
        <ele>120.506</ele>
        <time>2011-11-26T16:19:41Z</time>
      </trkpt>
      <trkpt lat="43.27649" lon="1.13097">
        <ele>119.87</ele>
        <time>2011-11-26T16:19:41Z</time>
      </trkpt>
      <trkpt lat="43.27664" lon="1.13114">
        <ele>119.979</ele>
        <time>2011-11-26T16:19:43Z</time>
      </trkpt>
      <trkpt lat="43.27671" lon="1.13122">
        <ele>121.229</ele>
        <time>2011-11-26T16:19:44Z</time>
      </trkpt>
      <trkpt lat="43.27677" lon="1.1313">
        <ele>122.67</ele>
        <time>2011-11-26T16:19:45Z</time>
      </trkpt>
      <trkpt lat="43.27684" lon="1.13137">
        <ele>123.984</ele>
        <time>2011-11-26T16:19:46Z</time>
      </trkpt>
      <trkpt lat="43.27691" lon="1.13143">
        <ele>124.919</ele>
        <time>2011-11-26T16:19:47Z</time>
      </trkpt>
      <trkpt lat="43.27698" lon="1.1315">
        <ele>125.141</ele>
        <time>2011-11-26T16:19:48Z</time>
      </trkpt>
      <trkpt lat="43.27705" lon="1.13157">
        <ele>125.739</ele>
        <time>2011-11-26T16:19:49Z</time>
      </trkpt>
      <trkpt lat="43.27712" lon="1.13165">
        <ele>126.474</ele>
        <time>2011-11-26T16:19:50Z</time>
      </trkpt>
      <trkpt lat="43.2772" lon="1.13172">
        <ele>127.3</ele>
        <time>2011-11-26T16:19:51Z</time>
      </trkpt>
      <trkpt lat="43.27728" lon="1.13178">
        <ele>128.58</ele>
        <time>2011-11-26T16:19:52Z</time>
      </trkpt>
      <trkpt lat="43.27744" lon="1.13188">
        <ele>129.646</ele>
        <time>2011-11-26T16:19:54Z</time>
      </trkpt>
      <trkpt lat="43.27753" lon="1.13192">
        <ele>130.27</ele>
        <time>2011-11-26T16:19:55Z</time>
      </trkpt>
      <trkpt lat="43.27761" lon="1.13195">
        <ele>130.493</ele>
        <time>2011-11-26T16:19:56Z</time>
      </trkpt>
      <trkpt lat="43.27769" lon="1.13198">
        <ele>130.48</ele>
        <time>2011-11-26T16:19:57Z</time>
      </trkpt>
      <trkpt lat="43.27778" lon="1.13201">
        <ele>129.884</ele>
        <time>2011-11-26T16:19:58Z</time>
      </trkpt>
      <trkpt lat="43.27787" lon="1.13206">
        <ele>129.281</ele>
        <time>2011-11-26T16:19:59Z</time>
      </trkpt>
      <trkpt lat="43.27795" lon="1.13213">
        <ele>128.722</ele>
        <time>2011-11-26T16:20:00Z</time>
      </trkpt>
      <trkpt lat="43.27802" lon="1.13222">
        <ele>128.742</ele>
        <time>2011-11-26T16:20:01Z</time>
      </trkpt>
      <trkpt lat="43.27807" lon="1.13233">
        <ele>129.385</ele>
        <time>2011-11-26T16:20:02Z</time>
      </trkpt>
      <trkpt lat="43.27812" lon="1.13244">
        <ele>130.324</ele>
        <time>2011-11-26T16:20:03Z</time>
      </trkpt>
      <trkpt lat="43.27815" lon="1.13255">
        <ele>131.575</ele>
        <time>2011-11-26T16:20:04Z</time>
      </trkpt>
      <trkpt lat="43.27818" lon="1.13267">
        <ele>132.285</ele>
        <time>2011-11-26T16:20:05Z</time>
      </trkpt>
      <trkpt lat="43.27818" lon="1.13279">
        <ele>132.643</ele>
        <time>2011-11-26T16:20:06Z</time>
      </trkpt>
      <trkpt lat="43.27817" lon="1.13292">
        <ele>132.73</ele>
        <time>2011-11-26T16:20:07Z</time>
      </trkpt>
      <trkpt lat="43.27814" lon="1.13305">
        <ele>133.082</ele>
        <time>2011-11-26T16:20:08Z</time>
      </trkpt>
      <trkpt lat="43.27809" lon="1.13318">
        <ele>133.704</ele>
        <time>2011-11-26T16:20:09Z</time>
      </trkpt>
      <trkpt lat="43.27797" lon="1.13339">
        <ele>134.565</ele>
        <time>2011-11-26T16:20:11Z</time>
      </trkpt>
      <trkpt lat="43.27797" lon="1.13339">
        <ele>134.766</ele>
        <time>2011-11-26T16:20:11Z</time>
      </trkpt>
      <trkpt lat="43.2778" lon="1.13352">
        <ele>133.956</ele>
        <time>2011-11-26T16:20:13Z</time>
      </trkpt>
      <trkpt lat="43.27769" lon="1.13356">
        <ele>132.486</ele>
        <time>2011-11-26T16:20:14Z</time>
      </trkpt>
      <trkpt lat="43.27758" lon="1.1336">
        <ele>130.656</ele>
        <time>2011-11-26T16:20:15Z</time>
      </trkpt>
      <trkpt lat="43.27746" lon="1.13363">
        <ele>129.27</ele>
        <time>2011-11-26T16:20:16Z</time>
      </trkpt>
      <trkpt lat="43.27734" lon="1.13365">
        <ele>128.215</ele>
        <time>2011-11-26T16:20:17Z</time>
      </trkpt>
      <trkpt lat="43.27723" lon="1.13364">
        <ele>128.03</ele>
        <time>2011-11-26T16:20:18Z</time>
      </trkpt>
      <trkpt lat="43.27712" lon="1.13363">
        <ele>128.099</ele>
        <time>2011-11-26T16:20:19Z</time>
      </trkpt>
      <trkpt lat="43.27701" lon="1.1336">
        <ele>128.002</ele>
        <time>2011-11-26T16:20:20Z</time>
      </trkpt>
      <trkpt lat="43.2769" lon="1.13359">
        <ele>127.463</ele>
        <time>2011-11-26T16:20:21Z</time>
      </trkpt>
      <trkpt lat="43.27679" lon="1.13358">
        <ele>126.741</ele>
        <time>2011-11-26T16:20:22Z</time>
      </trkpt>
      <trkpt lat="43.27668" lon="1.13358">
        <ele>125.993</ele>
        <time>2011-11-26T16:20:23Z</time>
      </trkpt>
      <trkpt lat="43.27656" lon="1.13359">
        <ele>125.467</ele>
        <time>2011-11-26T16:20:24Z</time>
      </trkpt>
      <trkpt lat="43.27645" lon="1.13363">
        <ele>125.54</ele>
        <time>2011-11-26T16:20:25Z</time>
      </trkpt>
      <trkpt lat="43.27635" lon="1.13369">
        <ele>126.488</ele>
        <time>2011-11-26T16:20:26Z</time>
      </trkpt>
      <trkpt lat="43.27616" lon="1.13383">
        <ele>128.931</ele>
        <time>2011-11-26T16:20:28Z</time>
      </trkpt>
      <trkpt lat="43.27608" lon="1.13389">
        <ele>131.425</ele>
        <time>2011-11-26T16:20:29Z</time>
      </trkpt>
      <trkpt lat="43.27601" lon="1.13396">
        <ele>133.102</ele>
        <time>2011-11-26T16:20:30Z</time>
      </trkpt>
      <trkpt lat="43.27596" lon="1.13405">
        <ele>133.761</ele>
        <time>2011-11-26T16:20:31Z</time>
      </trkpt>
      <trkpt lat="43.27591" lon="1.13414">
        <ele>133.378</ele>
        <time>2011-11-26T16:20:32Z</time>
      </trkpt>
      <trkpt lat="43.27588" lon="1.13425">
        <ele>132.776</ele>
        <time>2011-11-26T16:20:33Z</time>
      </trkpt>
      <trkpt lat="43.27584" lon="1.13436">
        <ele>132.31</ele>
        <time>2011-11-26T16:20:34Z</time>
      </trkpt>
      <trkpt lat="43.27583" lon="1.13448">
        <ele>131.817</ele>
        <time>2011-11-26T16:20:35Z</time>
      </trkpt>
      <trkpt lat="43.27583" lon="1.1346">
        <ele>131.096</ele>
        <time>2011-11-26T16:20:36Z</time>
      </trkpt>
      <trkpt lat="43.27584" lon="1.13473">
        <ele>130.16</ele>
        <time>2011-11-26T16:20:37Z</time>
      </trkpt>
      <trkpt lat="43.27586" lon="1.13485">
        <ele>129.167</ele>
        <time>2011-11-26T16:20:38Z</time>
      </trkpt>
      <trkpt lat="43.27586" lon="1.13497">
        <ele>128.511</ele>
        <time>2011-11-26T16:20:39Z</time>
      </trkpt>
      <trkpt lat="43.27586" lon="1.1351">
        <ele>127.989</ele>
        <time>2011-11-26T16:20:40Z</time>
      </trkpt>
      <trkpt lat="43.27587" lon="1.13522">
        <ele>126.966</ele>
        <time>2011-11-26T16:20:41Z</time>
      </trkpt>
      <trkpt lat="43.27596" lon="1.13542">
        <ele>125.981</ele>
        <time>2011-11-26T16:20:43Z</time>
      </trkpt>
      <trkpt lat="43.27604" lon="1.13549">
        <ele>125.54</ele>
        <time>2011-11-26T16:20:44Z</time>
      </trkpt>
      <trkpt lat="43.27612" lon="1.13553">
        <ele>125.089</ele>
        <time>2011-11-26T16:20:45Z</time>
      </trkpt>
      <trkpt lat="43.27622" lon="1.13555">
        <ele>124.562</ele>
        <time>2011-11-26T16:20:46Z</time>
      </trkpt>
      <trkpt lat="43.27632" lon="1.13553">
        <ele>124.118</ele>
        <time>2011-11-26T16:20:47Z</time>
      </trkpt>
      <trkpt lat="43.27641" lon="1.13548">
        <ele>124.252</ele>
        <time>2011-11-26T16:20:48Z</time>
      </trkpt>
      <trkpt lat="43.2765" lon="1.13541">
        <ele>125.276</ele>
        <time>2011-11-26T16:20:49Z</time>
      </trkpt>
      <trkpt lat="43.27658" lon="1.13532">
        <ele>126.676</ele>
        <time>2011-11-26T16:20:50Z</time>
      </trkpt>
      <trkpt lat="43.27666" lon="1.13523">
        <ele>128.498</ele>
        <time>2011-11-26T16:20:51Z</time>
      </trkpt>
      <trkpt lat="43.27672" lon="1.13513">
        <ele>129.925</ele>
        <time>2011-11-26T16:20:52Z</time>
      </trkpt>
      <trkpt lat="43.27678" lon="1.13502">
        <ele>130.9</ele>
        <time>2011-11-26T16:20:53Z</time>
      </trkpt>
      <trkpt lat="43.27682" lon="1.13489">
        <ele>130.614</ele>
        <time>2011-11-26T16:20:54Z</time>
      </trkpt>
      <trkpt lat="43.27685" lon="1.13475">
        <ele>129.517</ele>
        <time>2011-11-26T16:20:55Z</time>
      </trkpt>
      <trkpt lat="43.27687" lon="1.13461">
        <ele>128.785</ele>
        <time>2011-11-26T16:20:56Z</time>
      </trkpt>
      <trkpt lat="43.27691" lon="1.13432">
        <ele>128.552</ele>
        <time>2011-11-26T16:20:58Z</time>
      </trkpt>
      <trkpt lat="43.27691" lon="1.13418">
        <ele>128.161</ele>
        <time>2011-11-26T16:20:59Z</time>
      </trkpt>
      <trkpt lat="43.27691" lon="1.13404">
        <ele>127.317</ele>
        <time>2011-11-26T16:21:00Z</time>
      </trkpt>
      <trkpt lat="43.2769" lon="1.13389">
        <ele>125.973</ele>
        <time>2011-11-26T16:21:01Z</time>
      </trkpt>
      <trkpt lat="43.27688" lon="1.13374">
        <ele>124.973</ele>
        <time>2011-11-26T16:21:02Z</time>
      </trkpt>
      <trkpt lat="43.27685" lon="1.13359">
        <ele>124.498</ele>
        <time>2011-11-26T16:21:03Z</time>
      </trkpt>
      <trkpt lat="43.27682" lon="1.13343">
        <ele>124.277</ele>
        <time>2011-11-26T16:21:04Z</time>
      </trkpt>
      <trkpt lat="43.27676" lon="1.13328">
        <ele>124.249</ele>
        <time>2011-11-26T16:21:05Z</time>
      </trkpt>
      <trkpt lat="43.2767" lon="1.13313">
        <ele>124.725</ele>
        <time>2011-11-26T16:21:06Z</time>
      </trkpt>
      <trkpt lat="43.27664" lon="1.133">
        <ele>126.048</ele>
        <time>2011-11-26T16:21:07Z</time>
      </trkpt>
      <trkpt lat="43.27653" lon="1.13273">
        <ele>127.548</ele>
        <time>2011-11-26T16:21:09Z</time>
      </trkpt>
      <trkpt lat="43.27647" lon="1.13261">
        <ele>128.278</ele>
        <time>2011-11-26T16:21:10Z</time>
      </trkpt>
      <trkpt lat="43.27641" lon="1.13248">
        <ele>128.698</ele>
        <time>2011-11-26T16:21:11Z</time>
      </trkpt>
      <trkpt lat="43.27635" lon="1.13236">
        <ele>128.881</ele>
        <time>2011-11-26T16:21:12Z</time>
      </trkpt>
      <trkpt lat="43.27628" lon="1.13223">
        <ele>128.806</ele>
        <time>2011-11-26T16:21:13Z</time>
      </trkpt>
      <trkpt lat="43.2762" lon="1.13209">
        <ele>128.696</ele>
        <time>2011-11-26T16:21:14Z</time>
      </trkpt>
      <trkpt lat="43.27613" lon="1.13196">
        <ele>128.867</ele>
        <time>2011-11-26T16:21:15Z</time>
      </trkpt>
      <trkpt lat="43.27604" lon="1.13184">
        <ele>129.188</ele>
        <time>2011-11-26T16:21:16Z</time>
      </trkpt>
      <trkpt lat="43.27594" lon="1.13174">
        <ele>130.026</ele>
        <time>2011-11-26T16:21:17Z</time>
      </trkpt>
      <trkpt lat="43.27583" lon="1.13167">
        <ele>131.468</ele>
        <time>2011-11-26T16:21:18Z</time>
      </trkpt>
      <trkpt lat="43.27572" lon="1.1316">
        <ele>132.878</ele>
        <time>2011-11-26T16:21:19Z</time>
      </trkpt>
      <trkpt lat="43.2756" lon="1.13155">
        <ele>134.723</ele>
        <time>2011-11-26T16:21:20Z</time>
      </trkpt>
      <trkpt lat="43.27549" lon="1.1315">
        <ele>136.682</ele>
        <time>2011-11-26T16:21:21Z</time>
      </trkpt>
      <trkpt lat="43.27538" lon="1.13146">
        <ele>139.01</ele>
        <time>2011-11-26T16:21:22Z</time>
      </trkpt>
      <trkpt lat="43.27516" lon="1.13144">
        <ele>141.438</ele>
        <time>2011-11-26T16:21:24Z</time>
      </trkpt>
      <trkpt lat="43.27506" lon="1.13144">
        <ele>143.928</ele>
        <time>2011-11-26T16:21:25Z</time>
      </trkpt>
      <trkpt lat="43.27496" lon="1.13147">
        <ele>145.555</ele>
        <time>2011-11-26T16:21:26Z</time>
      </trkpt>
      <trkpt lat="43.27485" lon="1.13149">
        <ele>146.904</ele>
        <time>2011-11-26T16:21:27Z</time>
      </trkpt>
      <trkpt lat="43.27475" lon="1.13153">
        <ele>148.232</ele>
        <time>2011-11-26T16:21:28Z</time>
      </trkpt>
      <trkpt lat="43.27466" lon="1.13159">
        <ele>150.082</ele>
        <time>2011-11-26T16:21:29Z</time>
      </trkpt>
      <trkpt lat="43.27459" lon="1.13167">
        <ele>151.066</ele>
        <time>2011-11-26T16:21:30Z</time>
      </trkpt>
      <trkpt lat="43.27452" lon="1.13176">
        <ele>151.322</ele>
        <time>2011-11-26T16:21:31Z</time>
      </trkpt>
      <trkpt lat="43.27447" lon="1.13186">
        <ele>150.863</ele>
        <time>2011-11-26T16:21:32Z</time>
      </trkpt>
      <trkpt lat="43.27447" lon="1.13186">
        <ele>150.261</ele>
        <time>2011-11-26T16:21:32Z</time>
      </trkpt>
      <trkpt lat="43.27438" lon="1.13209">
        <ele>148.892</ele>
        <time>2011-11-26T16:21:34Z</time>
      </trkpt>
      <trkpt lat="43.27434" lon="1.13222">
        <ele>147.419</ele>
        <time>2011-11-26T16:21:35Z</time>
      </trkpt>
      <trkpt lat="43.27433" lon="1.13236">
        <ele>146.616</ele>
        <time>2011-11-26T16:21:36Z</time>
      </trkpt>
      <trkpt lat="43.27432" lon="1.1325">
        <ele>146.177</ele>
        <time>2011-11-26T16:21:37Z</time>
      </trkpt>
      <trkpt lat="43.27431" lon="1.13264">
        <ele>146.079</ele>
        <time>2011-11-26T16:21:38Z</time>
      </trkpt>
      <trkpt lat="43.27433" lon="1.13277">
        <ele>145.77</ele>
        <time>2011-11-26T16:21:39Z</time>
      </trkpt>
      <trkpt lat="43.27436" lon="1.13303">
        <ele>145.245</ele>
        <time>2011-11-26T16:21:41Z</time>
      </trkpt>
      <trkpt lat="43.27436" lon="1.13317">
        <ele>145.246</ele>
        <time>2011-11-26T16:21:42Z</time>
      </trkpt>
      <trkpt lat="43.27436" lon="1.13329">
        <ele>145.426</ele>
        <time>2011-11-26T16:21:43Z</time>
      </trkpt>
      <trkpt lat="43.27437" lon="1.13341">
        <ele>145.26</ele>
        <time>2011-11-26T16:21:44Z</time>
      </trkpt>
      <trkpt lat="43.27439" lon="1.13351">
        <ele>144.022</ele>
        <time>2011-11-26T16:21:45Z</time>
      </trkpt>
      <trkpt lat="43.27441" lon="1.13363">
        <ele>142.07</ele>
        <time>2011-11-26T16:21:46Z</time>
      </trkpt>
      <trkpt lat="43.27444" lon="1.13377">
        <ele>140.351</ele>
        <time>2011-11-26T16:21:47Z</time>
      </trkpt>
      <trkpt lat="43.27447" lon="1.1339">
        <ele>139.378</ele>
        <time>2011-11-26T16:21:48Z</time>
      </trkpt>
      <trkpt lat="43.2745" lon="1.13403">
        <ele>139.036</ele>
        <time>2011-11-26T16:21:49Z</time>
      </trkpt>
      <trkpt lat="43.27454" lon="1.13415">
        <ele>138.946</ele>
        <time>2011-11-26T16:21:50Z</time>
      </trkpt>
      <trkpt lat="43.27458" lon="1.13425">
        <ele>138.5</ele>
        <time>2011-11-26T16:21:51Z</time>
      </trkpt>
      <trkpt lat="43.27462" lon="1.13436">
        <ele>137.494</ele>
        <time>2011-11-26T16:21:52Z</time>
      </trkpt>
      <trkpt lat="43.27471" lon="1.13457">
        <ele>136.164</ele>
        <time>2011-11-26T16:21:54Z</time>
      </trkpt>
      <trkpt lat="43.27476" lon="1.13467">
        <ele>134.065</ele>
        <time>2011-11-26T16:21:55Z</time>
      </trkpt>
      <trkpt lat="43.27482" lon="1.13477">
        <ele>131.364</ele>
        <time>2011-11-26T16:21:56Z</time>
      </trkpt>
      <trkpt lat="43.27489" lon="1.13487">
        <ele>128.815</ele>
        <time>2011-11-26T16:21:57Z</time>
      </trkpt>
      <trkpt lat="43.27495" lon="1.13497">
        <ele>126.633</ele>
        <time>2011-11-26T16:21:58Z</time>
      </trkpt>
      <trkpt lat="43.27501" lon="1.13508">
        <ele>124.909</ele>
        <time>2011-11-26T16:21:59Z</time>
      </trkpt>
      <trkpt lat="43.27507" lon="1.13517">
        <ele>123.55</ele>
        <time>2011-11-26T16:22:00Z</time>
      </trkpt>
      <trkpt lat="43.27514" lon="1.13527">
        <ele>121.844</ele>
        <time>2011-11-26T16:22:01Z</time>
      </trkpt>
      <trkpt lat="43.27522" lon="1.13535">
        <ele>120.483</ele>
        <time>2011-11-26T16:22:02Z</time>
      </trkpt>
      <trkpt lat="43.27529" lon="1.13543">
        <ele>118.481</ele>
        <time>2011-11-26T16:22:03Z</time>
      </trkpt>
      <trkpt lat="43.27536" lon="1.13552">
        <ele>116.312</ele>
        <time>2011-11-26T16:22:04Z</time>
      </trkpt>
      <trkpt lat="43.27543" lon="1.1356">
        <ele>114.792</ele>
        <time>2011-11-26T16:22:05Z</time>
      </trkpt>
      <trkpt lat="43.27551" lon="1.13569">
        <ele>114.095</ele>
        <time>2011-11-26T16:22:06Z</time>
      </trkpt>
      <trkpt lat="43.27567" lon="1.1358">
        <ele>113.706</ele>
        <time>2011-11-26T16:22:08Z</time>
      </trkpt>
      <trkpt lat="43.27576" lon="1.13582">
        <ele>113.376</ele>
        <time>2011-11-26T16:22:09Z</time>
      </trkpt>
      <trkpt lat="43.27586" lon="1.13584">
        <ele>113.107</ele>
        <time>2011-11-26T16:22:10Z</time>
      </trkpt>
      <trkpt lat="43.27596" lon="1.13584">
        <ele>112.864</ele>
        <time>2011-11-26T16:22:11Z</time>
      </trkpt>
      <trkpt lat="43.27605" lon="1.13581">
        <ele>112.471</ele>
        <time>2011-11-26T16:22:12Z</time>
      </trkpt>
      <trkpt lat="43.27615" lon="1.13576">
        <ele>111.911</ele>
        <time>2011-11-26T16:22:13Z</time>
      </trkpt>
      <trkpt lat="43.27625" lon="1.1357">
        <ele>111.279</ele>
        <time>2011-11-26T16:22:14Z</time>
      </trkpt>
      <trkpt lat="43.27634" lon="1.13563">
        <ele>110.536</ele>
        <time>2011-11-26T16:22:15Z</time>
      </trkpt>
      <trkpt lat="43.27642" lon="1.13553">
        <ele>109.064</ele>
        <time>2011-11-26T16:22:16Z</time>
      </trkpt>
      <trkpt lat="43.27649" lon="1.13541">
        <ele>107.607</ele>
        <time>2011-11-26T16:22:17Z</time>
      </trkpt>
      <trkpt lat="43.27654" lon="1.13527">
        <ele>107.061</ele>
        <time>2011-11-26T16:22:18Z</time>
      </trkpt>
      <trkpt lat="43.27658" lon="1.13512">
        <ele>106.677</ele>
        <time>2011-11-26T16:22:19Z</time>
      </trkpt>
      <trkpt lat="43.2766" lon="1.13481">
        <ele>106.406</ele>
        <time>2011-11-26T16:22:21Z</time>
      </trkpt>
      <trkpt lat="43.2766" lon="1.13481">
        <ele>106.011</ele>
        <time>2011-11-26T16:22:21Z</time>
      </trkpt>
      <trkpt lat="43.27656" lon="1.13449">
        <ele>105.96</ele>
        <time>2011-11-26T16:22:23Z</time>
      </trkpt>
      <trkpt lat="43.27654" lon="1.13434">
        <ele>106.213</ele>
        <time>2011-11-26T16:22:24Z</time>
      </trkpt>
      <trkpt lat="43.27651" lon="1.1342">
        <ele>106.338</ele>
        <time>2011-11-26T16:22:25Z</time>
      </trkpt>
      <trkpt lat="43.27646" lon="1.13406">
        <ele>106.1</ele>
        <time>2011-11-26T16:22:26Z</time>
      </trkpt>
      <trkpt lat="43.2764" lon="1.13393">
        <ele>105.337</ele>
        <time>2011-11-26T16:22:27Z</time>
      </trkpt>
      <trkpt lat="43.27633" lon="1.13381">
        <ele>104.595</ele>
        <time>2011-11-26T16:22:28Z</time>
      </trkpt>
      <trkpt lat="43.27624" lon="1.1337">
        <ele>104.04</ele>
        <time>2011-11-26T16:22:29Z</time>
      </trkpt>
      <trkpt lat="43.27616" lon="1.1336">
        <ele>103.459</ele>
        <time>2011-11-26T16:22:30Z</time>
      </trkpt>
      <trkpt lat="43.27608" lon="1.13349">
        <ele>102.752</ele>
        <time>2011-11-26T16:22:31Z</time>
      </trkpt>
      <trkpt lat="43.27581" lon="1.13315">
        <ele>100.545</ele>
        <time>2011-11-26T16:22:34Z</time>
      </trkpt>
      <trkpt lat="43.27572" lon="1.13302">
        <ele>100.135</ele>
        <time>2011-11-26T16:22:35Z</time>
      </trkpt>
      <trkpt lat="43.27563" lon="1.13287">
        <ele>100.429</ele>
        <time>2011-11-26T16:22:36Z</time>
      </trkpt>
      <trkpt lat="43.27563" lon="1.13287">
        <ele>101.878</ele>
        <time>2011-11-26T16:22:36Z</time>
      </trkpt>
      <trkpt lat="43.27553" lon="1.13253">
        <ele>104.719</ele>
        <time>2011-11-26T16:22:38Z</time>
      </trkpt>
      <trkpt lat="43.2755" lon="1.13235">
        <ele>107.892</ele>
        <time>2011-11-26T16:22:39Z</time>
      </trkpt>
      <trkpt lat="43.27549" lon="1.13219">
        <ele>110.587</ele>
        <time>2011-11-26T16:22:40Z</time>
      </trkpt>
      <trkpt lat="43.27549" lon="1.13205">
        <ele>112.974</ele>
        <time>2011-11-26T16:22:41Z</time>
      </trkpt>
      <trkpt lat="43.27551" lon="1.13193">
        <ele>114.94</ele>
        <time>2011-11-26T16:22:42Z</time>
      </trkpt>
      <trkpt lat="43.27555" lon="1.13183">
        <ele>116.636</ele>
        <time>2011-11-26T16:22:43Z</time>
      </trkpt>
      <trkpt lat="43.27564" lon="1.13176">
        <ele>117.821</ele>
        <time>2011-11-26T16:22:44Z</time>
      </trkpt>
      <trkpt lat="43.27573" lon="1.13169">
        <ele>118.793</ele>
        <time>2011-11-26T16:22:45Z</time>
      </trkpt>
      <trkpt lat="43.27582" lon="1.13162">
        <ele>119.659</ele>
        <time>2011-11-26T16:22:46Z</time>
      </trkpt>
      <trkpt lat="43.2759" lon="1.13154">
        <ele>120.857</ele>
        <time>2011-11-26T16:22:47Z</time>
      </trkpt>
      <trkpt lat="43.27597" lon="1.13148">
        <ele>122.065</ele>
        <time>2011-11-26T16:22:48Z</time>
      </trkpt>
      <trkpt lat="43.27615" lon="1.1314">
        <ele>122.722</ele>
        <time>2011-11-26T16:22:50Z</time>
      </trkpt>
      <trkpt lat="43.27625" lon="1.13135">
        <ele>123.081</ele>
        <time>2011-11-26T16:22:51Z</time>
      </trkpt>
      <trkpt lat="43.27625" lon="1.13135">
        <ele>123.392</ele>
        <time>2011-11-26T16:22:51Z</time>
      </trkpt>
      <trkpt lat="43.27646" lon="1.13124">
        <ele>124.256</ele>
        <time>2011-11-26T16:22:53Z</time>
      </trkpt>
      <trkpt lat="43.27656" lon="1.1312">
        <ele>125.709</ele>
        <time>2011-11-26T16:22:54Z</time>
      </trkpt>
      <trkpt lat="43.27666" lon="1.13118">
        <ele>127.546</ele>
        <time>2011-11-26T16:22:55Z</time>
      </trkpt>
      <trkpt lat="43.27676" lon="1.13116">
        <ele>130.171</ele>
        <time>2011-11-26T16:22:56Z</time>
      </trkpt>
      <trkpt lat="43.27685" lon="1.13113">
        <ele>132.294</ele>
        <time>2011-11-26T16:22:57Z</time>
      </trkpt>
      <trkpt lat="43.27694" lon="1.13111">
        <ele>134.048</ele>
        <time>2011-11-26T16:22:58Z</time>
      </trkpt>
      <trkpt lat="43.27704" lon="1.13109">
        <ele>135.733</ele>
        <time>2011-11-26T16:22:59Z</time>
      </trkpt>
      <trkpt lat="43.27704" lon="1.13109">
        <ele>136.947</ele>
        <time>2011-11-26T16:22:59Z</time>
      </trkpt>
      <trkpt lat="43.27725" lon="1.13112">
        <ele>138.907</ele>
        <time>2011-11-26T16:23:01Z</time>
      </trkpt>
      <trkpt lat="43.27735" lon="1.13115">
        <ele>141.636</ele>
        <time>2011-11-26T16:23:02Z</time>
      </trkpt>
      <trkpt lat="43.27745" lon="1.13117">
        <ele>145.453</ele>
        <time>2011-11-26T16:23:03Z</time>
      </trkpt>
      <trkpt lat="43.27755" lon="1.13118">
        <ele>149.098</ele>
        <time>2011-11-26T16:23:04Z</time>
      </trkpt>
      <trkpt lat="43.27765" lon="1.1312">
        <ele>152.118</ele>
        <time>2011-11-26T16:23:05Z</time>
      </trkpt>
      <trkpt lat="43.27773" lon="1.13123">
        <ele>155.517</ele>
        <time>2011-11-26T16:23:06Z</time>
      </trkpt>
      <trkpt lat="43.27789" lon="1.13135">
        <ele>158.548</ele>
        <time>2011-11-26T16:23:08Z</time>
      </trkpt>
      <trkpt lat="43.27796" lon="1.13143">
        <ele>160.883</ele>
        <time>2011-11-26T16:23:09Z</time>
      </trkpt>
      <trkpt lat="43.27805" lon="1.1315">
        <ele>162.165</ele>
        <time>2011-11-26T16:23:10Z</time>
      </trkpt>
      <trkpt lat="43.27814" lon="1.13155">
        <ele>163.123</ele>
        <time>2011-11-26T16:23:11Z</time>
      </trkpt>
      <trkpt lat="43.27823" lon="1.13162">
        <ele>164.805</ele>
        <time>2011-11-26T16:23:12Z</time>
      </trkpt>
      <trkpt lat="43.27831" lon="1.1317">
        <ele>167.754</ele>
        <time>2011-11-26T16:23:13Z</time>
      </trkpt>
      <trkpt lat="43.27839" lon="1.13179">
        <ele>170.432</ele>
        <time>2011-11-26T16:23:14Z</time>
      </trkpt>
      <trkpt lat="43.27846" lon="1.13187">
        <ele>172.652</ele>
        <time>2011-11-26T16:23:15Z</time>
      </trkpt>
      <trkpt lat="43.27854" lon="1.13194">
        <ele>175.466</ele>
        <time>2011-11-26T16:23:16Z</time>
      </trkpt>
      <trkpt lat="43.27871" lon="1.13206">
        <ele>178.549</ele>
        <time>2011-11-26T16:23:18Z</time>
      </trkpt>
      <trkpt lat="43.27878" lon="1.13214">
        <ele>181.319</ele>
        <time>2011-11-26T16:23:19Z</time>
      </trkpt>
      <trkpt lat="43.27886" lon="1.13222">
        <ele>184.509</ele>
        <time>2011-11-26T16:23:20Z</time>
      </trkpt>
      <trkpt lat="43.27894" lon="1.13229">
        <ele>186.797</ele>
        <time>2011-11-26T16:23:21Z</time>
      </trkpt>
      <trkpt lat="43.27903" lon="1.13234">
        <ele>189.244</ele>
        <time>2011-11-26T16:23:22Z</time>
      </trkpt>
      <trkpt lat="43.27913" lon="1.13239">
        <ele>191.256</ele>
        <time>2011-11-26T16:23:23Z</time>
      </trkpt>
      <trkpt lat="43.27922" lon="1.13243">
        <ele>194.617</ele>
        <time>2011-11-26T16:23:24Z</time>
      </trkpt>
      <trkpt lat="43.2793" lon="1.13246">
        <ele>197.457</ele>
        <time>2011-11-26T16:23:25Z</time>
      </trkpt>
      <trkpt lat="43.27939" lon="1.13249">
        <ele>200.678</ele>
        <time>2011-11-26T16:23:26Z</time>
      </trkpt>
      <trkpt lat="43.27947" lon="1.13251">
        <ele>203.245</ele>
        <time>2011-11-26T16:23:27Z</time>
      </trkpt>
      <trkpt lat="43.27956" lon="1.13253">
        <ele>205.009</ele>
        <time>2011-11-26T16:23:28Z</time>
      </trkpt>
      <trkpt lat="43.27966" lon="1.13254">
        <ele>205.83</ele>
        <time>2011-11-26T16:23:29Z</time>
      </trkpt>
      <trkpt lat="43.27976" lon="1.13254">
        <ele>207.099</ele>
        <time>2011-11-26T16:23:30Z</time>
      </trkpt>
      <trkpt lat="43.27986" lon="1.13256">
        <ele>208.917</ele>
        <time>2011-11-26T16:23:31Z</time>
      </trkpt>
      <trkpt lat="43.28007" lon="1.13262">
        <ele>210.625</ele>
        <time>2011-11-26T16:23:33Z</time>
      </trkpt>
      <trkpt lat="43.28017" lon="1.13266">
        <ele>212.011</ele>
        <time>2011-11-26T16:23:34Z</time>
      </trkpt>
      <trkpt lat="43.28027" lon="1.1327">
        <ele>213.969</ele>
        <time>2011-11-26T16:23:35Z</time>
      </trkpt>
      <trkpt lat="43.28037" lon="1.13273">
        <ele>215.914</ele>
        <time>2011-11-26T16:23:36Z</time>
      </trkpt>
      <trkpt lat="43.28047" lon="1.13277">
        <ele>217.753</ele>
        <time>2011-11-26T16:23:37Z</time>
      </trkpt>
      <trkpt lat="43.28056" lon="1.13281">
        <ele>220.01</ele>
        <time>2011-11-26T16:23:38Z</time>
      </trkpt>
      <trkpt lat="43.28065" lon="1.13286">
        <ele>221.548</ele>
        <time>2011-11-26T16:23:39Z</time>
      </trkpt>
      <trkpt lat="43.28074" lon="1.13291">
        <ele>222.999</ele>
        <time>2011-11-26T16:23:40Z</time>
      </trkpt>
      <trkpt lat="43.28084" lon="1.13295">
        <ele>224.254</ele>
        <time>2011-11-26T16:23:41Z</time>
      </trkpt>
      <trkpt lat="43.28112" lon="1.13308">
        <ele>227.692</ele>
        <time>2011-11-26T16:23:44Z</time>
      </trkpt>
      <trkpt lat="43.28121" lon="1.1331">
        <ele>228.868</ele>
        <time>2011-11-26T16:23:45Z</time>
      </trkpt>
      <trkpt lat="43.2813" lon="1.13312">
        <ele>229.714</ele>
        <time>2011-11-26T16:23:46Z</time>
      </trkpt>
      <trkpt lat="43.2814" lon="1.13314">
        <ele>230.524</ele>
        <time>2011-11-26T16:23:47Z</time>
      </trkpt>
      <trkpt lat="43.2815" lon="1.13317">
        <ele>231.528</ele>
        <time>2011-11-26T16:23:48Z</time>
      </trkpt>
      <trkpt lat="43.28169" lon="1.13322">
        <ele>233.961</ele>
        <time>2011-11-26T16:23:50Z</time>
      </trkpt>
      <trkpt lat="43.28177" lon="1.13324">
        <ele>235.792</ele>
        <time>2011-11-26T16:23:51Z</time>
      </trkpt>
      <trkpt lat="43.28185" lon="1.13326">
        <ele>237.05</ele>
        <time>2011-11-26T16:23:52Z</time>
      </trkpt>
      <trkpt lat="43.28195" lon="1.13327">
        <ele>237.931</ele>
        <time>2011-11-26T16:23:53Z</time>
      </trkpt>
      <trkpt lat="43.28204" lon="1.1333">
        <ele>238.884</ele>
        <time>2011-11-26T16:23:54Z</time>
      </trkpt>
      <trkpt lat="43.28213" lon="1.13335">
        <ele>239.526</ele>
        <time>2011-11-26T16:23:55Z</time>
      </trkpt>
      <trkpt lat="43.28222" lon="1.1334">
        <ele>240.197</ele>
        <time>2011-11-26T16:23:56Z</time>
      </trkpt>
      <trkpt lat="43.28232" lon="1.13344">
        <ele>240.934</ele>
        <time>2011-11-26T16:23:57Z</time>
      </trkpt>
      <trkpt lat="43.28242" lon="1.13346">
        <ele>241.266</ele>
        <time>2011-11-26T16:23:58Z</time>
      </trkpt>
      <trkpt lat="43.28251" lon="1.13345">
        <ele>241.261</ele>
        <time>2011-11-26T16:23:59Z</time>
      </trkpt>
      <trkpt lat="43.28261" lon="1.13346">
        <ele>241.318</ele>
        <time>2011-11-26T16:24:00Z</time>
      </trkpt>
      <trkpt lat="43.28271" lon="1.13348">
        <ele>241.231</ele>
        <time>2011-11-26T16:24:01Z</time>
      </trkpt>
      <trkpt lat="43.28282" lon="1.1335">
        <ele>241.324</ele>
        <time>2011-11-26T16:24:02Z</time>
      </trkpt>
      <trkpt lat="43.28292" lon="1.13353">
        <ele>241.98</ele>
        <time>2011-11-26T16:24:03Z</time>
      </trkpt>
      <trkpt lat="43.28303" lon="1.13353">
        <ele>243.208</ele>
        <time>2011-11-26T16:24:04Z</time>
      </trkpt>
      <trkpt lat="43.28323" lon="1.13353">
        <ele>244.801</ele>
        <time>2011-11-26T16:24:06Z</time>
      </trkpt>
      <trkpt lat="43.28323" lon="1.13353">
        <ele>246.736</ele>
        <time>2011-11-26T16:24:06Z</time>
      </trkpt>
      <trkpt lat="43.28342" lon="1.13358">
        <ele>248.02</ele>
        <time>2011-11-26T16:24:08Z</time>
      </trkpt>
      <trkpt lat="43.28352" lon="1.13361">
        <ele>248.681</ele>
        <time>2011-11-26T16:24:09Z</time>
      </trkpt>
      <trkpt lat="43.28362" lon="1.13363">
        <ele>249.016</ele>
        <time>2011-11-26T16:24:10Z</time>
      </trkpt>
      <trkpt lat="43.28362" lon="1.13363">
        <ele>249.391</ele>
        <time>2011-11-26T16:24:10Z</time>
      </trkpt>
      <trkpt lat="43.28383" lon="1.13369">
        <ele>250.364</ele>
        <time>2011-11-26T16:24:12Z</time>
      </trkpt>
      <trkpt lat="43.28393" lon="1.13374">
        <ele>251.377</ele>
        <time>2011-11-26T16:24:13Z</time>
      </trkpt>
      <trkpt lat="43.28401" lon="1.1338">
        <ele>252.97</ele>
        <time>2011-11-26T16:24:14Z</time>
      </trkpt>
      <trkpt lat="43.2841" lon="1.13385">
        <ele>254.818</ele>
        <time>2011-11-26T16:24:15Z</time>
      </trkpt>
      <trkpt lat="43.28418" lon="1.13389">
        <ele>255.976</ele>
        <time>2011-11-26T16:24:16Z</time>
      </trkpt>
      <trkpt lat="43.28427" lon="1.13394">
        <ele>256.556</ele>
        <time>2011-11-26T16:24:17Z</time>
      </trkpt>
      <trkpt lat="43.28436" lon="1.134">
        <ele>256.772</ele>
        <time>2011-11-26T16:24:18Z</time>
      </trkpt>
      <trkpt lat="43.28444" lon="1.13407">
        <ele>257.012</ele>
        <time>2011-11-26T16:24:19Z</time>
      </trkpt>
      <trkpt lat="43.28453" lon="1.13415">
        <ele>257.226</ele>
        <time>2011-11-26T16:24:20Z</time>
      </trkpt>
      <trkpt lat="43.28461" lon="1.13424">
        <ele>257.469</ele>
        <time>2011-11-26T16:24:21Z</time>
      </trkpt>
      <trkpt lat="43.28478" lon="1.13439">
        <ele>257.708</ele>
        <time>2011-11-26T16:24:23Z</time>
      </trkpt>
      <trkpt lat="43.28488" lon="1.13446">
        <ele>257.947</ele>
        <time>2011-11-26T16:24:24Z</time>
      </trkpt>
      <trkpt lat="43.28497" lon="1.13453">
        <ele>258.278</ele>
        <time>2011-11-26T16:24:25Z</time>
      </trkpt>
      <trkpt lat="43.28507" lon="1.1346">
        <ele>258.808</ele>
        <time>2011-11-26T16:24:26Z</time>
      </trkpt>
      <trkpt lat="43.28516" lon="1.13467">
        <ele>259.373</ele>
        <time>2011-11-26T16:24:27Z</time>
      </trkpt>
      <trkpt lat="43.28525" lon="1.13475">
        <ele>259.814</ele>
        <time>2011-11-26T16:24:28Z</time>
      </trkpt>
      <trkpt lat="43.28535" lon="1.13482">
        <ele>260.72</ele>
        <time>2011-11-26T16:24:29Z</time>
      </trkpt>
      <trkpt lat="43.28544" lon="1.13488">
        <ele>261.816</ele>
        <time>2011-11-26T16:24:30Z</time>
      </trkpt>
      <trkpt lat="43.28553" lon="1.13495">
        <ele>262.544</ele>
        <time>2011-11-26T16:24:31Z</time>
      </trkpt>
      <trkpt lat="43.28561" lon="1.13501">
        <ele>262.443</ele>
        <time>2011-11-26T16:24:32Z</time>
      </trkpt>
      <trkpt lat="43.2857" lon="1.13508">
        <ele>261.247</ele>
        <time>2011-11-26T16:24:33Z</time>
      </trkpt>
      <trkpt lat="43.28578" lon="1.13516">
        <ele>259.354</ele>
        <time>2011-11-26T16:24:34Z</time>
      </trkpt>
      <trkpt lat="43.28597" lon="1.13532">
        <ele>257.245</ele>
        <time>2011-11-26T16:24:36Z</time>
      </trkpt>
      <trkpt lat="43.28597" lon="1.13532">
        <ele>255.764</ele>
        <time>2011-11-26T16:24:36Z</time>
      </trkpt>
      <trkpt lat="43.28616" lon="1.13546">
        <ele>255</ele>
        <time>2011-11-26T16:24:38Z</time>
      </trkpt>
      <trkpt lat="43.28625" lon="1.13552">
        <ele>254.633</ele>
        <time>2011-11-26T16:24:39Z</time>
      </trkpt>
      <trkpt lat="43.28633" lon="1.13558">
        <ele>254.345</ele>
        <time>2011-11-26T16:24:40Z</time>
      </trkpt>
      <trkpt lat="43.28642" lon="1.13565">
        <ele>253.732</ele>
        <time>2011-11-26T16:24:41Z</time>
      </trkpt>
      <trkpt lat="43.2865" lon="1.13573">
        <ele>252.838</ele>
        <time>2011-11-26T16:24:42Z</time>
      </trkpt>
      <trkpt lat="43.28658" lon="1.13582">
        <ele>251.745</ele>
        <time>2011-11-26T16:24:43Z</time>
      </trkpt>
      <trkpt lat="43.28665" lon="1.13591">
        <ele>250.713</ele>
        <time>2011-11-26T16:24:44Z</time>
      </trkpt>
      <trkpt lat="43.28673" lon="1.13601">
        <ele>249.815</ele>
        <time>2011-11-26T16:24:45Z</time>
      </trkpt>
      <trkpt lat="43.2868" lon="1.1361">
        <ele>249.258</ele>
        <time>2011-11-26T16:24:46Z</time>
      </trkpt>
      <trkpt lat="43.28688" lon="1.1362">
        <ele>248.803</ele>
        <time>2011-11-26T16:24:47Z</time>
      </trkpt>
      <trkpt lat="43.28718" lon="1.13657">
        <ele>247.786</ele>
        <time>2011-11-26T16:24:51Z</time>
      </trkpt>
      <trkpt lat="43.28718" lon="1.13657">
        <ele>246.974</ele>
        <time>2011-11-26T16:24:51Z</time>
      </trkpt>
      <trkpt lat="43.28733" lon="1.13681">
        <ele>245.809</ele>
        <time>2011-11-26T16:24:53Z</time>
      </trkpt>
      <trkpt lat="43.28739" lon="1.13689">
        <ele>244.006</ele>
        <time>2011-11-26T16:24:54Z</time>
      </trkpt>
      <trkpt lat="43.28746" lon="1.13697">
        <ele>241.945</ele>
        <time>2011-11-26T16:24:55Z</time>
      </trkpt>
      <trkpt lat="43.28753" lon="1.13706">
        <ele>240.063</ele>
        <time>2011-11-26T16:24:56Z</time>
      </trkpt>
      <trkpt lat="43.28761" lon="1.13717">
        <ele>238.616</ele>
        <time>2011-11-26T16:24:57Z</time>
      </trkpt>
      <trkpt lat="43.28769" lon="1.13727">
        <ele>237.29</ele>
        <time>2011-11-26T16:24:58Z</time>
      </trkpt>
      <trkpt lat="43.28777" lon="1.13736">
        <ele>236.747</ele>
        <time>2011-11-26T16:24:59Z</time>
      </trkpt>
      <trkpt lat="43.28785" lon="1.13744">
        <ele>236.105</ele>
        <time>2011-11-26T16:25:00Z</time>
      </trkpt>
      <trkpt lat="43.28793" lon="1.13753">
        <ele>235.079</ele>
        <time>2011-11-26T16:25:01Z</time>
      </trkpt>
      <trkpt lat="43.2881" lon="1.13768">
        <ele>232.437</ele>
        <time>2011-11-26T16:25:03Z</time>
      </trkpt>
      <trkpt lat="43.28818" lon="1.13774">
        <ele>230.548</ele>
        <time>2011-11-26T16:25:04Z</time>
      </trkpt>
      <trkpt lat="43.28826" lon="1.13781">
        <ele>228.284</ele>
        <time>2011-11-26T16:25:05Z</time>
      </trkpt>
      <trkpt lat="43.28834" lon="1.13789">
        <ele>226.107</ele>
        <time>2011-11-26T16:25:06Z</time>
      </trkpt>
      <trkpt lat="43.28842" lon="1.13799">
        <ele>224.902</ele>
        <time>2011-11-26T16:25:07Z</time>
      </trkpt>
      <trkpt lat="43.28848" lon="1.13809">
        <ele>223.558</ele>
        <time>2011-11-26T16:25:08Z</time>
      </trkpt>
      <trkpt lat="43.28853" lon="1.13821">
        <ele>221.992</ele>
        <time>2011-11-26T16:25:09Z</time>
      </trkpt>
      <trkpt lat="43.28857" lon="1.13832">
        <ele>219.619</ele>
        <time>2011-11-26T16:25:10Z</time>
      </trkpt>
      <trkpt lat="43.28875" lon="1.13881">
        <ele>213.028</ele>
        <time>2011-11-26T16:25:14Z</time>
      </trkpt>
      <trkpt lat="43.28878" lon="1.13893">
        <ele>211.647</ele>
        <time>2011-11-26T16:25:15Z</time>
      </trkpt>
      <trkpt lat="43.28881" lon="1.13904">
        <ele>209.811</ele>
        <time>2011-11-26T16:25:16Z</time>
      </trkpt>
      <trkpt lat="43.28884" lon="1.13916">
        <ele>207.02</ele>
        <time>2011-11-26T16:25:17Z</time>
      </trkpt>
      <trkpt lat="43.28886" lon="1.13928">
        <ele>204.226</ele>
        <time>2011-11-26T16:25:18Z</time>
      </trkpt>
      <trkpt lat="43.28889" lon="1.13942">
        <ele>201.655</ele>
        <time>2011-11-26T16:25:19Z</time>
      </trkpt>
      <trkpt lat="43.28891" lon="1.13955">
        <ele>199.273</ele>
        <time>2011-11-26T16:25:20Z</time>
      </trkpt>
      <trkpt lat="43.28895" lon="1.13967">
        <ele>197.381</ele>
        <time>2011-11-26T16:25:21Z</time>
      </trkpt>
      <trkpt lat="43.28898" lon="1.13979">
        <ele>195.005</ele>
        <time>2011-11-26T16:25:22Z</time>
      </trkpt>
      <trkpt lat="43.28911" lon="1.14015">
        <ele>191.319</ele>
        <time>2011-11-26T16:25:25Z</time>
      </trkpt>
      <trkpt lat="43.28915" lon="1.14026">
        <ele>189.417</ele>
        <time>2011-11-26T16:25:26Z</time>
      </trkpt>
      <trkpt lat="43.28915" lon="1.14026">
        <ele>187.772</ele>
        <time>2011-11-26T16:25:26Z</time>
      </trkpt>
      <trkpt lat="43.28924" lon="1.14051">
        <ele>185.247</ele>
        <time>2011-11-26T16:25:28Z</time>
      </trkpt>
      <trkpt lat="43.28929" lon="1.14063">
        <ele>183.067</ele>
        <time>2011-11-26T16:25:29Z</time>
      </trkpt>
      <trkpt lat="43.28947" lon="1.14099">
        <ele>178.52</ele>
        <time>2011-11-26T16:25:32Z</time>
      </trkpt>
      <trkpt lat="43.28953" lon="1.14108">
        <ele>177.493</ele>
        <time>2011-11-26T16:25:33Z</time>
      </trkpt>
      <trkpt lat="43.2896" lon="1.14117">
        <ele>176.077</ele>
        <time>2011-11-26T16:25:34Z</time>
      </trkpt>
      <trkpt lat="43.28967" lon="1.14126">
        <ele>174.681</ele>
        <time>2011-11-26T16:25:35Z</time>
      </trkpt>
      <trkpt lat="43.28972" lon="1.14137">
        <ele>173.342</ele>
        <time>2011-11-26T16:25:36Z</time>
      </trkpt>
      <trkpt lat="43.28977" lon="1.14148">
        <ele>172.187</ele>
        <time>2011-11-26T16:25:37Z</time>
      </trkpt>
      <trkpt lat="43.28982" lon="1.14159">
        <ele>170.981</ele>
        <time>2011-11-26T16:25:38Z</time>
      </trkpt>
      <trkpt lat="43.28987" lon="1.14169">
        <ele>169.999</ele>
        <time>2011-11-26T16:25:39Z</time>
      </trkpt>
      <trkpt lat="43.28991" lon="1.1418">
        <ele>169.013</ele>
        <time>2011-11-26T16:25:40Z</time>
      </trkpt>
      <trkpt lat="43.28996" lon="1.14192">
        <ele>167.973</ele>
        <time>2011-11-26T16:25:41Z</time>
      </trkpt>
      <trkpt lat="43.28999" lon="1.14204">
        <ele>166.897</ele>
        <time>2011-11-26T16:25:42Z</time>
      </trkpt>
      <trkpt lat="43.29002" lon="1.14216">
        <ele>165.486</ele>
        <time>2011-11-26T16:25:43Z</time>
      </trkpt>
      <trkpt lat="43.29012" lon="1.14239">
        <ele>163.611</ele>
        <time>2011-11-26T16:25:45Z</time>
      </trkpt>
      <trkpt lat="43.29016" lon="1.14251">
        <ele>161.803</ele>
        <time>2011-11-26T16:25:46Z</time>
      </trkpt>
      <trkpt lat="43.29016" lon="1.14251">
        <ele>159.979</ele>
        <time>2011-11-26T16:25:46Z</time>
      </trkpt>
      <trkpt lat="43.29024" lon="1.14277">
        <ele>158.042</ele>
        <time>2011-11-26T16:25:48Z</time>
      </trkpt>
      <trkpt lat="43.29029" lon="1.1429">
        <ele>156.933</ele>
        <time>2011-11-26T16:25:49Z</time>
      </trkpt>
      <trkpt lat="43.29033" lon="1.14303">
        <ele>155.739</ele>
        <time>2011-11-26T16:25:50Z</time>
      </trkpt>
      <trkpt lat="43.29037" lon="1.14315">
        <ele>154.853</ele>
        <time>2011-11-26T16:25:51Z</time>
      </trkpt>
      <trkpt lat="43.29041" lon="1.14327">
        <ele>153.977</ele>
        <time>2011-11-26T16:25:52Z</time>
      </trkpt>
      <trkpt lat="43.29045" lon="1.14339">
        <ele>153.088</ele>
        <time>2011-11-26T16:25:53Z</time>
      </trkpt>
      <trkpt lat="43.29048" lon="1.14352">
        <ele>152.264</ele>
        <time>2011-11-26T16:25:54Z</time>
      </trkpt>
      <trkpt lat="43.29051" lon="1.14366">
        <ele>151.567</ele>
        <time>2011-11-26T16:25:55Z</time>
      </trkpt>
      <trkpt lat="43.29054" lon="1.14379">
        <ele>150.71</ele>
        <time>2011-11-26T16:25:56Z</time>
      </trkpt>
      <trkpt lat="43.29058" lon="1.14392">
        <ele>149.711</ele>
        <time>2011-11-26T16:25:57Z</time>
      </trkpt>
      <trkpt lat="43.29066" lon="1.14419">
        <ele>149.101</ele>
        <time>2011-11-26T16:25:59Z</time>
      </trkpt>
      <trkpt lat="43.2907" lon="1.1443">
        <ele>148.843</ele>
        <time>2011-11-26T16:26:00Z</time>
      </trkpt>
      <trkpt lat="43.29075" lon="1.14441">
        <ele>148.356</ele>
        <time>2011-11-26T16:26:01Z</time>
      </trkpt>
      <trkpt lat="43.29075" lon="1.14441">
        <ele>147.47</ele>
        <time>2011-11-26T16:26:01Z</time>
      </trkpt>
      <trkpt lat="43.29088" lon="1.14461">
        <ele>145.424</ele>
        <time>2011-11-26T16:26:03Z</time>
      </trkpt>
      <trkpt lat="43.29095" lon="1.14472">
        <ele>143.574</ele>
        <time>2011-11-26T16:26:04Z</time>
      </trkpt>
      <trkpt lat="43.29101" lon="1.14483">
        <ele>142.102</ele>
        <time>2011-11-26T16:26:05Z</time>
      </trkpt>
      <trkpt lat="43.29106" lon="1.14494">
        <ele>141.607</ele>
        <time>2011-11-26T16:26:06Z</time>
      </trkpt>
      <trkpt lat="43.29112" lon="1.14504">
        <ele>141.89</ele>
        <time>2011-11-26T16:26:07Z</time>
      </trkpt>
      <trkpt lat="43.29117" lon="1.14513">
        <ele>142.152</ele>
        <time>2011-11-26T16:26:08Z</time>
      </trkpt>
      <trkpt lat="43.29123" lon="1.14521">
        <ele>141.684</ele>
        <time>2011-11-26T16:26:09Z</time>
      </trkpt>
      <trkpt lat="43.29128" lon="1.1453">
        <ele>140.436</ele>
        <time>2011-11-26T16:26:10Z</time>
      </trkpt>
      <trkpt lat="43.29162" lon="1.14575">
        <ele>134.014</ele>
        <time>2011-11-26T16:26:15Z</time>
      </trkpt>
      <trkpt lat="43.29169" lon="1.14582">
        <ele>133.18</ele>
        <time>2011-11-26T16:26:16Z</time>
      </trkpt>
      <trkpt lat="43.29169" lon="1.14582">
        <ele>132.168</ele>
        <time>2011-11-26T16:26:16Z</time>
      </trkpt>
      <trkpt lat="43.29184" lon="1.14597">
        <ele>131.362</ele>
        <time>2011-11-26T16:26:18Z</time>
      </trkpt>
      <trkpt lat="43.29192" lon="1.14605">
        <ele>130.598</ele>
        <time>2011-11-26T16:26:19Z</time>
      </trkpt>
      <trkpt lat="43.29198" lon="1.14615">
        <ele>129.91</ele>
        <time>2011-11-26T16:26:20Z</time>
      </trkpt>
      <trkpt lat="43.29212" lon="1.14633">
        <ele>129.391</ele>
        <time>2011-11-26T16:26:22Z</time>
      </trkpt>
      <trkpt lat="43.2922" lon="1.14639">
        <ele>128.878</ele>
        <time>2011-11-26T16:26:23Z</time>
      </trkpt>
      <trkpt lat="43.29228" lon="1.14647">
        <ele>128.117</ele>
        <time>2011-11-26T16:26:24Z</time>
      </trkpt>
      <trkpt lat="43.29235" lon="1.14657">
        <ele>127.42</ele>
        <time>2011-11-26T16:26:25Z</time>
      </trkpt>
      <trkpt lat="43.29241" lon="1.14667">
        <ele>126.277</ele>
        <time>2011-11-26T16:26:26Z</time>
      </trkpt>
      <trkpt lat="43.29246" lon="1.14679">
        <ele>125.293</ele>
        <time>2011-11-26T16:26:27Z</time>
      </trkpt>
      <trkpt lat="43.29249" lon="1.14692">
        <ele>124.506</ele>
        <time>2011-11-26T16:26:28Z</time>
      </trkpt>
      <trkpt lat="43.29252" lon="1.14705">
        <ele>123.717</ele>
        <time>2011-11-26T16:26:29Z</time>
      </trkpt>
      <trkpt lat="43.29255" lon="1.14718">
        <ele>122.862</ele>
        <time>2011-11-26T16:26:30Z</time>
      </trkpt>
      <trkpt lat="43.29258" lon="1.14731">
        <ele>122.036</ele>
        <time>2011-11-26T16:26:31Z</time>
      </trkpt>
      <trkpt lat="43.29263" lon="1.14758">
        <ele>120.829</ele>
        <time>2011-11-26T16:26:33Z</time>
      </trkpt>
      <trkpt lat="43.29264" lon="1.14773">
        <ele>119.544</ele>
        <time>2011-11-26T16:26:34Z</time>
      </trkpt>
      <trkpt lat="43.29265" lon="1.14787">
        <ele>119.072</ele>
        <time>2011-11-26T16:26:35Z</time>
      </trkpt>
      <trkpt lat="43.29266" lon="1.14801">
        <ele>118.618</ele>
        <time>2011-11-26T16:26:36Z</time>
      </trkpt>
      <trkpt lat="43.29268" lon="1.14815">
        <ele>118.532</ele>
        <time>2011-11-26T16:26:37Z</time>
      </trkpt>
      <trkpt lat="43.29268" lon="1.14829">
        <ele>118.611</ele>
        <time>2011-11-26T16:26:38Z</time>
      </trkpt>
      <trkpt lat="43.29268" lon="1.14843">
        <ele>118.742</ele>
        <time>2011-11-26T16:26:39Z</time>
      </trkpt>
      <trkpt lat="43.29267" lon="1.14856">
        <ele>119.108</ele>
        <time>2011-11-26T16:26:40Z</time>
      </trkpt>
      <trkpt lat="43.29266" lon="1.1487">
        <ele>119.557</ele>
        <time>2011-11-26T16:26:41Z</time>
      </trkpt>
      <trkpt lat="43.29265" lon="1.14883">
        <ele>119.9</ele>
        <time>2011-11-26T16:26:42Z</time>
      </trkpt>
      <trkpt lat="43.29264" lon="1.14897">
        <ele>120.117</ele>
        <time>2011-11-26T16:26:43Z</time>
      </trkpt>
      <trkpt lat="43.29263" lon="1.14911">
        <ele>119.971</ele>
        <time>2011-11-26T16:26:44Z</time>
      </trkpt>
      <trkpt lat="43.29261" lon="1.14925">
        <ele>119.644</ele>
        <time>2011-11-26T16:26:45Z</time>
      </trkpt>
      <trkpt lat="43.29258" lon="1.14939">
        <ele>119.353</ele>
        <time>2011-11-26T16:26:46Z</time>
      </trkpt>
      <trkpt lat="43.29254" lon="1.14953">
        <ele>119.284</ele>
        <time>2011-11-26T16:26:47Z</time>
      </trkpt>
      <trkpt lat="43.29248" lon="1.14981">
        <ele>119.39</ele>
        <time>2011-11-26T16:26:49Z</time>
      </trkpt>
      <trkpt lat="43.29245" lon="1.14994">
        <ele>119.764</ele>
        <time>2011-11-26T16:26:50Z</time>
      </trkpt>
      <trkpt lat="43.29242" lon="1.15008">
        <ele>120.035</ele>
        <time>2011-11-26T16:26:51Z</time>
      </trkpt>
      <trkpt lat="43.29238" lon="1.15022">
        <ele>120.42</ele>
        <time>2011-11-26T16:26:52Z</time>
      </trkpt>
      <trkpt lat="43.29235" lon="1.15036">
        <ele>121.336</ele>
        <time>2011-11-26T16:26:53Z</time>
      </trkpt>
      <trkpt lat="43.29231" lon="1.1505">
        <ele>122.58</ele>
        <time>2011-11-26T16:26:54Z</time>
      </trkpt>
      <trkpt lat="43.29228" lon="1.15064">
        <ele>123.567</ele>
        <time>2011-11-26T16:26:55Z</time>
      </trkpt>
      <trkpt lat="43.29225" lon="1.15077">
        <ele>124.756</ele>
        <time>2011-11-26T16:26:56Z</time>
      </trkpt>
      <trkpt lat="43.29221" lon="1.15091">
        <ele>125.494</ele>
        <time>2011-11-26T16:26:57Z</time>
      </trkpt>
      <trkpt lat="43.29217" lon="1.15105">
        <ele>125.588</ele>
        <time>2011-11-26T16:26:58Z</time>
      </trkpt>
      <trkpt lat="43.29213" lon="1.15119">
        <ele>125.269</ele>
        <time>2011-11-26T16:26:59Z</time>
      </trkpt>
      <trkpt lat="43.2921" lon="1.15134">
        <ele>124.839</ele>
        <time>2011-11-26T16:27:00Z</time>
      </trkpt>
      <trkpt lat="43.29206" lon="1.15148">
        <ele>124.706</ele>
        <time>2011-11-26T16:27:01Z</time>
      </trkpt>
      <trkpt lat="43.29202" lon="1.15163">
        <ele>124.961</ele>
        <time>2011-11-26T16:27:02Z</time>
      </trkpt>
      <trkpt lat="43.29202" lon="1.15163">
        <ele>125.296</ele>
        <time>2011-11-26T16:27:02Z</time>
      </trkpt>
      <trkpt lat="43.29194" lon="1.15191">
        <ele>126.048</ele>
        <time>2011-11-26T16:27:04Z</time>
      </trkpt>
      <trkpt lat="43.29187" lon="1.1522">
        <ele>126.975</ele>
        <time>2011-11-26T16:27:06Z</time>
      </trkpt>
      <trkpt lat="43.29187" lon="1.1522">
        <ele>127.8</ele>
        <time>2011-11-26T16:27:06Z</time>
      </trkpt>
      <trkpt lat="43.29179" lon="1.15248">
        <ele>128.392</ele>
        <time>2011-11-26T16:27:08Z</time>
      </trkpt>
      <trkpt lat="43.29174" lon="1.15262">
        <ele>129.354</ele>
        <time>2011-11-26T16:27:09Z</time>
      </trkpt>
      <trkpt lat="43.29167" lon="1.15289">
        <ele>132.222</ele>
        <time>2011-11-26T16:27:11Z</time>
      </trkpt>
      <trkpt lat="43.29167" lon="1.15289">
        <ele>133.777</ele>
        <time>2011-11-26T16:27:11Z</time>
      </trkpt>
      <trkpt lat="43.29165" lon="1.15315">
        <ele>134.809</ele>
        <time>2011-11-26T16:27:13Z</time>
      </trkpt>
      <trkpt lat="43.29163" lon="1.15329">
        <ele>136.191</ele>
        <time>2011-11-26T16:27:14Z</time>
      </trkpt>
      <trkpt lat="43.29161" lon="1.15343">
        <ele>137.455</ele>
        <time>2011-11-26T16:27:15Z</time>
      </trkpt>
      <trkpt lat="43.29161" lon="1.15357">
        <ele>138.701</ele>
        <time>2011-11-26T16:27:16Z</time>
      </trkpt>
      <trkpt lat="43.29161" lon="1.15372">
        <ele>139.751</ele>
        <time>2011-11-26T16:27:17Z</time>
      </trkpt>
      <trkpt lat="43.29162" lon="1.15385">
        <ele>140.456</ele>
        <time>2011-11-26T16:27:18Z</time>
      </trkpt>
      <trkpt lat="43.29163" lon="1.15398">
        <ele>141.036</ele>
        <time>2011-11-26T16:27:19Z</time>
      </trkpt>
      <trkpt lat="43.29163" lon="1.15412">
        <ele>141.481</ele>
        <time>2011-11-26T16:27:20Z</time>
      </trkpt>
      <trkpt lat="43.29162" lon="1.15426">
        <ele>141.702</ele>
        <time>2011-11-26T16:27:21Z</time>
      </trkpt>
      <trkpt lat="43.29161" lon="1.1544">
        <ele>141.789</ele>
        <time>2011-11-26T16:27:22Z</time>
      </trkpt>
      <trkpt lat="43.29161" lon="1.15453">
        <ele>141.459</ele>
        <time>2011-11-26T16:27:23Z</time>
      </trkpt>
      <trkpt lat="43.29162" lon="1.15467">
        <ele>141.323</ele>
        <time>2011-11-26T16:27:24Z</time>
      </trkpt>
      <trkpt lat="43.29162" lon="1.15467">
        <ele>141.2</ele>
        <time>2011-11-26T16:27:24Z</time>
      </trkpt>
      <trkpt lat="43.29165" lon="1.15493">
        <ele>141.019</ele>
        <time>2011-11-26T16:27:26Z</time>
      </trkpt>
      <trkpt lat="43.2917" lon="1.1552">
        <ele>140.839</ele>
        <time>2011-11-26T16:27:28Z</time>
      </trkpt>
      <trkpt lat="43.29172" lon="1.15534">
        <ele>140.572</ele>
        <time>2011-11-26T16:27:29Z</time>
      </trkpt>
      <trkpt lat="43.29174" lon="1.15548">
        <ele>140.369</ele>
        <time>2011-11-26T16:27:30Z</time>
      </trkpt>
      <trkpt lat="43.29175" lon="1.15562">
        <ele>140.628</ele>
        <time>2011-11-26T16:27:31Z</time>
      </trkpt>
      <trkpt lat="43.29175" lon="1.15577">
        <ele>141.006</ele>
        <time>2011-11-26T16:27:32Z</time>
      </trkpt>
      <trkpt lat="43.29177" lon="1.15591">
        <ele>141.663</ele>
        <time>2011-11-26T16:27:33Z</time>
      </trkpt>
      <trkpt lat="43.29179" lon="1.15605">
        <ele>142.608</ele>
        <time>2011-11-26T16:27:34Z</time>
      </trkpt>
      <trkpt lat="43.2918" lon="1.15619">
        <ele>143.359</ele>
        <time>2011-11-26T16:27:35Z</time>
      </trkpt>
      <trkpt lat="43.29182" lon="1.15633">
        <ele>144.009</ele>
        <time>2011-11-26T16:27:36Z</time>
      </trkpt>
      <trkpt lat="43.29182" lon="1.15647">
        <ele>144.384</ele>
        <time>2011-11-26T16:27:37Z</time>
      </trkpt>
      <trkpt lat="43.29183" lon="1.15661">
        <ele>144.849</ele>
        <time>2011-11-26T16:27:38Z</time>
      </trkpt>
      <trkpt lat="43.29184" lon="1.15676">
        <ele>145.208</ele>
        <time>2011-11-26T16:27:39Z</time>
      </trkpt>
      <trkpt lat="43.29185" lon="1.1569">
        <ele>145.636</ele>
        <time>2011-11-26T16:27:40Z</time>
      </trkpt>
      <trkpt lat="43.29185" lon="1.15704">
        <ele>146.62</ele>
        <time>2011-11-26T16:27:41Z</time>
      </trkpt>
      <trkpt lat="43.29185" lon="1.15745">
        <ele>149.314</ele>
        <time>2011-11-26T16:27:44Z</time>
      </trkpt>
      <trkpt lat="43.29186" lon="1.15758">
        <ele>150.072</ele>
        <time>2011-11-26T16:27:45Z</time>
      </trkpt>
      <trkpt lat="43.29189" lon="1.15771">
        <ele>149.969</ele>
        <time>2011-11-26T16:27:46Z</time>
      </trkpt>
      <trkpt lat="43.29194" lon="1.15784">
        <ele>149.992</ele>
        <time>2011-11-26T16:27:47Z</time>
      </trkpt>
      <trkpt lat="43.29198" lon="1.15796">
        <ele>150.59</ele>
        <time>2011-11-26T16:27:48Z</time>
      </trkpt>
      <trkpt lat="43.29203" lon="1.15807">
        <ele>151.382</ele>
        <time>2011-11-26T16:27:49Z</time>
      </trkpt>
      <trkpt lat="43.29212" lon="1.15829">
        <ele>152.774</ele>
        <time>2011-11-26T16:27:51Z</time>
      </trkpt>
      <trkpt lat="43.29212" lon="1.15829">
        <ele>153.319</ele>
        <time>2011-11-26T16:27:51Z</time>
      </trkpt>
      <trkpt lat="43.29228" lon="1.15843">
        <ele>153.696</ele>
        <time>2011-11-26T16:27:53Z</time>
      </trkpt>
      <trkpt lat="43.29235" lon="1.1585">
        <ele>154.298</ele>
        <time>2011-11-26T16:27:54Z</time>
      </trkpt>
      <trkpt lat="43.29243" lon="1.15855">
        <ele>155.511</ele>
        <time>2011-11-26T16:27:55Z</time>
      </trkpt>
      <trkpt lat="43.29251" lon="1.15859">
        <ele>156.324</ele>
        <time>2011-11-26T16:27:56Z</time>
      </trkpt>
      <trkpt lat="43.2926" lon="1.15861">
        <ele>157.113</ele>
        <time>2011-11-26T16:27:57Z</time>
      </trkpt>
      <trkpt lat="43.2927" lon="1.15861">
        <ele>157.921</ele>
        <time>2011-11-26T16:27:58Z</time>
      </trkpt>
      <trkpt lat="43.29279" lon="1.15862">
        <ele>159.531</ele>
        <time>2011-11-26T16:27:59Z</time>
      </trkpt>
      <trkpt lat="43.29288" lon="1.15862">
        <ele>162.154</ele>
        <time>2011-11-26T16:28:00Z</time>
      </trkpt>
      <trkpt lat="43.29297" lon="1.15862">
        <ele>164.483</ele>
        <time>2011-11-26T16:28:01Z</time>
      </trkpt>
      <trkpt lat="43.29306" lon="1.1586">
        <ele>165.65</ele>
        <time>2011-11-26T16:28:02Z</time>
      </trkpt>
      <trkpt lat="43.29316" lon="1.15857">
        <ele>166.949</ele>
        <time>2011-11-26T16:28:03Z</time>
      </trkpt>
      <trkpt lat="43.29326" lon="1.15853">
        <ele>168.278</ele>
        <time>2011-11-26T16:28:04Z</time>
      </trkpt>
      <trkpt lat="43.29337" lon="1.15849">
        <ele>169.893</ele>
        <time>2011-11-26T16:28:05Z</time>
      </trkpt>
      <trkpt lat="43.29346" lon="1.15844">
        <ele>172.107</ele>
        <time>2011-11-26T16:28:06Z</time>
      </trkpt>
      <trkpt lat="43.29364" lon="1.15834">
        <ele>173.596</ele>
        <time>2011-11-26T16:28:08Z</time>
      </trkpt>
      <trkpt lat="43.29374" lon="1.15829">
        <ele>174.459</ele>
        <time>2011-11-26T16:28:09Z</time>
      </trkpt>
      <trkpt lat="43.29384" lon="1.15824">
        <ele>174.361</ele>
        <time>2011-11-26T16:28:10Z</time>
      </trkpt>
      <trkpt lat="43.29394" lon="1.15819">
        <ele>173.982</ele>
        <time>2011-11-26T16:28:11Z</time>
      </trkpt>
      <trkpt lat="43.29405" lon="1.15814">
        <ele>173.902</ele>
        <time>2011-11-26T16:28:12Z</time>
      </trkpt>
      <trkpt lat="43.29415" lon="1.15808">
        <ele>174.234</ele>
        <time>2011-11-26T16:28:13Z</time>
      </trkpt>
      <trkpt lat="43.29425" lon="1.15802">
        <ele>174.868</ele>
        <time>2011-11-26T16:28:14Z</time>
      </trkpt>
      <trkpt lat="43.29434" lon="1.15797">
        <ele>175.724</ele>
        <time>2011-11-26T16:28:15Z</time>
      </trkpt>
      <trkpt lat="43.29444" lon="1.15793">
        <ele>176.583</ele>
        <time>2011-11-26T16:28:16Z</time>
      </trkpt>
      <trkpt lat="43.29454" lon="1.15789">
        <ele>176.906</ele>
        <time>2011-11-26T16:28:17Z</time>
      </trkpt>
      <trkpt lat="43.29464" lon="1.15784">
        <ele>176.931</ele>
        <time>2011-11-26T16:28:18Z</time>
      </trkpt>
      <trkpt lat="43.29474" lon="1.15778">
        <ele>176.973</ele>
        <time>2011-11-26T16:28:19Z</time>
      </trkpt>
      <trkpt lat="43.29484" lon="1.15771">
        <ele>177.137</ele>
        <time>2011-11-26T16:28:20Z</time>
      </trkpt>
      <trkpt lat="43.29494" lon="1.15765">
        <ele>178.11</ele>
        <time>2011-11-26T16:28:21Z</time>
      </trkpt>
      <trkpt lat="43.29514" lon="1.15754">
        <ele>179.726</ele>
        <time>2011-11-26T16:28:23Z</time>
      </trkpt>
      <trkpt lat="43.29522" lon="1.15747">
        <ele>181.197</ele>
        <time>2011-11-26T16:28:24Z</time>
      </trkpt>
      <trkpt lat="43.2953" lon="1.1574">
        <ele>182.76</ele>
        <time>2011-11-26T16:28:25Z</time>
      </trkpt>
      <trkpt lat="43.29539" lon="1.15734">
        <ele>183.462</ele>
        <time>2011-11-26T16:28:26Z</time>
      </trkpt>
      <trkpt lat="43.29548" lon="1.15728">
        <ele>183.788</ele>
        <time>2011-11-26T16:28:27Z</time>
      </trkpt>
      <trkpt lat="43.29557" lon="1.15723">
        <ele>183.735</ele>
        <time>2011-11-26T16:28:28Z</time>
      </trkpt>
      <trkpt lat="43.29567" lon="1.15717">
        <ele>183.748</ele>
        <time>2011-11-26T16:28:29Z</time>
      </trkpt>
      <trkpt lat="43.29577" lon="1.15711">
        <ele>183.981</ele>
        <time>2011-11-26T16:28:30Z</time>
      </trkpt>
      <trkpt lat="43.29577" lon="1.15711">
        <ele>184.267</ele>
        <time>2011-11-26T16:28:30Z</time>
      </trkpt>
      <trkpt lat="43.29597" lon="1.157">
        <ele>184.895</ele>
        <time>2011-11-26T16:28:32Z</time>
      </trkpt>
      <trkpt lat="43.29607" lon="1.15695">
        <ele>185.628</ele>
        <time>2011-11-26T16:28:33Z</time>
      </trkpt>
      <trkpt lat="43.29617" lon="1.1569">
        <ele>186.301</ele>
        <time>2011-11-26T16:28:34Z</time>
      </trkpt>
      <trkpt lat="43.29627" lon="1.15685">
        <ele>186.872</ele>
        <time>2011-11-26T16:28:35Z</time>
      </trkpt>
      <trkpt lat="43.29636" lon="1.15679">
        <ele>187.793</ele>
        <time>2011-11-26T16:28:36Z</time>
      </trkpt>
      <trkpt lat="43.29656" lon="1.15669">
        <ele>188.755</ele>
        <time>2011-11-26T16:28:38Z</time>
      </trkpt>
      <trkpt lat="43.29665" lon="1.15665">
        <ele>189.76</ele>
        <time>2011-11-26T16:28:39Z</time>
      </trkpt>
      <trkpt lat="43.29675" lon="1.15661">
        <ele>190.685</ele>
        <time>2011-11-26T16:28:40Z</time>
      </trkpt>
      <trkpt lat="43.29685" lon="1.15657">
        <ele>191.381</ele>
        <time>2011-11-26T16:28:41Z</time>
      </trkpt>
      <trkpt lat="43.29695" lon="1.15654">
        <ele>192.158</ele>
        <time>2011-11-26T16:28:42Z</time>
      </trkpt>
      <trkpt lat="43.29705" lon="1.1565">
        <ele>192.774</ele>
        <time>2011-11-26T16:28:43Z</time>
      </trkpt>
      <trkpt lat="43.29715" lon="1.15646">
        <ele>193.837</ele>
        <time>2011-11-26T16:28:44Z</time>
      </trkpt>
      <trkpt lat="43.29726" lon="1.15643">
        <ele>195.116</ele>
        <time>2011-11-26T16:28:45Z</time>
      </trkpt>
      <trkpt lat="43.29736" lon="1.15641">
        <ele>196.534</ele>
        <time>2011-11-26T16:28:46Z</time>
      </trkpt>
      <trkpt lat="43.29745" lon="1.15639">
        <ele>197.857</ele>
        <time>2011-11-26T16:28:47Z</time>
      </trkpt>
      <trkpt lat="43.29755" lon="1.15636">
        <ele>198.851</ele>
        <time>2011-11-26T16:28:48Z</time>
      </trkpt>
      <trkpt lat="43.29765" lon="1.15634">
        <ele>199.768</ele>
        <time>2011-11-26T16:28:49Z</time>
      </trkpt>
      <trkpt lat="43.29775" lon="1.15632">
        <ele>200.706</ele>
        <time>2011-11-26T16:28:50Z</time>
      </trkpt>
      <trkpt lat="43.29784" lon="1.1563">
        <ele>201.871</ele>
        <time>2011-11-26T16:28:51Z</time>
      </trkpt>
      <trkpt lat="43.29802" lon="1.15628">
        <ele>203.318</ele>
        <time>2011-11-26T16:28:53Z</time>
      </trkpt>
      <trkpt lat="43.29811" lon="1.15628">
        <ele>204.617</ele>
        <time>2011-11-26T16:28:54Z</time>
      </trkpt>
      <trkpt lat="43.29819" lon="1.15629">
        <ele>205.327</ele>
        <time>2011-11-26T16:28:55Z</time>
      </trkpt>
      <trkpt lat="43.29827" lon="1.15632">
        <ele>205.595</ele>
        <time>2011-11-26T16:28:56Z</time>
      </trkpt>
      <trkpt lat="43.29836" lon="1.15635">
        <ele>205.357</ele>
        <time>2011-11-26T16:28:57Z</time>
      </trkpt>
      <trkpt lat="43.29845" lon="1.15638">
        <ele>204.954</ele>
        <time>2011-11-26T16:28:58Z</time>
      </trkpt>
      <trkpt lat="43.29854" lon="1.1564">
        <ele>204.883</ele>
        <time>2011-11-26T16:28:59Z</time>
      </trkpt>
      <trkpt lat="43.29863" lon="1.15642">
        <ele>205.622</ele>
        <time>2011-11-26T16:29:00Z</time>
      </trkpt>
      <trkpt lat="43.29879" lon="1.15644">
        <ele>208.194</ele>
        <time>2011-11-26T16:29:02Z</time>
      </trkpt>
      <trkpt lat="43.29888" lon="1.15646">
        <ele>209.747</ele>
        <time>2011-11-26T16:29:03Z</time>
      </trkpt>
      <trkpt lat="43.29896" lon="1.15649">
        <ele>210.988</ele>
        <time>2011-11-26T16:29:04Z</time>
      </trkpt>
      <trkpt lat="43.29904" lon="1.15651">
        <ele>211.492</ele>
        <time>2011-11-26T16:29:05Z</time>
      </trkpt>
      <trkpt lat="43.29913" lon="1.15654">
        <ele>211.636</ele>
        <time>2011-11-26T16:29:06Z</time>
      </trkpt>
      <trkpt lat="43.29922" lon="1.15656">
        <ele>211.788</ele>
        <time>2011-11-26T16:29:07Z</time>
      </trkpt>
      <trkpt lat="43.29932" lon="1.15658">
        <ele>212.201</ele>
        <time>2011-11-26T16:29:08Z</time>
      </trkpt>
      <trkpt lat="43.29941" lon="1.15659">
        <ele>213.138</ele>
        <time>2011-11-26T16:29:09Z</time>
      </trkpt>
      <trkpt lat="43.29949" lon="1.15661">
        <ele>214.709</ele>
        <time>2011-11-26T16:29:10Z</time>
      </trkpt>
      <trkpt lat="43.29958" lon="1.15661">
        <ele>216.765</ele>
        <time>2011-11-26T16:29:11Z</time>
      </trkpt>
      <trkpt lat="43.29966" lon="1.15661">
        <ele>218.278</ele>
        <time>2011-11-26T16:29:12Z</time>
      </trkpt>
      <trkpt lat="43.29974" lon="1.1566">
        <ele>219.461</ele>
        <time>2011-11-26T16:29:13Z</time>
      </trkpt>
      <trkpt lat="43.2999" lon="1.15661">
        <ele>220.35</ele>
        <time>2011-11-26T16:29:15Z</time>
      </trkpt>
      <trkpt lat="43.29999" lon="1.15662">
        <ele>221.035</ele>
        <time>2011-11-26T16:29:16Z</time>
      </trkpt>
      <trkpt lat="43.29999" lon="1.15662">
        <ele>221.364</ele>
        <time>2011-11-26T16:29:16Z</time>
      </trkpt>
      <trkpt lat="43.30017" lon="1.15666">
        <ele>221.623</ele>
        <time>2011-11-26T16:29:18Z</time>
      </trkpt>
      <trkpt lat="43.30025" lon="1.15668">
        <ele>222.073</ele>
        <time>2011-11-26T16:29:19Z</time>
      </trkpt>
      <trkpt lat="43.30034" lon="1.15672">
        <ele>222.854</ele>
        <time>2011-11-26T16:29:20Z</time>
      </trkpt>
      <trkpt lat="43.30041" lon="1.15677">
        <ele>223.299</ele>
        <time>2011-11-26T16:29:21Z</time>
      </trkpt>
      <trkpt lat="43.30049" lon="1.15683">
        <ele>223.322</ele>
        <time>2011-11-26T16:29:22Z</time>
      </trkpt>
      <trkpt lat="43.30057" lon="1.1569">
        <ele>223.013</ele>
        <time>2011-11-26T16:29:23Z</time>
      </trkpt>
      <trkpt lat="43.30066" lon="1.15696">
        <ele>222.775</ele>
        <time>2011-11-26T16:29:24Z</time>
      </trkpt>
      <trkpt lat="43.30066" lon="1.15696">
        <ele>222.744</ele>
        <time>2011-11-26T16:29:24Z</time>
      </trkpt>
      <trkpt lat="43.30083" lon="1.1571">
        <ele>222.993</ele>
        <time>2011-11-26T16:29:26Z</time>
      </trkpt>
      <trkpt lat="43.30092" lon="1.15718">
        <ele>223.164</ele>
        <time>2011-11-26T16:29:27Z</time>
      </trkpt>
      <trkpt lat="43.30092" lon="1.15718">
        <ele>223.2</ele>
        <time>2011-11-26T16:29:27Z</time>
      </trkpt>
      <trkpt lat="43.3011" lon="1.15731">
        <ele>223.55</ele>
        <time>2011-11-26T16:29:29Z</time>
      </trkpt>
      <trkpt lat="43.3013" lon="1.15743">
        <ele>224.573</ele>
        <time>2011-11-26T16:29:31Z</time>
      </trkpt>
      <trkpt lat="43.3013" lon="1.15743">
        <ele>226.431</ele>
        <time>2011-11-26T16:29:31Z</time>
      </trkpt>
      <trkpt lat="43.30149" lon="1.15757">
        <ele>228.046</ele>
        <time>2011-11-26T16:29:33Z</time>
      </trkpt>
      <trkpt lat="43.30157" lon="1.15764">
        <ele>230.039</ele>
        <time>2011-11-26T16:29:34Z</time>
      </trkpt>
      <trkpt lat="43.30166" lon="1.1577">
        <ele>232.135</ele>
        <time>2011-11-26T16:29:35Z</time>
      </trkpt>
      <trkpt lat="43.30174" lon="1.15776">
        <ele>233.625</ele>
        <time>2011-11-26T16:29:36Z</time>
      </trkpt>
      <trkpt lat="43.30183" lon="1.15783">
        <ele>234.736</ele>
        <time>2011-11-26T16:29:37Z</time>
      </trkpt>
      <trkpt lat="43.30191" lon="1.1579">
        <ele>235.575</ele>
        <time>2011-11-26T16:29:38Z</time>
      </trkpt>
      <trkpt lat="43.30199" lon="1.15798">
        <ele>236.429</ele>
        <time>2011-11-26T16:29:39Z</time>
      </trkpt>
      <trkpt lat="43.30207" lon="1.15806">
        <ele>237.173</ele>
        <time>2011-11-26T16:29:40Z</time>
      </trkpt>
      <trkpt lat="43.30215" lon="1.15813">
        <ele>237.749</ele>
        <time>2011-11-26T16:29:41Z</time>
      </trkpt>
      <trkpt lat="43.30223" lon="1.1582">
        <ele>238.16</ele>
        <time>2011-11-26T16:29:42Z</time>
      </trkpt>
      <trkpt lat="43.30231" lon="1.15828">
        <ele>238.836</ele>
        <time>2011-11-26T16:29:43Z</time>
      </trkpt>
      <trkpt lat="43.30238" lon="1.15837">
        <ele>239.853</ele>
        <time>2011-11-26T16:29:44Z</time>
      </trkpt>
      <trkpt lat="43.30245" lon="1.15846">
        <ele>241.653</ele>
        <time>2011-11-26T16:29:45Z</time>
      </trkpt>
      <trkpt lat="43.30252" lon="1.15855">
        <ele>243.488</ele>
        <time>2011-11-26T16:29:46Z</time>
      </trkpt>
      <trkpt lat="43.30266" lon="1.15872">
        <ele>244.811</ele>
        <time>2011-11-26T16:29:48Z</time>
      </trkpt>
      <trkpt lat="43.30272" lon="1.15881">
        <ele>245.593</ele>
        <time>2011-11-26T16:29:49Z</time>
      </trkpt>
      <trkpt lat="43.30278" lon="1.15891">
        <ele>245.194</ele>
        <time>2011-11-26T16:29:50Z</time>
      </trkpt>
      <trkpt lat="43.30285" lon="1.15901">
        <ele>244.88</ele>
        <time>2011-11-26T16:29:51Z</time>
      </trkpt>
      <trkpt lat="43.30292" lon="1.15911">
        <ele>245.244</ele>
        <time>2011-11-26T16:29:52Z</time>
      </trkpt>
      <trkpt lat="43.30298" lon="1.15921">
        <ele>246.16</ele>
        <time>2011-11-26T16:29:53Z</time>
      </trkpt>
      <trkpt lat="43.30304" lon="1.1593">
        <ele>247.138</ele>
        <time>2011-11-26T16:29:54Z</time>
      </trkpt>
      <trkpt lat="43.30311" lon="1.15939">
        <ele>247.374</ele>
        <time>2011-11-26T16:29:55Z</time>
      </trkpt>
      <trkpt lat="43.30317" lon="1.15948">
        <ele>246.925</ele>
        <time>2011-11-26T16:29:56Z</time>
      </trkpt>
      <trkpt lat="43.30323" lon="1.15957">
        <ele>246.442</ele>
        <time>2011-11-26T16:29:57Z</time>
      </trkpt>
      <trkpt lat="43.3033" lon="1.15967">
        <ele>245.379</ele>
        <time>2011-11-26T16:29:58Z</time>
      </trkpt>
      <trkpt lat="43.30338" lon="1.15976">
        <ele>243.311</ele>
        <time>2011-11-26T16:29:59Z</time>
      </trkpt>
      <trkpt lat="43.30346" lon="1.15985">
        <ele>241.694</ele>
        <time>2011-11-26T16:30:00Z</time>
      </trkpt>
      <trkpt lat="43.30354" lon="1.15994">
        <ele>240.46</ele>
        <time>2011-11-26T16:30:01Z</time>
      </trkpt>
      <trkpt lat="43.30369" lon="1.16012">
        <ele>239.713</ele>
        <time>2011-11-26T16:30:03Z</time>
      </trkpt>
      <trkpt lat="43.30376" lon="1.16021">
        <ele>239.377</ele>
        <time>2011-11-26T16:30:04Z</time>
      </trkpt>
      <trkpt lat="43.30384" lon="1.16029">
        <ele>239.219</ele>
        <time>2011-11-26T16:30:05Z</time>
      </trkpt>
      <trkpt lat="43.30391" lon="1.16036">
        <ele>238.687</ele>
        <time>2011-11-26T16:30:06Z</time>
      </trkpt>
      <trkpt lat="43.30399" lon="1.16044">
        <ele>238.123</ele>
        <time>2011-11-26T16:30:07Z</time>
      </trkpt>
      <trkpt lat="43.30407" lon="1.16051">
        <ele>237.315</ele>
        <time>2011-11-26T16:30:08Z</time>
      </trkpt>
      <trkpt lat="43.30415" lon="1.16059">
        <ele>236.339</ele>
        <time>2011-11-26T16:30:09Z</time>
      </trkpt>
      <trkpt lat="43.30424" lon="1.16066">
        <ele>235.779</ele>
        <time>2011-11-26T16:30:10Z</time>
      </trkpt>
      <trkpt lat="43.30432" lon="1.16073">
        <ele>235.631</ele>
        <time>2011-11-26T16:30:11Z</time>
      </trkpt>
      <trkpt lat="43.30441" lon="1.1608">
        <ele>236.16</ele>
        <time>2011-11-26T16:30:12Z</time>
      </trkpt>
      <trkpt lat="43.3045" lon="1.16087">
        <ele>237.059</ele>
        <time>2011-11-26T16:30:13Z</time>
      </trkpt>
      <trkpt lat="43.30458" lon="1.16093">
        <ele>238.631</ele>
        <time>2011-11-26T16:30:14Z</time>
      </trkpt>
      <trkpt lat="43.30466" lon="1.16099">
        <ele>239.818</ele>
        <time>2011-11-26T16:30:15Z</time>
      </trkpt>
      <trkpt lat="43.30466" lon="1.16099">
        <ele>240.86</ele>
        <time>2011-11-26T16:30:15Z</time>
      </trkpt>
      <trkpt lat="43.30483" lon="1.16111">
        <ele>241.416</ele>
        <time>2011-11-26T16:30:17Z</time>
      </trkpt>
      <trkpt lat="43.30501" lon="1.16124">
        <ele>241.82</ele>
        <time>2011-11-26T16:30:19Z</time>
      </trkpt>
      <trkpt lat="43.30509" lon="1.16131">
        <ele>242.602</ele>
        <time>2011-11-26T16:30:20Z</time>
      </trkpt>
      <trkpt lat="43.30518" lon="1.16137">
        <ele>243.884</ele>
        <time>2011-11-26T16:30:21Z</time>
      </trkpt>
      <trkpt lat="43.30526" lon="1.16142">
        <ele>245.562</ele>
        <time>2011-11-26T16:30:22Z</time>
      </trkpt>
      <trkpt lat="43.30534" lon="1.16146">
        <ele>247.196</ele>
        <time>2011-11-26T16:30:23Z</time>
      </trkpt>
      <trkpt lat="43.30543" lon="1.16151">
        <ele>248.091</ele>
        <time>2011-11-26T16:30:24Z</time>
      </trkpt>
      <trkpt lat="43.30552" lon="1.16155">
        <ele>248.521</ele>
        <time>2011-11-26T16:30:25Z</time>
      </trkpt>
      <trkpt lat="43.30561" lon="1.1616">
        <ele>248.661</ele>
        <time>2011-11-26T16:30:26Z</time>
      </trkpt>
      <trkpt lat="43.3057" lon="1.16166">
        <ele>248.965</ele>
        <time>2011-11-26T16:30:27Z</time>
      </trkpt>
      <trkpt lat="43.30579" lon="1.16173">
        <ele>249.028</ele>
        <time>2011-11-26T16:30:28Z</time>
      </trkpt>
      <trkpt lat="43.30587" lon="1.1618">
        <ele>248.702</ele>
        <time>2011-11-26T16:30:29Z</time>
      </trkpt>
      <trkpt lat="43.30595" lon="1.16189">
        <ele>248.56</ele>
        <time>2011-11-26T16:30:30Z</time>
      </trkpt>
      <trkpt lat="43.30602" lon="1.16199">
        <ele>248.702</ele>
        <time>2011-11-26T16:30:31Z</time>
      </trkpt>
      <trkpt lat="43.30609" lon="1.16209">
        <ele>248.951</ele>
        <time>2011-11-26T16:30:32Z</time>
      </trkpt>
      <trkpt lat="43.30615" lon="1.1622">
        <ele>249.073</ele>
        <time>2011-11-26T16:30:33Z</time>
      </trkpt>
      <trkpt lat="43.30626" lon="1.16243">
        <ele>248.943</ele>
        <time>2011-11-26T16:30:35Z</time>
      </trkpt>
      <trkpt lat="43.30633" lon="1.16254">
        <ele>248.808</ele>
        <time>2011-11-26T16:30:36Z</time>
      </trkpt>
      <trkpt lat="43.30633" lon="1.16254">
        <ele>248.827</ele>
        <time>2011-11-26T16:30:36Z</time>
      </trkpt>
      <trkpt lat="43.30646" lon="1.16277">
        <ele>248.827</ele>
        <time>2011-11-26T16:30:38Z</time>
      </trkpt>
      <trkpt lat="43.30653" lon="1.16289">
        <ele>248.818</ele>
        <time>2011-11-26T16:30:39Z</time>
      </trkpt>
      <trkpt lat="43.3066" lon="1.163">
        <ele>249.196</ele>
        <time>2011-11-26T16:30:40Z</time>
      </trkpt>
      <trkpt lat="43.30667" lon="1.16311">
        <ele>249.806</ele>
        <time>2011-11-26T16:30:41Z</time>
      </trkpt>
      <trkpt lat="43.30674" lon="1.16322">
        <ele>250.702</ele>
        <time>2011-11-26T16:30:42Z</time>
      </trkpt>
      <trkpt lat="43.30681" lon="1.16333">
        <ele>251.945</ele>
        <time>2011-11-26T16:30:43Z</time>
      </trkpt>
      <trkpt lat="43.30688" lon="1.16343">
        <ele>252.969</ele>
        <time>2011-11-26T16:30:44Z</time>
      </trkpt>
      <trkpt lat="43.30695" lon="1.16353">
        <ele>254.153</ele>
        <time>2011-11-26T16:30:45Z</time>
      </trkpt>
      <trkpt lat="43.30701" lon="1.16363">
        <ele>254.873</ele>
        <time>2011-11-26T16:30:46Z</time>
      </trkpt>
      <trkpt lat="43.30707" lon="1.16373">
        <ele>254.808</ele>
        <time>2011-11-26T16:30:47Z</time>
      </trkpt>
      <trkpt lat="43.30713" lon="1.16382">
        <ele>253.709</ele>
        <time>2011-11-26T16:30:48Z</time>
      </trkpt>
      <trkpt lat="43.30726" lon="1.16402">
        <ele>252.026</ele>
        <time>2011-11-26T16:30:50Z</time>
      </trkpt>
      <trkpt lat="43.30733" lon="1.16412">
        <ele>250.517</ele>
        <time>2011-11-26T16:30:51Z</time>
      </trkpt>
      <trkpt lat="43.30733" lon="1.16412">
        <ele>249.122</ele>
        <time>2011-11-26T16:30:51Z</time>
      </trkpt>
      <trkpt lat="43.30748" lon="1.1643">
        <ele>248.148</ele>
        <time>2011-11-26T16:30:53Z</time>
      </trkpt>
      <trkpt lat="43.30755" lon="1.16439">
        <ele>247.802</ele>
        <time>2011-11-26T16:30:54Z</time>
      </trkpt>
      <trkpt lat="43.30762" lon="1.16447">
        <ele>247.264</ele>
        <time>2011-11-26T16:30:55Z</time>
      </trkpt>
      <trkpt lat="43.3077" lon="1.16455">
        <ele>246.665</ele>
        <time>2011-11-26T16:30:56Z</time>
      </trkpt>
      <trkpt lat="43.30777" lon="1.16464">
        <ele>245.811</ele>
        <time>2011-11-26T16:30:57Z</time>
      </trkpt>
      <trkpt lat="43.30785" lon="1.16472">
        <ele>245.001</ele>
        <time>2011-11-26T16:30:58Z</time>
      </trkpt>
      <trkpt lat="43.30792" lon="1.16481">
        <ele>244.669</ele>
        <time>2011-11-26T16:30:59Z</time>
      </trkpt>
      <trkpt lat="43.308" lon="1.16489">
        <ele>244.564</ele>
        <time>2011-11-26T16:31:00Z</time>
      </trkpt>
      <trkpt lat="43.30808" lon="1.16497">
        <ele>244.484</ele>
        <time>2011-11-26T16:31:01Z</time>
      </trkpt>
      <trkpt lat="43.30815" lon="1.16505">
        <ele>244.084</ele>
        <time>2011-11-26T16:31:02Z</time>
      </trkpt>
      <trkpt lat="43.30823" lon="1.16513">
        <ele>243.462</ele>
        <time>2011-11-26T16:31:03Z</time>
      </trkpt>
      <trkpt lat="43.30831" lon="1.16521">
        <ele>242.789</ele>
        <time>2011-11-26T16:31:04Z</time>
      </trkpt>
      <trkpt lat="43.30847" lon="1.16538">
        <ele>242.111</ele>
        <time>2011-11-26T16:31:06Z</time>
      </trkpt>
      <trkpt lat="43.30847" lon="1.16538">
        <ele>241.458</ele>
        <time>2011-11-26T16:31:06Z</time>
      </trkpt>
      <trkpt lat="43.30863" lon="1.16554">
        <ele>241.025</ele>
        <time>2011-11-26T16:31:08Z</time>
      </trkpt>
      <trkpt lat="43.30871" lon="1.16562">
        <ele>240.221</ele>
        <time>2011-11-26T16:31:09Z</time>
      </trkpt>
      <trkpt lat="43.30879" lon="1.1657">
        <ele>239.521</ele>
        <time>2011-11-26T16:31:10Z</time>
      </trkpt>
      <trkpt lat="43.30888" lon="1.16577">
        <ele>239.001</ele>
        <time>2011-11-26T16:31:11Z</time>
      </trkpt>
      <trkpt lat="43.30896" lon="1.16586">
        <ele>238.544</ele>
        <time>2011-11-26T16:31:12Z</time>
      </trkpt>
      <trkpt lat="43.30904" lon="1.16594">
        <ele>238.288</ele>
        <time>2011-11-26T16:31:13Z</time>
      </trkpt>
      <trkpt lat="43.30912" lon="1.16601">
        <ele>238.157</ele>
        <time>2011-11-26T16:31:14Z</time>
      </trkpt>
      <trkpt lat="43.3092" lon="1.16609">
        <ele>237.916</ele>
        <time>2011-11-26T16:31:15Z</time>
      </trkpt>
      <trkpt lat="43.30928" lon="1.16617">
        <ele>237.44</ele>
        <time>2011-11-26T16:31:16Z</time>
      </trkpt>
      <trkpt lat="43.30936" lon="1.16624">
        <ele>236.702</ele>
        <time>2011-11-26T16:31:17Z</time>
      </trkpt>
      <trkpt lat="43.30944" lon="1.16633">
        <ele>236.013</ele>
        <time>2011-11-26T16:31:18Z</time>
      </trkpt>
      <trkpt lat="43.30953" lon="1.16641">
        <ele>235.558</ele>
        <time>2011-11-26T16:31:19Z</time>
      </trkpt>
      <trkpt lat="43.3097" lon="1.16657">
        <ele>235.869</ele>
        <time>2011-11-26T16:31:21Z</time>
      </trkpt>
      <trkpt lat="43.3097" lon="1.16657">
        <ele>236.772</ele>
        <time>2011-11-26T16:31:21Z</time>
      </trkpt>
      <trkpt lat="43.30988" lon="1.16671">
        <ele>237.513</ele>
        <time>2011-11-26T16:31:23Z</time>
      </trkpt>
      <trkpt lat="43.30996" lon="1.16677">
        <ele>238.421</ele>
        <time>2011-11-26T16:31:24Z</time>
      </trkpt>
      <trkpt lat="43.31004" lon="1.16684">
        <ele>238.273</ele>
        <time>2011-11-26T16:31:25Z</time>
      </trkpt>
      <trkpt lat="43.31012" lon="1.16692">
        <ele>237.636</ele>
        <time>2011-11-26T16:31:26Z</time>
      </trkpt>
      <trkpt lat="43.31021" lon="1.16699">
        <ele>237.015</ele>
        <time>2011-11-26T16:31:27Z</time>
      </trkpt>
      <trkpt lat="43.3103" lon="1.16705">
        <ele>236.343</ele>
        <time>2011-11-26T16:31:28Z</time>
      </trkpt>
      <trkpt lat="43.31039" lon="1.16712">
        <ele>235.643</ele>
        <time>2011-11-26T16:31:29Z</time>
      </trkpt>
      <trkpt lat="43.31048" lon="1.16719">
        <ele>235.024</ele>
        <time>2011-11-26T16:31:30Z</time>
      </trkpt>
      <trkpt lat="43.31056" lon="1.16727">
        <ele>234.704</ele>
        <time>2011-11-26T16:31:31Z</time>
      </trkpt>
      <trkpt lat="43.31064" lon="1.16735">
        <ele>234.602</ele>
        <time>2011-11-26T16:31:32Z</time>
      </trkpt>
      <trkpt lat="43.31071" lon="1.16744">
        <ele>234.736</ele>
        <time>2011-11-26T16:31:33Z</time>
      </trkpt>
      <trkpt lat="43.31078" lon="1.16753">
        <ele>234.934</ele>
        <time>2011-11-26T16:31:34Z</time>
      </trkpt>
      <trkpt lat="43.31085" lon="1.16762">
        <ele>234.946</ele>
        <time>2011-11-26T16:31:35Z</time>
      </trkpt>
      <trkpt lat="43.31091" lon="1.16771">
        <ele>234.448</ele>
        <time>2011-11-26T16:31:36Z</time>
      </trkpt>
      <trkpt lat="43.31103" lon="1.1679">
        <ele>233.526</ele>
        <time>2011-11-26T16:31:38Z</time>
      </trkpt>
      <trkpt lat="43.3111" lon="1.16801">
        <ele>232.048</ele>
        <time>2011-11-26T16:31:39Z</time>
      </trkpt>
      <trkpt lat="43.31116" lon="1.16812">
        <ele>230.42</ele>
        <time>2011-11-26T16:31:40Z</time>
      </trkpt>
      <trkpt lat="43.31123" lon="1.16822">
        <ele>229.204</ele>
        <time>2011-11-26T16:31:41Z</time>
      </trkpt>
      <trkpt lat="43.31129" lon="1.16832">
        <ele>228.719</ele>
        <time>2011-11-26T16:31:42Z</time>
      </trkpt>
      <trkpt lat="43.31135" lon="1.16842">
        <ele>228.147</ele>
        <time>2011-11-26T16:31:43Z</time>
      </trkpt>
      <trkpt lat="43.31141" lon="1.16853">
        <ele>227.534</ele>
        <time>2011-11-26T16:31:44Z</time>
      </trkpt>
      <trkpt lat="43.31146" lon="1.16863">
        <ele>226.563</ele>
        <time>2011-11-26T16:31:45Z</time>
      </trkpt>
      <trkpt lat="43.31152" lon="1.16874">
        <ele>225.919</ele>
        <time>2011-11-26T16:31:46Z</time>
      </trkpt>
      <trkpt lat="43.31157" lon="1.16885">
        <ele>225.415</ele>
        <time>2011-11-26T16:31:47Z</time>
      </trkpt>
      <trkpt lat="43.31163" lon="1.16895">
        <ele>225.065</ele>
        <time>2011-11-26T16:31:48Z</time>
      </trkpt>
      <trkpt lat="43.31169" lon="1.16906">
        <ele>224.299</ele>
        <time>2011-11-26T16:31:49Z</time>
      </trkpt>
      <trkpt lat="43.3118" lon="1.16928">
        <ele>223.218</ele>
        <time>2011-11-26T16:31:51Z</time>
      </trkpt>
      <trkpt lat="43.3118" lon="1.16928">
        <ele>222.295</ele>
        <time>2011-11-26T16:31:51Z</time>
      </trkpt>
      <trkpt lat="43.31191" lon="1.1695">
        <ele>221.025</ele>
        <time>2011-11-26T16:31:53Z</time>
      </trkpt>
      <trkpt lat="43.31197" lon="1.16962">
        <ele>220.147</ele>
        <time>2011-11-26T16:31:54Z</time>
      </trkpt>
      <trkpt lat="43.31203" lon="1.16972">
        <ele>219.413</ele>
        <time>2011-11-26T16:31:55Z</time>
      </trkpt>
      <trkpt lat="43.3121" lon="1.16983">
        <ele>219.061</ele>
        <time>2011-11-26T16:31:56Z</time>
      </trkpt>
      <trkpt lat="43.31216" lon="1.16993">
        <ele>218.633</ele>
        <time>2011-11-26T16:31:57Z</time>
      </trkpt>
      <trkpt lat="43.31222" lon="1.17004">
        <ele>218.107</ele>
        <time>2011-11-26T16:31:58Z</time>
      </trkpt>
      <trkpt lat="43.31229" lon="1.17014">
        <ele>217.549</ele>
        <time>2011-11-26T16:31:59Z</time>
      </trkpt>
      <trkpt lat="43.31236" lon="1.17024">
        <ele>216.839</ele>
        <time>2011-11-26T16:32:00Z</time>
      </trkpt>
      <trkpt lat="43.31243" lon="1.17033">
        <ele>216.51</ele>
        <time>2011-11-26T16:32:01Z</time>
      </trkpt>
      <trkpt lat="43.3125" lon="1.17042">
        <ele>216.336</ele>
        <time>2011-11-26T16:32:02Z</time>
      </trkpt>
      <trkpt lat="43.31257" lon="1.17051">
        <ele>216.148</ele>
        <time>2011-11-26T16:32:03Z</time>
      </trkpt>
      <trkpt lat="43.31264" lon="1.17059">
        <ele>216.191</ele>
        <time>2011-11-26T16:32:04Z</time>
      </trkpt>
      <trkpt lat="43.31264" lon="1.17059">
        <ele>216.424</ele>
        <time>2011-11-26T16:32:04Z</time>
      </trkpt>
      <trkpt lat="43.31278" lon="1.17075">
        <ele>216.141</ele>
        <time>2011-11-26T16:32:06Z</time>
      </trkpt>
      <trkpt lat="43.31293" lon="1.1709">
        <ele>215.358</ele>
        <time>2011-11-26T16:32:08Z</time>
      </trkpt>
      <trkpt lat="43.31301" lon="1.17099">
        <ele>214.17</ele>
        <time>2011-11-26T16:32:09Z</time>
      </trkpt>
      <trkpt lat="43.31309" lon="1.17107">
        <ele>213.391</ele>
        <time>2011-11-26T16:32:10Z</time>
      </trkpt>
      <trkpt lat="43.31316" lon="1.17116">
        <ele>212.42</ele>
        <time>2011-11-26T16:32:11Z</time>
      </trkpt>
      <trkpt lat="43.31323" lon="1.17124">
        <ele>211.343</ele>
        <time>2011-11-26T16:32:12Z</time>
      </trkpt>
      <trkpt lat="43.31331" lon="1.17133">
        <ele>210.48</ele>
        <time>2011-11-26T16:32:13Z</time>
      </trkpt>
      <trkpt lat="43.31339" lon="1.17141">
        <ele>209.368</ele>
        <time>2011-11-26T16:32:14Z</time>
      </trkpt>
      <trkpt lat="43.31346" lon="1.17149">
        <ele>208.348</ele>
        <time>2011-11-26T16:32:15Z</time>
      </trkpt>
      <trkpt lat="43.31354" lon="1.17158">
        <ele>207.56</ele>
        <time>2011-11-26T16:32:16Z</time>
      </trkpt>
      <trkpt lat="43.31362" lon="1.17167">
        <ele>206.815</ele>
        <time>2011-11-26T16:32:17Z</time>
      </trkpt>
      <trkpt lat="43.3137" lon="1.17176">
        <ele>206.323</ele>
        <time>2011-11-26T16:32:18Z</time>
      </trkpt>
      <trkpt lat="43.3137" lon="1.17176">
        <ele>206.047</ele>
        <time>2011-11-26T16:32:18Z</time>
      </trkpt>
      <trkpt lat="43.31385" lon="1.17192">
        <ele>205.512</ele>
        <time>2011-11-26T16:32:20Z</time>
      </trkpt>
      <trkpt lat="43.31393" lon="1.172">
        <ele>204.902</ele>
        <time>2011-11-26T16:32:21Z</time>
      </trkpt>
      <trkpt lat="43.3141" lon="1.17214">
        <ele>203.994</ele>
        <time>2011-11-26T16:32:23Z</time>
      </trkpt>
      <trkpt lat="43.31418" lon="1.17221">
        <ele>202.634</ele>
        <time>2011-11-26T16:32:24Z</time>
      </trkpt>
      <trkpt lat="43.31427" lon="1.17229">
        <ele>200.65</ele>
        <time>2011-11-26T16:32:25Z</time>
      </trkpt>
      <trkpt lat="43.31436" lon="1.17237">
        <ele>198.62</ele>
        <time>2011-11-26T16:32:26Z</time>
      </trkpt>
      <trkpt lat="43.31444" lon="1.17246">
        <ele>197.465</ele>
        <time>2011-11-26T16:32:27Z</time>
      </trkpt>
      <trkpt lat="43.31452" lon="1.17256">
        <ele>197.114</ele>
        <time>2011-11-26T16:32:28Z</time>
      </trkpt>
      <trkpt lat="43.31459" lon="1.17265">
        <ele>197.477</ele>
        <time>2011-11-26T16:32:29Z</time>
      </trkpt>
      <trkpt lat="43.31466" lon="1.17274">
        <ele>198.02</ele>
        <time>2011-11-26T16:32:30Z</time>
      </trkpt>
      <trkpt lat="43.31473" lon="1.17283">
        <ele>198.325</ele>
        <time>2011-11-26T16:32:31Z</time>
      </trkpt>
      <trkpt lat="43.31479" lon="1.17292">
        <ele>198.179</ele>
        <time>2011-11-26T16:32:32Z</time>
      </trkpt>
      <trkpt lat="43.31486" lon="1.173">
        <ele>197.513</ele>
        <time>2011-11-26T16:32:33Z</time>
      </trkpt>
      <trkpt lat="43.31493" lon="1.17309">
        <ele>196.576</ele>
        <time>2011-11-26T16:32:34Z</time>
      </trkpt>
      <trkpt lat="43.315" lon="1.17318">
        <ele>195.592</ele>
        <time>2011-11-26T16:32:35Z</time>
      </trkpt>
      <trkpt lat="43.31508" lon="1.17327">
        <ele>194.384</ele>
        <time>2011-11-26T16:32:36Z</time>
      </trkpt>
      <trkpt lat="43.31524" lon="1.17343">
        <ele>193.668</ele>
        <time>2011-11-26T16:32:38Z</time>
      </trkpt>
      <trkpt lat="43.31532" lon="1.17351">
        <ele>193.483</ele>
        <time>2011-11-26T16:32:39Z</time>
      </trkpt>
      <trkpt lat="43.3154" lon="1.17359">
        <ele>193.869</ele>
        <time>2011-11-26T16:32:40Z</time>
      </trkpt>
      <trkpt lat="43.31547" lon="1.17366">
        <ele>194.278</ele>
        <time>2011-11-26T16:32:41Z</time>
      </trkpt>
      <trkpt lat="43.31554" lon="1.17373">
        <ele>194.331</ele>
        <time>2011-11-26T16:32:42Z</time>
      </trkpt>
      <trkpt lat="43.31561" lon="1.17381">
        <ele>193.339</ele>
        <time>2011-11-26T16:32:43Z</time>
      </trkpt>
      <trkpt lat="43.31569" lon="1.17389">
        <ele>192.192</ele>
        <time>2011-11-26T16:32:44Z</time>
      </trkpt>
      <trkpt lat="43.31577" lon="1.17397">
        <ele>191.243</ele>
        <time>2011-11-26T16:32:45Z</time>
      </trkpt>
      <trkpt lat="43.31585" lon="1.17405">
        <ele>190.608</ele>
        <time>2011-11-26T16:32:46Z</time>
      </trkpt>
      <trkpt lat="43.31585" lon="1.17405">
        <ele>189.678</ele>
        <time>2011-11-26T16:32:46Z</time>
      </trkpt>
      <trkpt lat="43.31585" lon="1.17405">
        <ele>188.869</ele>
        <time>2011-11-26T16:32:46Z</time>
      </trkpt>
      <trkpt lat="43.31609" lon="1.17425">
        <ele>187.239</ele>
        <time>2011-11-26T16:32:49Z</time>
      </trkpt>
      <trkpt lat="43.31617" lon="1.17433">
        <ele>185.686</ele>
        <time>2011-11-26T16:32:50Z</time>
      </trkpt>
      <trkpt lat="43.31625" lon="1.17441">
        <ele>184.83</ele>
        <time>2011-11-26T16:32:51Z</time>
      </trkpt>
      <trkpt lat="43.31633" lon="1.17449">
        <ele>184.736</ele>
        <time>2011-11-26T16:32:52Z</time>
      </trkpt>
      <trkpt lat="43.31633" lon="1.17449">
        <ele>184.939</ele>
        <time>2011-11-26T16:32:52Z</time>
      </trkpt>
      <trkpt lat="43.31653" lon="1.17473">
        <ele>185.04</ele>
        <time>2011-11-26T16:32:55Z</time>
      </trkpt>
      <trkpt lat="43.3166" lon="1.17482">
        <ele>184.409</ele>
        <time>2011-11-26T16:32:56Z</time>
      </trkpt>
      <trkpt lat="43.3166" lon="1.17482">
        <ele>183.086</ele>
        <time>2011-11-26T16:32:56Z</time>
      </trkpt>
      <trkpt lat="43.31666" lon="1.17491">
        <ele>181.471</ele>
        <time>2011-11-26T16:32:57Z</time>
      </trkpt>
      <trkpt lat="43.31666" lon="1.17491">
        <ele>180.137</ele>
        <time>2011-11-26T16:32:57Z</time>
      </trkpt>
      <trkpt lat="43.31688" lon="1.1752">
        <ele>178.951</ele>
        <time>2011-11-26T16:33:00Z</time>
      </trkpt>
      <trkpt lat="43.31695" lon="1.17529">
        <ele>178.164</ele>
        <time>2011-11-26T16:33:01Z</time>
      </trkpt>
      <trkpt lat="43.31701" lon="1.17539">
        <ele>177.604</ele>
        <time>2011-11-26T16:33:02Z</time>
      </trkpt>
      <trkpt lat="43.31708" lon="1.17548">
        <ele>176.851</ele>
        <time>2011-11-26T16:33:03Z</time>
      </trkpt>
      <trkpt lat="43.31716" lon="1.17556">
        <ele>176.218</ele>
        <time>2011-11-26T16:33:04Z</time>
      </trkpt>
      <trkpt lat="43.31716" lon="1.17556">
        <ele>175.462</ele>
        <time>2011-11-26T16:33:04Z</time>
      </trkpt>
      <trkpt lat="43.31729" lon="1.17575">
        <ele>174.749</ele>
        <time>2011-11-26T16:33:06Z</time>
      </trkpt>
      <trkpt lat="43.31736" lon="1.17585">
        <ele>174.316</ele>
        <time>2011-11-26T16:33:07Z</time>
      </trkpt>
      <trkpt lat="43.31742" lon="1.17595">
        <ele>174.106</ele>
        <time>2011-11-26T16:33:08Z</time>
      </trkpt>
      <trkpt lat="43.31753" lon="1.17615">
        <ele>174.063</ele>
        <time>2011-11-26T16:33:10Z</time>
      </trkpt>
      <trkpt lat="43.31759" lon="1.17625">
        <ele>173.983</ele>
        <time>2011-11-26T16:33:11Z</time>
      </trkpt>
      <trkpt lat="43.31759" lon="1.17625">
        <ele>173.898</ele>
        <time>2011-11-26T16:33:11Z</time>
      </trkpt>
      <trkpt lat="43.31769" lon="1.17648">
        <ele>173.912</ele>
        <time>2011-11-26T16:33:13Z</time>
      </trkpt>
      <trkpt lat="43.31769" lon="1.17648">
        <ele>173.927</ele>
        <time>2011-11-26T16:33:13Z</time>
      </trkpt>
      <trkpt lat="43.31779" lon="1.1767">
        <ele>173.989</ele>
        <time>2011-11-26T16:33:15Z</time>
      </trkpt>
      <trkpt lat="43.31784" lon="1.17682">
        <ele>174.125</ele>
        <time>2011-11-26T16:33:16Z</time>
      </trkpt>
      <trkpt lat="43.3179" lon="1.17693">
        <ele>174.259</ele>
        <time>2011-11-26T16:33:17Z</time>
      </trkpt>
      <trkpt lat="43.31795" lon="1.17704">
        <ele>174.589</ele>
        <time>2011-11-26T16:33:18Z</time>
      </trkpt>
      <trkpt lat="43.318" lon="1.17714">
        <ele>175.479</ele>
        <time>2011-11-26T16:33:19Z</time>
      </trkpt>
      <trkpt lat="43.318" lon="1.17714">
        <ele>176.571</ele>
        <time>2011-11-26T16:33:19Z</time>
      </trkpt>
      <trkpt lat="43.31811" lon="1.17735">
        <ele>177.463</ele>
        <time>2011-11-26T16:33:21Z</time>
      </trkpt>
      <trkpt lat="43.31811" lon="1.17735">
        <ele>178.504</ele>
        <time>2011-11-26T16:33:21Z</time>
      </trkpt>
      <trkpt lat="43.31821" lon="1.17756">
        <ele>179.162</ele>
        <time>2011-11-26T16:33:23Z</time>
      </trkpt>
      <trkpt lat="43.31832" lon="1.17777">
        <ele>179.281</ele>
        <time>2011-11-26T16:33:25Z</time>
      </trkpt>
      <trkpt lat="43.31838" lon="1.17788">
        <ele>179.658</ele>
        <time>2011-11-26T16:33:26Z</time>
      </trkpt>
      <trkpt lat="43.31838" lon="1.17788">
        <ele>180.315</ele>
        <time>2011-11-26T16:33:26Z</time>
      </trkpt>
      <trkpt lat="43.3185" lon="1.17809">
        <ele>180.324</ele>
        <time>2011-11-26T16:33:28Z</time>
      </trkpt>
      <trkpt lat="43.31856" lon="1.1782">
        <ele>180.036</ele>
        <time>2011-11-26T16:33:29Z</time>
      </trkpt>
      <trkpt lat="43.31863" lon="1.17831">
        <ele>179.995</ele>
        <time>2011-11-26T16:33:30Z</time>
      </trkpt>
      <trkpt lat="43.3187" lon="1.1784">
        <ele>180.231</ele>
        <time>2011-11-26T16:33:31Z</time>
      </trkpt>
      <trkpt lat="43.31876" lon="1.17849">
        <ele>180.444</ele>
        <time>2011-11-26T16:33:32Z</time>
      </trkpt>
      <trkpt lat="43.31876" lon="1.17849">
        <ele>180.015</ele>
        <time>2011-11-26T16:33:32Z</time>
      </trkpt>
      <trkpt lat="43.31889" lon="1.17866">
        <ele>178.635</ele>
        <time>2011-11-26T16:33:34Z</time>
      </trkpt>
      <trkpt lat="43.31889" lon="1.17866">
        <ele>177.23</ele>
        <time>2011-11-26T16:33:34Z</time>
      </trkpt>
      <trkpt lat="43.31905" lon="1.17884">
        <ele>175.846</ele>
        <time>2011-11-26T16:33:36Z</time>
      </trkpt>
      <trkpt lat="43.31914" lon="1.17893">
        <ele>174.866</ele>
        <time>2011-11-26T16:33:37Z</time>
      </trkpt>
      <trkpt lat="43.31922" lon="1.17902">
        <ele>174.142</ele>
        <time>2011-11-26T16:33:38Z</time>
      </trkpt>
      <trkpt lat="43.3193" lon="1.1791">
        <ele>173.679</ele>
        <time>2011-11-26T16:33:39Z</time>
      </trkpt>
      <trkpt lat="43.31946" lon="1.17924">
        <ele>173.133</ele>
        <time>2011-11-26T16:33:41Z</time>
      </trkpt>
      <trkpt lat="43.31946" lon="1.17924">
        <ele>172.388</ele>
        <time>2011-11-26T16:33:41Z</time>
      </trkpt>
      <trkpt lat="43.31963" lon="1.17936">
        <ele>171.885</ele>
        <time>2011-11-26T16:33:43Z</time>
      </trkpt>
      <trkpt lat="43.3197" lon="1.17941">
        <ele>172.064</ele>
        <time>2011-11-26T16:33:44Z</time>
      </trkpt>
      <trkpt lat="43.31978" lon="1.17947">
        <ele>172.595</ele>
        <time>2011-11-26T16:33:45Z</time>
      </trkpt>
      <trkpt lat="43.31986" lon="1.17952">
        <ele>172.935</ele>
        <time>2011-11-26T16:33:46Z</time>
      </trkpt>
      <trkpt lat="43.31986" lon="1.17952">
        <ele>173.585</ele>
        <time>2011-11-26T16:33:46Z</time>
      </trkpt>
      <trkpt lat="43.32002" lon="1.17962">
        <ele>174.542</ele>
        <time>2011-11-26T16:33:48Z</time>
      </trkpt>
      <trkpt lat="43.3201" lon="1.17966">
        <ele>175.489</ele>
        <time>2011-11-26T16:33:49Z</time>
      </trkpt>
      <trkpt lat="43.32018" lon="1.1797">
        <ele>175.769</ele>
        <time>2011-11-26T16:33:50Z</time>
      </trkpt>
      <trkpt lat="43.32025" lon="1.17975">
        <ele>175.572</ele>
        <time>2011-11-26T16:33:51Z</time>
      </trkpt>
      <trkpt lat="43.32032" lon="1.17981">
        <ele>174.695</ele>
        <time>2011-11-26T16:33:52Z</time>
      </trkpt>
      <trkpt lat="43.3204" lon="1.17988">
        <ele>173.14</ele>
        <time>2011-11-26T16:33:53Z</time>
      </trkpt>
      <trkpt lat="43.32047" lon="1.17995">
        <ele>170.956</ele>
        <time>2011-11-26T16:33:54Z</time>
      </trkpt>
      <trkpt lat="43.32055" lon="1.18002">
        <ele>169.349</ele>
        <time>2011-11-26T16:33:55Z</time>
      </trkpt>
      <trkpt lat="43.32063" lon="1.18011">
        <ele>167.781</ele>
        <time>2011-11-26T16:33:56Z</time>
      </trkpt>
      <trkpt lat="43.32075" lon="1.1803">
        <ele>166.333</ele>
        <time>2011-11-26T16:33:58Z</time>
      </trkpt>
      <trkpt lat="43.32082" lon="1.18039">
        <ele>164.6</ele>
        <time>2011-11-26T16:33:59Z</time>
      </trkpt>
      <trkpt lat="43.32089" lon="1.18048">
        <ele>162.694</ele>
        <time>2011-11-26T16:34:00Z</time>
      </trkpt>
      <trkpt lat="43.32096" lon="1.18057">
        <ele>161.171</ele>
        <time>2011-11-26T16:34:01Z</time>
      </trkpt>
      <trkpt lat="43.32104" lon="1.18066">
        <ele>159.719</ele>
        <time>2011-11-26T16:34:02Z</time>
      </trkpt>
      <trkpt lat="43.3211" lon="1.18075">
        <ele>158.352</ele>
        <time>2011-11-26T16:34:03Z</time>
      </trkpt>
      <trkpt lat="43.32117" lon="1.18085">
        <ele>157.234</ele>
        <time>2011-11-26T16:34:04Z</time>
      </trkpt>
      <trkpt lat="43.32124" lon="1.18094">
        <ele>156.012</ele>
        <time>2011-11-26T16:34:05Z</time>
      </trkpt>
      <trkpt lat="43.32132" lon="1.18104">
        <ele>154.15</ele>
        <time>2011-11-26T16:34:06Z</time>
      </trkpt>
      <trkpt lat="43.32139" lon="1.18113">
        <ele>152.548</ele>
        <time>2011-11-26T16:34:07Z</time>
      </trkpt>
      <trkpt lat="43.32153" lon="1.1813">
        <ele>151.057</ele>
        <time>2011-11-26T16:34:09Z</time>
      </trkpt>
      <trkpt lat="43.32161" lon="1.18139">
        <ele>150.311</ele>
        <time>2011-11-26T16:34:10Z</time>
      </trkpt>
      <trkpt lat="43.32169" lon="1.18148">
        <ele>149.286</ele>
        <time>2011-11-26T16:34:11Z</time>
      </trkpt>
      <trkpt lat="43.32169" lon="1.18148">
        <ele>148.188</ele>
        <time>2011-11-26T16:34:11Z</time>
      </trkpt>
      <trkpt lat="43.32184" lon="1.18165">
        <ele>146.501</ele>
        <time>2011-11-26T16:34:13Z</time>
      </trkpt>
      <trkpt lat="43.32191" lon="1.18175">
        <ele>145.697</ele>
        <time>2011-11-26T16:34:14Z</time>
      </trkpt>
      <trkpt lat="43.32191" lon="1.18175">
        <ele>144.757</ele>
        <time>2011-11-26T16:34:14Z</time>
      </trkpt>
      <trkpt lat="43.32206" lon="1.18193">
        <ele>144.497</ele>
        <time>2011-11-26T16:34:16Z</time>
      </trkpt>
      <trkpt lat="43.32212" lon="1.18201">
        <ele>144.046</ele>
        <time>2011-11-26T16:34:17Z</time>
      </trkpt>
      <trkpt lat="43.32219" lon="1.18208">
        <ele>142.723</ele>
        <time>2011-11-26T16:34:18Z</time>
      </trkpt>
      <trkpt lat="43.32227" lon="1.18216">
        <ele>140.69</ele>
        <time>2011-11-26T16:34:19Z</time>
      </trkpt>
      <trkpt lat="43.32235" lon="1.18224">
        <ele>138.545</ele>
        <time>2011-11-26T16:34:20Z</time>
      </trkpt>
      <trkpt lat="43.32243" lon="1.18233">
        <ele>136.869</ele>
        <time>2011-11-26T16:34:21Z</time>
      </trkpt>
      <trkpt lat="43.32252" lon="1.18241">
        <ele>135.854</ele>
        <time>2011-11-26T16:34:22Z</time>
      </trkpt>
      <trkpt lat="43.3226" lon="1.18249">
        <ele>135.696</ele>
        <time>2011-11-26T16:34:23Z</time>
      </trkpt>
      <trkpt lat="43.32268" lon="1.18256">
        <ele>135.812</ele>
        <time>2011-11-26T16:34:24Z</time>
      </trkpt>
      <trkpt lat="43.32284" lon="1.18269">
        <ele>135.315</ele>
        <time>2011-11-26T16:34:26Z</time>
      </trkpt>
      <trkpt lat="43.32284" lon="1.18269">
        <ele>133.988</ele>
        <time>2011-11-26T16:34:26Z</time>
      </trkpt>
      <trkpt lat="43.32301" lon="1.18284">
        <ele>132.487</ele>
        <time>2011-11-26T16:34:28Z</time>
      </trkpt>
      <trkpt lat="43.32301" lon="1.18284">
        <ele>131.544</ele>
        <time>2011-11-26T16:34:28Z</time>
      </trkpt>
      <trkpt lat="43.32317" lon="1.18298">
        <ele>131.261</ele>
        <time>2011-11-26T16:34:30Z</time>
      </trkpt>
      <trkpt lat="43.32326" lon="1.18304">
        <ele>131.343</ele>
        <time>2011-11-26T16:34:31Z</time>
      </trkpt>
      <trkpt lat="43.32334" lon="1.1831">
        <ele>131.094</ele>
        <time>2011-11-26T16:34:32Z</time>
      </trkpt>
      <trkpt lat="43.32343" lon="1.18317">
        <ele>130.256</ele>
        <time>2011-11-26T16:34:33Z</time>
      </trkpt>
      <trkpt lat="43.32352" lon="1.18324">
        <ele>129.445</ele>
        <time>2011-11-26T16:34:34Z</time>
      </trkpt>
      <trkpt lat="43.32361" lon="1.18332">
        <ele>128.577</ele>
        <time>2011-11-26T16:34:35Z</time>
      </trkpt>
      <trkpt lat="43.3237" lon="1.1834">
        <ele>128.046</ele>
        <time>2011-11-26T16:34:36Z</time>
      </trkpt>
      <trkpt lat="43.32379" lon="1.18348">
        <ele>128.484</ele>
        <time>2011-11-26T16:34:37Z</time>
      </trkpt>
      <trkpt lat="43.32387" lon="1.18355">
        <ele>128.836</ele>
        <time>2011-11-26T16:34:38Z</time>
      </trkpt>
      <trkpt lat="43.32395" lon="1.18363">
        <ele>128.846</ele>
        <time>2011-11-26T16:34:39Z</time>
      </trkpt>
      <trkpt lat="43.3241" lon="1.18379">
        <ele>128.645</ele>
        <time>2011-11-26T16:34:41Z</time>
      </trkpt>
      <trkpt lat="43.3241" lon="1.18379">
        <ele>128.793</ele>
        <time>2011-11-26T16:34:41Z</time>
      </trkpt>
      <trkpt lat="43.3241" lon="1.18379">
        <ele>129.302</ele>
        <time>2011-11-26T16:34:41Z</time>
      </trkpt>
      <trkpt lat="43.3241" lon="1.18379">
        <ele>129.936</ele>
        <time>2011-11-26T16:34:41Z</time>
      </trkpt>
      <trkpt lat="43.32441" lon="1.18412">
        <ele>130.031</ele>
        <time>2011-11-26T16:34:45Z</time>
      </trkpt>
      <trkpt lat="43.32448" lon="1.18422">
        <ele>129.812</ele>
        <time>2011-11-26T16:34:46Z</time>
      </trkpt>
      <trkpt lat="43.32455" lon="1.18432">
        <ele>129.966</ele>
        <time>2011-11-26T16:34:47Z</time>
      </trkpt>
      <trkpt lat="43.32455" lon="1.18432">
        <ele>130.789</ele>
        <time>2011-11-26T16:34:47Z</time>
      </trkpt>
      <trkpt lat="43.32466" lon="1.18454">
        <ele>131.599</ele>
        <time>2011-11-26T16:34:49Z</time>
      </trkpt>
      <trkpt lat="43.32472" lon="1.18465">
        <ele>132.145</ele>
        <time>2011-11-26T16:34:50Z</time>
      </trkpt>
      <trkpt lat="43.32476" lon="1.18476">
        <ele>131.73</ele>
        <time>2011-11-26T16:34:51Z</time>
      </trkpt>
      <trkpt lat="43.32481" lon="1.18488">
        <ele>130.552</ele>
        <time>2011-11-26T16:34:52Z</time>
      </trkpt>
      <trkpt lat="43.32485" lon="1.18502">
        <ele>129.389</ele>
        <time>2011-11-26T16:34:53Z</time>
      </trkpt>
      <trkpt lat="43.3249" lon="1.18515">
        <ele>128.388</ele>
        <time>2011-11-26T16:34:54Z</time>
      </trkpt>
      <trkpt lat="43.32495" lon="1.18527">
        <ele>127.346</ele>
        <time>2011-11-26T16:34:55Z</time>
      </trkpt>
      <trkpt lat="43.32495" lon="1.18527">
        <ele>125.924</ele>
        <time>2011-11-26T16:34:55Z</time>
      </trkpt>
      <trkpt lat="43.32512" lon="1.18563">
        <ele>124.711</ele>
        <time>2011-11-26T16:34:58Z</time>
      </trkpt>
      <trkpt lat="43.32518" lon="1.18575">
        <ele>123.87</ele>
        <time>2011-11-26T16:34:59Z</time>
      </trkpt>
      <trkpt lat="43.32524" lon="1.18586">
        <ele>123.593</ele>
        <time>2011-11-26T16:35:00Z</time>
      </trkpt>
      <trkpt lat="43.3253" lon="1.18596">
        <ele>123.305</ele>
        <time>2011-11-26T16:35:01Z</time>
      </trkpt>
      <trkpt lat="43.3253" lon="1.18596">
        <ele>122.368</ele>
        <time>2011-11-26T16:35:01Z</time>
      </trkpt>
      <trkpt lat="43.32542" lon="1.18618">
        <ele>121.128</ele>
        <time>2011-11-26T16:35:03Z</time>
      </trkpt>
      <trkpt lat="43.32547" lon="1.18629">
        <ele>120.008</ele>
        <time>2011-11-26T16:35:04Z</time>
      </trkpt>
      <trkpt lat="43.32553" lon="1.18641">
        <ele>119.073</ele>
        <time>2011-11-26T16:35:05Z</time>
      </trkpt>
      <trkpt lat="43.32559" lon="1.18652">
        <ele>118.17</ele>
        <time>2011-11-26T16:35:06Z</time>
      </trkpt>
      <trkpt lat="43.32566" lon="1.18663">
        <ele>117.168</ele>
        <time>2011-11-26T16:35:07Z</time>
      </trkpt>
      <trkpt lat="43.32572" lon="1.18674">
        <ele>116.365</ele>
        <time>2011-11-26T16:35:08Z</time>
      </trkpt>
      <trkpt lat="43.32579" lon="1.18685">
        <ele>115.402</ele>
        <time>2011-11-26T16:35:09Z</time>
      </trkpt>
      <trkpt lat="43.32585" lon="1.18697">
        <ele>114.414</ele>
        <time>2011-11-26T16:35:10Z</time>
      </trkpt>
      <trkpt lat="43.32585" lon="1.18697">
        <ele>113.858</ele>
        <time>2011-11-26T16:35:10Z</time>
      </trkpt>
      <trkpt lat="43.32598" lon="1.18721">
        <ele>113.713</ele>
        <time>2011-11-26T16:35:12Z</time>
      </trkpt>
      <trkpt lat="43.3261" lon="1.18742">
        <ele>114.009</ele>
        <time>2011-11-26T16:35:14Z</time>
      </trkpt>
      <trkpt lat="43.32617" lon="1.18752">
        <ele>114.437</ele>
        <time>2011-11-26T16:35:15Z</time>
      </trkpt>
      <trkpt lat="43.32623" lon="1.18762">
        <ele>114.318</ele>
        <time>2011-11-26T16:35:16Z</time>
      </trkpt>
      <trkpt lat="43.32623" lon="1.18762">
        <ele>113.513</ele>
        <time>2011-11-26T16:35:16Z</time>
      </trkpt>
      <trkpt lat="43.32637" lon="1.18783">
        <ele>112.578</ele>
        <time>2011-11-26T16:35:18Z</time>
      </trkpt>
      <trkpt lat="43.32644" lon="1.18793">
        <ele>111.723</ele>
        <time>2011-11-26T16:35:19Z</time>
      </trkpt>
      <trkpt lat="43.32651" lon="1.18803">
        <ele>111.193</ele>
        <time>2011-11-26T16:35:20Z</time>
      </trkpt>
      <trkpt lat="43.32658" lon="1.18813">
        <ele>110.97</ele>
        <time>2011-11-26T16:35:21Z</time>
      </trkpt>
      <trkpt lat="43.32666" lon="1.18822">
        <ele>110.851</ele>
        <time>2011-11-26T16:35:22Z</time>
      </trkpt>
      <trkpt lat="43.32673" lon="1.18831">
        <ele>110.978</ele>
        <time>2011-11-26T16:35:23Z</time>
      </trkpt>
      <trkpt lat="43.3268" lon="1.18841">
        <ele>111.386</ele>
        <time>2011-11-26T16:35:24Z</time>
      </trkpt>
      <trkpt lat="43.32687" lon="1.18851">
        <ele>112.021</ele>
        <time>2011-11-26T16:35:25Z</time>
      </trkpt>
      <trkpt lat="43.32694" lon="1.18861">
        <ele>113.139</ele>
        <time>2011-11-26T16:35:26Z</time>
      </trkpt>
      <trkpt lat="43.32708" lon="1.18881">
        <ele>113.889</ele>
        <time>2011-11-26T16:35:28Z</time>
      </trkpt>
      <trkpt lat="43.32714" lon="1.1889">
        <ele>114.224</ele>
        <time>2011-11-26T16:35:29Z</time>
      </trkpt>
      <trkpt lat="43.32721" lon="1.189">
        <ele>114.041</ele>
        <time>2011-11-26T16:35:30Z</time>
      </trkpt>
      <trkpt lat="43.32727" lon="1.1891">
        <ele>113.214</ele>
        <time>2011-11-26T16:35:31Z</time>
      </trkpt>
      <trkpt lat="43.32734" lon="1.18921">
        <ele>112.476</ele>
        <time>2011-11-26T16:35:32Z</time>
      </trkpt>
      <trkpt lat="43.3274" lon="1.18933">
        <ele>112.295</ele>
        <time>2011-11-26T16:35:33Z</time>
      </trkpt>
      <trkpt lat="43.32747" lon="1.18943">
        <ele>112.586</ele>
        <time>2011-11-26T16:35:34Z</time>
      </trkpt>
      <trkpt lat="43.32754" lon="1.18952">
        <ele>113.074</ele>
        <time>2011-11-26T16:35:35Z</time>
      </trkpt>
      <trkpt lat="43.32761" lon="1.18959">
        <ele>113.359</ele>
        <time>2011-11-26T16:35:36Z</time>
      </trkpt>
      <trkpt lat="43.32769" lon="1.18966">
        <ele>113.572</ele>
        <time>2011-11-26T16:35:37Z</time>
      </trkpt>
      <trkpt lat="43.32777" lon="1.18974">
        <ele>113.569</ele>
        <time>2011-11-26T16:35:38Z</time>
      </trkpt>
      <trkpt lat="43.32777" lon="1.18974">
        <ele>113.122</ele>
        <time>2011-11-26T16:35:38Z</time>
      </trkpt>
      <trkpt lat="43.32793" lon="1.1899">
        <ele>112.501</ele>
        <time>2011-11-26T16:35:40Z</time>
      </trkpt>
      <trkpt lat="43.32802" lon="1.18996">
        <ele>112.186</ele>
        <time>2011-11-26T16:35:41Z</time>
      </trkpt>
      <trkpt lat="43.32811" lon="1.19001">
        <ele>112.114</ele>
        <time>2011-11-26T16:35:42Z</time>
      </trkpt>
      <trkpt lat="43.32829" lon="1.19013">
        <ele>112.43</ele>
        <time>2011-11-26T16:35:44Z</time>
      </trkpt>
      <trkpt lat="43.32837" lon="1.1902">
        <ele>113.32</ele>
        <time>2011-11-26T16:35:45Z</time>
      </trkpt>
      <trkpt lat="43.32845" lon="1.19027">
        <ele>113.827</ele>
        <time>2011-11-26T16:35:46Z</time>
      </trkpt>
      <trkpt lat="43.32845" lon="1.19027">
        <ele>114.164</ele>
        <time>2011-11-26T16:35:46Z</time>
      </trkpt>
      <trkpt lat="43.32862" lon="1.19039">
        <ele>114.61</ele>
        <time>2011-11-26T16:35:48Z</time>
      </trkpt>
      <trkpt lat="43.32871" lon="1.19044">
        <ele>114.977</ele>
        <time>2011-11-26T16:35:49Z</time>
      </trkpt>
      <trkpt lat="43.3288" lon="1.1905">
        <ele>116.006</ele>
        <time>2011-11-26T16:35:50Z</time>
      </trkpt>
      <trkpt lat="43.32889" lon="1.19057">
        <ele>117.383</ele>
        <time>2011-11-26T16:35:51Z</time>
      </trkpt>
      <trkpt lat="43.32897" lon="1.19065">
        <ele>118.56</ele>
        <time>2011-11-26T16:35:52Z</time>
      </trkpt>
      <trkpt lat="43.32904" lon="1.19072">
        <ele>119.877</ele>
        <time>2011-11-26T16:35:53Z</time>
      </trkpt>
      <trkpt lat="43.32912" lon="1.19079">
        <ele>121.149</ele>
        <time>2011-11-26T16:35:54Z</time>
      </trkpt>
      <trkpt lat="43.32921" lon="1.19085">
        <ele>122.207</ele>
        <time>2011-11-26T16:35:55Z</time>
      </trkpt>
      <trkpt lat="43.32929" lon="1.19091">
        <ele>123.517</ele>
        <time>2011-11-26T16:35:56Z</time>
      </trkpt>
      <trkpt lat="43.32937" lon="1.19097">
        <ele>124.363</ele>
        <time>2011-11-26T16:35:57Z</time>
      </trkpt>
      <trkpt lat="43.32945" lon="1.19103">
        <ele>125.416</ele>
        <time>2011-11-26T16:35:58Z</time>
      </trkpt>
      <trkpt lat="43.32954" lon="1.1911">
        <ele>126.105</ele>
        <time>2011-11-26T16:35:59Z</time>
      </trkpt>
      <trkpt lat="43.32962" lon="1.19116">
        <ele>126.812</ele>
        <time>2011-11-26T16:36:00Z</time>
      </trkpt>
      <trkpt lat="43.32971" lon="1.19123">
        <ele>127.885</ele>
        <time>2011-11-26T16:36:01Z</time>
      </trkpt>
      <trkpt lat="43.32987" lon="1.19138">
        <ele>129.223</ele>
        <time>2011-11-26T16:36:03Z</time>
      </trkpt>
      <trkpt lat="43.32994" lon="1.19146">
        <ele>130.959</ele>
        <time>2011-11-26T16:36:04Z</time>
      </trkpt>
      <trkpt lat="43.33001" lon="1.19154">
        <ele>132.377</ele>
        <time>2011-11-26T16:36:05Z</time>
      </trkpt>
      <trkpt lat="43.33006" lon="1.19162">
        <ele>134.054</ele>
        <time>2011-11-26T16:36:06Z</time>
      </trkpt>
      <trkpt lat="43.33012" lon="1.19169">
        <ele>134.259</ele>
        <time>2011-11-26T16:36:07Z</time>
      </trkpt>
      <trkpt lat="43.33018" lon="1.19176">
        <ele>133.439</ele>
        <time>2011-11-26T16:36:08Z</time>
      </trkpt>
      <trkpt lat="43.33025" lon="1.19184">
        <ele>130.85</ele>
        <time>2011-11-26T16:36:09Z</time>
      </trkpt>
      <trkpt lat="43.33033" lon="1.19193">
        <ele>128.192</ele>
        <time>2011-11-26T16:36:10Z</time>
      </trkpt>
      <trkpt lat="43.3304" lon="1.19202">
        <ele>126.572</ele>
        <time>2011-11-26T16:36:11Z</time>
      </trkpt>
      <trkpt lat="43.33048" lon="1.19211">
        <ele>126.116</ele>
        <time>2011-11-26T16:36:12Z</time>
      </trkpt>
      <trkpt lat="43.33056" lon="1.1922">
        <ele>126.371</ele>
        <time>2011-11-26T16:36:13Z</time>
      </trkpt>
      <trkpt lat="43.33063" lon="1.19228">
        <ele>126.742</ele>
        <time>2011-11-26T16:36:14Z</time>
      </trkpt>
      <trkpt lat="43.3307" lon="1.19236">
        <ele>126.644</ele>
        <time>2011-11-26T16:36:15Z</time>
      </trkpt>
      <trkpt lat="43.33078" lon="1.19243">
        <ele>126.156</ele>
        <time>2011-11-26T16:36:16Z</time>
      </trkpt>
      <trkpt lat="43.33093" lon="1.19258">
        <ele>125.219</ele>
        <time>2011-11-26T16:36:18Z</time>
      </trkpt>
      <trkpt lat="43.33102" lon="1.19266">
        <ele>124.287</ele>
        <time>2011-11-26T16:36:19Z</time>
      </trkpt>
      <trkpt lat="43.3311" lon="1.19273">
        <ele>123.754</ele>
        <time>2011-11-26T16:36:20Z</time>
      </trkpt>
      <trkpt lat="43.33119" lon="1.19281">
        <ele>123.776</ele>
        <time>2011-11-26T16:36:21Z</time>
      </trkpt>
      <trkpt lat="43.33127" lon="1.19288">
        <ele>124.453</ele>
        <time>2011-11-26T16:36:22Z</time>
      </trkpt>
      <trkpt lat="43.33135" lon="1.19295">
        <ele>125.594</ele>
        <time>2011-11-26T16:36:23Z</time>
      </trkpt>
      <trkpt lat="43.33143" lon="1.19301">
        <ele>127.345</ele>
        <time>2011-11-26T16:36:24Z</time>
      </trkpt>
      <trkpt lat="43.3315" lon="1.19308">
        <ele>128.393</ele>
        <time>2011-11-26T16:36:25Z</time>
      </trkpt>
      <trkpt lat="43.33158" lon="1.19314">
        <ele>129.259</ele>
        <time>2011-11-26T16:36:26Z</time>
      </trkpt>
      <trkpt lat="43.33165" lon="1.19322">
        <ele>129.793</ele>
        <time>2011-11-26T16:36:27Z</time>
      </trkpt>
      <trkpt lat="43.33172" lon="1.19329">
        <ele>130.368</ele>
        <time>2011-11-26T16:36:28Z</time>
      </trkpt>
      <trkpt lat="43.33179" lon="1.19337">
        <ele>130.958</ele>
        <time>2011-11-26T16:36:29Z</time>
      </trkpt>
      <trkpt lat="43.33186" lon="1.19344">
        <ele>131.895</ele>
        <time>2011-11-26T16:36:30Z</time>
      </trkpt>
      <trkpt lat="43.33193" lon="1.1935">
        <ele>132.698</ele>
        <time>2011-11-26T16:36:31Z</time>
      </trkpt>
      <trkpt lat="43.332" lon="1.19357">
        <ele>134.105</ele>
        <time>2011-11-26T16:36:32Z</time>
      </trkpt>
      <trkpt lat="43.33213" lon="1.19371">
        <ele>135.163</ele>
        <time>2011-11-26T16:36:34Z</time>
      </trkpt>
      <trkpt lat="43.33221" lon="1.19376">
        <ele>135.545</ele>
        <time>2011-11-26T16:36:35Z</time>
      </trkpt>
      <trkpt lat="43.33229" lon="1.19382">
        <ele>135.81</ele>
        <time>2011-11-26T16:36:36Z</time>
      </trkpt>
      <trkpt lat="43.33229" lon="1.19382">
        <ele>136.208</ele>
        <time>2011-11-26T16:36:36Z</time>
      </trkpt>
      <trkpt lat="43.33244" lon="1.19395">
        <ele>136.604</ele>
        <time>2011-11-26T16:36:38Z</time>
      </trkpt>
      <trkpt lat="43.33251" lon="1.19404">
        <ele>136.987</ele>
        <time>2011-11-26T16:36:39Z</time>
      </trkpt>
      <trkpt lat="43.33258" lon="1.19413">
        <ele>137.61</ele>
        <time>2011-11-26T16:36:40Z</time>
      </trkpt>
      <trkpt lat="43.33264" lon="1.19422">
        <ele>138.898</ele>
        <time>2011-11-26T16:36:41Z</time>
      </trkpt>
      <trkpt lat="43.33271" lon="1.19429">
        <ele>140.095</ele>
        <time>2011-11-26T16:36:42Z</time>
      </trkpt>
      <trkpt lat="43.33278" lon="1.19437">
        <ele>141.128</ele>
        <time>2011-11-26T16:36:43Z</time>
      </trkpt>
      <trkpt lat="43.33284" lon="1.19444">
        <ele>141.954</ele>
        <time>2011-11-26T16:36:44Z</time>
      </trkpt>
      <trkpt lat="43.33291" lon="1.19452">
        <ele>142.978</ele>
        <time>2011-11-26T16:36:45Z</time>
      </trkpt>
      <trkpt lat="43.33299" lon="1.1946">
        <ele>144.055</ele>
        <time>2011-11-26T16:36:46Z</time>
      </trkpt>
      <trkpt lat="43.33306" lon="1.19467">
        <ele>145.263</ele>
        <time>2011-11-26T16:36:47Z</time>
      </trkpt>
      <trkpt lat="43.33314" lon="1.19474">
        <ele>146.729</ele>
        <time>2011-11-26T16:36:48Z</time>
      </trkpt>
      <trkpt lat="43.33328" lon="1.19487">
        <ele>148.317</ele>
        <time>2011-11-26T16:36:50Z</time>
      </trkpt>
      <trkpt lat="43.33334" lon="1.19494">
        <ele>149.724</ele>
        <time>2011-11-26T16:36:51Z</time>
      </trkpt>
      <trkpt lat="43.33334" lon="1.19494">
        <ele>150.404</ele>
        <time>2011-11-26T16:36:51Z</time>
      </trkpt>
      <trkpt lat="43.33345" lon="1.19508">
        <ele>150.305</ele>
        <time>2011-11-26T16:36:53Z</time>
      </trkpt>
      <trkpt lat="43.33353" lon="1.19515">
        <ele>149.756</ele>
        <time>2011-11-26T16:36:54Z</time>
      </trkpt>
      <trkpt lat="43.3336" lon="1.19522">
        <ele>149.068</ele>
        <time>2011-11-26T16:36:55Z</time>
      </trkpt>
      <trkpt lat="43.33368" lon="1.19529">
        <ele>149.025</ele>
        <time>2011-11-26T16:36:56Z</time>
      </trkpt>
      <trkpt lat="43.33376" lon="1.19536">
        <ele>149.377</ele>
        <time>2011-11-26T16:36:57Z</time>
      </trkpt>
      <trkpt lat="43.33384" lon="1.19544">
        <ele>149.836</ele>
        <time>2011-11-26T16:36:58Z</time>
      </trkpt>
      <trkpt lat="43.33391" lon="1.19552">
        <ele>150.686</ele>
        <time>2011-11-26T16:36:59Z</time>
      </trkpt>
      <trkpt lat="43.33398" lon="1.1956">
        <ele>151.863</ele>
        <time>2011-11-26T16:37:00Z</time>
      </trkpt>
      <trkpt lat="43.33405" lon="1.19568">
        <ele>153.335</ele>
        <time>2011-11-26T16:37:01Z</time>
      </trkpt>
      <trkpt lat="43.33412" lon="1.19576">
        <ele>154.129</ele>
        <time>2011-11-26T16:37:02Z</time>
      </trkpt>
      <trkpt lat="43.33419" lon="1.19584">
        <ele>154.002</ele>
        <time>2011-11-26T16:37:03Z</time>
      </trkpt>
      <trkpt lat="43.33434" lon="1.19602">
        <ele>152.862</ele>
        <time>2011-11-26T16:37:05Z</time>
      </trkpt>
      <trkpt lat="43.33443" lon="1.19612">
        <ele>152.357</ele>
        <time>2011-11-26T16:37:06Z</time>
      </trkpt>
      <trkpt lat="43.33443" lon="1.19612">
        <ele>152.573</ele>
        <time>2011-11-26T16:37:06Z</time>
      </trkpt>
      <trkpt lat="43.33461" lon="1.19627">
        <ele>153.783</ele>
        <time>2011-11-26T16:37:08Z</time>
      </trkpt>
      <trkpt lat="43.33469" lon="1.19634">
        <ele>156.283</ele>
        <time>2011-11-26T16:37:09Z</time>
      </trkpt>
      <trkpt lat="43.33477" lon="1.19642">
        <ele>158.599</ele>
        <time>2011-11-26T16:37:10Z</time>
      </trkpt>
      <trkpt lat="43.33484" lon="1.19649">
        <ele>160.137</ele>
        <time>2011-11-26T16:37:11Z</time>
      </trkpt>
      <trkpt lat="43.33492" lon="1.19656">
        <ele>160.886</ele>
        <time>2011-11-26T16:37:12Z</time>
      </trkpt>
      <trkpt lat="43.335" lon="1.19663">
        <ele>160.493</ele>
        <time>2011-11-26T16:37:13Z</time>
      </trkpt>
      <trkpt lat="43.33509" lon="1.1967">
        <ele>159.699</ele>
        <time>2011-11-26T16:37:14Z</time>
      </trkpt>
      <trkpt lat="43.33518" lon="1.19676">
        <ele>159.247</ele>
        <time>2011-11-26T16:37:15Z</time>
      </trkpt>
      <trkpt lat="43.33526" lon="1.19683">
        <ele>159.373</ele>
        <time>2011-11-26T16:37:16Z</time>
      </trkpt>
      <trkpt lat="43.33535" lon="1.1969">
        <ele>159.518</ele>
        <time>2011-11-26T16:37:17Z</time>
      </trkpt>
      <trkpt lat="43.33544" lon="1.19696">
        <ele>159.321</ele>
        <time>2011-11-26T16:37:18Z</time>
      </trkpt>
      <trkpt lat="43.33553" lon="1.19701">
        <ele>159.207</ele>
        <time>2011-11-26T16:37:19Z</time>
      </trkpt>
      <trkpt lat="43.33571" lon="1.19714">
        <ele>159.444</ele>
        <time>2011-11-26T16:37:21Z</time>
      </trkpt>
      <trkpt lat="43.33571" lon="1.19714">
        <ele>159.871</ele>
        <time>2011-11-26T16:37:21Z</time>
      </trkpt>
      <trkpt lat="43.3359" lon="1.19725">
        <ele>160.454</ele>
        <time>2011-11-26T16:37:23Z</time>
      </trkpt>
      <trkpt lat="43.336" lon="1.19729">
        <ele>161.003</ele>
        <time>2011-11-26T16:37:24Z</time>
      </trkpt>
      <trkpt lat="43.3361" lon="1.19732">
        <ele>161.719</ele>
        <time>2011-11-26T16:37:25Z</time>
      </trkpt>
      <trkpt lat="43.3362" lon="1.19736">
        <ele>162.924</ele>
        <time>2011-11-26T16:37:26Z</time>
      </trkpt>
      <trkpt lat="43.3363" lon="1.19741">
        <ele>165.074</ele>
        <time>2011-11-26T16:37:27Z</time>
      </trkpt>
      <trkpt lat="43.3363" lon="1.19741">
        <ele>166.897</ele>
        <time>2011-11-26T16:37:27Z</time>
      </trkpt>
      <trkpt lat="43.33648" lon="1.19749">
        <ele>168.779</ele>
        <time>2011-11-26T16:37:29Z</time>
      </trkpt>
      <trkpt lat="43.33657" lon="1.19751">
        <ele>170.215</ele>
        <time>2011-11-26T16:37:30Z</time>
      </trkpt>
      <trkpt lat="43.33667" lon="1.19753">
        <ele>172.064</ele>
        <time>2011-11-26T16:37:31Z</time>
      </trkpt>
      <trkpt lat="43.33677" lon="1.19757">
        <ele>174.564</ele>
        <time>2011-11-26T16:37:32Z</time>
      </trkpt>
      <trkpt lat="43.33677" lon="1.19757">
        <ele>176.466</ele>
        <time>2011-11-26T16:37:32Z</time>
      </trkpt>
      <trkpt lat="43.33693" lon="1.19768">
        <ele>179.135</ele>
        <time>2011-11-26T16:37:34Z</time>
      </trkpt>
      <trkpt lat="43.33701" lon="1.19777">
        <ele>181.133</ele>
        <time>2011-11-26T16:37:35Z</time>
      </trkpt>
      <trkpt lat="43.33709" lon="1.19786">
        <ele>181.55</ele>
        <time>2011-11-26T16:37:36Z</time>
      </trkpt>
      <trkpt lat="43.33723" lon="1.19802">
        <ele>180.901</ele>
        <time>2011-11-26T16:37:38Z</time>
      </trkpt>
      <trkpt lat="43.33723" lon="1.19802">
        <ele>180.099</ele>
        <time>2011-11-26T16:37:38Z</time>
      </trkpt>
      <trkpt lat="43.33736" lon="1.19824">
        <ele>179.73</ele>
        <time>2011-11-26T16:37:40Z</time>
      </trkpt>
      <trkpt lat="43.33742" lon="1.19835">
        <ele>180.085</ele>
        <time>2011-11-26T16:37:41Z</time>
      </trkpt>
      <trkpt lat="43.33748" lon="1.19845">
        <ele>180.722</ele>
        <time>2011-11-26T16:37:42Z</time>
      </trkpt>
      <trkpt lat="43.33752" lon="1.19857">
        <ele>181.328</ele>
        <time>2011-11-26T16:37:43Z</time>
      </trkpt>
      <trkpt lat="43.33756" lon="1.19869">
        <ele>181.399</ele>
        <time>2011-11-26T16:37:44Z</time>
      </trkpt>
      <trkpt lat="43.33759" lon="1.19882">
        <ele>180.968</ele>
        <time>2011-11-26T16:37:45Z</time>
      </trkpt>
      <trkpt lat="43.33764" lon="1.19894">
        <ele>180.947</ele>
        <time>2011-11-26T16:37:46Z</time>
      </trkpt>
      <trkpt lat="43.33769" lon="1.19907">
        <ele>181.713</ele>
        <time>2011-11-26T16:37:47Z</time>
      </trkpt>
      <trkpt lat="43.33773" lon="1.19919">
        <ele>183.076</ele>
        <time>2011-11-26T16:37:48Z</time>
      </trkpt>
      <trkpt lat="43.33778" lon="1.19931">
        <ele>184.543</ele>
        <time>2011-11-26T16:37:49Z</time>
      </trkpt>
      <trkpt lat="43.33783" lon="1.19943">
        <ele>185.67</ele>
        <time>2011-11-26T16:37:50Z</time>
      </trkpt>
      <trkpt lat="43.33783" lon="1.19943">
        <ele>187.613</ele>
        <time>2011-11-26T16:37:50Z</time>
      </trkpt>
      <trkpt lat="43.338" lon="1.19976">
        <ele>189.385</ele>
        <time>2011-11-26T16:37:53Z</time>
      </trkpt>
      <trkpt lat="43.338" lon="1.19976">
        <ele>191.304</ele>
        <time>2011-11-26T16:37:53Z</time>
      </trkpt>
      <trkpt lat="43.3381" lon="1.19998">
        <ele>192.777</ele>
        <time>2011-11-26T16:37:55Z</time>
      </trkpt>
      <trkpt lat="43.33816" lon="1.20008">
        <ele>194.302</ele>
        <time>2011-11-26T16:37:56Z</time>
      </trkpt>
      <trkpt lat="43.33824" lon="1.20019">
        <ele>195.719</ele>
        <time>2011-11-26T16:37:57Z</time>
      </trkpt>
      <trkpt lat="43.33831" lon="1.20029">
        <ele>197.499</ele>
        <time>2011-11-26T16:37:58Z</time>
      </trkpt>
      <trkpt lat="43.33837" lon="1.20038">
        <ele>199.266</ele>
        <time>2011-11-26T16:37:59Z</time>
      </trkpt>
      <trkpt lat="43.33843" lon="1.20048">
        <ele>200.892</ele>
        <time>2011-11-26T16:38:00Z</time>
      </trkpt>
      <trkpt lat="43.3385" lon="1.20057">
        <ele>202.515</ele>
        <time>2011-11-26T16:38:01Z</time>
      </trkpt>
      <trkpt lat="43.3385" lon="1.20057">
        <ele>203.401</ele>
        <time>2011-11-26T16:38:01Z</time>
      </trkpt>
      <trkpt lat="43.33863" lon="1.20075">
        <ele>204.651</ele>
        <time>2011-11-26T16:38:03Z</time>
      </trkpt>
      <trkpt lat="43.33869" lon="1.20085">
        <ele>205.777</ele>
        <time>2011-11-26T16:38:04Z</time>
      </trkpt>
      <trkpt lat="43.33875" lon="1.20096">
        <ele>206.818</ele>
        <time>2011-11-26T16:38:05Z</time>
      </trkpt>
      <trkpt lat="43.33881" lon="1.20107">
        <ele>208.137</ele>
        <time>2011-11-26T16:38:06Z</time>
      </trkpt>
      <trkpt lat="43.33892" lon="1.20129">
        <ele>209.543</ele>
        <time>2011-11-26T16:38:08Z</time>
      </trkpt>
      <trkpt lat="43.33898" lon="1.2014">
        <ele>210.597</ele>
        <time>2011-11-26T16:38:09Z</time>
      </trkpt>
      <trkpt lat="43.33903" lon="1.20151">
        <ele>211.633</ele>
        <time>2011-11-26T16:38:10Z</time>
      </trkpt>
      <trkpt lat="43.33908" lon="1.20164">
        <ele>212.966</ele>
        <time>2011-11-26T16:38:11Z</time>
      </trkpt>
      <trkpt lat="43.33912" lon="1.20176">
        <ele>214.633</ele>
        <time>2011-11-26T16:38:12Z</time>
      </trkpt>
      <trkpt lat="43.33917" lon="1.20188">
        <ele>216.093</ele>
        <time>2011-11-26T16:38:13Z</time>
      </trkpt>
      <trkpt lat="43.33923" lon="1.20198">
        <ele>216.827</ele>
        <time>2011-11-26T16:38:14Z</time>
      </trkpt>
      <trkpt lat="43.33929" lon="1.20208">
        <ele>217.198</ele>
        <time>2011-11-26T16:38:15Z</time>
      </trkpt>
      <trkpt lat="43.33935" lon="1.20219">
        <ele>217.269</ele>
        <time>2011-11-26T16:38:16Z</time>
      </trkpt>
      <trkpt lat="43.33939" lon="1.20231">
        <ele>217.695</ele>
        <time>2011-11-26T16:38:17Z</time>
      </trkpt>
      <trkpt lat="43.33943" lon="1.20244">
        <ele>218.326</ele>
        <time>2011-11-26T16:38:18Z</time>
      </trkpt>
      <trkpt lat="43.33943" lon="1.20244">
        <ele>218.938</ele>
        <time>2011-11-26T16:38:18Z</time>
      </trkpt>
      <trkpt lat="43.3395" lon="1.20266">
        <ele>219.42</ele>
        <time>2011-11-26T16:38:20Z</time>
      </trkpt>
      <trkpt lat="43.33955" lon="1.20276">
        <ele>219.469</ele>
        <time>2011-11-26T16:38:21Z</time>
      </trkpt>
      <trkpt lat="43.33963" lon="1.20295">
        <ele>219.45</ele>
        <time>2011-11-26T16:38:23Z</time>
      </trkpt>
      <trkpt lat="43.33963" lon="1.20295">
        <ele>219.061</ele>
        <time>2011-11-26T16:38:23Z</time>
      </trkpt>
      <trkpt lat="43.33973" lon="1.20315">
        <ele>218.494</ele>
        <time>2011-11-26T16:38:25Z</time>
      </trkpt>
      <trkpt lat="43.33979" lon="1.20324">
        <ele>218.049</ele>
        <time>2011-11-26T16:38:26Z</time>
      </trkpt>
      <trkpt lat="43.33985" lon="1.20333">
        <ele>217.841</ele>
        <time>2011-11-26T16:38:27Z</time>
      </trkpt>
      <trkpt lat="43.3399" lon="1.20343">
        <ele>218.06</ele>
        <time>2011-11-26T16:38:28Z</time>
      </trkpt>
      <trkpt lat="43.33994" lon="1.20353">
        <ele>218.312</ele>
        <time>2011-11-26T16:38:29Z</time>
      </trkpt>
      <trkpt lat="43.33998" lon="1.20363">
        <ele>218.267</ele>
        <time>2011-11-26T16:38:30Z</time>
      </trkpt>
      <trkpt lat="43.34003" lon="1.20374">
        <ele>217.725</ele>
        <time>2011-11-26T16:38:31Z</time>
      </trkpt>
      <trkpt lat="43.34007" lon="1.20385">
        <ele>216.607</ele>
        <time>2011-11-26T16:38:32Z</time>
      </trkpt>
      <trkpt lat="43.3401" lon="1.20397">
        <ele>214.942</ele>
        <time>2011-11-26T16:38:33Z</time>
      </trkpt>
      <trkpt lat="43.34014" lon="1.2041">
        <ele>213.409</ele>
        <time>2011-11-26T16:38:34Z</time>
      </trkpt>
      <trkpt lat="43.34016" lon="1.20423">
        <ele>212.137</ele>
        <time>2011-11-26T16:38:35Z</time>
      </trkpt>
      <trkpt lat="43.34019" lon="1.20436">
        <ele>211.254</ele>
        <time>2011-11-26T16:38:36Z</time>
      </trkpt>
      <trkpt lat="43.34021" lon="1.2045">
        <ele>210.735</ele>
        <time>2011-11-26T16:38:37Z</time>
      </trkpt>
      <trkpt lat="43.34024" lon="1.20463">
        <ele>210.239</ele>
        <time>2011-11-26T16:38:38Z</time>
      </trkpt>
      <trkpt lat="43.34026" lon="1.20476">
        <ele>209.795</ele>
        <time>2011-11-26T16:38:39Z</time>
      </trkpt>
      <trkpt lat="43.3403" lon="1.20502">
        <ele>209.085</ele>
        <time>2011-11-26T16:38:41Z</time>
      </trkpt>
      <trkpt lat="43.3403" lon="1.20502">
        <ele>208.039</ele>
        <time>2011-11-26T16:38:41Z</time>
      </trkpt>
      <trkpt lat="43.34033" lon="1.20529">
        <ele>206.775</ele>
        <time>2011-11-26T16:38:43Z</time>
      </trkpt>
      <trkpt lat="43.34034" lon="1.20543">
        <ele>205.842</ele>
        <time>2011-11-26T16:38:44Z</time>
      </trkpt>
      <trkpt lat="43.34033" lon="1.20558">
        <ele>205.205</ele>
        <time>2011-11-26T16:38:45Z</time>
      </trkpt>
      <trkpt lat="43.34032" lon="1.20572">
        <ele>204.592</ele>
        <time>2011-11-26T16:38:46Z</time>
      </trkpt>
      <trkpt lat="43.34032" lon="1.20572">
        <ele>204.118</ele>
        <time>2011-11-26T16:38:46Z</time>
      </trkpt>
      <trkpt lat="43.3403" lon="1.206">
        <ele>203.744</ele>
        <time>2011-11-26T16:38:48Z</time>
      </trkpt>
      <trkpt lat="43.34029" lon="1.20616">
        <ele>203.484</ele>
        <time>2011-11-26T16:38:49Z</time>
      </trkpt>
      <trkpt lat="43.34028" lon="1.20631">
        <ele>203.651</ele>
        <time>2011-11-26T16:38:50Z</time>
      </trkpt>
      <trkpt lat="43.34027" lon="1.20646">
        <ele>204.123</ele>
        <time>2011-11-26T16:38:51Z</time>
      </trkpt>
      <trkpt lat="43.34025" lon="1.2066">
        <ele>204.727</ele>
        <time>2011-11-26T16:38:52Z</time>
      </trkpt>
      <trkpt lat="43.34023" lon="1.20674">
        <ele>204.892</ele>
        <time>2011-11-26T16:38:53Z</time>
      </trkpt>
      <trkpt lat="43.34022" lon="1.20688">
        <ele>204.298</ele>
        <time>2011-11-26T16:38:54Z</time>
      </trkpt>
      <trkpt lat="43.34021" lon="1.20718">
        <ele>203.555</ele>
        <time>2011-11-26T16:38:56Z</time>
      </trkpt>
      <trkpt lat="43.34021" lon="1.20718">
        <ele>202.876</ele>
        <time>2011-11-26T16:38:56Z</time>
      </trkpt>
      <trkpt lat="43.34021" lon="1.20733">
        <ele>202.411</ele>
        <time>2011-11-26T16:38:57Z</time>
      </trkpt>
      <trkpt lat="43.34021" lon="1.20762">
        <ele>201.86</ele>
        <time>2011-11-26T16:38:59Z</time>
      </trkpt>
      <trkpt lat="43.34023" lon="1.20777">
        <ele>200.557</ele>
        <time>2011-11-26T16:39:00Z</time>
      </trkpt>
      <trkpt lat="43.34024" lon="1.20792">
        <ele>198.434</ele>
        <time>2011-11-26T16:39:01Z</time>
      </trkpt>
      <trkpt lat="43.34024" lon="1.20792">
        <ele>195.725</ele>
        <time>2011-11-26T16:39:01Z</time>
      </trkpt>
      <trkpt lat="43.34026" lon="1.20824">
        <ele>194.022</ele>
        <time>2011-11-26T16:39:03Z</time>
      </trkpt>
      <trkpt lat="43.34027" lon="1.2084">
        <ele>193.147</ele>
        <time>2011-11-26T16:39:04Z</time>
      </trkpt>
      <trkpt lat="43.34029" lon="1.20855">
        <ele>192.681</ele>
        <time>2011-11-26T16:39:05Z</time>
      </trkpt>
      <trkpt lat="43.34031" lon="1.20868">
        <ele>191.903</ele>
        <time>2011-11-26T16:39:06Z</time>
      </trkpt>
      <trkpt lat="43.34034" lon="1.20882">
        <ele>190.166</ele>
        <time>2011-11-26T16:39:07Z</time>
      </trkpt>
      <trkpt lat="43.34037" lon="1.20896">
        <ele>188.43</ele>
        <time>2011-11-26T16:39:08Z</time>
      </trkpt>
      <trkpt lat="43.34038" lon="1.20911">
        <ele>186.766</ele>
        <time>2011-11-26T16:39:09Z</time>
      </trkpt>
      <trkpt lat="43.34043" lon="1.20942">
        <ele>184.923</ele>
        <time>2011-11-26T16:39:11Z</time>
      </trkpt>
      <trkpt lat="43.34043" lon="1.20942">
        <ele>183.693</ele>
        <time>2011-11-26T16:39:11Z</time>
      </trkpt>
      <trkpt lat="43.3405" lon="1.20971">
        <ele>183.179</ele>
        <time>2011-11-26T16:39:13Z</time>
      </trkpt>
      <trkpt lat="43.34053" lon="1.20985">
        <ele>182.829</ele>
        <time>2011-11-26T16:39:14Z</time>
      </trkpt>
      <trkpt lat="43.34055" lon="1.20999">
        <ele>182.268</ele>
        <time>2011-11-26T16:39:15Z</time>
      </trkpt>
      <trkpt lat="43.34058" lon="1.21013">
        <ele>181.429</ele>
        <time>2011-11-26T16:39:16Z</time>
      </trkpt>
      <trkpt lat="43.34062" lon="1.21026">
        <ele>180.139</ele>
        <time>2011-11-26T16:39:17Z</time>
      </trkpt>
      <trkpt lat="43.34065" lon="1.2104">
        <ele>179.327</ele>
        <time>2011-11-26T16:39:18Z</time>
      </trkpt>
      <trkpt lat="43.34069" lon="1.21053">
        <ele>178.832</ele>
        <time>2011-11-26T16:39:19Z</time>
      </trkpt>
      <trkpt lat="43.34072" lon="1.21066">
        <ele>178.021</ele>
        <time>2011-11-26T16:39:20Z</time>
      </trkpt>
      <trkpt lat="43.34076" lon="1.2108">
        <ele>177.138</ele>
        <time>2011-11-26T16:39:21Z</time>
      </trkpt>
      <trkpt lat="43.3408" lon="1.21092">
        <ele>175.919</ele>
        <time>2011-11-26T16:39:22Z</time>
      </trkpt>
      <trkpt lat="43.34085" lon="1.21105">
        <ele>174.732</ele>
        <time>2011-11-26T16:39:23Z</time>
      </trkpt>
      <trkpt lat="43.34095" lon="1.2113">
        <ele>173.417</ele>
        <time>2011-11-26T16:39:25Z</time>
      </trkpt>
      <trkpt lat="43.341" lon="1.21142">
        <ele>171.852</ele>
        <time>2011-11-26T16:39:26Z</time>
      </trkpt>
      <trkpt lat="43.341" lon="1.21142">
        <ele>170.549</ele>
        <time>2011-11-26T16:39:26Z</time>
      </trkpt>
      <trkpt lat="43.34111" lon="1.21166">
        <ele>169.592</ele>
        <time>2011-11-26T16:39:28Z</time>
      </trkpt>
      <trkpt lat="43.34117" lon="1.21177">
        <ele>168.357</ele>
        <time>2011-11-26T16:39:29Z</time>
      </trkpt>
      <trkpt lat="43.34123" lon="1.21188">
        <ele>166.721</ele>
        <time>2011-11-26T16:39:30Z</time>
      </trkpt>
      <trkpt lat="43.34129" lon="1.21198">
        <ele>164.68</ele>
        <time>2011-11-26T16:39:31Z</time>
      </trkpt>
      <trkpt lat="43.34136" lon="1.21209">
        <ele>162.413</ele>
        <time>2011-11-26T16:39:32Z</time>
      </trkpt>
      <trkpt lat="43.34142" lon="1.2122">
        <ele>159.759</ele>
        <time>2011-11-26T16:39:33Z</time>
      </trkpt>
      <trkpt lat="43.34149" lon="1.2123">
        <ele>157.577</ele>
        <time>2011-11-26T16:39:34Z</time>
      </trkpt>
      <trkpt lat="43.34155" lon="1.21241">
        <ele>155.746</ele>
        <time>2011-11-26T16:39:35Z</time>
      </trkpt>
      <trkpt lat="43.34162" lon="1.21251">
        <ele>154.225</ele>
        <time>2011-11-26T16:39:36Z</time>
      </trkpt>
      <trkpt lat="43.34169" lon="1.21261">
        <ele>152.56</ele>
        <time>2011-11-26T16:39:37Z</time>
      </trkpt>
      <trkpt lat="43.34176" lon="1.21271">
        <ele>150.83</ele>
        <time>2011-11-26T16:39:38Z</time>
      </trkpt>
      <trkpt lat="43.34183" lon="1.21282">
        <ele>149.096</ele>
        <time>2011-11-26T16:39:39Z</time>
      </trkpt>
      <trkpt lat="43.34197" lon="1.21301">
        <ele>147.321</ele>
        <time>2011-11-26T16:39:41Z</time>
      </trkpt>
      <trkpt lat="43.34197" lon="1.21301">
        <ele>145.901</ele>
        <time>2011-11-26T16:39:41Z</time>
      </trkpt>
      <trkpt lat="43.34211" lon="1.21319">
        <ele>144.337</ele>
        <time>2011-11-26T16:39:43Z</time>
      </trkpt>
      <trkpt lat="43.34219" lon="1.21327">
        <ele>142.957</ele>
        <time>2011-11-26T16:39:44Z</time>
      </trkpt>
      <trkpt lat="43.34227" lon="1.21335">
        <ele>141.682</ele>
        <time>2011-11-26T16:39:45Z</time>
      </trkpt>
      <trkpt lat="43.34235" lon="1.21342">
        <ele>140.517</ele>
        <time>2011-11-26T16:39:46Z</time>
      </trkpt>
      <trkpt lat="43.34243" lon="1.21349">
        <ele>139.174</ele>
        <time>2011-11-26T16:39:47Z</time>
      </trkpt>
      <trkpt lat="43.34251" lon="1.21356">
        <ele>136.648</ele>
        <time>2011-11-26T16:39:48Z</time>
      </trkpt>
      <trkpt lat="43.3426" lon="1.21362">
        <ele>134.744</ele>
        <time>2011-11-26T16:39:49Z</time>
      </trkpt>
      <trkpt lat="43.34269" lon="1.21368">
        <ele>133.103</ele>
        <time>2011-11-26T16:39:50Z</time>
      </trkpt>
      <trkpt lat="43.34278" lon="1.21373">
        <ele>131.995</ele>
        <time>2011-11-26T16:39:51Z</time>
      </trkpt>
      <trkpt lat="43.34287" lon="1.21377">
        <ele>131.558</ele>
        <time>2011-11-26T16:39:52Z</time>
      </trkpt>
      <trkpt lat="43.34296" lon="1.21381">
        <ele>130.967</ele>
        <time>2011-11-26T16:39:53Z</time>
      </trkpt>
      <trkpt lat="43.34304" lon="1.21385">
        <ele>130.202</ele>
        <time>2011-11-26T16:39:54Z</time>
      </trkpt>
      <trkpt lat="43.34321" lon="1.21394">
        <ele>129.103</ele>
        <time>2011-11-26T16:39:56Z</time>
      </trkpt>
      <trkpt lat="43.34321" lon="1.21394">
        <ele>128.37</ele>
        <time>2011-11-26T16:39:56Z</time>
      </trkpt>
      <trkpt lat="43.34338" lon="1.21406">
        <ele>127.338</ele>
        <time>2011-11-26T16:39:58Z</time>
      </trkpt>
      <trkpt lat="43.34346" lon="1.21412">
        <ele>125.907</ele>
        <time>2011-11-26T16:39:59Z</time>
      </trkpt>
      <trkpt lat="43.34354" lon="1.21418">
        <ele>124.619</ele>
        <time>2011-11-26T16:40:00Z</time>
      </trkpt>
      <trkpt lat="43.34363" lon="1.21423">
        <ele>123.512</ele>
        <time>2011-11-26T16:40:01Z</time>
      </trkpt>
      <trkpt lat="43.34371" lon="1.21429">
        <ele>122.248</ele>
        <time>2011-11-26T16:40:02Z</time>
      </trkpt>
      <trkpt lat="43.34379" lon="1.21435">
        <ele>120.879</ele>
        <time>2011-11-26T16:40:03Z</time>
      </trkpt>
      <trkpt lat="43.34387" lon="1.21442">
        <ele>119.151</ele>
        <time>2011-11-26T16:40:04Z</time>
      </trkpt>
      <trkpt lat="43.34396" lon="1.21448">
        <ele>117.385</ele>
        <time>2011-11-26T16:40:05Z</time>
      </trkpt>
      <trkpt lat="43.34404" lon="1.21453">
        <ele>115.916</ele>
        <time>2011-11-26T16:40:06Z</time>
      </trkpt>
      <trkpt lat="43.34413" lon="1.21459">
        <ele>114.575</ele>
        <time>2011-11-26T16:40:07Z</time>
      </trkpt>
      <trkpt lat="43.34421" lon="1.21465">
        <ele>113.311</ele>
        <time>2011-11-26T16:40:08Z</time>
      </trkpt>
      <trkpt lat="43.3443" lon="1.2147">
        <ele>112.218</ele>
        <time>2011-11-26T16:40:09Z</time>
      </trkpt>
      <trkpt lat="43.34446" lon="1.2148">
        <ele>111.024</ele>
        <time>2011-11-26T16:40:11Z</time>
      </trkpt>
      <trkpt lat="43.34446" lon="1.2148">
        <ele>109.789</ele>
        <time>2011-11-26T16:40:11Z</time>
      </trkpt>
      <trkpt lat="43.34463" lon="1.21491">
        <ele>108.173</ele>
        <time>2011-11-26T16:40:13Z</time>
      </trkpt>
      <trkpt lat="43.34472" lon="1.21496">
        <ele>106.903</ele>
        <time>2011-11-26T16:40:14Z</time>
      </trkpt>
      <trkpt lat="43.3448" lon="1.215">
        <ele>105.769</ele>
        <time>2011-11-26T16:40:15Z</time>
      </trkpt>
      <trkpt lat="43.34489" lon="1.21504">
        <ele>104.859</ele>
        <time>2011-11-26T16:40:16Z</time>
      </trkpt>
      <trkpt lat="43.34497" lon="1.21507">
        <ele>103.609</ele>
        <time>2011-11-26T16:40:17Z</time>
      </trkpt>
      <trkpt lat="43.34505" lon="1.21511">
        <ele>102.015</ele>
        <time>2011-11-26T16:40:18Z</time>
      </trkpt>
      <trkpt lat="43.34514" lon="1.21515">
        <ele>100.763</ele>
        <time>2011-11-26T16:40:19Z</time>
      </trkpt>
      <trkpt lat="43.34522" lon="1.21518">
        <ele>99.934</ele>
        <time>2011-11-26T16:40:20Z</time>
      </trkpt>
      <trkpt lat="43.34531" lon="1.2152">
        <ele>99.31</ele>
        <time>2011-11-26T16:40:21Z</time>
      </trkpt>
      <trkpt lat="43.34539" lon="1.21522">
        <ele>98.374</ele>
        <time>2011-11-26T16:40:22Z</time>
      </trkpt>
      <trkpt lat="43.34548" lon="1.21524">
        <ele>97.368</ele>
        <time>2011-11-26T16:40:23Z</time>
      </trkpt>
      <trkpt lat="43.34557" lon="1.21525">
        <ele>96.653</ele>
        <time>2011-11-26T16:40:24Z</time>
      </trkpt>
      <trkpt lat="43.34566" lon="1.21526">
        <ele>96.064</ele>
        <time>2011-11-26T16:40:25Z</time>
      </trkpt>
      <trkpt lat="43.34575" lon="1.21528">
        <ele>94.856</ele>
        <time>2011-11-26T16:40:26Z</time>
      </trkpt>
      <trkpt lat="43.34584" lon="1.21531">
        <ele>93.996</ele>
        <time>2011-11-26T16:40:27Z</time>
      </trkpt>
      <trkpt lat="43.34601" lon="1.21541">
        <ele>93.919</ele>
        <time>2011-11-26T16:40:29Z</time>
      </trkpt>
      <trkpt lat="43.3461" lon="1.21546">
        <ele>94.472</ele>
        <time>2011-11-26T16:40:30Z</time>
      </trkpt>
      <trkpt lat="43.34618" lon="1.2155">
        <ele>95.64</ele>
        <time>2011-11-26T16:40:31Z</time>
      </trkpt>
      <trkpt lat="43.34626" lon="1.21555">
        <ele>96.272</ele>
        <time>2011-11-26T16:40:32Z</time>
      </trkpt>
      <trkpt lat="43.34634" lon="1.2156">
        <ele>96.435</ele>
        <time>2011-11-26T16:40:33Z</time>
      </trkpt>
      <trkpt lat="43.34641" lon="1.21566">
        <ele>95.82</ele>
        <time>2011-11-26T16:40:34Z</time>
      </trkpt>
      <trkpt lat="43.34649" lon="1.21573">
        <ele>95.249</ele>
        <time>2011-11-26T16:40:35Z</time>
      </trkpt>
      <trkpt lat="43.34657" lon="1.2158">
        <ele>95.161</ele>
        <time>2011-11-26T16:40:36Z</time>
      </trkpt>
      <trkpt lat="43.34665" lon="1.21586">
        <ele>95.462</ele>
        <time>2011-11-26T16:40:37Z</time>
      </trkpt>
      <trkpt lat="43.34673" lon="1.21593">
        <ele>96.034</ele>
        <time>2011-11-26T16:40:38Z</time>
      </trkpt>
      <trkpt lat="43.34681" lon="1.21599">
        <ele>96.942</ele>
        <time>2011-11-26T16:40:39Z</time>
      </trkpt>
      <trkpt lat="43.34689" lon="1.21605">
        <ele>97.896</ele>
        <time>2011-11-26T16:40:40Z</time>
      </trkpt>
      <trkpt lat="43.34697" lon="1.2161">
        <ele>98.42</ele>
        <time>2011-11-26T16:40:41Z</time>
      </trkpt>
      <trkpt lat="43.34705" lon="1.21615">
        <ele>98.575</ele>
        <time>2011-11-26T16:40:42Z</time>
      </trkpt>
      <trkpt lat="43.34723" lon="1.21624">
        <ele>98.734</ele>
        <time>2011-11-26T16:40:44Z</time>
      </trkpt>
      <trkpt lat="43.34731" lon="1.21629">
        <ele>99.497</ele>
        <time>2011-11-26T16:40:45Z</time>
      </trkpt>
      <trkpt lat="43.3474" lon="1.21633">
        <ele>100.304</ele>
        <time>2011-11-26T16:40:46Z</time>
      </trkpt>
      <trkpt lat="43.34748" lon="1.21636">
        <ele>101.31</ele>
        <time>2011-11-26T16:40:47Z</time>
      </trkpt>
      <trkpt lat="43.34757" lon="1.21639">
        <ele>102.088</ele>
        <time>2011-11-26T16:40:48Z</time>
      </trkpt>
      <trkpt lat="43.34765" lon="1.21641">
        <ele>102.457</ele>
        <time>2011-11-26T16:40:49Z</time>
      </trkpt>
      <trkpt lat="43.34774" lon="1.21642">
        <ele>102.72</ele>
        <time>2011-11-26T16:40:50Z</time>
      </trkpt>
      <trkpt lat="43.34782" lon="1.21645">
        <ele>103.2</ele>
        <time>2011-11-26T16:40:51Z</time>
      </trkpt>
      <trkpt lat="43.34791" lon="1.21648">
        <ele>103.67</ele>
        <time>2011-11-26T16:40:52Z</time>
      </trkpt>
      <trkpt lat="43.348" lon="1.2165">
        <ele>103.909</ele>
        <time>2011-11-26T16:40:53Z</time>
      </trkpt>
      <trkpt lat="43.348" lon="1.2165">
        <ele>103.805</ele>
        <time>2011-11-26T16:40:53Z</time>
      </trkpt>
      <trkpt lat="43.348" lon="1.2165">
        <ele>103.525</ele>
        <time>2011-11-26T16:40:53Z</time>
      </trkpt>
      <trkpt lat="43.34828" lon="1.21653">
        <ele>102.756</ele>
        <time>2011-11-26T16:40:56Z</time>
      </trkpt>
      <trkpt lat="43.34837" lon="1.21654">
        <ele>102.101</ele>
        <time>2011-11-26T16:40:57Z</time>
      </trkpt>
      <trkpt lat="43.34856" lon="1.21655">
        <ele>101.754</ele>
        <time>2011-11-26T16:40:59Z</time>
      </trkpt>
      <trkpt lat="43.34866" lon="1.21653">
        <ele>101.852</ele>
        <time>2011-11-26T16:41:00Z</time>
      </trkpt>
      <trkpt lat="43.34876" lon="1.21651">
        <ele>102.523</ele>
        <time>2011-11-26T16:41:01Z</time>
      </trkpt>
      <trkpt lat="43.34885" lon="1.2165">
        <ele>103.233</ele>
        <time>2011-11-26T16:41:02Z</time>
      </trkpt>
      <trkpt lat="43.34893" lon="1.21649">
        <ele>103.654</ele>
        <time>2011-11-26T16:41:03Z</time>
      </trkpt>
      <trkpt lat="43.34902" lon="1.2165">
        <ele>103.283</ele>
        <time>2011-11-26T16:41:04Z</time>
      </trkpt>
      <trkpt lat="43.34911" lon="1.2165">
        <ele>101.807</ele>
        <time>2011-11-26T16:41:05Z</time>
      </trkpt>
      <trkpt lat="43.3492" lon="1.2165">
        <ele>100.048</ele>
        <time>2011-11-26T16:41:06Z</time>
      </trkpt>
      <trkpt lat="43.3493" lon="1.2165">
        <ele>98.345</ele>
        <time>2011-11-26T16:41:07Z</time>
      </trkpt>
      <trkpt lat="43.34939" lon="1.2165">
        <ele>97.676</ele>
        <time>2011-11-26T16:41:08Z</time>
      </trkpt>
      <trkpt lat="43.34948" lon="1.2165">
        <ele>97.138</ele>
        <time>2011-11-26T16:41:09Z</time>
      </trkpt>
      <trkpt lat="43.34957" lon="1.21649">
        <ele>96.274</ele>
        <time>2011-11-26T16:41:10Z</time>
      </trkpt>
      <trkpt lat="43.34966" lon="1.21647">
        <ele>95.117</ele>
        <time>2011-11-26T16:41:11Z</time>
      </trkpt>
      <trkpt lat="43.34976" lon="1.21644">
        <ele>94.399</ele>
        <time>2011-11-26T16:41:12Z</time>
      </trkpt>
      <trkpt lat="43.34995" lon="1.21638">
        <ele>94.668</ele>
        <time>2011-11-26T16:41:14Z</time>
      </trkpt>
      <trkpt lat="43.35004" lon="1.21636">
        <ele>95.799</ele>
        <time>2011-11-26T16:41:15Z</time>
      </trkpt>
      <trkpt lat="43.35012" lon="1.21631">
        <ele>96.901</ele>
        <time>2011-11-26T16:41:16Z</time>
      </trkpt>
      <trkpt lat="43.3502" lon="1.21625">
        <ele>97.69</ele>
        <time>2011-11-26T16:41:17Z</time>
      </trkpt>
      <trkpt lat="43.35029" lon="1.21619">
        <ele>97.89</ele>
        <time>2011-11-26T16:41:18Z</time>
      </trkpt>
      <trkpt lat="43.35037" lon="1.21613">
        <ele>97.642</ele>
        <time>2011-11-26T16:41:19Z</time>
      </trkpt>
      <trkpt lat="43.35047" lon="1.21607">
        <ele>97.659</ele>
        <time>2011-11-26T16:41:20Z</time>
      </trkpt>
      <trkpt lat="43.35056" lon="1.21601">
        <ele>98.182</ele>
        <time>2011-11-26T16:41:21Z</time>
      </trkpt>
      <trkpt lat="43.35064" lon="1.21595">
        <ele>98.525</ele>
        <time>2011-11-26T16:41:22Z</time>
      </trkpt>
      <trkpt lat="43.35073" lon="1.21588">
        <ele>98.902</ele>
        <time>2011-11-26T16:41:23Z</time>
      </trkpt>
      <trkpt lat="43.35081" lon="1.21581">
        <ele>99.441</ele>
        <time>2011-11-26T16:41:24Z</time>
      </trkpt>
      <trkpt lat="43.3509" lon="1.21574">
        <ele>99.835</ele>
        <time>2011-11-26T16:41:25Z</time>
      </trkpt>
      <trkpt lat="43.35098" lon="1.21567">
        <ele>100.016</ele>
        <time>2011-11-26T16:41:26Z</time>
      </trkpt>
      <trkpt lat="43.35106" lon="1.2156">
        <ele>99.888</ele>
        <time>2011-11-26T16:41:27Z</time>
      </trkpt>
      <trkpt lat="43.35124" lon="1.21547">
        <ele>99.668</ele>
        <time>2011-11-26T16:41:29Z</time>
      </trkpt>
      <trkpt lat="43.35133" lon="1.21541">
        <ele>99.802</ele>
        <time>2011-11-26T16:41:30Z</time>
      </trkpt>
      <trkpt lat="43.35142" lon="1.21535">
        <ele>100.38</ele>
        <time>2011-11-26T16:41:31Z</time>
      </trkpt>
      <trkpt lat="43.35152" lon="1.21528">
        <ele>100.74</ele>
        <time>2011-11-26T16:41:32Z</time>
      </trkpt>
      <trkpt lat="43.35161" lon="1.21522">
        <ele>101.035</ele>
        <time>2011-11-26T16:41:33Z</time>
      </trkpt>
      <trkpt lat="43.3517" lon="1.21515">
        <ele>101.214</ele>
        <time>2011-11-26T16:41:34Z</time>
      </trkpt>
      <trkpt lat="43.3518" lon="1.2151">
        <ele>101.34</ele>
        <time>2011-11-26T16:41:35Z</time>
      </trkpt>
      <trkpt lat="43.35189" lon="1.21505">
        <ele>101.308</ele>
        <time>2011-11-26T16:41:36Z</time>
      </trkpt>
      <trkpt lat="43.35198" lon="1.215">
        <ele>100.331</ele>
        <time>2011-11-26T16:41:37Z</time>
      </trkpt>
      <trkpt lat="43.35208" lon="1.21495">
        <ele>98.728</ele>
        <time>2011-11-26T16:41:38Z</time>
      </trkpt>
      <trkpt lat="43.35217" lon="1.21489">
        <ele>97.395</ele>
        <time>2011-11-26T16:41:39Z</time>
      </trkpt>
      <trkpt lat="43.35227" lon="1.21483">
        <ele>95.657</ele>
        <time>2011-11-26T16:41:40Z</time>
      </trkpt>
      <trkpt lat="43.35237" lon="1.21478">
        <ele>94.047</ele>
        <time>2011-11-26T16:41:41Z</time>
      </trkpt>
      <trkpt lat="43.35257" lon="1.21468">
        <ele>91.927</ele>
        <time>2011-11-26T16:41:43Z</time>
      </trkpt>
      <trkpt lat="43.35267" lon="1.21463">
        <ele>90.191</ele>
        <time>2011-11-26T16:41:44Z</time>
      </trkpt>
      <trkpt lat="43.35277" lon="1.2146">
        <ele>88.246</ele>
        <time>2011-11-26T16:41:45Z</time>
      </trkpt>
      <trkpt lat="43.35286" lon="1.21458">
        <ele>86.208</ele>
        <time>2011-11-26T16:41:46Z</time>
      </trkpt>
      <trkpt lat="43.35296" lon="1.2146">
        <ele>84.776</ele>
        <time>2011-11-26T16:41:47Z</time>
      </trkpt>
      <trkpt lat="43.35304" lon="1.21464">
        <ele>83.558</ele>
        <time>2011-11-26T16:41:48Z</time>
      </trkpt>
      <trkpt lat="43.35313" lon="1.21469">
        <ele>82.504</ele>
        <time>2011-11-26T16:41:49Z</time>
      </trkpt>
      <trkpt lat="43.35321" lon="1.21473">
        <ele>80.998</ele>
        <time>2011-11-26T16:41:50Z</time>
      </trkpt>
      <trkpt lat="43.35331" lon="1.21477">
        <ele>79.438</ele>
        <time>2011-11-26T16:41:51Z</time>
      </trkpt>
      <trkpt lat="43.3534" lon="1.2148">
        <ele>77.179</ele>
        <time>2011-11-26T16:41:52Z</time>
      </trkpt>
      <trkpt lat="43.35351" lon="1.21484">
        <ele>74.831</ele>
        <time>2011-11-26T16:41:53Z</time>
      </trkpt>
      <trkpt lat="43.35361" lon="1.21487">
        <ele>72.482</ele>
        <time>2011-11-26T16:41:54Z</time>
      </trkpt>
      <trkpt lat="43.35371" lon="1.21491">
        <ele>71.2</ele>
        <time>2011-11-26T16:41:55Z</time>
      </trkpt>
      <trkpt lat="43.3538" lon="1.21495">
        <ele>69.808</ele>
        <time>2011-11-26T16:41:56Z</time>
      </trkpt>
      <trkpt lat="43.354" lon="1.21499">
        <ele>68.922</ele>
        <time>2011-11-26T16:41:58Z</time>
      </trkpt>
      <trkpt lat="43.3541" lon="1.21501">
        <ele>67.954</ele>
        <time>2011-11-26T16:41:59Z</time>
      </trkpt>
      <trkpt lat="43.35419" lon="1.21505">
        <ele>66.683</ele>
        <time>2011-11-26T16:42:00Z</time>
      </trkpt>
      <trkpt lat="43.35426" lon="1.21511">
        <ele>65.92</ele>
        <time>2011-11-26T16:42:01Z</time>
      </trkpt>
      <trkpt lat="43.35433" lon="1.21519">
        <ele>65.228</ele>
        <time>2011-11-26T16:42:02Z</time>
      </trkpt>
      <trkpt lat="43.35439" lon="1.21528">
        <ele>64.434</ele>
        <time>2011-11-26T16:42:03Z</time>
      </trkpt>
      <trkpt lat="43.35444" lon="1.21537">
        <ele>63.41</ele>
        <time>2011-11-26T16:42:04Z</time>
      </trkpt>
      <trkpt lat="43.3545" lon="1.21546">
        <ele>62.174</ele>
        <time>2011-11-26T16:42:05Z</time>
      </trkpt>
      <trkpt lat="43.35455" lon="1.21557">
        <ele>60.801</ele>
        <time>2011-11-26T16:42:06Z</time>
      </trkpt>
      <trkpt lat="43.3546" lon="1.21568">
        <ele>59.587</ele>
        <time>2011-11-26T16:42:07Z</time>
      </trkpt>
      <trkpt lat="43.35465" lon="1.21578">
        <ele>58.508</ele>
        <time>2011-11-26T16:42:08Z</time>
      </trkpt>
      <trkpt lat="43.3547" lon="1.21589">
        <ele>56.934</ele>
        <time>2011-11-26T16:42:09Z</time>
      </trkpt>
      <trkpt lat="43.35476" lon="1.21599">
        <ele>55.752</ele>
        <time>2011-11-26T16:42:10Z</time>
      </trkpt>
      <trkpt lat="43.35482" lon="1.21609">
        <ele>54.765</ele>
        <time>2011-11-26T16:42:11Z</time>
      </trkpt>
      <trkpt lat="43.3549" lon="1.21632">
        <ele>53.729</ele>
        <time>2011-11-26T16:42:13Z</time>
      </trkpt>
      <trkpt lat="43.35494" lon="1.21643">
        <ele>52.637</ele>
        <time>2011-11-26T16:42:14Z</time>
      </trkpt>
      <trkpt lat="43.35497" lon="1.21655">
        <ele>51.031</ele>
        <time>2011-11-26T16:42:15Z</time>
      </trkpt>
      <trkpt lat="43.35499" lon="1.21667">
        <ele>49.43</ele>
        <time>2011-11-26T16:42:16Z</time>
      </trkpt>
      <trkpt lat="43.35499" lon="1.21667">
        <ele>47.626</ele>
        <time>2011-11-26T16:42:16Z</time>
      </trkpt>
      <trkpt lat="43.355" lon="1.21692">
        <ele>46.328</ele>
        <time>2011-11-26T16:42:18Z</time>
      </trkpt>
      <trkpt lat="43.355" lon="1.21705">
        <ele>44.939</ele>
        <time>2011-11-26T16:42:19Z</time>
      </trkpt>
      <trkpt lat="43.355" lon="1.21718">
        <ele>43.934</ele>
        <time>2011-11-26T16:42:20Z</time>
      </trkpt>
      <trkpt lat="43.355" lon="1.21731">
        <ele>42.422</ele>
        <time>2011-11-26T16:42:21Z</time>
      </trkpt>
      <trkpt lat="43.355" lon="1.21745">
        <ele>40.6</ele>
        <time>2011-11-26T16:42:22Z</time>
      </trkpt>
      <trkpt lat="43.35499" lon="1.21758">
        <ele>39.245</ele>
        <time>2011-11-26T16:42:23Z</time>
      </trkpt>
      <trkpt lat="43.35498" lon="1.21771">
        <ele>38.31</ele>
        <time>2011-11-26T16:42:24Z</time>
      </trkpt>
      <trkpt lat="43.35496" lon="1.21784">
        <ele>37.598</ele>
        <time>2011-11-26T16:42:25Z</time>
      </trkpt>
      <trkpt lat="43.35495" lon="1.21796">
        <ele>36.761</ele>
        <time>2011-11-26T16:42:26Z</time>
      </trkpt>
      <trkpt lat="43.35494" lon="1.21808">
        <ele>35.657</ele>
        <time>2011-11-26T16:42:27Z</time>
      </trkpt>
      <trkpt lat="43.35492" lon="1.2182">
        <ele>34.34</ele>
        <time>2011-11-26T16:42:28Z</time>
      </trkpt>
      <trkpt lat="43.35492" lon="1.2182">
        <ele>32.956</ele>
        <time>2011-11-26T16:42:28Z</time>
      </trkpt>
      <trkpt lat="43.35483" lon="1.21858">
        <ele>31.817</ele>
        <time>2011-11-26T16:42:31Z</time>
      </trkpt>
      <trkpt lat="43.35483" lon="1.21858">
        <ele>30.628</ele>
        <time>2011-11-26T16:42:31Z</time>
      </trkpt>
      <trkpt lat="43.35476" lon="1.21885">
        <ele>29.897</ele>
        <time>2011-11-26T16:42:33Z</time>
      </trkpt>
      <trkpt lat="43.35473" lon="1.21897">
        <ele>29.996</ele>
        <time>2011-11-26T16:42:34Z</time>
      </trkpt>
      <trkpt lat="43.35469" lon="1.21909">
        <ele>30.297</ele>
        <time>2011-11-26T16:42:35Z</time>
      </trkpt>
      <trkpt lat="43.35466" lon="1.21921">
        <ele>30.786</ele>
        <time>2011-11-26T16:42:36Z</time>
      </trkpt>
      <trkpt lat="43.35462" lon="1.21933">
        <ele>31.782</ele>
        <time>2011-11-26T16:42:37Z</time>
      </trkpt>
      <trkpt lat="43.35457" lon="1.21945">
        <ele>33.011</ele>
        <time>2011-11-26T16:42:38Z</time>
      </trkpt>
      <trkpt lat="43.35453" lon="1.21956">
        <ele>34.468</ele>
        <time>2011-11-26T16:42:39Z</time>
      </trkpt>
      <trkpt lat="43.35449" lon="1.21966">
        <ele>35.741</ele>
        <time>2011-11-26T16:42:40Z</time>
      </trkpt>
      <trkpt lat="43.35445" lon="1.21977">
        <ele>36.611</ele>
        <time>2011-11-26T16:42:41Z</time>
      </trkpt>
      <trkpt lat="43.35442" lon="1.21989">
        <ele>37.246</ele>
        <time>2011-11-26T16:42:42Z</time>
      </trkpt>
      <trkpt lat="43.35438" lon="1.22">
        <ele>37.905</ele>
        <time>2011-11-26T16:42:43Z</time>
      </trkpt>
      <trkpt lat="43.35433" lon="1.22012">
        <ele>38.389</ele>
        <time>2011-11-26T16:42:44Z</time>
      </trkpt>
      <trkpt lat="43.35423" lon="1.22038">
        <ele>38.998</ele>
        <time>2011-11-26T16:42:46Z</time>
      </trkpt>
      <trkpt lat="43.35423" lon="1.22038">
        <ele>39.585</ele>
        <time>2011-11-26T16:42:46Z</time>
      </trkpt>
      <trkpt lat="43.35417" lon="1.22064">
        <ele>40.394</ele>
        <time>2011-11-26T16:42:48Z</time>
      </trkpt>
      <trkpt lat="43.35414" lon="1.22076">
        <ele>40.905</ele>
        <time>2011-11-26T16:42:49Z</time>
      </trkpt>
      <trkpt lat="43.3541" lon="1.22088">
        <ele>41.71</ele>
        <time>2011-11-26T16:42:50Z</time>
      </trkpt>
      <trkpt lat="43.35406" lon="1.221">
        <ele>42.192</ele>
        <time>2011-11-26T16:42:51Z</time>
      </trkpt>
      <trkpt lat="43.35402" lon="1.22111">
        <ele>42.469</ele>
        <time>2011-11-26T16:42:52Z</time>
      </trkpt>
      <trkpt lat="43.35398" lon="1.22123">
        <ele>42.915</ele>
        <time>2011-11-26T16:42:53Z</time>
      </trkpt>
      <trkpt lat="43.35394" lon="1.22135">
        <ele>42.895</ele>
        <time>2011-11-26T16:42:54Z</time>
      </trkpt>
      <trkpt lat="43.35389" lon="1.22146">
        <ele>42.685</ele>
        <time>2011-11-26T16:42:55Z</time>
      </trkpt>
      <trkpt lat="43.35385" lon="1.22157">
        <ele>42.493</ele>
        <time>2011-11-26T16:42:56Z</time>
      </trkpt>
      <trkpt lat="43.35381" lon="1.22169">
        <ele>42.331</ele>
        <time>2011-11-26T16:42:57Z</time>
      </trkpt>
      <trkpt lat="43.35378" lon="1.22182">
        <ele>42.237</ele>
        <time>2011-11-26T16:42:58Z</time>
      </trkpt>
      <trkpt lat="43.35378" lon="1.22182">
        <ele>42.025</ele>
        <time>2011-11-26T16:42:58Z</time>
      </trkpt>
      <trkpt lat="43.35369" lon="1.22218">
        <ele>41.744</ele>
        <time>2011-11-26T16:43:01Z</time>
      </trkpt>
      <trkpt lat="43.35369" lon="1.22218">
        <ele>41.135</ele>
        <time>2011-11-26T16:43:01Z</time>
      </trkpt>
      <trkpt lat="43.35363" lon="1.22242">
        <ele>40.352</ele>
        <time>2011-11-26T16:43:03Z</time>
      </trkpt>
      <trkpt lat="43.3536" lon="1.22255">
        <ele>39.339</ele>
        <time>2011-11-26T16:43:04Z</time>
      </trkpt>
      <trkpt lat="43.35358" lon="1.22267">
        <ele>38.303</ele>
        <time>2011-11-26T16:43:05Z</time>
      </trkpt>
      <trkpt lat="43.35355" lon="1.2228">
        <ele>37.324</ele>
        <time>2011-11-26T16:43:06Z</time>
      </trkpt>
      <trkpt lat="43.35352" lon="1.22293">
        <ele>36.624</ele>
        <time>2011-11-26T16:43:07Z</time>
      </trkpt>
      <trkpt lat="43.35351" lon="1.22306">
        <ele>36.027</ele>
        <time>2011-11-26T16:43:08Z</time>
      </trkpt>
      <trkpt lat="43.35349" lon="1.22321">
        <ele>35.698</ele>
        <time>2011-11-26T16:43:09Z</time>
      </trkpt>
      <trkpt lat="43.35347" lon="1.22333">
        <ele>35.213</ele>
        <time>2011-11-26T16:43:10Z</time>
      </trkpt>
      <trkpt lat="43.35345" lon="1.22346">
        <ele>34.505</ele>
        <time>2011-11-26T16:43:11Z</time>
      </trkpt>
      <trkpt lat="43.35344" lon="1.22359">
        <ele>33.484</ele>
        <time>2011-11-26T16:43:12Z</time>
      </trkpt>
      <trkpt lat="43.35344" lon="1.22371">
        <ele>32.618</ele>
        <time>2011-11-26T16:43:13Z</time>
      </trkpt>
      <trkpt lat="43.35347" lon="1.22383">
        <ele>32.092</ele>
        <time>2011-11-26T16:43:14Z</time>
      </trkpt>
      <trkpt lat="43.3536" lon="1.22397">
        <ele>31.713</ele>
        <time>2011-11-26T16:43:16Z</time>
      </trkpt>
      <trkpt lat="43.3536" lon="1.22397">
        <ele>31.484</ele>
        <time>2011-11-26T16:43:16Z</time>
      </trkpt>
      <trkpt lat="43.35377" lon="1.22401">
        <ele>31.269</ele>
        <time>2011-11-26T16:43:18Z</time>
      </trkpt>
      <trkpt lat="43.35386" lon="1.22401">
        <ele>30.775</ele>
        <time>2011-11-26T16:43:19Z</time>
      </trkpt>
      <trkpt lat="43.35394" lon="1.224">
        <ele>30.076</ele>
        <time>2011-11-26T16:43:20Z</time>
      </trkpt>
      <trkpt lat="43.35403" lon="1.22398">
        <ele>29.225</ele>
        <time>2011-11-26T16:43:21Z</time>
      </trkpt>
      <trkpt lat="43.35412" lon="1.22396">
        <ele>28.17</ele>
        <time>2011-11-26T16:43:22Z</time>
      </trkpt>
      <trkpt lat="43.35421" lon="1.22395">
        <ele>27.032</ele>
        <time>2011-11-26T16:43:23Z</time>
      </trkpt>
      <trkpt lat="43.3543" lon="1.22396">
        <ele>25.905</ele>
        <time>2011-11-26T16:43:24Z</time>
      </trkpt>
      <trkpt lat="43.35439" lon="1.22399">
        <ele>25.087</ele>
        <time>2011-11-26T16:43:25Z</time>
      </trkpt>
      <trkpt lat="43.35446" lon="1.22405">
        <ele>24.476</ele>
        <time>2011-11-26T16:43:26Z</time>
      </trkpt>
      <trkpt lat="43.35451" lon="1.22413">
        <ele>24.068</ele>
        <time>2011-11-26T16:43:27Z</time>
      </trkpt>
      <trkpt lat="43.35455" lon="1.22423">
        <ele>23.836</ele>
        <time>2011-11-26T16:43:28Z</time>
      </trkpt>
      <trkpt lat="43.35459" lon="1.22433">
        <ele>23.706</ele>
        <time>2011-11-26T16:43:29Z</time>
      </trkpt>
      <trkpt lat="43.35461" lon="1.22443">
        <ele>23.99</ele>
        <time>2011-11-26T16:43:30Z</time>
      </trkpt>
      <trkpt lat="43.35462" lon="1.22453">
        <ele>24.801</ele>
        <time>2011-11-26T16:43:31Z</time>
      </trkpt>
      <trkpt lat="43.35459" lon="1.22473">
        <ele>25.761</ele>
        <time>2011-11-26T16:43:33Z</time>
      </trkpt>
      <trkpt lat="43.35458" lon="1.22484">
        <ele>26.56</ele>
        <time>2011-11-26T16:43:34Z</time>
      </trkpt>
      <trkpt lat="43.35458" lon="1.22494">
        <ele>27.527</ele>
        <time>2011-11-26T16:43:35Z</time>
      </trkpt>
      <trkpt lat="43.3546" lon="1.22504">
        <ele>28.633</ele>
        <time>2011-11-26T16:43:36Z</time>
      </trkpt>
      <trkpt lat="43.35461" lon="1.22515">
        <ele>29.543</ele>
        <time>2011-11-26T16:43:37Z</time>
      </trkpt>
      <trkpt lat="43.35463" lon="1.22527">
        <ele>30.064</ele>
        <time>2011-11-26T16:43:38Z</time>
      </trkpt>
      <trkpt lat="43.35464" lon="1.2254">
        <ele>30.34</ele>
        <time>2011-11-26T16:43:39Z</time>
      </trkpt>
      <trkpt lat="43.35466" lon="1.22554">
        <ele>30.973</ele>
        <time>2011-11-26T16:43:40Z</time>
      </trkpt>
      <trkpt lat="43.35468" lon="1.22568">
        <ele>31.828</ele>
        <time>2011-11-26T16:43:41Z</time>
      </trkpt>
      <trkpt lat="43.35471" lon="1.22581">
        <ele>33.558</ele>
        <time>2011-11-26T16:43:42Z</time>
      </trkpt>
      <trkpt lat="43.35473" lon="1.22594">
        <ele>35.312</ele>
        <time>2011-11-26T16:43:43Z</time>
      </trkpt>
      <trkpt lat="43.35474" lon="1.22607">
        <ele>37.549</ele>
        <time>2011-11-26T16:43:44Z</time>
      </trkpt>
      <trkpt lat="43.35474" lon="1.22632">
        <ele>39.719</ele>
        <time>2011-11-26T16:43:46Z</time>
      </trkpt>
      <trkpt lat="43.35474" lon="1.22632">
        <ele>41.149</ele>
        <time>2011-11-26T16:43:46Z</time>
      </trkpt>
      <trkpt lat="43.35468" lon="1.22654">
        <ele>42.934</ele>
        <time>2011-11-26T16:43:48Z</time>
      </trkpt>
      <trkpt lat="43.35463" lon="1.22665">
        <ele>44.786</ele>
        <time>2011-11-26T16:43:49Z</time>
      </trkpt>
      <trkpt lat="43.35456" lon="1.22675">
        <ele>46.412</ele>
        <time>2011-11-26T16:43:50Z</time>
      </trkpt>
      <trkpt lat="43.35447" lon="1.22683">
        <ele>48.167</ele>
        <time>2011-11-26T16:43:51Z</time>
      </trkpt>
      <trkpt lat="43.35438" lon="1.2269">
        <ele>50.527</ele>
        <time>2011-11-26T16:43:52Z</time>
      </trkpt>
      <trkpt lat="43.35428" lon="1.22696">
        <ele>53.564</ele>
        <time>2011-11-26T16:43:53Z</time>
      </trkpt>
      <trkpt lat="43.35418" lon="1.22699">
        <ele>56.704</ele>
        <time>2011-11-26T16:43:54Z</time>
      </trkpt>
      <trkpt lat="43.35406" lon="1.22696">
        <ele>59.96</ele>
        <time>2011-11-26T16:43:55Z</time>
      </trkpt>
      <trkpt lat="43.35397" lon="1.22693">
        <ele>62.784</ele>
        <time>2011-11-26T16:43:56Z</time>
      </trkpt>
      <trkpt lat="43.35387" lon="1.22689">
        <ele>64.668</ele>
        <time>2011-11-26T16:43:57Z</time>
      </trkpt>
      <trkpt lat="43.35378" lon="1.22684">
        <ele>66.438</ele>
        <time>2011-11-26T16:43:58Z</time>
      </trkpt>
      <trkpt lat="43.35368" lon="1.22678">
        <ele>67.692</ele>
        <time>2011-11-26T16:43:59Z</time>
      </trkpt>
      <trkpt lat="43.35358" lon="1.2267">
        <ele>69.301</ele>
        <time>2011-11-26T16:44:00Z</time>
      </trkpt>
      <trkpt lat="43.35349" lon="1.22659">
        <ele>71.49</ele>
        <time>2011-11-26T16:44:01Z</time>
      </trkpt>
      <trkpt lat="43.35338" lon="1.22631">
        <ele>74.767</ele>
        <time>2011-11-26T16:44:03Z</time>
      </trkpt>
      <trkpt lat="43.35335" lon="1.22616">
        <ele>77.121</ele>
        <time>2011-11-26T16:44:04Z</time>
      </trkpt>
      <trkpt lat="43.35332" lon="1.22602">
        <ele>79.716</ele>
        <time>2011-11-26T16:44:05Z</time>
      </trkpt>
      <trkpt lat="43.3533" lon="1.22587">
        <ele>81.824</ele>
        <time>2011-11-26T16:44:06Z</time>
      </trkpt>
      <trkpt lat="43.35329" lon="1.22573">
        <ele>83.659</ele>
        <time>2011-11-26T16:44:07Z</time>
      </trkpt>
      <trkpt lat="43.3533" lon="1.22559">
        <ele>84.92</ele>
        <time>2011-11-26T16:44:08Z</time>
      </trkpt>
      <trkpt lat="43.35333" lon="1.22544">
        <ele>85.846</ele>
        <time>2011-11-26T16:44:09Z</time>
      </trkpt>
      <trkpt lat="43.35336" lon="1.22529">
        <ele>86.368</ele>
        <time>2011-11-26T16:44:10Z</time>
      </trkpt>
      <trkpt lat="43.35337" lon="1.22513">
        <ele>86.824</ele>
        <time>2011-11-26T16:44:11Z</time>
      </trkpt>
      <trkpt lat="43.35339" lon="1.22498">
        <ele>87.058</ele>
        <time>2011-11-26T16:44:12Z</time>
      </trkpt>
      <trkpt lat="43.35339" lon="1.22483">
        <ele>86.515</ele>
        <time>2011-11-26T16:44:13Z</time>
      </trkpt>
      <trkpt lat="43.3534" lon="1.22468">
        <ele>85.171</ele>
        <time>2011-11-26T16:44:14Z</time>
      </trkpt>
      <trkpt lat="43.3534" lon="1.22468">
        <ele>84.252</ele>
        <time>2011-11-26T16:44:14Z</time>
      </trkpt>
      <trkpt lat="43.35342" lon="1.22438">
        <ele>82.457</ele>
        <time>2011-11-26T16:44:16Z</time>
      </trkpt>
      <trkpt lat="43.35346" lon="1.22406">
        <ele>80.626</ele>
        <time>2011-11-26T16:44:18Z</time>
      </trkpt>
      <trkpt lat="43.35347" lon="1.22389">
        <ele>79.287</ele>
        <time>2011-11-26T16:44:19Z</time>
      </trkpt>
      <trkpt lat="43.35347" lon="1.22373">
        <ele>78.382</ele>
        <time>2011-11-26T16:44:20Z</time>
      </trkpt>
      <trkpt lat="43.35348" lon="1.22356">
        <ele>77.654</ele>
        <time>2011-11-26T16:44:21Z</time>
      </trkpt>
      <trkpt lat="43.35349" lon="1.2234">
        <ele>77.066</ele>
        <time>2011-11-26T16:44:22Z</time>
      </trkpt>
      <trkpt lat="43.3535" lon="1.22324">
        <ele>76.296</ele>
        <time>2011-11-26T16:44:23Z</time>
      </trkpt>
      <trkpt lat="43.35351" lon="1.22308">
        <ele>75.57</ele>
        <time>2011-11-26T16:44:24Z</time>
      </trkpt>
      <trkpt lat="43.35352" lon="1.22293">
        <ele>74.81</ele>
        <time>2011-11-26T16:44:25Z</time>
      </trkpt>
      <trkpt lat="43.35353" lon="1.22277">
        <ele>73.715</ele>
        <time>2011-11-26T16:44:26Z</time>
      </trkpt>
      <trkpt lat="43.35355" lon="1.22261">
        <ele>71.958</ele>
        <time>2011-11-26T16:44:27Z</time>
      </trkpt>
      <trkpt lat="43.35356" lon="1.22245">
        <ele>70.145</ele>
        <time>2011-11-26T16:44:28Z</time>
      </trkpt>
      <trkpt lat="43.35357" lon="1.22229">
        <ele>68.485</ele>
        <time>2011-11-26T16:44:29Z</time>
      </trkpt>
      <trkpt lat="43.35357" lon="1.22212">
        <ele>66.233</ele>
        <time>2011-11-26T16:44:30Z</time>
      </trkpt>
      <trkpt lat="43.35358" lon="1.22196">
        <ele>64.467</ele>
        <time>2011-11-26T16:44:31Z</time>
      </trkpt>
      <trkpt lat="43.35361" lon="1.22163">
        <ele>62.511</ele>
        <time>2011-11-26T16:44:33Z</time>
      </trkpt>
      <trkpt lat="43.35362" lon="1.22147">
        <ele>60.784</ele>
        <time>2011-11-26T16:44:34Z</time>
      </trkpt>
      <trkpt lat="43.35363" lon="1.22131">
        <ele>59.254</ele>
        <time>2011-11-26T16:44:35Z</time>
      </trkpt>
      <trkpt lat="43.35365" lon="1.22114">
        <ele>57.35</ele>
        <time>2011-11-26T16:44:36Z</time>
      </trkpt>
      <trkpt lat="43.35366" lon="1.22097">
        <ele>55.772</ele>
        <time>2011-11-26T16:44:37Z</time>
      </trkpt>
      <trkpt lat="43.35368" lon="1.22081">
        <ele>54.661</ele>
        <time>2011-11-26T16:44:38Z</time>
      </trkpt>
      <trkpt lat="43.35371" lon="1.22066">
        <ele>53.899</ele>
        <time>2011-11-26T16:44:39Z</time>
      </trkpt>
      <trkpt lat="43.35374" lon="1.22051">
        <ele>52.92</ele>
        <time>2011-11-26T16:44:40Z</time>
      </trkpt>
      <trkpt lat="43.35378" lon="1.22036">
        <ele>51.968</ele>
        <time>2011-11-26T16:44:41Z</time>
      </trkpt>
      <trkpt lat="43.35381" lon="1.22021">
        <ele>51.024</ele>
        <time>2011-11-26T16:44:42Z</time>
      </trkpt>
      <trkpt lat="43.35385" lon="1.22006">
        <ele>49.851</ele>
        <time>2011-11-26T16:44:43Z</time>
      </trkpt>
      <trkpt lat="43.35385" lon="1.22006">
        <ele>49.247</ele>
        <time>2011-11-26T16:44:43Z</time>
      </trkpt>
      <trkpt lat="43.35393" lon="1.21977">
        <ele>48.087</ele>
        <time>2011-11-26T16:44:45Z</time>
      </trkpt>
      <trkpt lat="43.35397" lon="1.21962">
        <ele>47.157</ele>
        <time>2011-11-26T16:44:46Z</time>
      </trkpt>
      <trkpt lat="43.35401" lon="1.21948">
        <ele>45.576</ele>
        <time>2011-11-26T16:44:47Z</time>
      </trkpt>
      <trkpt lat="43.35409" lon="1.21918">
        <ele>45.064</ele>
        <time>2011-11-26T16:44:49Z</time>
      </trkpt>
      <trkpt lat="43.35414" lon="1.21903">
        <ele>45.441</ele>
        <time>2011-11-26T16:44:50Z</time>
      </trkpt>
      <trkpt lat="43.35418" lon="1.21888">
        <ele>46.536</ele>
        <time>2011-11-26T16:44:51Z</time>
      </trkpt>
      <trkpt lat="43.35422" lon="1.21873">
        <ele>47.735</ele>
        <time>2011-11-26T16:44:52Z</time>
      </trkpt>
      <trkpt lat="43.35425" lon="1.21859">
        <ele>48.805</ele>
        <time>2011-11-26T16:44:53Z</time>
      </trkpt>
      <trkpt lat="43.35428" lon="1.21844">
        <ele>49.205</ele>
        <time>2011-11-26T16:44:54Z</time>
      </trkpt>
      <trkpt lat="43.35431" lon="1.21829">
        <ele>49.13</ele>
        <time>2011-11-26T16:44:55Z</time>
      </trkpt>
      <trkpt lat="43.35434" lon="1.21815">
        <ele>48.916</ele>
        <time>2011-11-26T16:44:56Z</time>
      </trkpt>
      <trkpt lat="43.35439" lon="1.21802">
        <ele>48.89</ele>
        <time>2011-11-26T16:44:57Z</time>
      </trkpt>
      <trkpt lat="43.35444" lon="1.21789">
        <ele>49.365</ele>
        <time>2011-11-26T16:44:58Z</time>
      </trkpt>
      <trkpt lat="43.35449" lon="1.21776">
        <ele>49.93</ele>
        <time>2011-11-26T16:44:59Z</time>
      </trkpt>
      <trkpt lat="43.35453" lon="1.21764">
        <ele>50.582</ele>
        <time>2011-11-26T16:45:00Z</time>
      </trkpt>
      <trkpt lat="43.35458" lon="1.21753">
        <ele>50.516</ele>
        <time>2011-11-26T16:45:01Z</time>
      </trkpt>
      <trkpt lat="43.35471" lon="1.21733">
        <ele>50.021</ele>
        <time>2011-11-26T16:45:03Z</time>
      </trkpt>
      <trkpt lat="43.35479" lon="1.21723">
        <ele>49.2</ele>
        <time>2011-11-26T16:45:04Z</time>
      </trkpt>
      <trkpt lat="43.35488" lon="1.21715">
        <ele>48.773</ele>
        <time>2011-11-26T16:45:05Z</time>
      </trkpt>
      <trkpt lat="43.35497" lon="1.21708">
        <ele>48.62</ele>
        <time>2011-11-26T16:45:06Z</time>
      </trkpt>
      <trkpt lat="43.35506" lon="1.21702">
        <ele>48.729</ele>
        <time>2011-11-26T16:45:07Z</time>
      </trkpt>
      <trkpt lat="43.35516" lon="1.21696">
        <ele>49.036</ele>
        <time>2011-11-26T16:45:08Z</time>
      </trkpt>
      <trkpt lat="43.35525" lon="1.21693">
        <ele>49.386</ele>
        <time>2011-11-26T16:45:09Z</time>
      </trkpt>
      <trkpt lat="43.35535" lon="1.21692">
        <ele>49.937</ele>
        <time>2011-11-26T16:45:10Z</time>
      </trkpt>
      <trkpt lat="43.35545" lon="1.21694">
        <ele>50.409</ele>
        <time>2011-11-26T16:45:11Z</time>
      </trkpt>
      <trkpt lat="43.35554" lon="1.217">
        <ele>50.808</ele>
        <time>2011-11-26T16:45:12Z</time>
      </trkpt>
      <trkpt lat="43.35554" lon="1.217">
        <ele>51.112</ele>
        <time>2011-11-26T16:45:12Z</time>
      </trkpt>
      <trkpt lat="43.35568" lon="1.21714">
        <ele>51.268</ele>
        <time>2011-11-26T16:45:14Z</time>
      </trkpt>
      <trkpt lat="43.35575" lon="1.21722">
        <ele>50.503</ele>
        <time>2011-11-26T16:45:15Z</time>
      </trkpt>
      <trkpt lat="43.35581" lon="1.21731">
        <ele>49.143</ele>
        <time>2011-11-26T16:45:16Z</time>
      </trkpt>
      <trkpt lat="43.35588" lon="1.21755">
        <ele>47.052</ele>
        <time>2011-11-26T16:45:18Z</time>
      </trkpt>
      <trkpt lat="43.3559" lon="1.21768">
        <ele>45.814</ele>
        <time>2011-11-26T16:45:19Z</time>
      </trkpt>
      <trkpt lat="43.3559" lon="1.21781">
        <ele>44.118</ele>
        <time>2011-11-26T16:45:20Z</time>
      </trkpt>
      <trkpt lat="43.35589" lon="1.21794">
        <ele>43.148</ele>
        <time>2011-11-26T16:45:21Z</time>
      </trkpt>
      <trkpt lat="43.35588" lon="1.21805">
        <ele>42.629</ele>
        <time>2011-11-26T16:45:22Z</time>
      </trkpt>
      <trkpt lat="43.35586" lon="1.21814">
        <ele>41.842</ele>
        <time>2011-11-26T16:45:23Z</time>
      </trkpt>
      <trkpt lat="43.35581" lon="1.21825">
        <ele>40.813</ele>
        <time>2011-11-26T16:45:24Z</time>
      </trkpt>
      <trkpt lat="43.35576" lon="1.21835">
        <ele>39.248</ele>
        <time>2011-11-26T16:45:25Z</time>
      </trkpt>
      <trkpt lat="43.35571" lon="1.21847">
        <ele>36.951</ele>
        <time>2011-11-26T16:45:26Z</time>
      </trkpt>
      <trkpt lat="43.35567" lon="1.21859">
        <ele>34.785</ele>
        <time>2011-11-26T16:45:27Z</time>
      </trkpt>
      <trkpt lat="43.35564" lon="1.21871">
        <ele>32.655</ele>
        <time>2011-11-26T16:45:28Z</time>
      </trkpt>
      <trkpt lat="43.3556" lon="1.21882">
        <ele>31.301</ele>
        <time>2011-11-26T16:45:29Z</time>
      </trkpt>
      <trkpt lat="43.35555" lon="1.21893">
        <ele>30.058</ele>
        <time>2011-11-26T16:45:30Z</time>
      </trkpt>
      <trkpt lat="43.35551" lon="1.21904">
        <ele>28.931</ele>
        <time>2011-11-26T16:45:31Z</time>
      </trkpt>
      <trkpt lat="43.35545" lon="1.21928">
        <ele>27.382</ele>
        <time>2011-11-26T16:45:33Z</time>
      </trkpt>
      <trkpt lat="43.35542" lon="1.2194">
        <ele>26.428</ele>
        <time>2011-11-26T16:45:34Z</time>
      </trkpt>
      <trkpt lat="43.3554" lon="1.21952">
        <ele>26.093</ele>
        <time>2011-11-26T16:45:35Z</time>
      </trkpt>
      <trkpt lat="43.35538" lon="1.21963">
        <ele>25.949</ele>
        <time>2011-11-26T16:45:36Z</time>
      </trkpt>
      <trkpt lat="43.35537" lon="1.21975">
        <ele>25.794</ele>
        <time>2011-11-26T16:45:37Z</time>
      </trkpt>
      <trkpt lat="43.35535" lon="1.21986">
        <ele>25.543</ele>
        <time>2011-11-26T16:45:38Z</time>
      </trkpt>
      <trkpt lat="43.35534" lon="1.21998">
        <ele>25.503</ele>
        <time>2011-11-26T16:45:39Z</time>
      </trkpt>
      <trkpt lat="43.35533" lon="1.22009">
        <ele>25.513</ele>
        <time>2011-11-26T16:45:40Z</time>
      </trkpt>
      <trkpt lat="43.35532" lon="1.2202">
        <ele>25.129</ele>
        <time>2011-11-26T16:45:41Z</time>
      </trkpt>
      <trkpt lat="43.3553" lon="1.2203">
        <ele>24.63</ele>
        <time>2011-11-26T16:45:42Z</time>
      </trkpt>
      <trkpt lat="43.35528" lon="1.22041">
        <ele>23.902</ele>
        <time>2011-11-26T16:45:43Z</time>
      </trkpt>
      <trkpt lat="43.35525" lon="1.22051">
        <ele>23.562</ele>
        <time>2011-11-26T16:45:44Z</time>
      </trkpt>
      <trkpt lat="43.35522" lon="1.22061">
        <ele>23.297</ele>
        <time>2011-11-26T16:45:45Z</time>
      </trkpt>
      <trkpt lat="43.35519" lon="1.22071">
        <ele>22.815</ele>
        <time>2011-11-26T16:45:46Z</time>
      </trkpt>
      <trkpt lat="43.35513" lon="1.22091">
        <ele>22.174</ele>
        <time>2011-11-26T16:45:48Z</time>
      </trkpt>
      <trkpt lat="43.35509" lon="1.22101">
        <ele>21.457</ele>
        <time>2011-11-26T16:45:49Z</time>
      </trkpt>
      <trkpt lat="43.35505" lon="1.22111">
        <ele>20.534</ele>
        <time>2011-11-26T16:45:50Z</time>
      </trkpt>
      <trkpt lat="43.35502" lon="1.22122">
        <ele>19.751</ele>
        <time>2011-11-26T16:45:51Z</time>
      </trkpt>
      <trkpt lat="43.35499" lon="1.22133">
        <ele>19.215</ele>
        <time>2011-11-26T16:45:52Z</time>
      </trkpt>
      <trkpt lat="43.35497" lon="1.22144">
        <ele>18.854</ele>
        <time>2011-11-26T16:45:53Z</time>
      </trkpt>
      <trkpt lat="43.35494" lon="1.22155">
        <ele>18.861</ele>
        <time>2011-11-26T16:45:54Z</time>
      </trkpt>
      <trkpt lat="43.35492" lon="1.22166">
        <ele>19.394</ele>
        <time>2011-11-26T16:45:55Z</time>
      </trkpt>
      <trkpt lat="43.35489" lon="1.22176">
        <ele>20.17</ele>
        <time>2011-11-26T16:45:56Z</time>
      </trkpt>
      <trkpt lat="43.35486" lon="1.22186">
        <ele>20.71</ele>
        <time>2011-11-26T16:45:57Z</time>
      </trkpt>
      <trkpt lat="43.35482" lon="1.22206">
        <ele>20.565</ele>
        <time>2011-11-26T16:45:59Z</time>
      </trkpt>
      <trkpt lat="43.35479" lon="1.22217">
        <ele>20.023</ele>
        <time>2011-11-26T16:46:00Z</time>
      </trkpt>
      <trkpt lat="43.35475" lon="1.22227">
        <ele>19.331</ele>
        <time>2011-11-26T16:46:01Z</time>
      </trkpt>
      <trkpt lat="43.35471" lon="1.22237">
        <ele>18.908</ele>
        <time>2011-11-26T16:46:02Z</time>
      </trkpt>
      <trkpt lat="43.35467" lon="1.22247">
        <ele>18.54</ele>
        <time>2011-11-26T16:46:03Z</time>
      </trkpt>
      <trkpt lat="43.35464" lon="1.22257">
        <ele>18.202</ele>
        <time>2011-11-26T16:46:04Z</time>
      </trkpt>
      <trkpt lat="43.35461" lon="1.22267">
        <ele>18.006</ele>
        <time>2011-11-26T16:46:05Z</time>
      </trkpt>
      <trkpt lat="43.35457" lon="1.22277">
        <ele>17.935</ele>
        <time>2011-11-26T16:46:06Z</time>
      </trkpt>
      <trkpt lat="43.35452" lon="1.22286">
        <ele>17.806</ele>
        <time>2011-11-26T16:46:07Z</time>
      </trkpt>
      <trkpt lat="43.35448" lon="1.22297">
        <ele>17.446</ele>
        <time>2011-11-26T16:46:08Z</time>
      </trkpt>
      <trkpt lat="43.35444" lon="1.22308">
        <ele>16.922</ele>
        <time>2011-11-26T16:46:09Z</time>
      </trkpt>
      <trkpt lat="43.35436" lon="1.2233">
        <ele>16.203</ele>
        <time>2011-11-26T16:46:11Z</time>
      </trkpt>
      <trkpt lat="43.35436" lon="1.2233">
        <ele>15.837</ele>
        <time>2011-11-26T16:46:11Z</time>
      </trkpt>
      <trkpt lat="43.35427" lon="1.22352">
        <ele>15.353</ele>
        <time>2011-11-26T16:46:13Z</time>
      </trkpt>
      <trkpt lat="43.35424" lon="1.22364">
        <ele>14.714</ele>
        <time>2011-11-26T16:46:14Z</time>
      </trkpt>
      <trkpt lat="43.35423" lon="1.22377">
        <ele>13.898</ele>
        <time>2011-11-26T16:46:15Z</time>
      </trkpt>
      <trkpt lat="43.35424" lon="1.22389">
        <ele>13.652</ele>
        <time>2011-11-26T16:46:16Z</time>
      </trkpt>
      <trkpt lat="43.35427" lon="1.224">
        <ele>13.898</ele>
        <time>2011-11-26T16:46:17Z</time>
      </trkpt>
      <trkpt lat="43.35432" lon="1.22409">
        <ele>13.628</ele>
        <time>2011-11-26T16:46:18Z</time>
      </trkpt>
      <trkpt lat="43.35441" lon="1.22414">
        <ele>13.491</ele>
        <time>2011-11-26T16:46:19Z</time>
      </trkpt>
      <trkpt lat="43.3545" lon="1.22417">
        <ele>13.961</ele>
        <time>2011-11-26T16:46:20Z</time>
      </trkpt>
      <trkpt lat="43.35459" lon="1.22417">
        <ele>14.99</ele>
        <time>2011-11-26T16:46:21Z</time>
      </trkpt>
      <trkpt lat="43.35467" lon="1.22416">
        <ele>15.865</ele>
        <time>2011-11-26T16:46:22Z</time>
      </trkpt>
      <trkpt lat="43.35474" lon="1.22413">
        <ele>16.072</ele>
        <time>2011-11-26T16:46:23Z</time>
      </trkpt>
      <trkpt lat="43.35481" lon="1.22408">
        <ele>15.986</ele>
        <time>2011-11-26T16:46:24Z</time>
      </trkpt>
      <trkpt lat="43.35481" lon="1.22408">
        <ele>15.829</ele>
        <time>2011-11-26T16:46:24Z</time>
      </trkpt>
      <trkpt lat="43.35497" lon="1.22396">
        <ele>15.475</ele>
        <time>2011-11-26T16:46:26Z</time>
      </trkpt>
      <trkpt lat="43.3551" lon="1.22376">
        <ele>14.797</ele>
        <time>2011-11-26T16:46:28Z</time>
      </trkpt>
      <trkpt lat="43.35514" lon="1.22363">
        <ele>13.83</ele>
        <time>2011-11-26T16:46:29Z</time>
      </trkpt>
      <trkpt lat="43.35517" lon="1.22349">
        <ele>13.255</ele>
        <time>2011-11-26T16:46:30Z</time>
      </trkpt>
      <trkpt lat="43.35519" lon="1.22335">
        <ele>12.979</ele>
        <time>2011-11-26T16:46:31Z</time>
      </trkpt>
      <trkpt lat="43.35518" lon="1.2232">
        <ele>12.543</ele>
        <time>2011-11-26T16:46:32Z</time>
      </trkpt>
      <trkpt lat="43.35515" lon="1.22305">
        <ele>11.442</ele>
        <time>2011-11-26T16:46:33Z</time>
      </trkpt>
      <trkpt lat="43.35511" lon="1.2229">
        <ele>10.7</ele>
        <time>2011-11-26T16:46:34Z</time>
      </trkpt>
      <trkpt lat="43.35507" lon="1.22275">
        <ele>10.179</ele>
        <time>2011-11-26T16:46:35Z</time>
      </trkpt>
      <trkpt lat="43.35503" lon="1.22261">
        <ele>9.633</ele>
        <time>2011-11-26T16:46:36Z</time>
      </trkpt>
      <trkpt lat="43.35498" lon="1.22246">
        <ele>8.931</ele>
        <time>2011-11-26T16:46:37Z</time>
      </trkpt>
      <trkpt lat="43.35494" lon="1.22231">
        <ele>8.81</ele>
        <time>2011-11-26T16:46:38Z</time>
      </trkpt>
      <trkpt lat="43.35493" lon="1.22216">
        <ele>9.78</ele>
        <time>2011-11-26T16:46:39Z</time>
      </trkpt>
      <trkpt lat="43.35493" lon="1.22216">
        <ele>10.472</ele>
        <time>2011-11-26T16:46:39Z</time>
      </trkpt>
      <trkpt lat="43.35499" lon="1.22187">
        <ele>12.204</ele>
        <time>2011-11-26T16:46:41Z</time>
      </trkpt>
      <trkpt lat="43.35504" lon="1.22157">
        <ele>13.103</ele>
        <time>2011-11-26T16:46:43Z</time>
      </trkpt>
      <trkpt lat="43.35507" lon="1.22141">
        <ele>14.673</ele>
        <time>2011-11-26T16:46:44Z</time>
      </trkpt>
      <trkpt lat="43.35509" lon="1.22124">
        <ele>16.769</ele>
        <time>2011-11-26T16:46:45Z</time>
      </trkpt>
      <trkpt lat="43.35511" lon="1.22109">
        <ele>18.685</ele>
        <time>2011-11-26T16:46:46Z</time>
      </trkpt>
      <trkpt lat="43.35514" lon="1.22093">
        <ele>21.138</ele>
        <time>2011-11-26T16:46:47Z</time>
      </trkpt>
      <trkpt lat="43.35517" lon="1.22078">
        <ele>23.377</ele>
        <time>2011-11-26T16:46:48Z</time>
      </trkpt>
      <trkpt lat="43.35519" lon="1.22063">
        <ele>25.174</ele>
        <time>2011-11-26T16:46:49Z</time>
      </trkpt>
      <trkpt lat="43.35522" lon="1.22047">
        <ele>26.885</ele>
        <time>2011-11-26T16:46:50Z</time>
      </trkpt>
      <trkpt lat="43.35524" lon="1.22032">
        <ele>28.584</ele>
        <time>2011-11-26T16:46:51Z</time>
      </trkpt>
      <trkpt lat="43.35526" lon="1.22016">
        <ele>30.352</ele>
        <time>2011-11-26T16:46:52Z</time>
      </trkpt>
      <trkpt lat="43.35527" lon="1.22001">
        <ele>31.407</ele>
        <time>2011-11-26T16:46:53Z</time>
      </trkpt>
      <trkpt lat="43.35526" lon="1.21985">
        <ele>32.534</ele>
        <time>2011-11-26T16:46:54Z</time>
      </trkpt>
      <trkpt lat="43.35516" lon="1.21954">
        <ele>33.947</ele>
        <time>2011-11-26T16:46:56Z</time>
      </trkpt>
      <trkpt lat="43.35516" lon="1.21954">
        <ele>35.774</ele>
        <time>2011-11-26T16:46:56Z</time>
      </trkpt>
      <trkpt lat="43.355" lon="1.21929">
        <ele>37.9</ele>
        <time>2011-11-26T16:46:58Z</time>
      </trkpt>
      <trkpt lat="43.35491" lon="1.2192">
        <ele>39.415</ele>
        <time>2011-11-26T16:46:59Z</time>
      </trkpt>
      <trkpt lat="43.3548" lon="1.21912">
        <ele>40.908</ele>
        <time>2011-11-26T16:47:00Z</time>
      </trkpt>
      <trkpt lat="43.35469" lon="1.21905">
        <ele>42.352</ele>
        <time>2011-11-26T16:47:01Z</time>
      </trkpt>
      <trkpt lat="43.35459" lon="1.21899">
        <ele>44.236</ele>
        <time>2011-11-26T16:47:02Z</time>
      </trkpt>
      <trkpt lat="43.35449" lon="1.21894">
        <ele>46.43</ele>
        <time>2011-11-26T16:47:03Z</time>
      </trkpt>
      <trkpt lat="43.35439" lon="1.21889">
        <ele>47.975</ele>
        <time>2011-11-26T16:47:04Z</time>
      </trkpt>
      <trkpt lat="43.35428" lon="1.21887">
        <ele>48.847</ele>
        <time>2011-11-26T16:47:05Z</time>
      </trkpt>
      <trkpt lat="43.35417" lon="1.21885">
        <ele>49.524</ele>
        <time>2011-11-26T16:47:06Z</time>
      </trkpt>
      <trkpt lat="43.35406" lon="1.21886">
        <ele>50.44</ele>
        <time>2011-11-26T16:47:07Z</time>
      </trkpt>
      <trkpt lat="43.35394" lon="1.21887">
        <ele>51.674</ele>
        <time>2011-11-26T16:47:08Z</time>
      </trkpt>
      <trkpt lat="43.35383" lon="1.21888">
        <ele>52.34</ele>
        <time>2011-11-26T16:47:09Z</time>
      </trkpt>
      <trkpt lat="43.35362" lon="1.21894">
        <ele>53.254</ele>
        <time>2011-11-26T16:47:11Z</time>
      </trkpt>
      <trkpt lat="43.35362" lon="1.21894">
        <ele>53.73</ele>
        <time>2011-11-26T16:47:11Z</time>
      </trkpt>
      <trkpt lat="43.35344" lon="1.21907">
        <ele>54.148</ele>
        <time>2011-11-26T16:47:13Z</time>
      </trkpt>
      <trkpt lat="43.35336" lon="1.21916">
        <ele>54.65</ele>
        <time>2011-11-26T16:47:14Z</time>
      </trkpt>
      <trkpt lat="43.35329" lon="1.21926">
        <ele>55.128</ele>
        <time>2011-11-26T16:47:15Z</time>
      </trkpt>
      <trkpt lat="43.35322" lon="1.21936">
        <ele>55.357</ele>
        <time>2011-11-26T16:47:16Z</time>
      </trkpt>
      <trkpt lat="43.35317" lon="1.21946">
        <ele>54.89</ele>
        <time>2011-11-26T16:47:17Z</time>
      </trkpt>
      <trkpt lat="43.35312" lon="1.21957">
        <ele>53.479</ele>
        <time>2011-11-26T16:47:18Z</time>
      </trkpt>
      <trkpt lat="43.35308" lon="1.21969">
        <ele>51.824</ele>
        <time>2011-11-26T16:47:19Z</time>
      </trkpt>
      <trkpt lat="43.35304" lon="1.21983">
        <ele>50.373</ele>
        <time>2011-11-26T16:47:20Z</time>
      </trkpt>
      <trkpt lat="43.35302" lon="1.21996">
        <ele>49.618</ele>
        <time>2011-11-26T16:47:21Z</time>
      </trkpt>
      <trkpt lat="43.353" lon="1.22009">
        <ele>49.238</ele>
        <time>2011-11-26T16:47:22Z</time>
      </trkpt>
      <trkpt lat="43.35297" lon="1.22022">
        <ele>49.092</ele>
        <time>2011-11-26T16:47:23Z</time>
      </trkpt>
      <trkpt lat="43.35295" lon="1.22034">
        <ele>48.687</ele>
        <time>2011-11-26T16:47:24Z</time>
      </trkpt>
      <trkpt lat="43.35286" lon="1.22059">
        <ele>48.234</ele>
        <time>2011-11-26T16:47:26Z</time>
      </trkpt>
      <trkpt lat="43.35286" lon="1.22059">
        <ele>47.796</ele>
        <time>2011-11-26T16:47:26Z</time>
      </trkpt>
      <trkpt lat="43.35271" lon="1.22078">
        <ele>47.798</ele>
        <time>2011-11-26T16:47:28Z</time>
      </trkpt>
      <trkpt lat="43.35261" lon="1.22085">
        <ele>48.158</ele>
        <time>2011-11-26T16:47:29Z</time>
      </trkpt>
      <trkpt lat="43.3525" lon="1.22088">
        <ele>48.942</ele>
        <time>2011-11-26T16:47:30Z</time>
      </trkpt>
      <trkpt lat="43.35239" lon="1.22089">
        <ele>49.553</ele>
        <time>2011-11-26T16:47:31Z</time>
      </trkpt>
      <trkpt lat="43.35228" lon="1.22087">
        <ele>50.332</ele>
        <time>2011-11-26T16:47:32Z</time>
      </trkpt>
      <trkpt lat="43.35217" lon="1.22082">
        <ele>50.94</ele>
        <time>2011-11-26T16:47:33Z</time>
      </trkpt>
      <trkpt lat="43.35207" lon="1.22074">
        <ele>51.664</ele>
        <time>2011-11-26T16:47:34Z</time>
      </trkpt>
      <trkpt lat="43.35198" lon="1.22064">
        <ele>52.55</ele>
        <time>2011-11-26T16:47:35Z</time>
      </trkpt>
      <trkpt lat="43.3519" lon="1.22052">
        <ele>53.548</ele>
        <time>2011-11-26T16:47:36Z</time>
      </trkpt>
      <trkpt lat="43.35183" lon="1.22039">
        <ele>54.829</ele>
        <time>2011-11-26T16:47:37Z</time>
      </trkpt>
      <trkpt lat="43.35183" lon="1.22039">
        <ele>55.93</ele>
        <time>2011-11-26T16:47:37Z</time>
      </trkpt>
      <trkpt lat="43.35172" lon="1.22012">
        <ele>57.192</ele>
        <time>2011-11-26T16:47:39Z</time>
      </trkpt>
      <trkpt lat="43.3517" lon="1.21996">
        <ele>58.119</ele>
        <time>2011-11-26T16:47:40Z</time>
      </trkpt>
      <trkpt lat="43.35171" lon="1.21981">
        <ele>58.653</ele>
        <time>2011-11-26T16:47:41Z</time>
      </trkpt>
      <trkpt lat="43.35176" lon="1.21951">
        <ele>58.871</ele>
        <time>2011-11-26T16:47:43Z</time>
      </trkpt>
      <trkpt lat="43.35179" lon="1.21936">
        <ele>58.754</ele>
        <time>2011-11-26T16:47:44Z</time>
      </trkpt>
      <trkpt lat="43.35181" lon="1.2192">
        <ele>58.838</ele>
        <time>2011-11-26T16:47:45Z</time>
      </trkpt>
      <trkpt lat="43.35184" lon="1.21904">
        <ele>58.945</ele>
        <time>2011-11-26T16:47:46Z</time>
      </trkpt>
      <trkpt lat="43.35188" lon="1.21889">
        <ele>58.742</ele>
        <time>2011-11-26T16:47:47Z</time>
      </trkpt>
      <trkpt lat="43.35192" lon="1.21872">
        <ele>58.525</ele>
        <time>2011-11-26T16:47:48Z</time>
      </trkpt>
      <trkpt lat="43.35196" lon="1.21856">
        <ele>58.658</ele>
        <time>2011-11-26T16:47:49Z</time>
      </trkpt>
      <trkpt lat="43.352" lon="1.2184">
        <ele>59.206</ele>
        <time>2011-11-26T16:47:50Z</time>
      </trkpt>
      <trkpt lat="43.35203" lon="1.21824">
        <ele>59.967</ele>
        <time>2011-11-26T16:47:51Z</time>
      </trkpt>
      <trkpt lat="43.35207" lon="1.2181">
        <ele>60.381</ele>
        <time>2011-11-26T16:47:52Z</time>
      </trkpt>
      <trkpt lat="43.35211" lon="1.21796">
        <ele>60.149</ele>
        <time>2011-11-26T16:47:53Z</time>
      </trkpt>
      <trkpt lat="43.35216" lon="1.21783">
        <ele>59.151</ele>
        <time>2011-11-26T16:47:54Z</time>
      </trkpt>
      <trkpt lat="43.35221" lon="1.21769">
        <ele>57.81</ele>
        <time>2011-11-26T16:47:55Z</time>
      </trkpt>
      <trkpt lat="43.35227" lon="1.21756">
        <ele>56.022</ele>
        <time>2011-11-26T16:47:56Z</time>
      </trkpt>
      <trkpt lat="43.35239" lon="1.21729">
        <ele>54.924</ele>
        <time>2011-11-26T16:47:58Z</time>
      </trkpt>
      <trkpt lat="43.35246" lon="1.21717">
        <ele>53.986</ele>
        <time>2011-11-26T16:47:59Z</time>
      </trkpt>
      <trkpt lat="43.35254" lon="1.21706">
        <ele>53.183</ele>
        <time>2011-11-26T16:48:00Z</time>
      </trkpt>
      <trkpt lat="43.35262" lon="1.21696">
        <ele>52.079</ele>
        <time>2011-11-26T16:48:01Z</time>
      </trkpt>
      <trkpt lat="43.3527" lon="1.21686">
        <ele>51.051</ele>
        <time>2011-11-26T16:48:02Z</time>
      </trkpt>
      <trkpt lat="43.35278" lon="1.21676">
        <ele>50.117</ele>
        <time>2011-11-26T16:48:03Z</time>
      </trkpt>
      <trkpt lat="43.35286" lon="1.21668">
        <ele>49.239</ele>
        <time>2011-11-26T16:48:04Z</time>
      </trkpt>
      <trkpt lat="43.35295" lon="1.21661">
        <ele>48.389</ele>
        <time>2011-11-26T16:48:05Z</time>
      </trkpt>
      <trkpt lat="43.35305" lon="1.21655">
        <ele>47.359</ele>
        <time>2011-11-26T16:48:06Z</time>
      </trkpt>
      <trkpt lat="43.35315" lon="1.2165">
        <ele>46.848</ele>
        <time>2011-11-26T16:48:07Z</time>
      </trkpt>
      <trkpt lat="43.35324" lon="1.21646">
        <ele>46.162</ele>
        <time>2011-11-26T16:48:08Z</time>
      </trkpt>
      <trkpt lat="43.35334" lon="1.21641">
        <ele>45.232</ele>
        <time>2011-11-26T16:48:09Z</time>
      </trkpt>
      <trkpt lat="43.35343" lon="1.21638">
        <ele>44.185</ele>
        <time>2011-11-26T16:48:10Z</time>
      </trkpt>
      <trkpt lat="43.35353" lon="1.21634">
        <ele>43.309</ele>
        <time>2011-11-26T16:48:11Z</time>
      </trkpt>
      <trkpt lat="43.35372" lon="1.2163">
        <ele>42.13</ele>
        <time>2011-11-26T16:48:13Z</time>
      </trkpt>
      <trkpt lat="43.35382" lon="1.21629">
        <ele>40.59</ele>
        <time>2011-11-26T16:48:14Z</time>
      </trkpt>
      <trkpt lat="43.35391" lon="1.21629">
        <ele>39.594</ele>
        <time>2011-11-26T16:48:15Z</time>
      </trkpt>
      <trkpt lat="43.35401" lon="1.21629">
        <ele>38.514</ele>
        <time>2011-11-26T16:48:16Z</time>
      </trkpt>
      <trkpt lat="43.35411" lon="1.21629">
        <ele>37.482</ele>
        <time>2011-11-26T16:48:17Z</time>
      </trkpt>
      <trkpt lat="43.35421" lon="1.21627">
        <ele>36.632</ele>
        <time>2011-11-26T16:48:18Z</time>
      </trkpt>
      <trkpt lat="43.35431" lon="1.21625">
        <ele>36.05</ele>
        <time>2011-11-26T16:48:19Z</time>
      </trkpt>
      <trkpt lat="43.35441" lon="1.21623">
        <ele>35.434</ele>
        <time>2011-11-26T16:48:20Z</time>
      </trkpt>
      <trkpt lat="43.35451" lon="1.21621">
        <ele>35.234</ele>
        <time>2011-11-26T16:48:21Z</time>
      </trkpt>
      <trkpt lat="43.35462" lon="1.21621">
        <ele>35.332</ele>
        <time>2011-11-26T16:48:22Z</time>
      </trkpt>
      <trkpt lat="43.35471" lon="1.21621">
        <ele>35.722</ele>
        <time>2011-11-26T16:48:23Z</time>
      </trkpt>
      <trkpt lat="43.35481" lon="1.21622">
        <ele>36.201</ele>
        <time>2011-11-26T16:48:24Z</time>
      </trkpt>
      <trkpt lat="43.35489" lon="1.21623">
        <ele>36.467</ele>
        <time>2011-11-26T16:48:25Z</time>
      </trkpt>
      <trkpt lat="43.35498" lon="1.21625">
        <ele>36.619</ele>
        <time>2011-11-26T16:48:26Z</time>
      </trkpt>
      <trkpt lat="43.35515" lon="1.21627">
        <ele>36.772</ele>
        <time>2011-11-26T16:48:28Z</time>
      </trkpt>
      <trkpt lat="43.35524" lon="1.21627">
        <ele>36.638</ele>
        <time>2011-11-26T16:48:29Z</time>
      </trkpt>
      <trkpt lat="43.35532" lon="1.21627">
        <ele>35.903</ele>
        <time>2011-11-26T16:48:30Z</time>
      </trkpt>
      <trkpt lat="43.35541" lon="1.21629">
        <ele>34.833</ele>
        <time>2011-11-26T16:48:31Z</time>
      </trkpt>
      <trkpt lat="43.35548" lon="1.21633">
        <ele>33.746</ele>
        <time>2011-11-26T16:48:32Z</time>
      </trkpt>
      <trkpt lat="43.35556" lon="1.21638">
        <ele>32.76</ele>
        <time>2011-11-26T16:48:33Z</time>
      </trkpt>
      <trkpt lat="43.35564" lon="1.21644">
        <ele>31.616</ele>
        <time>2011-11-26T16:48:34Z</time>
      </trkpt>
      <trkpt lat="43.35571" lon="1.2165">
        <ele>30.438</ele>
        <time>2011-11-26T16:48:35Z</time>
      </trkpt>
      <trkpt lat="43.35578" lon="1.21657">
        <ele>29.763</ele>
        <time>2011-11-26T16:48:36Z</time>
      </trkpt>
      <trkpt lat="43.35584" lon="1.21666">
        <ele>28.894</ele>
        <time>2011-11-26T16:48:37Z</time>
      </trkpt>
      <trkpt lat="43.35589" lon="1.21676">
        <ele>27.689</ele>
        <time>2011-11-26T16:48:38Z</time>
      </trkpt>
      <trkpt lat="43.35594" lon="1.21686">
        <ele>26.44</ele>
        <time>2011-11-26T16:48:39Z</time>
      </trkpt>
      <trkpt lat="43.35599" lon="1.21697">
        <ele>25.668</ele>
        <time>2011-11-26T16:48:40Z</time>
      </trkpt>
      <trkpt lat="43.35602" lon="1.21708">
        <ele>25.043</ele>
        <time>2011-11-26T16:48:41Z</time>
      </trkpt>
      <trkpt lat="43.35604" lon="1.2172">
        <ele>24.695</ele>
        <time>2011-11-26T16:48:42Z</time>
      </trkpt>
      <trkpt lat="43.35604" lon="1.21732">
        <ele>24.226</ele>
        <time>2011-11-26T16:48:43Z</time>
      </trkpt>
      <trkpt lat="43.35601" lon="1.21757">
        <ele>23.083</ele>
        <time>2011-11-26T16:48:45Z</time>
      </trkpt>
      <trkpt lat="43.35598" lon="1.2177">
        <ele>22.009</ele>
        <time>2011-11-26T16:48:46Z</time>
      </trkpt>
      <trkpt lat="43.35598" lon="1.2177">
        <ele>21.571</ele>
        <time>2011-11-26T16:48:46Z</time>
      </trkpt>
      <trkpt lat="43.3559" lon="1.21793">
        <ele>21.443</ele>
        <time>2011-11-26T16:48:48Z</time>
      </trkpt>
      <trkpt lat="43.35585" lon="1.21803">
        <ele>21.278</ele>
        <time>2011-11-26T16:48:49Z</time>
      </trkpt>
      <trkpt lat="43.35582" lon="1.21814">
        <ele>20.582</ele>
        <time>2011-11-26T16:48:50Z</time>
      </trkpt>
      <trkpt lat="43.35579" lon="1.21825">
        <ele>19.055</ele>
        <time>2011-11-26T16:48:51Z</time>
      </trkpt>
      <trkpt lat="43.35576" lon="1.21836">
        <ele>18.221</ele>
        <time>2011-11-26T16:48:52Z</time>
      </trkpt>
      <trkpt lat="43.35573" lon="1.21846">
        <ele>17.949</ele>
        <time>2011-11-26T16:48:53Z</time>
      </trkpt>
      <trkpt lat="43.35569" lon="1.21856">
        <ele>17.392</ele>
        <time>2011-11-26T16:48:54Z</time>
      </trkpt>
      <trkpt lat="43.35566" lon="1.21865">
        <ele>15.347</ele>
        <time>2011-11-26T16:48:55Z</time>
      </trkpt>
      <trkpt lat="43.35563" lon="1.21876">
        <ele>13.3</ele>
        <time>2011-11-26T16:48:56Z</time>
      </trkpt>
      <trkpt lat="43.3556" lon="1.21886">
        <ele>11.022</ele>
        <time>2011-11-26T16:48:57Z</time>
      </trkpt>
      <trkpt lat="43.35556" lon="1.21897">
        <ele>9.254</ele>
        <time>2011-11-26T16:48:58Z</time>
      </trkpt>
      <trkpt lat="43.35553" lon="1.21908">
        <ele>7.339</ele>
        <time>2011-11-26T16:48:59Z</time>
      </trkpt>
      <trkpt lat="43.35553" lon="1.21908">
        <ele>5.337</ele>
        <time>2011-11-26T16:48:59Z</time>
      </trkpt>
      <trkpt lat="43.35548" lon="1.21928">
        <ele>3.768</ele>
        <time>2011-11-26T16:49:01Z</time>
      </trkpt>
      <trkpt lat="43.35541" lon="1.21947">
        <ele>2.777</ele>
        <time>2011-11-26T16:49:03Z</time>
      </trkpt>
      <trkpt lat="43.35538" lon="1.21954">
        <ele>1.931</ele>
        <time>2011-11-26T16:49:04Z</time>
      </trkpt>
      <trkpt lat="43.35536" lon="1.2196">
        <ele>1.625</ele>
        <time>2011-11-26T16:49:05Z</time>
      </trkpt>
      <trkpt lat="43.35535" lon="1.21963">
        <ele>1.475</ele>
        <time>2011-11-26T16:49:06Z</time>
      </trkpt>
      <trkpt lat="43.35534" lon="1.21964">
        <ele>1.555</ele>
        <time>2011-11-26T16:49:07Z</time>
      </trkpt>
      <trkpt lat="43.35534" lon="1.21964">
        <ele>1.685</ele>
        <time>2011-11-26T16:49:08Z</time>
      </trkpt>
      <trkpt lat="43.35534" lon="1.21964">
        <ele>1.777</ele>
        <time>2011-11-26T16:49:09Z</time>
      </trkpt>
      <trkpt lat="43.35534" lon="1.21963">
        <ele>1.811</ele>
        <time>2011-11-26T16:49:10Z</time>
      </trkpt>
      <trkpt lat="43.35534" lon="1.21963">
        <ele>1.808</ele>
        <time>2011-11-26T16:49:11Z</time>
      </trkpt>
      <trkpt lat="43.35534" lon="1.21963">
        <ele>1.799</ele>
        <time>2011-11-26T16:49:12Z</time>
      </trkpt>
      <trkpt lat="43.35534" lon="1.21963">
        <ele>1.787</ele>
        <time>2011-11-26T16:49:13Z</time>
      </trkpt>
      <trkpt lat="43.35534" lon="1.21963">
        <ele>1.759</ele>
        <time>2011-11-26T16:49:14Z</time>
      </trkpt>
      <trkpt lat="43.35534" lon="1.21963">
        <ele>1.703</ele>
        <time>2011-11-26T16:49:15Z</time>
      </trkpt>
      <trkpt lat="43.35534" lon="1.21963">
        <ele>1.714</ele>
        <time>2011-11-26T16:49:16Z</time>
      </trkpt>
      <trkpt lat="43.35534" lon="1.21963">
        <ele>1.728</ele>
        <time>2011-11-26T16:49:18Z</time>
      </trkpt>
      <trkpt lat="43.35534" lon="1.21963">
        <ele>1.724</ele>
        <time>2011-11-26T16:49:19Z</time>
      </trkpt>
      <trkpt lat="43.35534" lon="1.21963">
        <ele>1.712</ele>
        <time>2011-11-26T16:49:20Z</time>
      </trkpt>
      <trkpt lat="43.35534" lon="1.21963">
        <ele>1.714</ele>
        <time>2011-11-26T16:49:21Z</time>
      </trkpt>
      <trkpt lat="43.35533" lon="1.21963">
        <ele>1.747</ele>
        <time>2011-11-26T16:49:22Z</time>
      </trkpt>
      <trkpt lat="43.35533" lon="1.21963">
        <ele>1.757</ele>
        <time>2011-11-26T16:49:23Z</time>
      </trkpt>
      <trkpt lat="43.35533" lon="1.21963">
        <ele>1.761</ele>
        <time>2011-11-26T16:49:24Z</time>
      </trkpt>
      <trkpt lat="43.35533" lon="1.21963">
        <ele>1.776</ele>
        <time>2011-11-26T16:49:25Z</time>
      </trkpt>
      <trkpt lat="43.35533" lon="1.21963">
        <ele>1.79</ele>
        <time>2011-11-26T16:49:26Z</time>
      </trkpt>
      <trkpt lat="43.35533" lon="1.21963">
        <ele>1.796</ele>
        <time>2011-11-26T16:49:27Z</time>
      </trkpt>
      <trkpt lat="43.35533" lon="1.21963">
        <ele>1.777</ele>
        <time>2011-11-26T16:49:28Z</time>
      </trkpt>
      <trkpt lat="43.35533" lon="1.21963">
        <ele>1.794</ele>
        <time>2011-11-26T16:49:29Z</time>
      </trkpt>
      <trkpt lat="43.35533" lon="1.21963">
        <ele>1.816</ele>
        <time>2011-11-26T16:49:31Z</time>
      </trkpt>
      <trkpt lat="43.35533" lon="1.21963">
        <ele>1.819</ele>
        <time>2011-11-26T16:49:31Z</time>
      </trkpt>
      <trkpt lat="43.35533" lon="1.21963">
        <ele>1.834</ele>
        <time>2011-11-26T16:49:33Z</time>
      </trkpt>
      <trkpt lat="43.35533" lon="1.21963">
        <ele>1.845</ele>
        <time>2011-11-26T16:49:34Z</time>
      </trkpt>
      <trkpt lat="43.35533" lon="1.21963">
        <ele>1.862</ele>
        <time>2011-11-26T16:49:35Z</time>
      </trkpt>
      <trkpt lat="43.35533" lon="1.21963">
        <ele>1.849</ele>
        <time>2011-11-26T16:49:36Z</time>
      </trkpt>
      <trkpt lat="43.35533" lon="1.21963">
        <ele>1.862</ele>
        <time>2011-11-26T16:49:37Z</time>
      </trkpt>
      <trkpt lat="43.35533" lon="1.21963">
        <ele>1.887</ele>
        <time>2011-11-26T16:49:38Z</time>
      </trkpt>
      <trkpt lat="43.35533" lon="1.21963">
        <ele>1.885</ele>
        <time>2011-11-26T16:49:39Z</time>
      </trkpt>
      <trkpt lat="43.35533" lon="1.21963">
        <ele>1.872</ele>
        <time>2011-11-26T16:49:40Z</time>
      </trkpt>
      <trkpt lat="43.35533" lon="1.21962">
        <ele>1.866</ele>
        <time>2011-11-26T16:49:41Z</time>
      </trkpt>
      <trkpt lat="43.35533" lon="1.21962">
        <ele>1.918</ele>
        <time>2011-11-26T16:49:42Z</time>
      </trkpt>
      <trkpt lat="43.35534" lon="1.21962">
        <ele>1.977</ele>
        <time>2011-11-26T16:49:43Z</time>
      </trkpt>
    </trkseg>
  </trk>
</gpx>